<?xml version="1.0" encoding="UTF-8" standalone="no" ?>
<gpx xmlns="http://www.topografix.com/GPX/1/1" xmlns:xsi="http://www.w3.org/2001/XMLSchema-instance" xsi:schemaLocation="http://www.topografix.com/GPX/1/1 http://www.topografix.com/GPX/1/1/gpx.xsd" version="1.1" creator="VisuGPX - https://www.visugpx.com">
  <metadata>
    <name>Via-rhôna de Lyon à Sète</name>
    <desc><![CDATA[Via Rhona de Lyon à Sète en 7 jours soit un total de 594 km]]></desc>
  </metadata>
  <trk>
    <name><![CDATA[2019-05-30 08:22:51]]></name>
    <trkseg>
      <trkpt lat="43.80826" lon="4.65515">
        <ele>24.25</ele>
        <time>2019-05-30T06:22:57.000Z</time>
      </trkpt>
      <trkpt lat="43.80834" lon="4.65509">
        <ele>19.46</ele>
        <time>2019-05-30T06:23:40.000Z</time>
      </trkpt>
      <trkpt lat="43.80833" lon="4.65496">
        <ele>20.61</ele>
        <time>2019-05-30T06:23:46.000Z</time>
      </trkpt>
      <trkpt lat="43.8082" lon="4.65496">
        <ele>18.14</ele>
        <time>2019-05-30T06:23:51.000Z</time>
      </trkpt>
      <trkpt lat="43.8081" lon="4.65504">
        <ele>16.86</ele>
        <time>2019-05-30T06:23:56.000Z</time>
      </trkpt>
      <trkpt lat="43.808" lon="4.65502">
        <ele>15.73</ele>
        <time>2019-05-30T06:26:19.000Z</time>
      </trkpt>
      <trkpt lat="43.80792" lon="4.65512">
        <ele>16.79</ele>
        <time>2019-05-30T06:26:24.000Z</time>
      </trkpt>
      <trkpt lat="43.80782" lon="4.65524">
        <ele>14.87</ele>
        <time>2019-05-30T06:26:29.000Z</time>
      </trkpt>
      <trkpt lat="43.80771" lon="4.65536">
        <ele>15.56</ele>
        <time>2019-05-30T06:26:34.000Z</time>
      </trkpt>
      <trkpt lat="43.80776" lon="4.65559">
        <ele>13.65</ele>
        <time>2019-05-30T06:26:39.000Z</time>
      </trkpt>
      <trkpt lat="43.80796" lon="4.65572">
        <ele>13.79</ele>
        <time>2019-05-30T06:26:44.000Z</time>
      </trkpt>
      <trkpt lat="43.80815" lon="4.65569">
        <ele>15.86</ele>
        <time>2019-05-30T06:26:49.000Z</time>
      </trkpt>
      <trkpt lat="43.80826" lon="4.65568">
        <ele>15.12</ele>
        <time>2019-05-30T06:26:54.000Z</time>
      </trkpt>
      <trkpt lat="43.80836" lon="4.65568">
        <ele>15.5</ele>
        <time>2019-05-30T06:26:59.000Z</time>
      </trkpt>
      <trkpt lat="43.80846" lon="4.65569">
        <ele>16.74</ele>
        <time>2019-05-30T06:27:05.000Z</time>
      </trkpt>
      <trkpt lat="43.80837" lon="4.65579">
        <ele>17.81</ele>
        <time>2019-05-30T06:27:14.000Z</time>
      </trkpt>
      <trkpt lat="43.80813" lon="4.65584">
        <ele>16.87</ele>
        <time>2019-05-30T06:27:19.000Z</time>
      </trkpt>
      <trkpt lat="43.80787" lon="4.65591">
        <ele>15.82</ele>
        <time>2019-05-30T06:27:24.000Z</time>
      </trkpt>
      <trkpt lat="43.80759" lon="4.65597">
        <ele>15.56</ele>
        <time>2019-05-30T06:27:29.000Z</time>
      </trkpt>
      <trkpt lat="43.80729" lon="4.65586">
        <ele>14.87</ele>
        <time>2019-05-30T06:27:34.000Z</time>
      </trkpt>
      <trkpt lat="43.80703" lon="4.65569">
        <ele>12.83</ele>
        <time>2019-05-30T06:27:39.000Z</time>
      </trkpt>
      <trkpt lat="43.80676" lon="4.6556">
        <ele>13.74</ele>
        <time>2019-05-30T06:27:44.000Z</time>
      </trkpt>
      <trkpt lat="43.80645" lon="4.6555">
        <ele>14.99</ele>
        <time>2019-05-30T06:27:49.000Z</time>
      </trkpt>
      <trkpt lat="43.80617" lon="4.65537">
        <ele>12.89</ele>
        <time>2019-05-30T06:27:54.000Z</time>
      </trkpt>
      <trkpt lat="43.80602" lon="4.65507">
        <ele>12.74</ele>
        <time>2019-05-30T06:27:59.000Z</time>
      </trkpt>
      <trkpt lat="43.80589" lon="4.65475">
        <ele>12.99</ele>
        <time>2019-05-30T06:28:04.000Z</time>
      </trkpt>
      <trkpt lat="43.8056" lon="4.65464">
        <ele>13.81</ele>
        <time>2019-05-30T06:28:09.000Z</time>
      </trkpt>
      <trkpt lat="43.80531" lon="4.65467">
        <ele>13.56</ele>
        <time>2019-05-30T06:28:14.000Z</time>
      </trkpt>
      <trkpt lat="43.80506" lon="4.65469">
        <ele>15.79</ele>
        <time>2019-05-30T06:28:19.000Z</time>
      </trkpt>
      <trkpt lat="43.80489" lon="4.6546">
        <ele>16.74</ele>
        <time>2019-05-30T06:28:24.000Z</time>
      </trkpt>
      <trkpt lat="43.80477" lon="4.65443">
        <ele>17.74</ele>
        <time>2019-05-30T06:28:29.000Z</time>
      </trkpt>
      <trkpt lat="43.80473" lon="4.65421">
        <ele>16.81</ele>
        <time>2019-05-30T06:28:34.000Z</time>
      </trkpt>
      <trkpt lat="43.80475" lon="4.65393">
        <ele>18.54</ele>
        <time>2019-05-30T06:28:39.000Z</time>
      </trkpt>
      <trkpt lat="43.80475" lon="4.65365">
        <ele>18.81</ele>
        <time>2019-05-30T06:28:44.000Z</time>
      </trkpt>
      <trkpt lat="43.80475" lon="4.65338">
        <ele>19.8</ele>
        <time>2019-05-30T06:28:49.000Z</time>
      </trkpt>
      <trkpt lat="43.80475" lon="4.65312">
        <ele>20.74</ele>
        <time>2019-05-30T06:28:54.000Z</time>
      </trkpt>
      <trkpt lat="43.80475" lon="4.65286">
        <ele>20.87</ele>
        <time>2019-05-30T06:28:59.000Z</time>
      </trkpt>
      <trkpt lat="43.80475" lon="4.6526">
        <ele>21.8</ele>
        <time>2019-05-30T06:29:04.000Z</time>
      </trkpt>
      <trkpt lat="43.80474" lon="4.65233">
        <ele>22.79</ele>
        <time>2019-05-30T06:29:09.000Z</time>
      </trkpt>
      <trkpt lat="43.80475" lon="4.65203">
        <ele>23.81</ele>
        <time>2019-05-30T06:29:14.000Z</time>
      </trkpt>
      <trkpt lat="43.80474" lon="4.65173">
        <ele>23.81</ele>
        <time>2019-05-30T06:29:19.000Z</time>
      </trkpt>
      <trkpt lat="43.80472" lon="4.6514">
        <ele>22.87</ele>
        <time>2019-05-30T06:29:24.000Z</time>
      </trkpt>
      <trkpt lat="43.80473" lon="4.65107">
        <ele>22.57</ele>
        <time>2019-05-30T06:29:29.000Z</time>
      </trkpt>
      <trkpt lat="43.80472" lon="4.65071">
        <ele>22.06</ele>
        <time>2019-05-30T06:29:34.000Z</time>
      </trkpt>
      <trkpt lat="43.80472" lon="4.65033">
        <ele>20.87</ele>
        <time>2019-05-30T06:29:39.000Z</time>
      </trkpt>
      <trkpt lat="43.80471" lon="4.64992">
        <ele>19.82</ele>
        <time>2019-05-30T06:29:44.000Z</time>
      </trkpt>
      <trkpt lat="43.80471" lon="4.6495">
        <ele>18.81</ele>
        <time>2019-05-30T06:29:49.000Z</time>
      </trkpt>
      <trkpt lat="43.8047" lon="4.64913">
        <ele>18.79</ele>
        <time>2019-05-30T06:29:54.000Z</time>
      </trkpt>
      <trkpt lat="43.80478" lon="4.64894">
        <ele>18.81</ele>
        <time>2019-05-30T06:29:59.000Z</time>
      </trkpt>
      <trkpt lat="43.80488" lon="4.64895">
        <ele>19.81</ele>
        <time>2019-05-30T06:30:04.000Z</time>
      </trkpt>
      <trkpt lat="43.80479" lon="4.64888">
        <ele>22.81</ele>
        <time>2019-05-30T06:31:05.000Z</time>
      </trkpt>
      <trkpt lat="43.80469" lon="4.64879">
        <ele>21.07</ele>
        <time>2019-05-30T06:31:10.000Z</time>
      </trkpt>
      <trkpt lat="43.80475" lon="4.64846">
        <ele>19.06</ele>
        <time>2019-05-30T06:31:15.000Z</time>
      </trkpt>
      <trkpt lat="43.80483" lon="4.64809">
        <ele>16.88</ele>
        <time>2019-05-30T06:31:20.000Z</time>
      </trkpt>
      <trkpt lat="43.80491" lon="4.64774">
        <ele>14.83</ele>
        <time>2019-05-30T06:31:25.000Z</time>
      </trkpt>
      <trkpt lat="43.80499" lon="4.6474">
        <ele>14.98</ele>
        <time>2019-05-30T06:31:30.000Z</time>
      </trkpt>
      <trkpt lat="43.80505" lon="4.64724">
        <ele>13.81</ele>
        <time>2019-05-30T06:31:35.000Z</time>
      </trkpt>
      <trkpt lat="43.80513" lon="4.64716">
        <ele>15.06</ele>
        <time>2019-05-30T06:31:42.000Z</time>
      </trkpt>
      <trkpt lat="43.80515" lon="4.64703">
        <ele>10.39</ele>
        <time>2019-05-30T06:32:21.000Z</time>
      </trkpt>
      <trkpt lat="43.80524" lon="4.64688">
        <ele>7.81</ele>
        <time>2019-05-30T06:32:26.000Z</time>
      </trkpt>
      <trkpt lat="43.80533" lon="4.64671">
        <ele>10.55</ele>
        <time>2019-05-30T06:32:31.000Z</time>
      </trkpt>
      <trkpt lat="43.80539" lon="4.64657">
        <ele>11.8</ele>
        <time>2019-05-30T06:32:36.000Z</time>
      </trkpt>
      <trkpt lat="43.80542" lon="4.64645">
        <ele>13.82</ele>
        <time>2019-05-30T06:32:42.000Z</time>
      </trkpt>
      <trkpt lat="43.80543" lon="4.64631">
        <ele>12.06</ele>
        <time>2019-05-30T06:32:47.000Z</time>
      </trkpt>
      <trkpt lat="43.80547" lon="4.64615">
        <ele>10.82</ele>
        <time>2019-05-30T06:32:52.000Z</time>
      </trkpt>
      <trkpt lat="43.80549" lon="4.64599">
        <ele>10.06</ele>
        <time>2019-05-30T06:32:57.000Z</time>
      </trkpt>
      <trkpt lat="43.8055" lon="4.64584">
        <ele>10.56</ele>
        <time>2019-05-30T06:33:02.000Z</time>
      </trkpt>
      <trkpt lat="43.80553" lon="4.64569">
        <ele>12.04</ele>
        <time>2019-05-30T06:33:08.000Z</time>
      </trkpt>
      <trkpt lat="43.80555" lon="4.64554">
        <ele>12.56</ele>
        <time>2019-05-30T06:33:13.000Z</time>
      </trkpt>
      <trkpt lat="43.80557" lon="4.64539">
        <ele>12.62</ele>
        <time>2019-05-30T06:33:18.000Z</time>
      </trkpt>
      <trkpt lat="43.80559" lon="4.64526">
        <ele>11.82</ele>
        <time>2019-05-30T06:33:23.000Z</time>
      </trkpt>
      <trkpt lat="43.8056" lon="4.64512">
        <ele>11.26</ele>
        <time>2019-05-30T06:33:30.000Z</time>
      </trkpt>
      <trkpt lat="43.80561" lon="4.64499">
        <ele>12.8</ele>
        <time>2019-05-30T06:33:36.000Z</time>
      </trkpt>
      <trkpt lat="43.80563" lon="4.64486">
        <ele>14.55</ele>
        <time>2019-05-30T06:33:43.000Z</time>
      </trkpt>
      <trkpt lat="43.80563" lon="4.64474">
        <ele>12.87</ele>
        <time>2019-05-30T06:33:48.000Z</time>
      </trkpt>
      <trkpt lat="43.80566" lon="4.64461">
        <ele>13.8</ele>
        <time>2019-05-30T06:33:54.000Z</time>
      </trkpt>
      <trkpt lat="43.80567" lon="4.64447">
        <ele>14.56</ele>
        <time>2019-05-30T06:34:00.000Z</time>
      </trkpt>
      <trkpt lat="43.80571" lon="4.64436">
        <ele>13.87</ele>
        <time>2019-05-30T06:34:06.000Z</time>
      </trkpt>
      <trkpt lat="43.80573" lon="4.64423">
        <ele>18.73</ele>
        <time>2019-05-30T06:34:14.000Z</time>
      </trkpt>
      <trkpt lat="43.80577" lon="4.6441">
        <ele>15.81</ele>
        <time>2019-05-30T06:34:21.000Z</time>
      </trkpt>
      <trkpt lat="43.80577" lon="4.64397">
        <ele>16.49</ele>
        <time>2019-05-30T06:34:28.000Z</time>
      </trkpt>
      <trkpt lat="43.80578" lon="4.64385">
        <ele>15.04</ele>
        <time>2019-05-30T06:34:36.000Z</time>
      </trkpt>
      <trkpt lat="43.80581" lon="4.64372">
        <ele>13.12</ele>
        <time>2019-05-30T06:34:44.000Z</time>
      </trkpt>
      <trkpt lat="43.80581" lon="4.6436">
        <ele>15.77</ele>
        <time>2019-05-30T06:34:55.000Z</time>
      </trkpt>
      <trkpt lat="43.80584" lon="4.64348">
        <ele>13.82</ele>
        <time>2019-05-30T06:35:03.000Z</time>
      </trkpt>
      <trkpt lat="43.80585" lon="4.64334">
        <ele>14.55</ele>
        <time>2019-05-30T06:35:11.000Z</time>
      </trkpt>
      <trkpt lat="43.80588" lon="4.6432">
        <ele>15.62</ele>
        <time>2019-05-30T06:35:18.000Z</time>
      </trkpt>
      <trkpt lat="43.80591" lon="4.64307">
        <ele>14.82</ele>
        <time>2019-05-30T06:35:23.000Z</time>
      </trkpt>
      <trkpt lat="43.80594" lon="4.64293">
        <ele>13.3</ele>
        <time>2019-05-30T06:35:29.000Z</time>
      </trkpt>
      <trkpt lat="43.80596" lon="4.6428">
        <ele>11.55</ele>
        <time>2019-05-30T06:35:35.000Z</time>
      </trkpt>
      <trkpt lat="43.80593" lon="4.64268">
        <ele>11.86</ele>
        <time>2019-05-30T06:35:42.000Z</time>
      </trkpt>
      <trkpt lat="43.80597" lon="4.64255">
        <ele>12.73</ele>
        <time>2019-05-30T06:35:50.000Z</time>
      </trkpt>
      <trkpt lat="43.80599" lon="4.6424">
        <ele>13.55</ele>
        <time>2019-05-30T06:35:57.000Z</time>
      </trkpt>
      <trkpt lat="43.80604" lon="4.64225">
        <ele>12.81</ele>
        <time>2019-05-30T06:36:02.000Z</time>
      </trkpt>
      <trkpt lat="43.80606" lon="4.64205">
        <ele>11.81</ele>
        <time>2019-05-30T06:36:07.000Z</time>
      </trkpt>
      <trkpt lat="43.80606" lon="4.64187">
        <ele>11.82</ele>
        <time>2019-05-30T06:36:12.000Z</time>
      </trkpt>
      <trkpt lat="43.80608" lon="4.64171">
        <ele>12.73</ele>
        <time>2019-05-30T06:36:17.000Z</time>
      </trkpt>
      <trkpt lat="43.8061" lon="4.64156">
        <ele>12.05</ele>
        <time>2019-05-30T06:36:22.000Z</time>
      </trkpt>
      <trkpt lat="43.80612" lon="4.64143">
        <ele>11.8</ele>
        <time>2019-05-30T06:36:28.000Z</time>
      </trkpt>
      <trkpt lat="43.80613" lon="4.6413">
        <ele>10.88</ele>
        <time>2019-05-30T06:36:35.000Z</time>
      </trkpt>
      <trkpt lat="43.80616" lon="4.64115">
        <ele>13.56</ele>
        <time>2019-05-30T06:36:44.000Z</time>
      </trkpt>
      <trkpt lat="43.80618" lon="4.64098">
        <ele>13.05</ele>
        <time>2019-05-30T06:36:49.000Z</time>
      </trkpt>
      <trkpt lat="43.80621" lon="4.64084">
        <ele>13.8</ele>
        <time>2019-05-30T06:36:54.000Z</time>
      </trkpt>
      <trkpt lat="43.80623" lon="4.64071">
        <ele>14.99</ele>
        <time>2019-05-30T06:37:04.000Z</time>
      </trkpt>
      <trkpt lat="43.80625" lon="4.64056">
        <ele>14.82</ele>
        <time>2019-05-30T06:37:10.000Z</time>
      </trkpt>
      <trkpt lat="43.80627" lon="4.64042">
        <ele>12.13</ele>
        <time>2019-05-30T06:37:15.000Z</time>
      </trkpt>
      <trkpt lat="43.80629" lon="4.64027">
        <ele>12.76</ele>
        <time>2019-05-30T06:37:20.000Z</time>
      </trkpt>
      <trkpt lat="43.8063" lon="4.64015">
        <ele>15.77</ele>
        <time>2019-05-30T06:37:25.000Z</time>
      </trkpt>
      <trkpt lat="43.80631" lon="4.64002">
        <ele>15.76</ele>
        <time>2019-05-30T06:37:30.000Z</time>
      </trkpt>
      <trkpt lat="43.80632" lon="4.6399">
        <ele>14.8</ele>
        <time>2019-05-30T06:37:36.000Z</time>
      </trkpt>
      <trkpt lat="43.80634" lon="4.63976">
        <ele>15.82</ele>
        <time>2019-05-30T06:37:41.000Z</time>
      </trkpt>
      <trkpt lat="43.80636" lon="4.63962">
        <ele>16.79</ele>
        <time>2019-05-30T06:37:46.000Z</time>
      </trkpt>
      <trkpt lat="43.80639" lon="4.63948">
        <ele>15.8</ele>
        <time>2019-05-30T06:37:51.000Z</time>
      </trkpt>
      <trkpt lat="43.8064" lon="4.63934">
        <ele>15.57</ele>
        <time>2019-05-30T06:37:56.000Z</time>
      </trkpt>
      <trkpt lat="43.80643" lon="4.6392">
        <ele>14.81</ele>
        <time>2019-05-30T06:38:01.000Z</time>
      </trkpt>
      <trkpt lat="43.80644" lon="4.63904">
        <ele>13.8</ele>
        <time>2019-05-30T06:38:06.000Z</time>
      </trkpt>
      <trkpt lat="43.80646" lon="4.63891">
        <ele>12.87</ele>
        <time>2019-05-30T06:38:12.000Z</time>
      </trkpt>
      <trkpt lat="43.80649" lon="4.63878">
        <ele>12.8</ele>
        <time>2019-05-30T06:38:17.000Z</time>
      </trkpt>
      <trkpt lat="43.80654" lon="4.63865">
        <ele>13.61</ele>
        <time>2019-05-30T06:38:22.000Z</time>
      </trkpt>
      <trkpt lat="43.8066" lon="4.6385">
        <ele>13.8</ele>
        <time>2019-05-30T06:38:27.000Z</time>
      </trkpt>
      <trkpt lat="43.8067" lon="4.63842">
        <ele>12.81</ele>
        <time>2019-05-30T06:38:32.000Z</time>
      </trkpt>
      <trkpt lat="43.80679" lon="4.63836">
        <ele>14.41</ele>
        <time>2019-05-30T06:38:37.000Z</time>
      </trkpt>
      <trkpt lat="43.80688" lon="4.63832">
        <ele>17.3</ele>
        <time>2019-05-30T06:38:43.000Z</time>
      </trkpt>
      <trkpt lat="43.80698" lon="4.63834">
        <ele>16.75</ele>
        <time>2019-05-30T06:38:48.000Z</time>
      </trkpt>
      <trkpt lat="43.80707" lon="4.63837">
        <ele>18.05</ele>
        <time>2019-05-30T06:39:16.000Z</time>
      </trkpt>
      <trkpt lat="43.80711" lon="4.63823">
        <ele>19.72</ele>
        <time>2019-05-30T06:39:45.000Z</time>
      </trkpt>
      <trkpt lat="43.80694" lon="4.63815">
        <ele>18.82</ele>
        <time>2019-05-30T06:39:50.000Z</time>
      </trkpt>
      <trkpt lat="43.80677" lon="4.63817">
        <ele>18.8</ele>
        <time>2019-05-30T06:39:55.000Z</time>
      </trkpt>
      <trkpt lat="43.80662" lon="4.63814">
        <ele>18.8</ele>
        <time>2019-05-30T06:40:00.000Z</time>
      </trkpt>
      <trkpt lat="43.80648" lon="4.6381">
        <ele>17.82</ele>
        <time>2019-05-30T06:40:05.000Z</time>
      </trkpt>
      <trkpt lat="43.80634" lon="4.63807">
        <ele>16.87</ele>
        <time>2019-05-30T06:40:10.000Z</time>
      </trkpt>
      <trkpt lat="43.80621" lon="4.63806">
        <ele>16.05</ele>
        <time>2019-05-30T06:40:15.000Z</time>
      </trkpt>
      <trkpt lat="43.80612" lon="4.63807">
        <ele>13.8</ele>
        <time>2019-05-30T06:40:26.000Z</time>
      </trkpt>
      <trkpt lat="43.80604" lon="4.638">
        <ele>12.82</ele>
        <time>2019-05-30T06:40:45.000Z</time>
      </trkpt>
      <trkpt lat="43.80589" lon="4.638">
        <ele>13.05</ele>
        <time>2019-05-30T06:40:50.000Z</time>
      </trkpt>
      <trkpt lat="43.80572" lon="4.63799">
        <ele>12.8</ele>
        <time>2019-05-30T06:40:55.000Z</time>
      </trkpt>
      <trkpt lat="43.80555" lon="4.63796">
        <ele>11.87</ele>
        <time>2019-05-30T06:41:00.000Z</time>
      </trkpt>
      <trkpt lat="43.80539" lon="4.63774">
        <ele>10.06</ele>
        <time>2019-05-30T06:41:05.000Z</time>
      </trkpt>
      <trkpt lat="43.80525" lon="4.63744">
        <ele>12.99</ele>
        <time>2019-05-30T06:41:10.000Z</time>
      </trkpt>
      <trkpt lat="43.80509" lon="4.63709">
        <ele>8.89</ele>
        <time>2019-05-30T06:41:15.000Z</time>
      </trkpt>
      <trkpt lat="43.80492" lon="4.63675">
        <ele>6.88</ele>
        <time>2019-05-30T06:41:20.000Z</time>
      </trkpt>
      <trkpt lat="43.80474" lon="4.63646">
        <ele>7.79</ele>
        <time>2019-05-30T06:41:25.000Z</time>
      </trkpt>
      <trkpt lat="43.8045" lon="4.63623">
        <ele>8.76</ele>
        <time>2019-05-30T06:41:30.000Z</time>
      </trkpt>
      <trkpt lat="43.80429" lon="4.63602">
        <ele>9.8</ele>
        <time>2019-05-30T06:41:35.000Z</time>
      </trkpt>
      <trkpt lat="43.80408" lon="4.63582">
        <ele>10.74</ele>
        <time>2019-05-30T06:41:40.000Z</time>
      </trkpt>
      <trkpt lat="43.80389" lon="4.63555">
        <ele>10.8</ele>
        <time>2019-05-30T06:41:45.000Z</time>
      </trkpt>
      <trkpt lat="43.80363" lon="4.63538">
        <ele>10.8</ele>
        <time>2019-05-30T06:41:50.000Z</time>
      </trkpt>
      <trkpt lat="43.80338" lon="4.63524">
        <ele>10.81</ele>
        <time>2019-05-30T06:41:55.000Z</time>
      </trkpt>
      <trkpt lat="43.80316" lon="4.63504">
        <ele>8.81</ele>
        <time>2019-05-30T06:42:00.000Z</time>
      </trkpt>
      <trkpt lat="43.80294" lon="4.63478">
        <ele>5.84</ele>
        <time>2019-05-30T06:42:05.000Z</time>
      </trkpt>
      <trkpt lat="43.80273" lon="4.63449">
        <ele>5.85</ele>
        <time>2019-05-30T06:42:10.000Z</time>
      </trkpt>
      <trkpt lat="43.80251" lon="4.63421">
        <ele>4.87</ele>
        <time>2019-05-30T06:42:15.000Z</time>
      </trkpt>
      <trkpt lat="43.80228" lon="4.63398">
        <ele>4.81</ele>
        <time>2019-05-30T06:42:20.000Z</time>
      </trkpt>
      <trkpt lat="43.80209" lon="4.63378">
        <ele>3.81</ele>
        <time>2019-05-30T06:42:25.000Z</time>
      </trkpt>
      <trkpt lat="43.80198" lon="4.63357">
        <ele>2.82</ele>
        <time>2019-05-30T06:42:30.000Z</time>
      </trkpt>
      <trkpt lat="43.80185" lon="4.63337">
        <ele>1.81</ele>
        <time>2019-05-30T06:42:35.000Z</time>
      </trkpt>
      <trkpt lat="43.80171" lon="4.63314">
        <ele>0.87</ele>
        <time>2019-05-30T06:42:40.000Z</time>
      </trkpt>
      <trkpt lat="43.80159" lon="4.63286">
        <ele>2.74</ele>
        <time>2019-05-30T06:42:45.000Z</time>
      </trkpt>
      <trkpt lat="43.80148" lon="4.63256">
        <ele>3.8</ele>
        <time>2019-05-30T06:42:50.000Z</time>
      </trkpt>
      <trkpt lat="43.80137" lon="4.63225">
        <ele>3.81</ele>
        <time>2019-05-30T06:42:55.000Z</time>
      </trkpt>
      <trkpt lat="43.80125" lon="4.63194">
        <ele>5.8</ele>
        <time>2019-05-30T06:43:00.000Z</time>
      </trkpt>
      <trkpt lat="43.8011" lon="4.63163">
        <ele>6.56</ele>
        <time>2019-05-30T06:43:05.000Z</time>
      </trkpt>
      <trkpt lat="43.80093" lon="4.63133">
        <ele>6.79</ele>
        <time>2019-05-30T06:43:10.000Z</time>
      </trkpt>
      <trkpt lat="43.80071" lon="4.63103">
        <ele>5.62</ele>
        <time>2019-05-30T06:43:15.000Z</time>
      </trkpt>
      <trkpt lat="43.80053" lon="4.63074">
        <ele>3.83</ele>
        <time>2019-05-30T06:43:20.000Z</time>
      </trkpt>
      <trkpt lat="43.80037" lon="4.63043">
        <ele>3.81</ele>
        <time>2019-05-30T06:43:25.000Z</time>
      </trkpt>
      <trkpt lat="43.80022" lon="4.63008">
        <ele>6.99</ele>
        <time>2019-05-30T06:43:30.000Z</time>
      </trkpt>
      <trkpt lat="43.80012" lon="4.62972">
        <ele>5.81</ele>
        <time>2019-05-30T06:43:35.000Z</time>
      </trkpt>
      <trkpt lat="43.8" lon="4.62936">
        <ele>4.81</ele>
        <time>2019-05-30T06:43:40.000Z</time>
      </trkpt>
      <trkpt lat="43.79991" lon="4.62899">
        <ele>6.49</ele>
        <time>2019-05-30T06:43:45.000Z</time>
      </trkpt>
      <trkpt lat="43.79981" lon="4.62866">
        <ele>7.56</ele>
        <time>2019-05-30T06:43:50.000Z</time>
      </trkpt>
      <trkpt lat="43.79973" lon="4.62833">
        <ele>8.8</ele>
        <time>2019-05-30T06:43:55.000Z</time>
      </trkpt>
      <trkpt lat="43.79962" lon="4.62797">
        <ele>10.74</ele>
        <time>2019-05-30T06:44:00.000Z</time>
      </trkpt>
      <trkpt lat="43.79949" lon="4.62758">
        <ele>7.83</ele>
        <time>2019-05-30T06:44:05.000Z</time>
      </trkpt>
      <trkpt lat="43.79932" lon="4.62725">
        <ele>7.04</ele>
        <time>2019-05-30T06:44:10.000Z</time>
      </trkpt>
      <trkpt lat="43.79911" lon="4.62699">
        <ele>6.81</ele>
        <time>2019-05-30T06:44:15.000Z</time>
      </trkpt>
      <trkpt lat="43.79892" lon="4.62676">
        <ele>7.74</ele>
        <time>2019-05-30T06:44:20.000Z</time>
      </trkpt>
      <trkpt lat="43.7987" lon="4.62656">
        <ele>7.76</ele>
        <time>2019-05-30T06:44:25.000Z</time>
      </trkpt>
      <trkpt lat="43.79849" lon="4.62635">
        <ele>7.8</ele>
        <time>2019-05-30T06:44:30.000Z</time>
      </trkpt>
      <trkpt lat="43.7983" lon="4.62609">
        <ele>7.81</ele>
        <time>2019-05-30T06:44:35.000Z</time>
      </trkpt>
      <trkpt lat="43.79809" lon="4.62581">
        <ele>7.57</ele>
        <time>2019-05-30T06:44:40.000Z</time>
      </trkpt>
      <trkpt lat="43.79787" lon="4.62553">
        <ele>6.82</ele>
        <time>2019-05-30T06:44:45.000Z</time>
      </trkpt>
      <trkpt lat="43.79766" lon="4.62526">
        <ele>6.81</ele>
        <time>2019-05-30T06:44:50.000Z</time>
      </trkpt>
      <trkpt lat="43.79744" lon="4.62499">
        <ele>6.81</ele>
        <time>2019-05-30T06:44:55.000Z</time>
      </trkpt>
      <trkpt lat="43.79722" lon="4.62469">
        <ele>6.06</ele>
        <time>2019-05-30T06:45:00.000Z</time>
      </trkpt>
      <trkpt lat="43.797" lon="4.6244">
        <ele>6.8</ele>
        <time>2019-05-30T06:45:05.000Z</time>
      </trkpt>
      <trkpt lat="43.79678" lon="4.62412">
        <ele>6.81</ele>
        <time>2019-05-30T06:45:10.000Z</time>
      </trkpt>
      <trkpt lat="43.79656" lon="4.62385">
        <ele>6.81</ele>
        <time>2019-05-30T06:45:15.000Z</time>
      </trkpt>
      <trkpt lat="43.79634" lon="4.62356">
        <ele>6.81</ele>
        <time>2019-05-30T06:45:20.000Z</time>
      </trkpt>
      <trkpt lat="43.79612" lon="4.62326">
        <ele>6.81</ele>
        <time>2019-05-30T06:45:25.000Z</time>
      </trkpt>
      <trkpt lat="43.79591" lon="4.62295">
        <ele>7.81</ele>
        <time>2019-05-30T06:45:30.000Z</time>
      </trkpt>
      <trkpt lat="43.79571" lon="4.62264">
        <ele>7.81</ele>
        <time>2019-05-30T06:45:35.000Z</time>
      </trkpt>
      <trkpt lat="43.7955" lon="4.62233">
        <ele>7.06</ele>
        <time>2019-05-30T06:45:40.000Z</time>
      </trkpt>
      <trkpt lat="43.7953" lon="4.62203">
        <ele>8.74</ele>
        <time>2019-05-30T06:45:45.000Z</time>
      </trkpt>
      <trkpt lat="43.79511" lon="4.62177">
        <ele>9.06</ele>
        <time>2019-05-30T06:45:50.000Z</time>
      </trkpt>
      <trkpt lat="43.79489" lon="4.62152">
        <ele>11.74</ele>
        <time>2019-05-30T06:45:55.000Z</time>
      </trkpt>
      <trkpt lat="43.79464" lon="4.62133">
        <ele>10.87</ele>
        <time>2019-05-30T06:46:00.000Z</time>
      </trkpt>
      <trkpt lat="43.79439" lon="4.62111">
        <ele>11.76</ele>
        <time>2019-05-30T06:46:05.000Z</time>
      </trkpt>
      <trkpt lat="43.79413" lon="4.62089">
        <ele>11.81</ele>
        <time>2019-05-30T06:46:10.000Z</time>
      </trkpt>
      <trkpt lat="43.79388" lon="4.62065">
        <ele>9.82</ele>
        <time>2019-05-30T06:46:15.000Z</time>
      </trkpt>
      <trkpt lat="43.79361" lon="4.62045">
        <ele>9.06</ele>
        <time>2019-05-30T06:46:20.000Z</time>
      </trkpt>
      <trkpt lat="43.7933" lon="4.62031">
        <ele>6.83</ele>
        <time>2019-05-30T06:46:25.000Z</time>
      </trkpt>
      <trkpt lat="43.793" lon="4.62022">
        <ele>6.81</ele>
        <time>2019-05-30T06:46:30.000Z</time>
      </trkpt>
      <trkpt lat="43.79268" lon="4.62014">
        <ele>5.8</ele>
        <time>2019-05-30T06:46:35.000Z</time>
      </trkpt>
      <trkpt lat="43.79237" lon="4.62002">
        <ele>4.81</ele>
        <time>2019-05-30T06:46:40.000Z</time>
      </trkpt>
      <trkpt lat="43.79205" lon="4.6199">
        <ele>5.04</ele>
        <time>2019-05-30T06:46:45.000Z</time>
      </trkpt>
      <trkpt lat="43.79173" lon="4.61978">
        <ele>5.75</ele>
        <time>2019-05-30T06:46:50.000Z</time>
      </trkpt>
      <trkpt lat="43.79139" lon="4.61967">
        <ele>5.81</ele>
        <time>2019-05-30T06:46:55.000Z</time>
      </trkpt>
      <trkpt lat="43.79106" lon="4.61955">
        <ele>5.81</ele>
        <time>2019-05-30T06:47:00.000Z</time>
      </trkpt>
      <trkpt lat="43.79074" lon="4.61937">
        <ele>5.81</ele>
        <time>2019-05-30T06:47:05.000Z</time>
      </trkpt>
      <trkpt lat="43.79043" lon="4.61917">
        <ele>5.81</ele>
        <time>2019-05-30T06:47:10.000Z</time>
      </trkpt>
      <trkpt lat="43.79014" lon="4.61894">
        <ele>5.62</ele>
        <time>2019-05-30T06:47:15.000Z</time>
      </trkpt>
      <trkpt lat="43.78991" lon="4.61861">
        <ele>6.82</ele>
        <time>2019-05-30T06:47:20.000Z</time>
      </trkpt>
      <trkpt lat="43.78969" lon="4.61827">
        <ele>6</ele>
        <time>2019-05-30T06:47:25.000Z</time>
      </trkpt>
      <trkpt lat="43.78941" lon="4.61802">
        <ele>5.81</ele>
        <time>2019-05-30T06:47:30.000Z</time>
      </trkpt>
      <trkpt lat="43.78909" lon="4.61792">
        <ele>6.04</ele>
        <time>2019-05-30T06:47:35.000Z</time>
      </trkpt>
      <trkpt lat="43.78875" lon="4.6179">
        <ele>5.87</ele>
        <time>2019-05-30T06:47:40.000Z</time>
      </trkpt>
      <trkpt lat="43.78839" lon="4.61788">
        <ele>5.56</ele>
        <time>2019-05-30T06:47:45.000Z</time>
      </trkpt>
      <trkpt lat="43.78804" lon="4.61785">
        <ele>6.79</ele>
        <time>2019-05-30T06:47:50.000Z</time>
      </trkpt>
      <trkpt lat="43.78767" lon="4.6178">
        <ele>7.8</ele>
        <time>2019-05-30T06:47:55.000Z</time>
      </trkpt>
      <trkpt lat="43.78733" lon="4.61776">
        <ele>8.81</ele>
        <time>2019-05-30T06:48:00.000Z</time>
      </trkpt>
      <trkpt lat="43.78698" lon="4.61773">
        <ele>7.82</ele>
        <time>2019-05-30T06:48:05.000Z</time>
      </trkpt>
      <trkpt lat="43.78663" lon="4.61766">
        <ele>9.75</ele>
        <time>2019-05-30T06:48:10.000Z</time>
      </trkpt>
      <trkpt lat="43.7863" lon="4.61754">
        <ele>9.06</ele>
        <time>2019-05-30T06:48:15.000Z</time>
      </trkpt>
      <trkpt lat="43.78598" lon="4.61743">
        <ele>9.06</ele>
        <time>2019-05-30T06:48:20.000Z</time>
      </trkpt>
      <trkpt lat="43.78566" lon="4.61728">
        <ele>8</ele>
        <time>2019-05-30T06:48:25.000Z</time>
      </trkpt>
      <trkpt lat="43.78534" lon="4.61713">
        <ele>6.83</ele>
        <time>2019-05-30T06:48:30.000Z</time>
      </trkpt>
      <trkpt lat="43.78505" lon="4.61698">
        <ele>5.83</ele>
        <time>2019-05-30T06:48:35.000Z</time>
      </trkpt>
      <trkpt lat="43.78479" lon="4.61678">
        <ele>5.81</ele>
        <time>2019-05-30T06:48:40.000Z</time>
      </trkpt>
      <trkpt lat="43.78452" lon="4.61652">
        <ele>6.81</ele>
        <time>2019-05-30T06:48:45.000Z</time>
      </trkpt>
      <trkpt lat="43.78425" lon="4.61627">
        <ele>7.56</ele>
        <time>2019-05-30T06:48:50.000Z</time>
      </trkpt>
      <trkpt lat="43.78398" lon="4.61601">
        <ele>7.77</ele>
        <time>2019-05-30T06:48:55.000Z</time>
      </trkpt>
      <trkpt lat="43.78372" lon="4.61577">
        <ele>8.75</ele>
        <time>2019-05-30T06:49:00.000Z</time>
      </trkpt>
      <trkpt lat="43.78346" lon="4.61552">
        <ele>7.88</ele>
        <time>2019-05-30T06:49:05.000Z</time>
      </trkpt>
      <trkpt lat="43.78319" lon="4.61528">
        <ele>7.81</ele>
        <time>2019-05-30T06:49:10.000Z</time>
      </trkpt>
      <trkpt lat="43.78296" lon="4.61505">
        <ele>7.81</ele>
        <time>2019-05-30T06:49:15.000Z</time>
      </trkpt>
      <trkpt lat="43.78271" lon="4.61482">
        <ele>7.06</ele>
        <time>2019-05-30T06:49:20.000Z</time>
      </trkpt>
      <trkpt lat="43.78246" lon="4.61459">
        <ele>7.81</ele>
        <time>2019-05-30T06:49:25.000Z</time>
      </trkpt>
      <trkpt lat="43.78222" lon="4.61435">
        <ele>9.56</ele>
        <time>2019-05-30T06:49:30.000Z</time>
      </trkpt>
      <trkpt lat="43.78196" lon="4.61412">
        <ele>8.83</ele>
        <time>2019-05-30T06:49:35.000Z</time>
      </trkpt>
      <trkpt lat="43.78171" lon="4.61389">
        <ele>8.81</ele>
        <time>2019-05-30T06:49:40.000Z</time>
      </trkpt>
      <trkpt lat="43.78146" lon="4.61367">
        <ele>7.81</ele>
        <time>2019-05-30T06:49:45.000Z</time>
      </trkpt>
      <trkpt lat="43.78121" lon="4.61345">
        <ele>7.81</ele>
        <time>2019-05-30T06:49:50.000Z</time>
      </trkpt>
      <trkpt lat="43.78096" lon="4.61324">
        <ele>7.77</ele>
        <time>2019-05-30T06:49:55.000Z</time>
      </trkpt>
      <trkpt lat="43.78068" lon="4.61303">
        <ele>7.77</ele>
        <time>2019-05-30T06:50:00.000Z</time>
      </trkpt>
      <trkpt lat="43.78039" lon="4.61289">
        <ele>6.82</ele>
        <time>2019-05-30T06:50:05.000Z</time>
      </trkpt>
      <trkpt lat="43.78009" lon="4.61272">
        <ele>6.81</ele>
        <time>2019-05-30T06:50:10.000Z</time>
      </trkpt>
      <trkpt lat="43.77978" lon="4.61252">
        <ele>6.81</ele>
        <time>2019-05-30T06:50:15.000Z</time>
      </trkpt>
      <trkpt lat="43.77949" lon="4.61229">
        <ele>7.8</ele>
        <time>2019-05-30T06:50:20.000Z</time>
      </trkpt>
      <trkpt lat="43.77919" lon="4.61206">
        <ele>7.81</ele>
        <time>2019-05-30T06:50:25.000Z</time>
      </trkpt>
      <trkpt lat="43.77889" lon="4.61186">
        <ele>7.77</ele>
        <time>2019-05-30T06:50:30.000Z</time>
      </trkpt>
      <trkpt lat="43.77858" lon="4.61167">
        <ele>7.8</ele>
        <time>2019-05-30T06:50:35.000Z</time>
      </trkpt>
      <trkpt lat="43.77828" lon="4.61145">
        <ele>7.8</ele>
        <time>2019-05-30T06:50:40.000Z</time>
      </trkpt>
      <trkpt lat="43.77799" lon="4.61119">
        <ele>6.82</ele>
        <time>2019-05-30T06:50:45.000Z</time>
      </trkpt>
      <trkpt lat="43.77777" lon="4.61081">
        <ele>10.07</ele>
        <time>2019-05-30T06:50:50.000Z</time>
      </trkpt>
      <trkpt lat="43.7776" lon="4.61043">
        <ele>7.88</ele>
        <time>2019-05-30T06:50:55.000Z</time>
      </trkpt>
      <trkpt lat="43.77745" lon="4.61002">
        <ele>7.57</ele>
        <time>2019-05-30T06:51:00.000Z</time>
      </trkpt>
      <trkpt lat="43.77731" lon="4.60967">
        <ele>5.82</ele>
        <time>2019-05-30T06:51:05.000Z</time>
      </trkpt>
      <trkpt lat="43.77719" lon="4.60928">
        <ele>5.77</ele>
        <time>2019-05-30T06:51:10.000Z</time>
      </trkpt>
      <trkpt lat="43.77706" lon="4.60891">
        <ele>6.81</ele>
        <time>2019-05-30T06:51:15.000Z</time>
      </trkpt>
      <trkpt lat="43.7769" lon="4.60858">
        <ele>6.82</ele>
        <time>2019-05-30T06:51:20.000Z</time>
      </trkpt>
      <trkpt lat="43.77673" lon="4.60827">
        <ele>5.82</ele>
        <time>2019-05-30T06:51:25.000Z</time>
      </trkpt>
      <trkpt lat="43.77655" lon="4.60796">
        <ele>5.82</ele>
        <time>2019-05-30T06:51:30.000Z</time>
      </trkpt>
      <trkpt lat="43.77641" lon="4.60761">
        <ele>4.82</ele>
        <time>2019-05-30T06:51:35.000Z</time>
      </trkpt>
      <trkpt lat="43.77626" lon="4.60725">
        <ele>5.81</ele>
        <time>2019-05-30T06:51:40.000Z</time>
      </trkpt>
      <trkpt lat="43.77613" lon="4.60688">
        <ele>5.83</ele>
        <time>2019-05-30T06:51:45.000Z</time>
      </trkpt>
      <trkpt lat="43.77606" lon="4.6065">
        <ele>5.82</ele>
        <time>2019-05-30T06:51:50.000Z</time>
      </trkpt>
      <trkpt lat="43.776" lon="4.60613">
        <ele>6.81</ele>
        <time>2019-05-30T06:51:55.000Z</time>
      </trkpt>
      <trkpt lat="43.77595" lon="4.60575">
        <ele>6.63</ele>
        <time>2019-05-30T06:52:00.000Z</time>
      </trkpt>
      <trkpt lat="43.77587" lon="4.60538">
        <ele>6.82</ele>
        <time>2019-05-30T06:52:05.000Z</time>
      </trkpt>
      <trkpt lat="43.77581" lon="4.60501">
        <ele>6.82</ele>
        <time>2019-05-30T06:52:10.000Z</time>
      </trkpt>
      <trkpt lat="43.7757" lon="4.60464">
        <ele>5.83</ele>
        <time>2019-05-30T06:52:15.000Z</time>
      </trkpt>
      <trkpt lat="43.77556" lon="4.60436">
        <ele>6.81</ele>
        <time>2019-05-30T06:52:20.000Z</time>
      </trkpt>
      <trkpt lat="43.77538" lon="4.60411">
        <ele>8.14</ele>
        <time>2019-05-30T06:52:25.000Z</time>
      </trkpt>
      <trkpt lat="43.77519" lon="4.60385">
        <ele>7.07</ele>
        <time>2019-05-30T06:52:30.000Z</time>
      </trkpt>
      <trkpt lat="43.77498" lon="4.60357">
        <ele>6.82</ele>
        <time>2019-05-30T06:52:35.000Z</time>
      </trkpt>
      <trkpt lat="43.77476" lon="4.60329">
        <ele>5.82</ele>
        <time>2019-05-30T06:52:40.000Z</time>
      </trkpt>
      <trkpt lat="43.77455" lon="4.60301">
        <ele>5.83</ele>
        <time>2019-05-30T06:52:45.000Z</time>
      </trkpt>
      <trkpt lat="43.77433" lon="4.60273">
        <ele>6.75</ele>
        <time>2019-05-30T06:52:50.000Z</time>
      </trkpt>
      <trkpt lat="43.77413" lon="4.60245">
        <ele>5.82</ele>
        <time>2019-05-30T06:52:55.000Z</time>
      </trkpt>
      <trkpt lat="43.7739" lon="4.60217">
        <ele>5.77</ele>
        <time>2019-05-30T06:53:00.000Z</time>
      </trkpt>
      <trkpt lat="43.77367" lon="4.60188">
        <ele>4.83</ele>
        <time>2019-05-30T06:53:05.000Z</time>
      </trkpt>
      <trkpt lat="43.77345" lon="4.60159">
        <ele>4.82</ele>
        <time>2019-05-30T06:53:10.000Z</time>
      </trkpt>
      <trkpt lat="43.77323" lon="4.60128">
        <ele>4.82</ele>
        <time>2019-05-30T06:53:15.000Z</time>
      </trkpt>
      <trkpt lat="43.773" lon="4.60096">
        <ele>4.82</ele>
        <time>2019-05-30T06:53:20.000Z</time>
      </trkpt>
      <trkpt lat="43.77277" lon="4.60066">
        <ele>4.58</ele>
        <time>2019-05-30T06:53:25.000Z</time>
      </trkpt>
      <trkpt lat="43.77258" lon="4.60031">
        <ele>5.81</ele>
        <time>2019-05-30T06:53:30.000Z</time>
      </trkpt>
      <trkpt lat="43.7725" lon="4.59986">
        <ele>6.75</ele>
        <time>2019-05-30T06:53:35.000Z</time>
      </trkpt>
      <trkpt lat="43.77247" lon="4.59945">
        <ele>7.81</ele>
        <time>2019-05-30T06:53:40.000Z</time>
      </trkpt>
      <trkpt lat="43.77246" lon="4.59905">
        <ele>7.87</ele>
        <time>2019-05-30T06:53:45.000Z</time>
      </trkpt>
      <trkpt lat="43.77242" lon="4.59865">
        <ele>6.82</ele>
        <time>2019-05-30T06:53:50.000Z</time>
      </trkpt>
      <trkpt lat="43.77227" lon="4.59828">
        <ele>7.16</ele>
        <time>2019-05-30T06:53:55.000Z</time>
      </trkpt>
      <trkpt lat="43.77205" lon="4.59802">
        <ele>5.83</ele>
        <time>2019-05-30T06:54:00.000Z</time>
      </trkpt>
      <trkpt lat="43.7718" lon="4.59778">
        <ele>4.07</ele>
        <time>2019-05-30T06:54:05.000Z</time>
      </trkpt>
      <trkpt lat="43.77154" lon="4.59755">
        <ele>3.82</ele>
        <time>2019-05-30T06:54:10.000Z</time>
      </trkpt>
      <trkpt lat="43.77126" lon="4.59732">
        <ele>3.82</ele>
        <time>2019-05-30T06:54:15.000Z</time>
      </trkpt>
      <trkpt lat="43.77096" lon="4.59709">
        <ele>4.77</ele>
        <time>2019-05-30T06:54:20.000Z</time>
      </trkpt>
      <trkpt lat="43.77067" lon="4.59689">
        <ele>4.76</ele>
        <time>2019-05-30T06:54:25.000Z</time>
      </trkpt>
      <trkpt lat="43.77035" lon="4.5967">
        <ele>4.8</ele>
        <time>2019-05-30T06:54:30.000Z</time>
      </trkpt>
      <trkpt lat="43.77002" lon="4.59661">
        <ele>4.82</ele>
        <time>2019-05-30T06:54:35.000Z</time>
      </trkpt>
      <trkpt lat="43.76969" lon="4.59655">
        <ele>2.83</ele>
        <time>2019-05-30T06:54:40.000Z</time>
      </trkpt>
      <trkpt lat="43.76933" lon="4.59648">
        <ele>2.82</ele>
        <time>2019-05-30T06:54:45.000Z</time>
      </trkpt>
      <trkpt lat="43.76898" lon="4.59639">
        <ele>2.82</ele>
        <time>2019-05-30T06:54:50.000Z</time>
      </trkpt>
      <trkpt lat="43.76864" lon="4.59633">
        <ele>4.8</ele>
        <time>2019-05-30T06:54:55.000Z</time>
      </trkpt>
      <trkpt lat="43.76829" lon="4.59624">
        <ele>4.82</ele>
        <time>2019-05-30T06:55:00.000Z</time>
      </trkpt>
      <trkpt lat="43.76795" lon="4.59616">
        <ele>4.76</ele>
        <time>2019-05-30T06:55:05.000Z</time>
      </trkpt>
      <trkpt lat="43.76761" lon="4.59608">
        <ele>4.82</ele>
        <time>2019-05-30T06:55:10.000Z</time>
      </trkpt>
      <trkpt lat="43.76727" lon="4.59602">
        <ele>3.83</ele>
        <time>2019-05-30T06:55:15.000Z</time>
      </trkpt>
      <trkpt lat="43.76692" lon="4.59596">
        <ele>4.82</ele>
        <time>2019-05-30T06:55:20.000Z</time>
      </trkpt>
      <trkpt lat="43.76658" lon="4.59589">
        <ele>4.82</ele>
        <time>2019-05-30T06:55:25.000Z</time>
      </trkpt>
      <trkpt lat="43.76622" lon="4.59582">
        <ele>7.95</ele>
        <time>2019-05-30T06:55:30.000Z</time>
      </trkpt>
      <trkpt lat="43.76587" lon="4.59575">
        <ele>5.09</ele>
        <time>2019-05-30T06:55:35.000Z</time>
      </trkpt>
      <trkpt lat="43.7655" lon="4.5957">
        <ele>4.92</ele>
        <time>2019-05-30T06:55:40.000Z</time>
      </trkpt>
      <trkpt lat="43.76514" lon="4.59565">
        <ele>3.82</ele>
        <time>2019-05-30T06:55:45.000Z</time>
      </trkpt>
      <trkpt lat="43.76477" lon="4.5956">
        <ele>3.82</ele>
        <time>2019-05-30T06:55:50.000Z</time>
      </trkpt>
      <trkpt lat="43.76441" lon="4.59556">
        <ele>2.82</ele>
        <time>2019-05-30T06:55:55.000Z</time>
      </trkpt>
      <trkpt lat="43.76404" lon="4.5955">
        <ele>2.82</ele>
        <time>2019-05-30T06:56:00.000Z</time>
      </trkpt>
      <trkpt lat="43.76369" lon="4.59543">
        <ele>2.82</ele>
        <time>2019-05-30T06:56:05.000Z</time>
      </trkpt>
      <trkpt lat="43.76347" lon="4.59508">
        <ele>6.06</ele>
        <time>2019-05-30T06:56:10.000Z</time>
      </trkpt>
      <trkpt lat="43.76315" lon="4.59493">
        <ele>4.83</ele>
        <time>2019-05-30T06:56:15.000Z</time>
      </trkpt>
      <trkpt lat="43.76279" lon="4.59487">
        <ele>4.82</ele>
        <time>2019-05-30T06:56:20.000Z</time>
      </trkpt>
      <trkpt lat="43.76243" lon="4.59481">
        <ele>5.9</ele>
        <time>2019-05-30T06:56:25.000Z</time>
      </trkpt>
      <trkpt lat="43.76206" lon="4.59475">
        <ele>4.82</ele>
        <time>2019-05-30T06:56:30.000Z</time>
      </trkpt>
      <trkpt lat="43.76169" lon="4.59469">
        <ele>3.82</ele>
        <time>2019-05-30T06:56:35.000Z</time>
      </trkpt>
      <trkpt lat="43.76132" lon="4.59465">
        <ele>3.82</ele>
        <time>2019-05-30T06:56:40.000Z</time>
      </trkpt>
      <trkpt lat="43.76096" lon="4.59463">
        <ele>4.62</ele>
        <time>2019-05-30T06:56:45.000Z</time>
      </trkpt>
      <trkpt lat="43.76059" lon="4.59454">
        <ele>3.83</ele>
        <time>2019-05-30T06:56:50.000Z</time>
      </trkpt>
      <trkpt lat="43.76024" lon="4.59443">
        <ele>4.82</ele>
        <time>2019-05-30T06:56:55.000Z</time>
      </trkpt>
      <trkpt lat="43.75988" lon="4.59433">
        <ele>4.07</ele>
        <time>2019-05-30T06:57:00.000Z</time>
      </trkpt>
      <trkpt lat="43.75951" lon="4.59424">
        <ele>3.83</ele>
        <time>2019-05-30T06:57:05.000Z</time>
      </trkpt>
      <trkpt lat="43.75912" lon="4.59418">
        <ele>3.82</ele>
        <time>2019-05-30T06:57:10.000Z</time>
      </trkpt>
      <trkpt lat="43.75873" lon="4.59412">
        <ele>3.82</ele>
        <time>2019-05-30T06:57:15.000Z</time>
      </trkpt>
      <trkpt lat="43.75833" lon="4.59406">
        <ele>3.82</ele>
        <time>2019-05-30T06:57:20.000Z</time>
      </trkpt>
      <trkpt lat="43.75791" lon="4.59401">
        <ele>3.81</ele>
        <time>2019-05-30T06:57:25.000Z</time>
      </trkpt>
      <trkpt lat="43.7575" lon="4.59397">
        <ele>4.81</ele>
        <time>2019-05-30T06:57:30.000Z</time>
      </trkpt>
      <trkpt lat="43.7571" lon="4.59394">
        <ele>4.82</ele>
        <time>2019-05-30T06:57:35.000Z</time>
      </trkpt>
      <trkpt lat="43.75675" lon="4.59375">
        <ele>3.84</ele>
        <time>2019-05-30T06:57:40.000Z</time>
      </trkpt>
      <trkpt lat="43.7564" lon="4.59359">
        <ele>4.57</ele>
        <time>2019-05-30T06:57:45.000Z</time>
      </trkpt>
      <trkpt lat="43.75604" lon="4.59351">
        <ele>7.01</ele>
        <time>2019-05-30T06:57:50.000Z</time>
      </trkpt>
      <trkpt lat="43.75564" lon="4.59347">
        <ele>4.95</ele>
        <time>2019-05-30T06:57:55.000Z</time>
      </trkpt>
      <trkpt lat="43.75526" lon="4.59348">
        <ele>4.64</ele>
        <time>2019-05-30T06:58:00.000Z</time>
      </trkpt>
      <trkpt lat="43.75487" lon="4.59354">
        <ele>3.83</ele>
        <time>2019-05-30T06:58:05.000Z</time>
      </trkpt>
      <trkpt lat="43.75449" lon="4.59362">
        <ele>4.78</ele>
        <time>2019-05-30T06:58:10.000Z</time>
      </trkpt>
      <trkpt lat="43.7541" lon="4.59371">
        <ele>3.89</ele>
        <time>2019-05-30T06:58:15.000Z</time>
      </trkpt>
      <trkpt lat="43.75371" lon="4.59379">
        <ele>3.83</ele>
        <time>2019-05-30T06:58:20.000Z</time>
      </trkpt>
      <trkpt lat="43.75334" lon="4.59388">
        <ele>3.83</ele>
        <time>2019-05-30T06:58:25.000Z</time>
      </trkpt>
      <trkpt lat="43.75299" lon="4.59393">
        <ele>3.87</ele>
        <time>2019-05-30T06:58:30.000Z</time>
      </trkpt>
      <trkpt lat="43.75288" lon="4.59362">
        <ele>3.87</ele>
        <time>2019-05-30T06:58:35.000Z</time>
      </trkpt>
      <trkpt lat="43.75289" lon="4.59324">
        <ele>4.83</ele>
        <time>2019-05-30T06:58:40.000Z</time>
      </trkpt>
      <trkpt lat="43.7529" lon="4.59286">
        <ele>4.83</ele>
        <time>2019-05-30T06:58:45.000Z</time>
      </trkpt>
      <trkpt lat="43.7529" lon="4.59247">
        <ele>4.83</ele>
        <time>2019-05-30T06:58:50.000Z</time>
      </trkpt>
      <trkpt lat="43.7529" lon="4.5921">
        <ele>4.83</ele>
        <time>2019-05-30T06:58:55.000Z</time>
      </trkpt>
      <trkpt lat="43.75289" lon="4.59182">
        <ele>3.89</ele>
        <time>2019-05-30T06:59:00.000Z</time>
      </trkpt>
      <trkpt lat="43.75274" lon="4.59172">
        <ele>3.87</ele>
        <time>2019-05-30T06:59:05.000Z</time>
      </trkpt>
      <trkpt lat="43.75253" lon="4.59171">
        <ele>3.83</ele>
        <time>2019-05-30T06:59:10.000Z</time>
      </trkpt>
      <trkpt lat="43.75228" lon="4.59173">
        <ele>3.89</ele>
        <time>2019-05-30T06:59:15.000Z</time>
      </trkpt>
      <trkpt lat="43.75201" lon="4.59173">
        <ele>3.83</ele>
        <time>2019-05-30T06:59:20.000Z</time>
      </trkpt>
      <trkpt lat="43.75172" lon="4.59171">
        <ele>3.83</ele>
        <time>2019-05-30T06:59:25.000Z</time>
      </trkpt>
      <trkpt lat="43.75142" lon="4.59166">
        <ele>3.07</ele>
        <time>2019-05-30T06:59:30.000Z</time>
      </trkpt>
      <trkpt lat="43.75112" lon="4.59161">
        <ele>2.64</ele>
        <time>2019-05-30T06:59:35.000Z</time>
      </trkpt>
      <trkpt lat="43.75083" lon="4.59149">
        <ele>3</ele>
        <time>2019-05-30T06:59:40.000Z</time>
      </trkpt>
      <trkpt lat="43.75057" lon="4.59127">
        <ele>2.08</ele>
        <time>2019-05-30T06:59:45.000Z</time>
      </trkpt>
      <trkpt lat="43.75034" lon="4.59097">
        <ele>0.14</ele>
        <time>2019-05-30T06:59:50.000Z</time>
      </trkpt>
      <trkpt lat="43.75013" lon="4.59067">
        <ele>3</ele>
        <time>2019-05-30T06:59:55.000Z</time>
      </trkpt>
      <trkpt lat="43.74992" lon="4.59039">
        <ele>1.76</ele>
        <time>2019-05-30T07:00:00.000Z</time>
      </trkpt>
      <trkpt lat="43.74971" lon="4.59011">
        <ele>2.77</ele>
        <time>2019-05-30T07:00:05.000Z</time>
      </trkpt>
      <trkpt lat="43.74949" lon="4.58984">
        <ele>3.58</ele>
        <time>2019-05-30T07:00:10.000Z</time>
      </trkpt>
      <trkpt lat="43.74925" lon="4.58957">
        <ele>2.89</ele>
        <time>2019-05-30T07:00:15.000Z</time>
      </trkpt>
      <trkpt lat="43.74899" lon="4.5893">
        <ele>2.83</ele>
        <time>2019-05-30T07:00:20.000Z</time>
      </trkpt>
      <trkpt lat="43.74872" lon="4.58902">
        <ele>3.77</ele>
        <time>2019-05-30T07:00:25.000Z</time>
      </trkpt>
      <trkpt lat="43.74845" lon="4.58873">
        <ele>4.58</ele>
        <time>2019-05-30T07:00:30.000Z</time>
      </trkpt>
      <trkpt lat="43.74818" lon="4.58845">
        <ele>4.83</ele>
        <time>2019-05-30T07:00:35.000Z</time>
      </trkpt>
      <trkpt lat="43.74791" lon="4.58816">
        <ele>4.83</ele>
        <time>2019-05-30T07:00:40.000Z</time>
      </trkpt>
      <trkpt lat="43.74763" lon="4.58792">
        <ele>4.83</ele>
        <time>2019-05-30T07:00:45.000Z</time>
      </trkpt>
      <trkpt lat="43.74731" lon="4.58773">
        <ele>4.83</ele>
        <time>2019-05-30T07:00:50.000Z</time>
      </trkpt>
      <trkpt lat="43.747" lon="4.58756">
        <ele>3.89</ele>
        <time>2019-05-30T07:00:55.000Z</time>
      </trkpt>
      <trkpt lat="43.74667" lon="4.58738">
        <ele>3.84</ele>
        <time>2019-05-30T07:01:00.000Z</time>
      </trkpt>
      <trkpt lat="43.74634" lon="4.58721">
        <ele>3.83</ele>
        <time>2019-05-30T07:01:05.000Z</time>
      </trkpt>
      <trkpt lat="43.74601" lon="4.58705">
        <ele>3.83</ele>
        <time>2019-05-30T07:01:10.000Z</time>
      </trkpt>
      <trkpt lat="43.74567" lon="4.58689">
        <ele>3.64</ele>
        <time>2019-05-30T07:01:15.000Z</time>
      </trkpt>
      <trkpt lat="43.74531" lon="4.58676">
        <ele>2.83</ele>
        <time>2019-05-30T07:01:20.000Z</time>
      </trkpt>
      <trkpt lat="43.74495" lon="4.58661">
        <ele>3.58</ele>
        <time>2019-05-30T07:01:25.000Z</time>
      </trkpt>
      <trkpt lat="43.74466" lon="4.58649">
        <ele>3.58</ele>
        <time>2019-05-30T07:01:30.000Z</time>
      </trkpt>
      <trkpt lat="43.74452" lon="4.58644">
        <ele>3.83</ele>
        <time>2019-05-30T07:01:35.000Z</time>
      </trkpt>
      <trkpt lat="43.74449" lon="4.58632">
        <ele>2.88</ele>
        <time>2019-05-30T07:01:40.000Z</time>
      </trkpt>
      <trkpt lat="43.74444" lon="4.58615">
        <ele>2.83</ele>
        <time>2019-05-30T07:01:45.000Z</time>
      </trkpt>
      <trkpt lat="43.7444" lon="4.58591">
        <ele>2.83</ele>
        <time>2019-05-30T07:01:50.000Z</time>
      </trkpt>
      <trkpt lat="43.74433" lon="4.58564">
        <ele>3.06</ele>
        <time>2019-05-30T07:01:55.000Z</time>
      </trkpt>
      <trkpt lat="43.74426" lon="4.58534">
        <ele>3.82</ele>
        <time>2019-05-30T07:02:00.000Z</time>
      </trkpt>
      <trkpt lat="43.7442" lon="4.58503">
        <ele>2.84</ele>
        <time>2019-05-30T07:02:05.000Z</time>
      </trkpt>
      <trkpt lat="43.74411" lon="4.58473">
        <ele>3.83</ele>
        <time>2019-05-30T07:02:10.000Z</time>
      </trkpt>
      <trkpt lat="43.74388" lon="4.58469">
        <ele>2.89</ele>
        <time>2019-05-30T07:02:15.000Z</time>
      </trkpt>
      <trkpt lat="43.74361" lon="4.58468">
        <ele>3.58</ele>
        <time>2019-05-30T07:02:20.000Z</time>
      </trkpt>
      <trkpt lat="43.74332" lon="4.58466">
        <ele>2.84</ele>
        <time>2019-05-30T07:02:25.000Z</time>
      </trkpt>
      <trkpt lat="43.74303" lon="4.58462">
        <ele>3.63</ele>
        <time>2019-05-30T07:02:30.000Z</time>
      </trkpt>
      <trkpt lat="43.74274" lon="4.58458">
        <ele>3.83</ele>
        <time>2019-05-30T07:02:35.000Z</time>
      </trkpt>
      <trkpt lat="43.74244" lon="4.58455">
        <ele>3.82</ele>
        <time>2019-05-30T07:02:40.000Z</time>
      </trkpt>
      <trkpt lat="43.74213" lon="4.58452">
        <ele>3.83</ele>
        <time>2019-05-30T07:02:45.000Z</time>
      </trkpt>
      <trkpt lat="43.74181" lon="4.58448">
        <ele>3.78</ele>
        <time>2019-05-30T07:02:50.000Z</time>
      </trkpt>
      <trkpt lat="43.74148" lon="4.58443">
        <ele>3.83</ele>
        <time>2019-05-30T07:02:55.000Z</time>
      </trkpt>
      <trkpt lat="43.74114" lon="4.58439">
        <ele>3.83</ele>
        <time>2019-05-30T07:03:00.000Z</time>
      </trkpt>
      <trkpt lat="43.74077" lon="4.58434">
        <ele>2.89</ele>
        <time>2019-05-30T07:03:05.000Z</time>
      </trkpt>
      <trkpt lat="43.74042" lon="4.58429">
        <ele>2.83</ele>
        <time>2019-05-30T07:03:10.000Z</time>
      </trkpt>
      <trkpt lat="43.74006" lon="4.58426">
        <ele>2.83</ele>
        <time>2019-05-30T07:03:15.000Z</time>
      </trkpt>
      <trkpt lat="43.73969" lon="4.58421">
        <ele>1.83</ele>
        <time>2019-05-30T07:03:20.000Z</time>
      </trkpt>
      <trkpt lat="43.73933" lon="4.58417">
        <ele>1.83</ele>
        <time>2019-05-30T07:03:25.000Z</time>
      </trkpt>
      <trkpt lat="43.73899" lon="4.58412">
        <ele>1.83</ele>
        <time>2019-05-30T07:03:30.000Z</time>
      </trkpt>
      <trkpt lat="43.73865" lon="4.58408">
        <ele>2.81</ele>
        <time>2019-05-30T07:03:35.000Z</time>
      </trkpt>
      <trkpt lat="43.73831" lon="4.5841">
        <ele>3.77</ele>
        <time>2019-05-30T07:03:40.000Z</time>
      </trkpt>
      <trkpt lat="43.73799" lon="4.58414">
        <ele>3.64</ele>
        <time>2019-05-30T07:03:45.000Z</time>
      </trkpt>
      <trkpt lat="43.73762" lon="4.58418">
        <ele>3.83</ele>
        <time>2019-05-30T07:03:50.000Z</time>
      </trkpt>
      <trkpt lat="43.73726" lon="4.5842">
        <ele>2.89</ele>
        <time>2019-05-30T07:03:55.000Z</time>
      </trkpt>
      <trkpt lat="43.73687" lon="4.5842">
        <ele>3.83</ele>
        <time>2019-05-30T07:04:00.000Z</time>
      </trkpt>
      <trkpt lat="43.73651" lon="4.58421">
        <ele>4.77</ele>
        <time>2019-05-30T07:04:05.000Z</time>
      </trkpt>
      <trkpt lat="43.73616" lon="4.58419">
        <ele>3.83</ele>
        <time>2019-05-30T07:04:10.000Z</time>
      </trkpt>
      <trkpt lat="43.73582" lon="4.58414">
        <ele>2.85</ele>
        <time>2019-05-30T07:04:15.000Z</time>
      </trkpt>
      <trkpt lat="43.73552" lon="4.58413">
        <ele>2.83</ele>
        <time>2019-05-30T07:04:20.000Z</time>
      </trkpt>
      <trkpt lat="43.73542" lon="4.58454">
        <ele>1.83</ele>
        <time>2019-05-30T07:04:25.000Z</time>
      </trkpt>
      <trkpt lat="43.73537" lon="4.58492">
        <ele>2.81</ele>
        <time>2019-05-30T07:04:30.000Z</time>
      </trkpt>
      <trkpt lat="43.73532" lon="4.5853">
        <ele>1.83</ele>
        <time>2019-05-30T07:04:35.000Z</time>
      </trkpt>
      <trkpt lat="43.73526" lon="4.58566">
        <ele>1.83</ele>
        <time>2019-05-30T07:04:40.000Z</time>
      </trkpt>
      <trkpt lat="43.7352" lon="4.58602">
        <ele>1.83</ele>
        <time>2019-05-30T07:04:45.000Z</time>
      </trkpt>
      <trkpt lat="43.73511" lon="4.58635">
        <ele>3.58</ele>
        <time>2019-05-30T07:04:50.000Z</time>
      </trkpt>
      <trkpt lat="43.73488" lon="4.58655">
        <ele>4.83</ele>
        <time>2019-05-30T07:04:55.000Z</time>
      </trkpt>
      <trkpt lat="43.73464" lon="4.58675">
        <ele>4.83</ele>
        <time>2019-05-30T07:05:00.000Z</time>
      </trkpt>
      <trkpt lat="43.73438" lon="4.58692">
        <ele>3.85</ele>
        <time>2019-05-30T07:05:05.000Z</time>
      </trkpt>
      <trkpt lat="43.73409" lon="4.58702">
        <ele>3.08</ele>
        <time>2019-05-30T07:05:10.000Z</time>
      </trkpt>
      <trkpt lat="43.73379" lon="4.58712">
        <ele>3.08</ele>
        <time>2019-05-30T07:05:15.000Z</time>
      </trkpt>
      <trkpt lat="43.73348" lon="4.58721">
        <ele>2.77</ele>
        <time>2019-05-30T07:05:20.000Z</time>
      </trkpt>
      <trkpt lat="43.73315" lon="4.58729">
        <ele>2.83</ele>
        <time>2019-05-30T07:05:25.000Z</time>
      </trkpt>
      <trkpt lat="43.73282" lon="4.58739">
        <ele>2.83</ele>
        <time>2019-05-30T07:05:30.000Z</time>
      </trkpt>
      <trkpt lat="43.73248" lon="4.58749">
        <ele>2.64</ele>
        <time>2019-05-30T07:05:35.000Z</time>
      </trkpt>
      <trkpt lat="43.73214" lon="4.58757">
        <ele>2.83</ele>
        <time>2019-05-30T07:05:40.000Z</time>
      </trkpt>
      <trkpt lat="43.7318" lon="4.58767">
        <ele>2.85</ele>
        <time>2019-05-30T07:05:45.000Z</time>
      </trkpt>
      <trkpt lat="43.73145" lon="4.58776">
        <ele>2.84</ele>
        <time>2019-05-30T07:05:50.000Z</time>
      </trkpt>
      <trkpt lat="43.7311" lon="4.58785">
        <ele>2.83</ele>
        <time>2019-05-30T07:05:55.000Z</time>
      </trkpt>
      <trkpt lat="43.73075" lon="4.58794">
        <ele>2.83</ele>
        <time>2019-05-30T07:06:00.000Z</time>
      </trkpt>
      <trkpt lat="43.73046" lon="4.58798">
        <ele>1.89</ele>
        <time>2019-05-30T07:06:05.000Z</time>
      </trkpt>
      <trkpt lat="43.73036" lon="4.58801">
        <ele>2.83</ele>
        <time>2019-05-30T07:06:10.000Z</time>
      </trkpt>
      <trkpt lat="43.73031" lon="4.58813">
        <ele>3.83</ele>
        <time>2019-05-30T07:06:25.000Z</time>
      </trkpt>
      <trkpt lat="43.73037" lon="4.58833">
        <ele>3.83</ele>
        <time>2019-05-30T07:06:30.000Z</time>
      </trkpt>
      <trkpt lat="43.73043" lon="4.58855">
        <ele>3.83</ele>
        <time>2019-05-30T07:06:35.000Z</time>
      </trkpt>
      <trkpt lat="43.73049" lon="4.58879">
        <ele>2.77</ele>
        <time>2019-05-30T07:06:40.000Z</time>
      </trkpt>
      <trkpt lat="43.73053" lon="4.58906">
        <ele>2.83</ele>
        <time>2019-05-30T07:06:45.000Z</time>
      </trkpt>
      <trkpt lat="43.73057" lon="4.58934">
        <ele>2.85</ele>
        <time>2019-05-30T07:06:50.000Z</time>
      </trkpt>
      <trkpt lat="43.7306" lon="4.58957">
        <ele>2.84</ele>
        <time>2019-05-30T07:06:55.000Z</time>
      </trkpt>
      <trkpt lat="43.73064" lon="4.58984">
        <ele>2.83</ele>
        <time>2019-05-30T07:07:00.000Z</time>
      </trkpt>
      <trkpt lat="43.73069" lon="4.59014">
        <ele>3.83</ele>
        <time>2019-05-30T07:07:05.000Z</time>
      </trkpt>
      <trkpt lat="43.73075" lon="4.59043">
        <ele>3.83</ele>
        <time>2019-05-30T07:07:10.000Z</time>
      </trkpt>
      <trkpt lat="43.73084" lon="4.59072">
        <ele>3.83</ele>
        <time>2019-05-30T07:07:15.000Z</time>
      </trkpt>
      <trkpt lat="43.73093" lon="4.59097">
        <ele>2.83</ele>
        <time>2019-05-30T07:07:20.000Z</time>
      </trkpt>
      <trkpt lat="43.73103" lon="4.59123">
        <ele>3.58</ele>
        <time>2019-05-30T07:07:25.000Z</time>
      </trkpt>
      <trkpt lat="43.73111" lon="4.59148">
        <ele>3.77</ele>
        <time>2019-05-30T07:07:30.000Z</time>
      </trkpt>
      <trkpt lat="43.73119" lon="4.59173">
        <ele>3.83</ele>
        <time>2019-05-30T07:07:35.000Z</time>
      </trkpt>
      <trkpt lat="43.73127" lon="4.592">
        <ele>4.82</ele>
        <time>2019-05-30T07:07:40.000Z</time>
      </trkpt>
      <trkpt lat="43.73135" lon="4.59225">
        <ele>3.84</ele>
        <time>2019-05-30T07:07:45.000Z</time>
      </trkpt>
      <trkpt lat="43.73144" lon="4.59248">
        <ele>3.83</ele>
        <time>2019-05-30T07:07:50.000Z</time>
      </trkpt>
      <trkpt lat="43.73153" lon="4.59269">
        <ele>3.83</ele>
        <time>2019-05-30T07:07:55.000Z</time>
      </trkpt>
      <trkpt lat="43.73162" lon="4.5929">
        <ele>2.83</ele>
        <time>2019-05-30T07:08:00.000Z</time>
      </trkpt>
      <trkpt lat="43.73171" lon="4.59311">
        <ele>1.89</ele>
        <time>2019-05-30T07:08:05.000Z</time>
      </trkpt>
      <trkpt lat="43.7318" lon="4.59331">
        <ele>1.83</ele>
        <time>2019-05-30T07:08:10.000Z</time>
      </trkpt>
      <trkpt lat="43.7319" lon="4.5935">
        <ele>1.88</ele>
        <time>2019-05-30T07:08:15.000Z</time>
      </trkpt>
      <trkpt lat="43.73202" lon="4.59374">
        <ele>2.58</ele>
        <time>2019-05-30T07:08:20.000Z</time>
      </trkpt>
      <trkpt lat="43.73214" lon="4.594">
        <ele>2.83</ele>
        <time>2019-05-30T07:08:25.000Z</time>
      </trkpt>
      <trkpt lat="43.73226" lon="4.59426">
        <ele>3.82</ele>
        <time>2019-05-30T07:08:30.000Z</time>
      </trkpt>
      <trkpt lat="43.73237" lon="4.59454">
        <ele>2.83</ele>
        <time>2019-05-30T07:08:35.000Z</time>
      </trkpt>
      <trkpt lat="43.73248" lon="4.59482">
        <ele>2.83</ele>
        <time>2019-05-30T07:08:40.000Z</time>
      </trkpt>
      <trkpt lat="43.73258" lon="4.59508">
        <ele>2.83</ele>
        <time>2019-05-30T07:08:45.000Z</time>
      </trkpt>
      <trkpt lat="43.73269" lon="4.59533">
        <ele>2.89</ele>
        <time>2019-05-30T07:08:50.000Z</time>
      </trkpt>
      <trkpt lat="43.7328" lon="4.59558">
        <ele>2.83</ele>
        <time>2019-05-30T07:08:55.000Z</time>
      </trkpt>
      <trkpt lat="43.73289" lon="4.59583">
        <ele>1.84</ele>
        <time>2019-05-30T07:09:00.000Z</time>
      </trkpt>
      <trkpt lat="43.73297" lon="4.59608">
        <ele>1.83</ele>
        <time>2019-05-30T07:09:05.000Z</time>
      </trkpt>
      <trkpt lat="43.73305" lon="4.59634">
        <ele>0.84</ele>
        <time>2019-05-30T07:09:10.000Z</time>
      </trkpt>
      <trkpt lat="43.73312" lon="4.59659">
        <ele>1.83</ele>
        <time>2019-05-30T07:09:15.000Z</time>
      </trkpt>
      <trkpt lat="43.73319" lon="4.59684">
        <ele>1.83</ele>
        <time>2019-05-30T07:09:20.000Z</time>
      </trkpt>
      <trkpt lat="43.73327" lon="4.59707">
        <ele>2.83</ele>
        <time>2019-05-30T07:09:25.000Z</time>
      </trkpt>
      <trkpt lat="43.73334" lon="4.59732">
        <ele>3.58</ele>
        <time>2019-05-30T07:09:30.000Z</time>
      </trkpt>
      <trkpt lat="43.73341" lon="4.59756">
        <ele>3.82</ele>
        <time>2019-05-30T07:09:35.000Z</time>
      </trkpt>
      <trkpt lat="43.73326" lon="4.59774">
        <ele>3.83</ele>
        <time>2019-05-30T07:09:40.000Z</time>
      </trkpt>
      <trkpt lat="43.73298" lon="4.59767">
        <ele>3.83</ele>
        <time>2019-05-30T07:09:45.000Z</time>
      </trkpt>
      <trkpt lat="43.73272" lon="4.59767">
        <ele>3.83</ele>
        <time>2019-05-30T07:09:50.000Z</time>
      </trkpt>
      <trkpt lat="43.73244" lon="4.59765">
        <ele>3.79</ele>
        <time>2019-05-30T07:09:55.000Z</time>
      </trkpt>
      <trkpt lat="43.73217" lon="4.59763">
        <ele>3.83</ele>
        <time>2019-05-30T07:10:00.000Z</time>
      </trkpt>
      <trkpt lat="43.7319" lon="4.59756">
        <ele>2.9</ele>
        <time>2019-05-30T07:10:05.000Z</time>
      </trkpt>
      <trkpt lat="43.7316" lon="4.59744">
        <ele>2.83</ele>
        <time>2019-05-30T07:10:10.000Z</time>
      </trkpt>
      <trkpt lat="43.73128" lon="4.59735">
        <ele>2.83</ele>
        <time>2019-05-30T07:10:15.000Z</time>
      </trkpt>
      <trkpt lat="43.73095" lon="4.59726">
        <ele>3.83</ele>
        <time>2019-05-30T07:10:20.000Z</time>
      </trkpt>
      <trkpt lat="43.73062" lon="4.59717">
        <ele>3.83</ele>
        <time>2019-05-30T07:10:25.000Z</time>
      </trkpt>
      <trkpt lat="43.73029" lon="4.59709">
        <ele>4.07</ele>
        <time>2019-05-30T07:10:30.000Z</time>
      </trkpt>
      <trkpt lat="43.72995" lon="4.59698">
        <ele>1.9</ele>
        <time>2019-05-30T07:10:35.000Z</time>
      </trkpt>
      <trkpt lat="43.7296" lon="4.59687">
        <ele>1.83</ele>
        <time>2019-05-30T07:10:40.000Z</time>
      </trkpt>
      <trkpt lat="43.72925" lon="4.59676">
        <ele>1.83</ele>
        <time>2019-05-30T07:10:45.000Z</time>
      </trkpt>
      <trkpt lat="43.72889" lon="4.59669">
        <ele>2.77</ele>
        <time>2019-05-30T07:10:50.000Z</time>
      </trkpt>
      <trkpt lat="43.72853" lon="4.59665">
        <ele>1.88</ele>
        <time>2019-05-30T07:10:55.000Z</time>
      </trkpt>
      <trkpt lat="43.72816" lon="4.59662">
        <ele>1.83</ele>
        <time>2019-05-30T07:11:00.000Z</time>
      </trkpt>
      <trkpt lat="43.7278" lon="4.59658">
        <ele>1.88</ele>
        <time>2019-05-30T07:11:05.000Z</time>
      </trkpt>
      <trkpt lat="43.72744" lon="4.59653">
        <ele>1.83</ele>
        <time>2019-05-30T07:11:10.000Z</time>
      </trkpt>
      <trkpt lat="43.7271" lon="4.5965">
        <ele>3.78</ele>
        <time>2019-05-30T07:11:15.000Z</time>
      </trkpt>
      <trkpt lat="43.72678" lon="4.59646">
        <ele>3.94</ele>
        <time>2019-05-30T07:11:20.000Z</time>
      </trkpt>
      <trkpt lat="43.72645" lon="4.59643">
        <ele>3.83</ele>
        <time>2019-05-30T07:11:25.000Z</time>
      </trkpt>
      <trkpt lat="43.72614" lon="4.59639">
        <ele>2.83</ele>
        <time>2019-05-30T07:11:30.000Z</time>
      </trkpt>
      <trkpt lat="43.72582" lon="4.59636">
        <ele>1.84</ele>
        <time>2019-05-30T07:11:35.000Z</time>
      </trkpt>
      <trkpt lat="43.7255" lon="4.59633">
        <ele>0.84</ele>
        <time>2019-05-30T07:11:40.000Z</time>
      </trkpt>
      <trkpt lat="43.72517" lon="4.5963">
        <ele>0.85</ele>
        <time>2019-05-30T07:11:45.000Z</time>
      </trkpt>
      <trkpt lat="43.72487" lon="4.59627">
        <ele>0.59</ele>
        <time>2019-05-30T07:11:50.000Z</time>
      </trkpt>
      <trkpt lat="43.72479" lon="4.59599">
        <ele>6</ele>
        <time>2019-05-30T07:11:55.000Z</time>
      </trkpt>
      <trkpt lat="43.72478" lon="4.59564">
        <ele>5</ele>
        <time>2019-05-30T07:12:00.000Z</time>
      </trkpt>
      <trkpt lat="43.72466" lon="4.59534">
        <ele>0.08</ele>
        <time>2019-05-30T07:12:05.000Z</time>
      </trkpt>
      <trkpt lat="43.72438" lon="4.59535">
        <ele>0.6</ele>
        <time>2019-05-30T07:12:10.000Z</time>
      </trkpt>
      <trkpt lat="43.7241" lon="4.59535">
        <ele>0.83</ele>
        <time>2019-05-30T07:12:15.000Z</time>
      </trkpt>
      <trkpt lat="43.72382" lon="4.59535">
        <ele>2.58</ele>
        <time>2019-05-30T07:12:20.000Z</time>
      </trkpt>
      <trkpt lat="43.72352" lon="4.59535">
        <ele>3.58</ele>
        <time>2019-05-30T07:12:25.000Z</time>
      </trkpt>
      <trkpt lat="43.72325" lon="4.59538">
        <ele>2.65</ele>
        <time>2019-05-30T07:12:30.000Z</time>
      </trkpt>
      <trkpt lat="43.72298" lon="4.59541">
        <ele>2.83</ele>
        <time>2019-05-30T07:12:35.000Z</time>
      </trkpt>
      <trkpt lat="43.72269" lon="4.59542">
        <ele>2.04</ele>
        <time>2019-05-30T07:12:40.000Z</time>
      </trkpt>
      <trkpt lat="43.72237" lon="4.59543">
        <ele>2.77</ele>
        <time>2019-05-30T07:12:45.000Z</time>
      </trkpt>
      <trkpt lat="43.72206" lon="4.59545">
        <ele>1.9</ele>
        <time>2019-05-30T07:12:50.000Z</time>
      </trkpt>
      <trkpt lat="43.72178" lon="4.59549">
        <ele>2.82</ele>
        <time>2019-05-30T07:12:55.000Z</time>
      </trkpt>
      <trkpt lat="43.72187" lon="4.59544">
        <ele>1.83</ele>
        <time>2019-05-30T07:13:05.000Z</time>
      </trkpt>
      <trkpt lat="43.72186" lon="4.59525">
        <ele>0.85</ele>
        <time>2019-05-30T07:13:10.000Z</time>
      </trkpt>
      <trkpt lat="43.72178" lon="4.59504">
        <ele>0.83</ele>
        <time>2019-05-30T07:13:15.000Z</time>
      </trkpt>
      <trkpt lat="43.72158" lon="4.59498">
        <ele>0.83</ele>
        <time>2019-05-30T07:13:20.000Z</time>
      </trkpt>
      <trkpt lat="43.72134" lon="4.59502">
        <ele>1.08</ele>
        <time>2019-05-30T07:13:25.000Z</time>
      </trkpt>
      <trkpt lat="43.72108" lon="4.59503">
        <ele>1.82</ele>
        <time>2019-05-30T07:13:30.000Z</time>
      </trkpt>
      <trkpt lat="43.72081" lon="4.59506">
        <ele>2.58</ele>
        <time>2019-05-30T07:13:35.000Z</time>
      </trkpt>
      <trkpt lat="43.72053" lon="4.59509">
        <ele>1.89</ele>
        <time>2019-05-30T07:13:40.000Z</time>
      </trkpt>
      <trkpt lat="43.72024" lon="4.59513">
        <ele>2.78</ele>
        <time>2019-05-30T07:13:45.000Z</time>
      </trkpt>
      <trkpt lat="43.71994" lon="4.59516">
        <ele>1.89</ele>
        <time>2019-05-30T07:13:50.000Z</time>
      </trkpt>
      <trkpt lat="43.71964" lon="4.5952">
        <ele>2.83</ele>
        <time>2019-05-30T07:13:55.000Z</time>
      </trkpt>
      <trkpt lat="43.71932" lon="4.59524">
        <ele>2.59</ele>
        <time>2019-05-30T07:14:00.000Z</time>
      </trkpt>
      <trkpt lat="43.719" lon="4.59528">
        <ele>3.58</ele>
        <time>2019-05-30T07:14:05.000Z</time>
      </trkpt>
      <trkpt lat="43.71868" lon="4.59535">
        <ele>3.95</ele>
        <time>2019-05-30T07:14:10.000Z</time>
      </trkpt>
      <trkpt lat="43.71838" lon="4.59543">
        <ele>3.84</ele>
        <time>2019-05-30T07:14:15.000Z</time>
      </trkpt>
      <trkpt lat="43.71808" lon="4.59546">
        <ele>1.9</ele>
        <time>2019-05-30T07:14:20.000Z</time>
      </trkpt>
      <trkpt lat="43.71779" lon="4.59548">
        <ele>1.84</ele>
        <time>2019-05-30T07:14:25.000Z</time>
      </trkpt>
      <trkpt lat="43.7175" lon="4.59554">
        <ele>1.82</ele>
        <time>2019-05-30T07:14:30.000Z</time>
      </trkpt>
      <trkpt lat="43.71721" lon="4.59559">
        <ele>2.77</ele>
        <time>2019-05-30T07:14:35.000Z</time>
      </trkpt>
      <trkpt lat="43.7169" lon="4.59565">
        <ele>2.89</ele>
        <time>2019-05-30T07:14:40.000Z</time>
      </trkpt>
      <trkpt lat="43.7166" lon="4.5957">
        <ele>3.82</ele>
        <time>2019-05-30T07:14:45.000Z</time>
      </trkpt>
      <trkpt lat="43.7163" lon="4.59576">
        <ele>2.84</ele>
        <time>2019-05-30T07:14:50.000Z</time>
      </trkpt>
      <trkpt lat="43.71599" lon="4.59582">
        <ele>2.09</ele>
        <time>2019-05-30T07:14:55.000Z</time>
      </trkpt>
      <trkpt lat="43.71568" lon="4.59588">
        <ele>2.79</ele>
        <time>2019-05-30T07:15:00.000Z</time>
      </trkpt>
      <trkpt lat="43.71537" lon="4.59593">
        <ele>2.84</ele>
        <time>2019-05-30T07:15:05.000Z</time>
      </trkpt>
      <trkpt lat="43.71506" lon="4.59598">
        <ele>1.84</ele>
        <time>2019-05-30T07:15:10.000Z</time>
      </trkpt>
      <trkpt lat="43.71475" lon="4.59603">
        <ele>1.84</ele>
        <time>2019-05-30T07:15:15.000Z</time>
      </trkpt>
      <trkpt lat="43.71443" lon="4.59609">
        <ele>1.84</ele>
        <time>2019-05-30T07:15:20.000Z</time>
      </trkpt>
      <trkpt lat="43.71411" lon="4.59614">
        <ele>1.84</ele>
        <time>2019-05-30T07:15:25.000Z</time>
      </trkpt>
      <trkpt lat="43.71379" lon="4.59619">
        <ele>2.83</ele>
        <time>2019-05-30T07:15:30.000Z</time>
      </trkpt>
      <trkpt lat="43.71348" lon="4.59621">
        <ele>1.84</ele>
        <time>2019-05-30T07:15:35.000Z</time>
      </trkpt>
      <trkpt lat="43.71316" lon="4.59623">
        <ele>2.63</ele>
        <time>2019-05-30T07:15:40.000Z</time>
      </trkpt>
      <trkpt lat="43.71285" lon="4.59624">
        <ele>2.84</ele>
        <time>2019-05-30T07:15:45.000Z</time>
      </trkpt>
      <trkpt lat="43.71251" lon="4.59625">
        <ele>2.84</ele>
        <time>2019-05-30T07:15:50.000Z</time>
      </trkpt>
      <trkpt lat="43.71218" lon="4.59626">
        <ele>2.84</ele>
        <time>2019-05-30T07:15:55.000Z</time>
      </trkpt>
      <trkpt lat="43.71184" lon="4.59629">
        <ele>2.85</ele>
        <time>2019-05-30T07:16:00.000Z</time>
      </trkpt>
      <trkpt lat="43.7115" lon="4.5963">
        <ele>2.84</ele>
        <time>2019-05-30T07:16:05.000Z</time>
      </trkpt>
      <trkpt lat="43.71116" lon="4.59631">
        <ele>2.84</ele>
        <time>2019-05-30T07:16:10.000Z</time>
      </trkpt>
      <trkpt lat="43.71082" lon="4.59634">
        <ele>3.59</ele>
        <time>2019-05-30T07:16:15.000Z</time>
      </trkpt>
      <trkpt lat="43.71049" lon="4.59644">
        <ele>3.84</ele>
        <time>2019-05-30T07:16:20.000Z</time>
      </trkpt>
      <trkpt lat="43.71018" lon="4.59659">
        <ele>3.84</ele>
        <time>2019-05-30T07:16:25.000Z</time>
      </trkpt>
      <trkpt lat="43.70988" lon="4.59673">
        <ele>2.85</ele>
        <time>2019-05-30T07:16:30.000Z</time>
      </trkpt>
      <trkpt lat="43.70963" lon="4.59686">
        <ele>3.83</ele>
        <time>2019-05-30T07:16:35.000Z</time>
      </trkpt>
      <trkpt lat="43.70948" lon="4.5969">
        <ele>3.82</ele>
        <time>2019-05-30T07:16:40.000Z</time>
      </trkpt>
      <trkpt lat="43.70948" lon="4.59677">
        <ele>3.84</ele>
        <time>2019-05-30T07:16:45.000Z</time>
      </trkpt>
      <trkpt lat="43.7095" lon="4.59658">
        <ele>3.84</ele>
        <time>2019-05-30T07:16:50.000Z</time>
      </trkpt>
      <trkpt lat="43.70954" lon="4.59638">
        <ele>3.84</ele>
        <time>2019-05-30T07:16:55.000Z</time>
      </trkpt>
      <trkpt lat="43.70957" lon="4.59614">
        <ele>3.84</ele>
        <time>2019-05-30T07:17:00.000Z</time>
      </trkpt>
      <trkpt lat="43.70961" lon="4.59586">
        <ele>2.1</ele>
        <time>2019-05-30T07:17:05.000Z</time>
      </trkpt>
      <trkpt lat="43.70965" lon="4.59557">
        <ele>2.59</ele>
        <time>2019-05-30T07:17:10.000Z</time>
      </trkpt>
      <trkpt lat="43.70969" lon="4.59527">
        <ele>2.84</ele>
        <time>2019-05-30T07:17:15.000Z</time>
      </trkpt>
      <trkpt lat="43.70975" lon="4.59497">
        <ele>3.6</ele>
        <time>2019-05-30T07:17:20.000Z</time>
      </trkpt>
      <trkpt lat="43.70982" lon="4.59465">
        <ele>3.09</ele>
        <time>2019-05-30T07:17:25.000Z</time>
      </trkpt>
      <trkpt lat="43.70993" lon="4.59433">
        <ele>1.84</ele>
        <time>2019-05-30T07:17:30.000Z</time>
      </trkpt>
      <trkpt lat="43.71007" lon="4.59404">
        <ele>1.85</ele>
        <time>2019-05-30T07:17:35.000Z</time>
      </trkpt>
      <trkpt lat="43.71021" lon="4.59378">
        <ele>1.84</ele>
        <time>2019-05-30T07:17:40.000Z</time>
      </trkpt>
      <trkpt lat="43.71036" lon="4.59353">
        <ele>1.84</ele>
        <time>2019-05-30T07:17:45.000Z</time>
      </trkpt>
      <trkpt lat="43.71051" lon="4.59327">
        <ele>1.84</ele>
        <time>2019-05-30T07:17:50.000Z</time>
      </trkpt>
      <trkpt lat="43.71064" lon="4.59302">
        <ele>1.84</ele>
        <time>2019-05-30T07:17:55.000Z</time>
      </trkpt>
      <trkpt lat="43.71073" lon="4.59287">
        <ele>2.84</ele>
        <time>2019-05-30T07:18:00.000Z</time>
      </trkpt>
      <trkpt lat="43.71065" lon="4.59298">
        <ele>2.84</ele>
        <time>2019-05-30T07:19:11.000Z</time>
      </trkpt>
      <trkpt lat="43.71052" lon="4.5932">
        <ele>2.84</ele>
        <time>2019-05-30T07:19:16.000Z</time>
      </trkpt>
      <trkpt lat="43.71036" lon="4.59348">
        <ele>2.85</ele>
        <time>2019-05-30T07:19:21.000Z</time>
      </trkpt>
      <trkpt lat="43.71019" lon="4.59377">
        <ele>3.84</ele>
        <time>2019-05-30T07:19:26.000Z</time>
      </trkpt>
      <trkpt lat="43.71003" lon="4.59407">
        <ele>3.6</ele>
        <time>2019-05-30T07:19:31.000Z</time>
      </trkpt>
      <trkpt lat="43.70988" lon="4.5944">
        <ele>3.77</ele>
        <time>2019-05-30T07:19:36.000Z</time>
      </trkpt>
      <trkpt lat="43.70978" lon="4.59473">
        <ele>2.84</ele>
        <time>2019-05-30T07:19:41.000Z</time>
      </trkpt>
      <trkpt lat="43.70971" lon="4.5951">
        <ele>2.84</ele>
        <time>2019-05-30T07:19:46.000Z</time>
      </trkpt>
      <trkpt lat="43.70965" lon="4.59548">
        <ele>2.84</ele>
        <time>2019-05-30T07:19:51.000Z</time>
      </trkpt>
      <trkpt lat="43.70959" lon="4.59586">
        <ele>2.84</ele>
        <time>2019-05-30T07:19:56.000Z</time>
      </trkpt>
      <trkpt lat="43.70954" lon="4.59625">
        <ele>2.84</ele>
        <time>2019-05-30T07:20:01.000Z</time>
      </trkpt>
      <trkpt lat="43.70949" lon="4.59663">
        <ele>2.83</ele>
        <time>2019-05-30T07:20:06.000Z</time>
      </trkpt>
      <trkpt lat="43.70947" lon="4.59699">
        <ele>1.85</ele>
        <time>2019-05-30T07:20:11.000Z</time>
      </trkpt>
      <trkpt lat="43.70941" lon="4.59732">
        <ele>1.84</ele>
        <time>2019-05-30T07:20:16.000Z</time>
      </trkpt>
      <trkpt lat="43.70917" lon="4.5975">
        <ele>3.58</ele>
        <time>2019-05-30T07:20:21.000Z</time>
      </trkpt>
      <trkpt lat="43.70891" lon="4.59761">
        <ele>2.85</ele>
        <time>2019-05-30T07:20:26.000Z</time>
      </trkpt>
      <trkpt lat="43.70871" lon="4.59778">
        <ele>3.78</ele>
        <time>2019-05-30T07:20:31.000Z</time>
      </trkpt>
      <trkpt lat="43.70856" lon="4.59808">
        <ele>3.78</ele>
        <time>2019-05-30T07:20:36.000Z</time>
      </trkpt>
      <trkpt lat="43.7084" lon="4.59838">
        <ele>4.59</ele>
        <time>2019-05-30T07:20:41.000Z</time>
      </trkpt>
      <trkpt lat="43.70821" lon="4.59869">
        <ele>3.85</ele>
        <time>2019-05-30T07:20:46.000Z</time>
      </trkpt>
      <trkpt lat="43.70803" lon="4.59903">
        <ele>3.84</ele>
        <time>2019-05-30T07:20:51.000Z</time>
      </trkpt>
      <trkpt lat="43.70784" lon="4.59935">
        <ele>3.64</ele>
        <time>2019-05-30T07:20:56.000Z</time>
      </trkpt>
      <trkpt lat="43.70763" lon="4.59967">
        <ele>2.85</ele>
        <time>2019-05-30T07:21:01.000Z</time>
      </trkpt>
      <trkpt lat="43.70737" lon="4.59995">
        <ele>3.78</ele>
        <time>2019-05-30T07:21:06.000Z</time>
      </trkpt>
      <trkpt lat="43.70711" lon="4.60019">
        <ele>4.83</ele>
        <time>2019-05-30T07:21:11.000Z</time>
      </trkpt>
      <trkpt lat="43.70684" lon="4.60046">
        <ele>5.84</ele>
        <time>2019-05-30T07:21:16.000Z</time>
      </trkpt>
      <trkpt lat="43.70659" lon="4.60075">
        <ele>5.8</ele>
        <time>2019-05-30T07:21:21.000Z</time>
      </trkpt>
      <trkpt lat="43.70635" lon="4.60105">
        <ele>6.84</ele>
        <time>2019-05-30T07:21:26.000Z</time>
      </trkpt>
      <trkpt lat="43.70612" lon="4.60134">
        <ele>6.89</ele>
        <time>2019-05-30T07:21:31.000Z</time>
      </trkpt>
      <trkpt lat="43.70591" lon="4.60166">
        <ele>6.84</ele>
        <time>2019-05-30T07:21:36.000Z</time>
      </trkpt>
      <trkpt lat="43.70572" lon="4.60197">
        <ele>5.61</ele>
        <time>2019-05-30T07:21:41.000Z</time>
      </trkpt>
      <trkpt lat="43.70555" lon="4.60228">
        <ele>5.84</ele>
        <time>2019-05-30T07:21:46.000Z</time>
      </trkpt>
      <trkpt lat="43.70538" lon="4.6026">
        <ele>4.81</ele>
        <time>2019-05-30T07:21:51.000Z</time>
      </trkpt>
      <trkpt lat="43.70525" lon="4.60293">
        <ele>5.84</ele>
        <time>2019-05-30T07:21:56.000Z</time>
      </trkpt>
      <trkpt lat="43.7051" lon="4.60329">
        <ele>5.8</ele>
        <time>2019-05-30T07:22:01.000Z</time>
      </trkpt>
      <trkpt lat="43.70494" lon="4.6036">
        <ele>5.84</ele>
        <time>2019-05-30T07:22:06.000Z</time>
      </trkpt>
      <trkpt lat="43.70478" lon="4.60393">
        <ele>5.84</ele>
        <time>2019-05-30T07:22:11.000Z</time>
      </trkpt>
      <trkpt lat="43.70459" lon="4.60425">
        <ele>6.59</ele>
        <time>2019-05-30T07:22:16.000Z</time>
      </trkpt>
      <trkpt lat="43.7044" lon="4.60457">
        <ele>5.61</ele>
        <time>2019-05-30T07:22:21.000Z</time>
      </trkpt>
      <trkpt lat="43.70421" lon="4.60488">
        <ele>6.59</ele>
        <time>2019-05-30T07:22:26.000Z</time>
      </trkpt>
      <trkpt lat="43.70403" lon="4.60518">
        <ele>5.81</ele>
        <time>2019-05-30T07:22:31.000Z</time>
      </trkpt>
      <trkpt lat="43.7038" lon="4.60545">
        <ele>6.82</ele>
        <time>2019-05-30T07:22:36.000Z</time>
      </trkpt>
      <trkpt lat="43.70358" lon="4.6057">
        <ele>7.84</ele>
        <time>2019-05-30T07:22:41.000Z</time>
      </trkpt>
      <trkpt lat="43.70335" lon="4.60593">
        <ele>7.84</ele>
        <time>2019-05-30T07:22:46.000Z</time>
      </trkpt>
      <trkpt lat="43.70314" lon="4.60615">
        <ele>7.09</ele>
        <time>2019-05-30T07:22:51.000Z</time>
      </trkpt>
      <trkpt lat="43.70291" lon="4.6062">
        <ele>5.91</ele>
        <time>2019-05-30T07:22:56.000Z</time>
      </trkpt>
      <trkpt lat="43.70272" lon="4.60631">
        <ele>5.84</ele>
        <time>2019-05-30T07:23:01.000Z</time>
      </trkpt>
      <trkpt lat="43.7026" lon="4.60658">
        <ele>5.84</ele>
        <time>2019-05-30T07:23:06.000Z</time>
      </trkpt>
      <trkpt lat="43.70241" lon="4.60682">
        <ele>5.09</ele>
        <time>2019-05-30T07:23:11.000Z</time>
      </trkpt>
      <trkpt lat="43.70221" lon="4.60703">
        <ele>3.9</ele>
        <time>2019-05-30T07:23:16.000Z</time>
      </trkpt>
      <trkpt lat="43.702" lon="4.60726">
        <ele>6.77</ele>
        <time>2019-05-30T07:23:21.000Z</time>
      </trkpt>
      <trkpt lat="43.70181" lon="4.60746">
        <ele>7.83</ele>
        <time>2019-05-30T07:23:26.000Z</time>
      </trkpt>
      <trkpt lat="43.70163" lon="4.60767">
        <ele>6.58</ele>
        <time>2019-05-30T07:23:31.000Z</time>
      </trkpt>
      <trkpt lat="43.70142" lon="4.60786">
        <ele>6.83</ele>
        <time>2019-05-30T07:23:36.000Z</time>
      </trkpt>
      <trkpt lat="43.70115" lon="4.60796">
        <ele>7.83</ele>
        <time>2019-05-30T07:23:41.000Z</time>
      </trkpt>
      <trkpt lat="43.70087" lon="4.60804">
        <ele>6.85</ele>
        <time>2019-05-30T07:23:46.000Z</time>
      </trkpt>
      <trkpt lat="43.70058" lon="4.60807">
        <ele>5.9</ele>
        <time>2019-05-30T07:23:51.000Z</time>
      </trkpt>
      <trkpt lat="43.70027" lon="4.60811">
        <ele>6.78</ele>
        <time>2019-05-30T07:23:56.000Z</time>
      </trkpt>
      <trkpt lat="43.69995" lon="4.60814">
        <ele>6.1</ele>
        <time>2019-05-30T07:24:01.000Z</time>
      </trkpt>
      <trkpt lat="43.69963" lon="4.60818">
        <ele>4.85</ele>
        <time>2019-05-30T07:24:06.000Z</time>
      </trkpt>
      <trkpt lat="43.69931" lon="4.60824">
        <ele>3.84</ele>
        <time>2019-05-30T07:24:11.000Z</time>
      </trkpt>
      <trkpt lat="43.69899" lon="4.60829">
        <ele>5.78</ele>
        <time>2019-05-30T07:24:16.000Z</time>
      </trkpt>
      <trkpt lat="43.69868" lon="4.60834">
        <ele>4.89</ele>
        <time>2019-05-30T07:24:21.000Z</time>
      </trkpt>
      <trkpt lat="43.69839" lon="4.60837">
        <ele>4.86</ele>
        <time>2019-05-30T07:24:26.000Z</time>
      </trkpt>
      <trkpt lat="43.6981" lon="4.60843">
        <ele>5.03</ele>
        <time>2019-05-30T07:24:31.000Z</time>
      </trkpt>
      <trkpt lat="43.69781" lon="4.60848">
        <ele>5.64</ele>
        <time>2019-05-30T07:24:36.000Z</time>
      </trkpt>
      <trkpt lat="43.69751" lon="4.60854">
        <ele>6.78</ele>
        <time>2019-05-30T07:24:41.000Z</time>
      </trkpt>
      <trkpt lat="43.69721" lon="4.6086">
        <ele>6.84</ele>
        <time>2019-05-30T07:24:46.000Z</time>
      </trkpt>
      <trkpt lat="43.69692" lon="4.60867">
        <ele>6.64</ele>
        <time>2019-05-30T07:24:51.000Z</time>
      </trkpt>
      <trkpt lat="43.69666" lon="4.60869">
        <ele>5.85</ele>
        <time>2019-05-30T07:24:56.000Z</time>
      </trkpt>
      <trkpt lat="43.6964" lon="4.60887">
        <ele>5.8</ele>
        <time>2019-05-30T07:25:01.000Z</time>
      </trkpt>
      <trkpt lat="43.69611" lon="4.60902">
        <ele>5.84</ele>
        <time>2019-05-30T07:25:06.000Z</time>
      </trkpt>
      <trkpt lat="43.69582" lon="4.60917">
        <ele>5.84</ele>
        <time>2019-05-30T07:25:11.000Z</time>
      </trkpt>
      <trkpt lat="43.69551" lon="4.60933">
        <ele>7.59</ele>
        <time>2019-05-30T07:25:16.000Z</time>
      </trkpt>
      <trkpt lat="43.69524" lon="4.60946">
        <ele>6.84</ele>
        <time>2019-05-30T07:25:21.000Z</time>
      </trkpt>
      <trkpt lat="43.69492" lon="4.60959">
        <ele>6.59</ele>
        <time>2019-05-30T07:25:26.000Z</time>
      </trkpt>
      <trkpt lat="43.69463" lon="4.60977">
        <ele>5.39</ele>
        <time>2019-05-30T07:25:31.000Z</time>
      </trkpt>
      <trkpt lat="43.69438" lon="4.60995">
        <ele>6.58</ele>
        <time>2019-05-30T07:25:36.000Z</time>
      </trkpt>
      <trkpt lat="43.69417" lon="4.6101">
        <ele>6.8</ele>
        <time>2019-05-30T07:25:41.000Z</time>
      </trkpt>
      <trkpt lat="43.69408" lon="4.61004">
        <ele>4.84</ele>
        <time>2019-05-30T07:26:00.000Z</time>
      </trkpt>
      <trkpt lat="43.69401" lon="4.60992">
        <ele>5.84</ele>
        <time>2019-05-30T07:26:05.000Z</time>
      </trkpt>
      <trkpt lat="43.69395" lon="4.6097">
        <ele>5.85</ele>
        <time>2019-05-30T07:26:10.000Z</time>
      </trkpt>
      <trkpt lat="43.69385" lon="4.60945">
        <ele>5.89</ele>
        <time>2019-05-30T07:26:15.000Z</time>
      </trkpt>
      <trkpt lat="43.69366" lon="4.60947">
        <ele>2.88</ele>
        <time>2019-05-30T07:26:20.000Z</time>
      </trkpt>
      <trkpt lat="43.69342" lon="4.60956">
        <ele>3.59</ele>
        <time>2019-05-30T07:26:25.000Z</time>
      </trkpt>
      <trkpt lat="43.69316" lon="4.60969">
        <ele>5.82</ele>
        <time>2019-05-30T07:26:30.000Z</time>
      </trkpt>
      <trkpt lat="43.69291" lon="4.60979">
        <ele>6.1</ele>
        <time>2019-05-30T07:26:35.000Z</time>
      </trkpt>
      <trkpt lat="43.69268" lon="4.60991">
        <ele>5.84</ele>
        <time>2019-05-30T07:26:40.000Z</time>
      </trkpt>
      <trkpt lat="43.69242" lon="4.61001">
        <ele>6.8</ele>
        <time>2019-05-30T07:26:45.000Z</time>
      </trkpt>
      <trkpt lat="43.69219" lon="4.61012">
        <ele>8.78</ele>
        <time>2019-05-30T07:26:50.000Z</time>
      </trkpt>
      <trkpt lat="43.692" lon="4.61019">
        <ele>10.58</ele>
        <time>2019-05-30T07:26:55.000Z</time>
      </trkpt>
      <trkpt lat="43.69187" lon="4.61032">
        <ele>8.78</ele>
        <time>2019-05-30T07:27:00.000Z</time>
      </trkpt>
      <trkpt lat="43.69176" lon="4.61052">
        <ele>8.11</ele>
        <time>2019-05-30T07:27:05.000Z</time>
      </trkpt>
      <trkpt lat="43.69172" lon="4.61072">
        <ele>7.56</ele>
        <time>2019-05-30T07:27:10.000Z</time>
      </trkpt>
      <trkpt lat="43.69166" lon="4.61089">
        <ele>7.79</ele>
        <time>2019-05-30T07:27:15.000Z</time>
      </trkpt>
      <trkpt lat="43.69156" lon="4.61101">
        <ele>9.58</ele>
        <time>2019-05-30T07:27:20.000Z</time>
      </trkpt>
      <trkpt lat="43.69148" lon="4.61114">
        <ele>11.78</ele>
        <time>2019-05-30T07:27:25.000Z</time>
      </trkpt>
      <trkpt lat="43.69139" lon="4.61115">
        <ele>14.84</ele>
        <time>2019-05-30T07:27:49.000Z</time>
      </trkpt>
      <trkpt lat="43.69131" lon="4.61124">
        <ele>15.64</ele>
        <time>2019-05-30T07:27:54.000Z</time>
      </trkpt>
      <trkpt lat="43.69122" lon="4.61146">
        <ele>14.1</ele>
        <time>2019-05-30T07:27:59.000Z</time>
      </trkpt>
      <trkpt lat="43.69097" lon="4.61167">
        <ele>11.86</ele>
        <time>2019-05-30T07:28:04.000Z</time>
      </trkpt>
      <trkpt lat="43.69075" lon="4.61186">
        <ele>9.91</ele>
        <time>2019-05-30T07:28:09.000Z</time>
      </trkpt>
      <trkpt lat="43.69053" lon="4.61206">
        <ele>10.84</ele>
        <time>2019-05-30T07:28:14.000Z</time>
      </trkpt>
      <trkpt lat="43.69031" lon="4.61228">
        <ele>11.59</ele>
        <time>2019-05-30T07:28:19.000Z</time>
      </trkpt>
      <trkpt lat="43.69011" lon="4.61246">
        <ele>12.79</ele>
        <time>2019-05-30T07:28:24.000Z</time>
      </trkpt>
      <trkpt lat="43.69003" lon="4.61254">
        <ele>11.16</ele>
        <time>2019-05-30T07:28:39.000Z</time>
      </trkpt>
      <trkpt lat="43.68998" lon="4.61265">
        <ele>10.59</ele>
        <time>2019-05-30T07:28:44.000Z</time>
      </trkpt>
      <trkpt lat="43.68984" lon="4.61276">
        <ele>11.59</ele>
        <time>2019-05-30T07:28:49.000Z</time>
      </trkpt>
      <trkpt lat="43.68972" lon="4.61286">
        <ele>12.78</ele>
        <time>2019-05-30T07:28:54.000Z</time>
      </trkpt>
      <trkpt lat="43.68964" lon="4.61293">
        <ele>16.84</ele>
        <time>2019-05-30T07:29:20.000Z</time>
      </trkpt>
      <trkpt lat="43.68954" lon="4.61304">
        <ele>14.91</ele>
        <time>2019-05-30T07:29:25.000Z</time>
      </trkpt>
      <trkpt lat="43.68939" lon="4.61319">
        <ele>15.78</ele>
        <time>2019-05-30T07:29:30.000Z</time>
      </trkpt>
      <trkpt lat="43.68921" lon="4.61336">
        <ele>15.85</ele>
        <time>2019-05-30T07:29:35.000Z</time>
      </trkpt>
      <trkpt lat="43.689" lon="4.61354">
        <ele>12.9</ele>
        <time>2019-05-30T07:29:40.000Z</time>
      </trkpt>
      <trkpt lat="43.68877" lon="4.61374">
        <ele>12.86</ele>
        <time>2019-05-30T07:29:45.000Z</time>
      </trkpt>
      <trkpt lat="43.68853" lon="4.61395">
        <ele>11.74</ele>
        <time>2019-05-30T07:29:50.000Z</time>
      </trkpt>
      <trkpt lat="43.68831" lon="4.61417">
        <ele>10.85</ele>
        <time>2019-05-30T07:29:55.000Z</time>
      </trkpt>
      <trkpt lat="43.68801" lon="4.61441">
        <ele>8.35</ele>
        <time>2019-05-30T07:30:00.000Z</time>
      </trkpt>
      <trkpt lat="43.68768" lon="4.61463">
        <ele>6.85</ele>
        <time>2019-05-30T07:30:05.000Z</time>
      </trkpt>
      <trkpt lat="43.68729" lon="4.61492">
        <ele>6.9</ele>
        <time>2019-05-30T07:30:10.000Z</time>
      </trkpt>
      <trkpt lat="43.68693" lon="4.61515">
        <ele>9.59</ele>
        <time>2019-05-30T07:30:15.000Z</time>
      </trkpt>
      <trkpt lat="43.68663" lon="4.61538">
        <ele>9.1</ele>
        <time>2019-05-30T07:30:20.000Z</time>
      </trkpt>
      <trkpt lat="43.68633" lon="4.61558">
        <ele>9.58</ele>
        <time>2019-05-30T07:30:25.000Z</time>
      </trkpt>
      <trkpt lat="43.68603" lon="4.61581">
        <ele>9.66</ele>
        <time>2019-05-30T07:30:30.000Z</time>
      </trkpt>
      <trkpt lat="43.68577" lon="4.61598">
        <ele>8.85</ele>
        <time>2019-05-30T07:30:35.000Z</time>
      </trkpt>
      <trkpt lat="43.6855" lon="4.61616">
        <ele>9.03</ele>
        <time>2019-05-30T07:30:40.000Z</time>
      </trkpt>
      <trkpt lat="43.68522" lon="4.61636">
        <ele>9.84</ele>
        <time>2019-05-30T07:30:45.000Z</time>
      </trkpt>
      <trkpt lat="43.68493" lon="4.61658">
        <ele>8.9</ele>
        <time>2019-05-30T07:30:50.000Z</time>
      </trkpt>
      <trkpt lat="43.68464" lon="4.6168">
        <ele>9.84</ele>
        <time>2019-05-30T07:30:55.000Z</time>
      </trkpt>
      <trkpt lat="43.68436" lon="4.61698">
        <ele>9.1</ele>
        <time>2019-05-30T07:31:00.000Z</time>
      </trkpt>
      <trkpt lat="43.68407" lon="4.61718">
        <ele>6.91</ele>
        <time>2019-05-30T07:31:05.000Z</time>
      </trkpt>
      <trkpt lat="43.68378" lon="4.61738">
        <ele>7.08</ele>
        <time>2019-05-30T07:31:10.000Z</time>
      </trkpt>
      <trkpt lat="43.6835" lon="4.61757">
        <ele>7.79</ele>
        <time>2019-05-30T07:31:15.000Z</time>
      </trkpt>
      <trkpt lat="43.68323" lon="4.61774">
        <ele>7.6</ele>
        <time>2019-05-30T07:31:20.000Z</time>
      </trkpt>
      <trkpt lat="43.68295" lon="4.61794">
        <ele>8.6</ele>
        <time>2019-05-30T07:31:25.000Z</time>
      </trkpt>
      <trkpt lat="43.68269" lon="4.61815">
        <ele>7.68</ele>
        <time>2019-05-30T07:31:30.000Z</time>
      </trkpt>
      <trkpt lat="43.68242" lon="4.61837">
        <ele>6.85</ele>
        <time>2019-05-30T07:31:35.000Z</time>
      </trkpt>
      <trkpt lat="43.68215" lon="4.61854">
        <ele>6.85</ele>
        <time>2019-05-30T07:31:40.000Z</time>
      </trkpt>
      <trkpt lat="43.68191" lon="4.6187">
        <ele>6.85</ele>
        <time>2019-05-30T07:31:45.000Z</time>
      </trkpt>
      <trkpt lat="43.68168" lon="4.61884">
        <ele>9.52</ele>
        <time>2019-05-30T07:31:50.000Z</time>
      </trkpt>
      <trkpt lat="43.68144" lon="4.61903">
        <ele>9.85</ele>
        <time>2019-05-30T07:31:55.000Z</time>
      </trkpt>
      <trkpt lat="43.6812" lon="4.61918">
        <ele>11.77</ele>
        <time>2019-05-30T07:32:00.000Z</time>
      </trkpt>
      <trkpt lat="43.68097" lon="4.61935">
        <ele>13.03</ele>
        <time>2019-05-30T07:32:05.000Z</time>
      </trkpt>
      <trkpt lat="43.68076" lon="4.61952">
        <ele>12.9</ele>
        <time>2019-05-30T07:32:10.000Z</time>
      </trkpt>
      <trkpt lat="43.68054" lon="4.61968">
        <ele>13.79</ele>
        <time>2019-05-30T07:32:15.000Z</time>
      </trkpt>
      <trkpt lat="43.68034" lon="4.61981">
        <ele>13.85</ele>
        <time>2019-05-30T07:32:20.000Z</time>
      </trkpt>
      <trkpt lat="43.68016" lon="4.61991">
        <ele>14.85</ele>
        <time>2019-05-30T07:32:25.000Z</time>
      </trkpt>
      <trkpt lat="43.68001" lon="4.62002">
        <ele>16.82</ele>
        <time>2019-05-30T07:32:30.000Z</time>
      </trkpt>
      <trkpt lat="43.67985" lon="4.62018">
        <ele>14.93</ele>
        <time>2019-05-30T07:32:35.000Z</time>
      </trkpt>
      <trkpt lat="43.6797" lon="4.62036">
        <ele>14.9</ele>
        <time>2019-05-30T07:32:40.000Z</time>
      </trkpt>
      <trkpt lat="43.6795" lon="4.62055">
        <ele>14.85</ele>
        <time>2019-05-30T07:32:45.000Z</time>
      </trkpt>
      <trkpt lat="43.67936" lon="4.62072">
        <ele>15.85</ele>
        <time>2019-05-30T07:32:50.000Z</time>
      </trkpt>
      <trkpt lat="43.6792" lon="4.62089">
        <ele>13.12</ele>
        <time>2019-05-30T07:32:55.000Z</time>
      </trkpt>
      <trkpt lat="43.67904" lon="4.62108">
        <ele>12.85</ele>
        <time>2019-05-30T07:33:00.000Z</time>
      </trkpt>
      <trkpt lat="43.67894" lon="4.62123">
        <ele>10.91</ele>
        <time>2019-05-30T07:33:05.000Z</time>
      </trkpt>
      <trkpt lat="43.67904" lon="4.62119">
        <ele>5.1</ele>
        <time>2019-05-30T07:34:39.000Z</time>
      </trkpt>
      <trkpt lat="43.67914" lon="4.62133">
        <ele>6.85</ele>
        <time>2019-05-30T07:34:44.000Z</time>
      </trkpt>
      <trkpt lat="43.67926" lon="4.6216">
        <ele>8.55</ele>
        <time>2019-05-30T07:34:49.000Z</time>
      </trkpt>
      <trkpt lat="43.67935" lon="4.62182">
        <ele>9.6</ele>
        <time>2019-05-30T07:34:54.000Z</time>
      </trkpt>
      <trkpt lat="43.67944" lon="4.62206">
        <ele>9.85</ele>
        <time>2019-05-30T07:34:59.000Z</time>
      </trkpt>
      <trkpt lat="43.67956" lon="4.62229">
        <ele>8.85</ele>
        <time>2019-05-30T07:35:04.000Z</time>
      </trkpt>
      <trkpt lat="43.67968" lon="4.62232">
        <ele>10.48</ele>
        <time>2019-05-30T07:35:09.000Z</time>
      </trkpt>
      <trkpt lat="43.67983" lon="4.62211">
        <ele>13.78</ele>
        <time>2019-05-30T07:35:14.000Z</time>
      </trkpt>
      <trkpt lat="43.68" lon="4.62194">
        <ele>13.11</ele>
        <time>2019-05-30T07:35:19.000Z</time>
      </trkpt>
      <trkpt lat="43.68017" lon="4.62179">
        <ele>13.6</ele>
        <time>2019-05-30T07:35:24.000Z</time>
      </trkpt>
      <trkpt lat="43.68027" lon="4.62162">
        <ele>16.83</ele>
        <time>2019-05-30T07:35:29.000Z</time>
      </trkpt>
      <trkpt lat="43.68031" lon="4.62148">
        <ele>18.84</ele>
        <time>2019-05-30T07:35:34.000Z</time>
      </trkpt>
      <trkpt lat="43.68032" lon="4.62134">
        <ele>18.66</ele>
        <time>2019-05-30T07:35:39.000Z</time>
      </trkpt>
      <trkpt lat="43.68028" lon="4.62147">
        <ele>18.79</ele>
        <time>2019-05-30T07:36:01.000Z</time>
      </trkpt>
      <trkpt lat="43.68023" lon="4.62169">
        <ele>15.92</ele>
        <time>2019-05-30T07:36:06.000Z</time>
      </trkpt>
      <trkpt lat="43.68014" lon="4.62188">
        <ele>15.85</ele>
        <time>2019-05-30T07:36:11.000Z</time>
      </trkpt>
      <trkpt lat="43.68" lon="4.62202">
        <ele>15.09</ele>
        <time>2019-05-30T07:36:16.000Z</time>
      </trkpt>
      <trkpt lat="43.67985" lon="4.62212">
        <ele>14.58</ele>
        <time>2019-05-30T07:36:21.000Z</time>
      </trkpt>
      <trkpt lat="43.6797" lon="4.62223">
        <ele>16.58</ele>
        <time>2019-05-30T07:36:26.000Z</time>
      </trkpt>
      <trkpt lat="43.67957" lon="4.62237">
        <ele>16.85</ele>
        <time>2019-05-30T07:36:31.000Z</time>
      </trkpt>
      <trkpt lat="43.67945" lon="4.62251">
        <ele>15.91</ele>
        <time>2019-05-30T07:36:36.000Z</time>
      </trkpt>
      <trkpt lat="43.67932" lon="4.62265">
        <ele>17.58</ele>
        <time>2019-05-30T07:36:41.000Z</time>
      </trkpt>
      <trkpt lat="43.6792" lon="4.62278">
        <ele>17.85</ele>
        <time>2019-05-30T07:36:46.000Z</time>
      </trkpt>
      <trkpt lat="43.67907" lon="4.6229">
        <ele>17.85</ele>
        <time>2019-05-30T07:36:51.000Z</time>
      </trkpt>
      <trkpt lat="43.67893" lon="4.62303">
        <ele>18.85</ele>
        <time>2019-05-30T07:36:56.000Z</time>
      </trkpt>
      <trkpt lat="43.67877" lon="4.62318">
        <ele>18.85</ele>
        <time>2019-05-30T07:37:01.000Z</time>
      </trkpt>
      <trkpt lat="43.67858" lon="4.62338">
        <ele>18.85</ele>
        <time>2019-05-30T07:37:06.000Z</time>
      </trkpt>
      <trkpt lat="43.67835" lon="4.62358">
        <ele>18.85</ele>
        <time>2019-05-30T07:37:11.000Z</time>
      </trkpt>
      <trkpt lat="43.67813" lon="4.62382">
        <ele>17.85</ele>
        <time>2019-05-30T07:37:16.000Z</time>
      </trkpt>
      <trkpt lat="43.67783" lon="4.62404">
        <ele>17.6</ele>
        <time>2019-05-30T07:37:21.000Z</time>
      </trkpt>
      <trkpt lat="43.6775" lon="4.62419">
        <ele>17.1</ele>
        <time>2019-05-30T07:37:26.000Z</time>
      </trkpt>
      <trkpt lat="43.67722" lon="4.6244">
        <ele>15.91</ele>
        <time>2019-05-30T07:37:31.000Z</time>
      </trkpt>
      <trkpt lat="43.67704" lon="4.62474">
        <ele>12.93</ele>
        <time>2019-05-30T07:37:36.000Z</time>
      </trkpt>
      <trkpt lat="43.67677" lon="4.62488">
        <ele>14.59</ele>
        <time>2019-05-30T07:37:41.000Z</time>
      </trkpt>
      <trkpt lat="43.67648" lon="4.62492">
        <ele>17.79</ele>
        <time>2019-05-30T07:37:46.000Z</time>
      </trkpt>
      <trkpt lat="43.67618" lon="4.62489">
        <ele>18.66</ele>
        <time>2019-05-30T07:37:51.000Z</time>
      </trkpt>
      <trkpt lat="43.67591" lon="4.62488">
        <ele>14.93</ele>
        <time>2019-05-30T07:37:56.000Z</time>
      </trkpt>
      <trkpt lat="43.67559" lon="4.62497">
        <ele>15.6</ele>
        <time>2019-05-30T07:38:01.000Z</time>
      </trkpt>
      <trkpt lat="43.67537" lon="4.62495">
        <ele>15.59</ele>
        <time>2019-05-30T07:38:06.000Z</time>
      </trkpt>
      <trkpt lat="43.67508" lon="4.62501">
        <ele>15.67</ele>
        <time>2019-05-30T07:38:11.000Z</time>
      </trkpt>
      <trkpt lat="43.67499" lon="4.62503">
        <ele>13.9</ele>
        <time>2019-05-30T07:39:17.000Z</time>
      </trkpt>
      <trkpt lat="43.67495" lon="4.62518">
        <ele>14.85</ele>
        <time>2019-05-30T07:39:22.000Z</time>
      </trkpt>
      <trkpt lat="43.67495" lon="4.62552">
        <ele>15.84</ele>
        <time>2019-05-30T07:39:27.000Z</time>
      </trkpt>
      <trkpt lat="43.67497" lon="4.62588">
        <ele>13.84</ele>
        <time>2019-05-30T07:39:32.000Z</time>
      </trkpt>
      <trkpt lat="43.67502" lon="4.62618">
        <ele>13.05</ele>
        <time>2019-05-30T07:39:37.000Z</time>
      </trkpt>
      <trkpt lat="43.67507" lon="4.62642">
        <ele>12.54</ele>
        <time>2019-05-30T07:39:42.000Z</time>
      </trkpt>
      <trkpt lat="43.6751" lon="4.6266">
        <ele>14.85</ele>
        <time>2019-05-30T07:39:47.000Z</time>
      </trkpt>
      <trkpt lat="43.67508" lon="4.62674">
        <ele>15.79</ele>
        <time>2019-05-30T07:39:52.000Z</time>
      </trkpt>
      <trkpt lat="43.6751" lon="4.62696">
        <ele>18.52</ele>
        <time>2019-05-30T07:39:57.000Z</time>
      </trkpt>
      <trkpt lat="43.67512" lon="4.6272">
        <ele>18.62</ele>
        <time>2019-05-30T07:40:02.000Z</time>
      </trkpt>
      <trkpt lat="43.67513" lon="4.62743">
        <ele>20.6</ele>
        <time>2019-05-30T07:40:07.000Z</time>
      </trkpt>
      <trkpt lat="43.67514" lon="4.62761">
        <ele>20.85</ele>
        <time>2019-05-30T07:40:12.000Z</time>
      </trkpt>
      <trkpt lat="43.67504" lon="4.62776">
        <ele>19.84</ele>
        <time>2019-05-30T07:40:17.000Z</time>
      </trkpt>
      <trkpt lat="43.67494" lon="4.62785">
        <ele>19.79</ele>
        <time>2019-05-30T07:40:22.000Z</time>
      </trkpt>
      <trkpt lat="43.67495" lon="4.62799">
        <ele>18.67</ele>
        <time>2019-05-30T07:40:28.000Z</time>
      </trkpt>
      <trkpt lat="43.67499" lon="4.62812">
        <ele>17.91</ele>
        <time>2019-05-30T07:40:34.000Z</time>
      </trkpt>
      <trkpt lat="43.6751" lon="4.62811">
        <ele>17.81</ele>
        <time>2019-05-30T07:40:39.000Z</time>
      </trkpt>
      <trkpt lat="43.67515" lon="4.62822">
        <ele>19.79</ele>
        <time>2019-05-30T07:40:45.000Z</time>
      </trkpt>
      <trkpt lat="43.67513" lon="4.62839">
        <ele>18.86</ele>
        <time>2019-05-30T07:40:50.000Z</time>
      </trkpt>
      <trkpt lat="43.67511" lon="4.62853">
        <ele>17.41</ele>
        <time>2019-05-30T07:40:56.000Z</time>
      </trkpt>
      <trkpt lat="43.67516" lon="4.62871">
        <ele>13.38</ele>
        <time>2019-05-30T07:41:01.000Z</time>
      </trkpt>
      <trkpt lat="43.67517" lon="4.62889">
        <ele>11.85</ele>
        <time>2019-05-30T07:41:06.000Z</time>
      </trkpt>
      <trkpt lat="43.67518" lon="4.62909">
        <ele>16.53</ele>
        <time>2019-05-30T07:41:11.000Z</time>
      </trkpt>
      <trkpt lat="43.6752" lon="4.62926">
        <ele>18.98</ele>
        <time>2019-05-30T07:41:16.000Z</time>
      </trkpt>
      <trkpt lat="43.67519" lon="4.62947">
        <ele>18.57</ele>
        <time>2019-05-30T07:41:21.000Z</time>
      </trkpt>
      <trkpt lat="43.67517" lon="4.62971">
        <ele>20.08</ele>
        <time>2019-05-30T07:41:26.000Z</time>
      </trkpt>
      <trkpt lat="43.67516" lon="4.62993">
        <ele>18.85</ele>
        <time>2019-05-30T07:41:31.000Z</time>
      </trkpt>
      <trkpt lat="43.67511" lon="4.63014">
        <ele>18.59</ele>
        <time>2019-05-30T07:41:36.000Z</time>
      </trkpt>
      <trkpt lat="43.6751" lon="4.63037">
        <ele>16.93</ele>
        <time>2019-05-30T07:41:41.000Z</time>
      </trkpt>
      <trkpt lat="43.67511" lon="4.63059">
        <ele>18.02</ele>
        <time>2019-05-30T07:41:46.000Z</time>
      </trkpt>
      <trkpt lat="43.67509" lon="4.63085">
        <ele>15.86</ele>
        <time>2019-05-30T07:41:51.000Z</time>
      </trkpt>
      <trkpt lat="43.67507" lon="4.63108">
        <ele>17.79</ele>
        <time>2019-05-30T07:41:56.000Z</time>
      </trkpt>
      <trkpt lat="43.67506" lon="4.63132">
        <ele>19.04</ele>
        <time>2019-05-30T07:42:01.000Z</time>
      </trkpt>
      <trkpt lat="43.67503" lon="4.63154">
        <ele>17.97</ele>
        <time>2019-05-30T07:42:06.000Z</time>
      </trkpt>
      <trkpt lat="43.67503" lon="4.63177">
        <ele>19.03</ele>
        <time>2019-05-30T07:42:11.000Z</time>
      </trkpt>
      <trkpt lat="43.67501" lon="4.63198">
        <ele>17.87</ele>
        <time>2019-05-30T07:42:16.000Z</time>
      </trkpt>
      <trkpt lat="43.67499" lon="4.63215">
        <ele>16.92</ele>
        <time>2019-05-30T07:42:21.000Z</time>
      </trkpt>
      <trkpt lat="43.67497" lon="4.63228">
        <ele>16.79</ele>
        <time>2019-05-30T07:42:59.000Z</time>
      </trkpt>
      <trkpt lat="43.67493" lon="4.6324">
        <ele>17.79</ele>
        <time>2019-05-30T07:43:04.000Z</time>
      </trkpt>
      <trkpt lat="43.67499" lon="4.63253">
        <ele>19.04</ele>
        <time>2019-05-30T07:43:44.000Z</time>
      </trkpt>
      <trkpt lat="43.67513" lon="4.63262">
        <ele>19.85</ele>
        <time>2019-05-30T07:43:49.000Z</time>
      </trkpt>
      <trkpt lat="43.67531" lon="4.63268">
        <ele>19.85</ele>
        <time>2019-05-30T07:43:54.000Z</time>
      </trkpt>
      <trkpt lat="43.67552" lon="4.63276">
        <ele>21.36</ele>
        <time>2019-05-30T07:43:59.000Z</time>
      </trkpt>
      <trkpt lat="43.67571" lon="4.63284">
        <ele>20.61</ele>
        <time>2019-05-30T07:44:04.000Z</time>
      </trkpt>
      <trkpt lat="43.67579" lon="4.63292">
        <ele>26.73</ele>
        <time>2019-05-30T07:44:09.000Z</time>
      </trkpt>
      <trkpt lat="43.67598" lon="4.63297">
        <ele>22.49</ele>
        <time>2019-05-30T07:44:14.000Z</time>
      </trkpt>
      <trkpt lat="43.67615" lon="4.63306">
        <ele>22.18</ele>
        <time>2019-05-30T07:44:19.000Z</time>
      </trkpt>
      <trkpt lat="43.67638" lon="4.63314">
        <ele>20.17</ele>
        <time>2019-05-30T07:44:24.000Z</time>
      </trkpt>
      <trkpt lat="43.6766" lon="4.63318">
        <ele>17.87</ele>
        <time>2019-05-30T07:44:29.000Z</time>
      </trkpt>
      <trkpt lat="43.67675" lon="4.63324">
        <ele>18.6</ele>
        <time>2019-05-30T07:44:34.000Z</time>
      </trkpt>
      <trkpt lat="43.67694" lon="4.63335">
        <ele>16.87</ele>
        <time>2019-05-30T07:44:39.000Z</time>
      </trkpt>
      <trkpt lat="43.67714" lon="4.63344">
        <ele>14.12</ele>
        <time>2019-05-30T07:44:44.000Z</time>
      </trkpt>
      <trkpt lat="43.67734" lon="4.6335">
        <ele>12.92</ele>
        <time>2019-05-30T07:44:49.000Z</time>
      </trkpt>
      <trkpt lat="43.67752" lon="4.63359">
        <ele>13.6</ele>
        <time>2019-05-30T07:44:54.000Z</time>
      </trkpt>
      <trkpt lat="43.67769" lon="4.63371">
        <ele>12.87</ele>
        <time>2019-05-30T07:44:59.000Z</time>
      </trkpt>
      <trkpt lat="43.67781" lon="4.63381">
        <ele>12.79</ele>
        <time>2019-05-30T07:45:04.000Z</time>
      </trkpt>
      <trkpt lat="43.67792" lon="4.63388">
        <ele>12.16</ele>
        <time>2019-05-30T07:45:09.000Z</time>
      </trkpt>
      <trkpt lat="43.67802" lon="4.63389">
        <ele>11.84</ele>
        <time>2019-05-30T07:45:18.000Z</time>
      </trkpt>
      <trkpt lat="43.6781" lon="4.63384">
        <ele>18.6</ele>
        <time>2019-05-30T07:45:36.000Z</time>
      </trkpt>
      <trkpt lat="43.67816" lon="4.63369">
        <ele>18.85</ele>
        <time>2019-05-30T07:45:41.000Z</time>
      </trkpt>
      <trkpt lat="43.67825" lon="4.63347">
        <ele>18.85</ele>
        <time>2019-05-30T07:45:46.000Z</time>
      </trkpt>
      <trkpt lat="43.6783" lon="4.63324">
        <ele>17.67</ele>
        <time>2019-05-30T07:45:51.000Z</time>
      </trkpt>
      <trkpt lat="43.67836" lon="4.63304">
        <ele>17.85</ele>
        <time>2019-05-30T07:45:56.000Z</time>
      </trkpt>
      <trkpt lat="43.67844" lon="4.63287">
        <ele>14.13</ele>
        <time>2019-05-30T07:46:01.000Z</time>
      </trkpt>
      <trkpt lat="43.67853" lon="4.63274">
        <ele>14.04</ele>
        <time>2019-05-30T07:46:06.000Z</time>
      </trkpt>
      <trkpt lat="43.67863" lon="4.63258">
        <ele>11.36</ele>
        <time>2019-05-30T07:46:11.000Z</time>
      </trkpt>
      <trkpt lat="43.67876" lon="4.63241">
        <ele>9.86</ele>
        <time>2019-05-30T07:46:16.000Z</time>
      </trkpt>
      <trkpt lat="43.67892" lon="4.63225">
        <ele>9.85</ele>
        <time>2019-05-30T07:46:21.000Z</time>
      </trkpt>
      <trkpt lat="43.67908" lon="4.63209">
        <ele>11.85</ele>
        <time>2019-05-30T07:46:26.000Z</time>
      </trkpt>
      <trkpt lat="43.67922" lon="4.6319">
        <ele>11.61</ele>
        <time>2019-05-30T07:46:31.000Z</time>
      </trkpt>
      <trkpt lat="43.67936" lon="4.63172">
        <ele>11.79</ele>
        <time>2019-05-30T07:46:36.000Z</time>
      </trkpt>
      <trkpt lat="43.67952" lon="4.63156">
        <ele>10.86</ele>
        <time>2019-05-30T07:46:41.000Z</time>
      </trkpt>
      <trkpt lat="43.67961" lon="4.63143">
        <ele>13.47</ele>
        <time>2019-05-30T07:46:46.000Z</time>
      </trkpt>
      <trkpt lat="43.67972" lon="4.63135">
        <ele>11.97</ele>
        <time>2019-05-30T07:46:51.000Z</time>
      </trkpt>
      <trkpt lat="43.6798" lon="4.63141">
        <ele>6.86</ele>
        <time>2019-05-30T07:47:51.000Z</time>
      </trkpt>
      <trkpt lat="43.67988" lon="4.63133">
        <ele>8.85</ele>
        <time>2019-05-30T07:48:17.000Z</time>
      </trkpt>
      <trkpt lat="43.67992" lon="4.63122">
        <ele>10.72</ele>
        <time>2019-05-30T07:48:26.000Z</time>
      </trkpt>
      <trkpt lat="43.6799" lon="4.63109">
        <ele>15.54</ele>
        <time>2019-05-30T07:48:56.000Z</time>
      </trkpt>
      <trkpt lat="43.67986" lon="4.63123">
        <ele>18.56</ele>
        <time>2019-05-30T07:49:41.000Z</time>
      </trkpt>
      <trkpt lat="43.67986" lon="4.63137">
        <ele>25.57</ele>
        <time>2019-05-30T07:53:54.000Z</time>
      </trkpt>
      <trkpt lat="43.6798" lon="4.63129">
        <ele>23.85</ele>
        <time>2019-05-30T07:54:15.000Z</time>
      </trkpt>
      <trkpt lat="43.67981" lon="4.63142">
        <ele>11.88</ele>
        <time>2019-05-30T08:01:24.000Z</time>
      </trkpt>
      <trkpt lat="43.67988" lon="4.63132">
        <ele>8.84</ele>
        <time>2019-05-30T08:01:44.000Z</time>
      </trkpt>
      <trkpt lat="43.67993" lon="4.63121">
        <ele>7.85</ele>
        <time>2019-05-30T08:01:53.000Z</time>
      </trkpt>
      <trkpt lat="43.67984" lon="4.63115">
        <ele>12.54</ele>
        <time>2019-05-30T08:02:19.000Z</time>
      </trkpt>
      <trkpt lat="43.67984" lon="4.63127">
        <ele>21.02</ele>
        <time>2019-05-30T08:02:53.000Z</time>
      </trkpt>
      <trkpt lat="43.6798" lon="4.6314">
        <ele>27.1</ele>
        <time>2019-05-30T08:05:58.000Z</time>
      </trkpt>
      <trkpt lat="43.67982" lon="4.63123">
        <ele>9.85</ele>
        <time>2019-05-30T08:08:09.000Z</time>
      </trkpt>
      <trkpt lat="43.67991" lon="4.63124">
        <ele>12.67</ele>
        <time>2019-05-30T08:14:28.000Z</time>
      </trkpt>
      <trkpt lat="43.67997" lon="4.63115">
        <ele>7.86</ele>
        <time>2019-05-30T08:15:54.000Z</time>
      </trkpt>
      <trkpt lat="43.67986" lon="4.63113">
        <ele>9.79</ele>
        <time>2019-05-30T08:18:03.000Z</time>
      </trkpt>
      <trkpt lat="43.67971" lon="4.63109">
        <ele>11.6</ele>
        <time>2019-05-30T08:18:08.000Z</time>
      </trkpt>
      <trkpt lat="43.67959" lon="4.63107">
        <ele>11.79</ele>
        <time>2019-05-30T08:18:13.000Z</time>
      </trkpt>
      <trkpt lat="43.67945" lon="4.63108">
        <ele>11.29</ele>
        <time>2019-05-30T08:18:18.000Z</time>
      </trkpt>
      <trkpt lat="43.67932" lon="4.63103">
        <ele>10.06</ele>
        <time>2019-05-30T08:18:23.000Z</time>
      </trkpt>
      <trkpt lat="43.67921" lon="4.63094">
        <ele>8.54</ele>
        <time>2019-05-30T08:18:28.000Z</time>
      </trkpt>
      <trkpt lat="43.67912" lon="4.63091">
        <ele>10.6</ele>
        <time>2019-05-30T08:18:34.000Z</time>
      </trkpt>
      <trkpt lat="43.679" lon="4.63087">
        <ele>12.59</ele>
        <time>2019-05-30T08:18:39.000Z</time>
      </trkpt>
      <trkpt lat="43.6789" lon="4.63087">
        <ele>15.77</ele>
        <time>2019-05-30T08:18:47.000Z</time>
      </trkpt>
      <trkpt lat="43.67875" lon="4.6308">
        <ele>14.99</ele>
        <time>2019-05-30T08:18:52.000Z</time>
      </trkpt>
      <trkpt lat="43.67868" lon="4.63066">
        <ele>12.9</ele>
        <time>2019-05-30T08:18:57.000Z</time>
      </trkpt>
      <trkpt lat="43.6787" lon="4.6305">
        <ele>8.11</ele>
        <time>2019-05-30T08:20:51.000Z</time>
      </trkpt>
      <trkpt lat="43.67861" lon="4.63036">
        <ele>8.84</ele>
        <time>2019-05-30T08:20:56.000Z</time>
      </trkpt>
      <trkpt lat="43.67851" lon="4.63029">
        <ele>11.11</ele>
        <time>2019-05-30T08:21:01.000Z</time>
      </trkpt>
      <trkpt lat="43.67839" lon="4.63025">
        <ele>13.83</ele>
        <time>2019-05-30T08:21:06.000Z</time>
      </trkpt>
      <trkpt lat="43.67836" lon="4.63039">
        <ele>15.85</ele>
        <time>2019-05-30T08:21:13.000Z</time>
      </trkpt>
      <trkpt lat="43.67839" lon="4.63053">
        <ele>15.85</ele>
        <time>2019-05-30T08:21:18.000Z</time>
      </trkpt>
      <trkpt lat="43.67841" lon="4.63066">
        <ele>14.86</ele>
        <time>2019-05-30T08:21:23.000Z</time>
      </trkpt>
      <trkpt lat="43.67841" lon="4.6308">
        <ele>16.65</ele>
        <time>2019-05-30T08:21:31.000Z</time>
      </trkpt>
      <trkpt lat="43.6784" lon="4.63093">
        <ele>14.92</ele>
        <time>2019-05-30T08:21:38.000Z</time>
      </trkpt>
      <trkpt lat="43.6784" lon="4.63105">
        <ele>15.85</ele>
        <time>2019-05-30T08:21:44.000Z</time>
      </trkpt>
      <trkpt lat="43.67835" lon="4.63118">
        <ele>17.6</ele>
        <time>2019-05-30T08:21:52.000Z</time>
      </trkpt>
      <trkpt lat="43.67831" lon="4.6313">
        <ele>20.08</ele>
        <time>2019-05-30T08:22:00.000Z</time>
      </trkpt>
      <trkpt lat="43.67824" lon="4.63138">
        <ele>19.77</ele>
        <time>2019-05-30T08:22:36.000Z</time>
      </trkpt>
      <trkpt lat="43.67815" lon="4.63145">
        <ele>19.79</ele>
        <time>2019-05-30T08:22:41.000Z</time>
      </trkpt>
      <trkpt lat="43.67807" lon="4.63156">
        <ele>21.09</ele>
        <time>2019-05-30T08:22:46.000Z</time>
      </trkpt>
      <trkpt lat="43.678" lon="4.63168">
        <ele>19.12</ele>
        <time>2019-05-30T08:22:51.000Z</time>
      </trkpt>
      <trkpt lat="43.67789" lon="4.63171">
        <ele>18.86</ele>
        <time>2019-05-30T08:22:56.000Z</time>
      </trkpt>
      <trkpt lat="43.67779" lon="4.63177">
        <ele>21.04</ele>
        <time>2019-05-30T08:23:02.000Z</time>
      </trkpt>
      <trkpt lat="43.67769" lon="4.63176">
        <ele>21.85</ele>
        <time>2019-05-30T08:23:07.000Z</time>
      </trkpt>
      <trkpt lat="43.67759" lon="4.63174">
        <ele>20.12</ele>
        <time>2019-05-30T08:23:12.000Z</time>
      </trkpt>
      <trkpt lat="43.67748" lon="4.63176">
        <ele>22.77</ele>
        <time>2019-05-30T08:23:17.000Z</time>
      </trkpt>
      <trkpt lat="43.67739" lon="4.63186">
        <ele>25.04</ele>
        <time>2019-05-30T08:23:22.000Z</time>
      </trkpt>
      <trkpt lat="43.67739" lon="4.63203">
        <ele>25.79</ele>
        <time>2019-05-30T08:23:27.000Z</time>
      </trkpt>
      <trkpt lat="43.67739" lon="4.63217">
        <ele>23.93</ele>
        <time>2019-05-30T08:23:32.000Z</time>
      </trkpt>
      <trkpt lat="43.67738" lon="4.6323">
        <ele>22.1</ele>
        <time>2019-05-30T08:23:38.000Z</time>
      </trkpt>
      <trkpt lat="43.67746" lon="4.63238">
        <ele>25.54</ele>
        <time>2019-05-30T08:23:44.000Z</time>
      </trkpt>
      <trkpt lat="43.67756" lon="4.63236">
        <ele>25.62</ele>
        <time>2019-05-30T08:23:50.000Z</time>
      </trkpt>
      <trkpt lat="43.67769" lon="4.6324">
        <ele>27.79</ele>
        <time>2019-05-30T08:23:55.000Z</time>
      </trkpt>
      <trkpt lat="43.67779" lon="4.63243">
        <ele>26.91</ele>
        <time>2019-05-30T08:24:00.000Z</time>
      </trkpt>
      <trkpt lat="43.67782" lon="4.63255">
        <ele>27.85</ele>
        <time>2019-05-30T08:24:06.000Z</time>
      </trkpt>
      <trkpt lat="43.67787" lon="4.63266">
        <ele>27.85</ele>
        <time>2019-05-30T08:24:13.000Z</time>
      </trkpt>
      <trkpt lat="43.67796" lon="4.63268">
        <ele>23.91</ele>
        <time>2019-05-30T08:24:48.000Z</time>
      </trkpt>
      <trkpt lat="43.67789" lon="4.63259">
        <ele>23.85</ele>
        <time>2019-05-30T08:27:51.000Z</time>
      </trkpt>
      <trkpt lat="43.67784" lon="4.63247">
        <ele>24.79</ele>
        <time>2019-05-30T08:27:56.000Z</time>
      </trkpt>
      <trkpt lat="43.67783" lon="4.63233">
        <ele>27.6</ele>
        <time>2019-05-30T08:28:02.000Z</time>
      </trkpt>
      <trkpt lat="43.67784" lon="4.6322">
        <ele>29.85</ele>
        <time>2019-05-30T08:28:09.000Z</time>
      </trkpt>
      <trkpt lat="43.67773" lon="4.6322">
        <ele>29.85</ele>
        <time>2019-05-30T08:28:42.000Z</time>
      </trkpt>
      <trkpt lat="43.67759" lon="4.63219">
        <ele>28.92</ele>
        <time>2019-05-30T08:28:47.000Z</time>
      </trkpt>
      <trkpt lat="43.6775" lon="4.6323">
        <ele>27.86</ele>
        <time>2019-05-30T08:28:52.000Z</time>
      </trkpt>
      <trkpt lat="43.67746" lon="4.63214">
        <ele>26.87</ele>
        <time>2019-05-30T08:28:57.000Z</time>
      </trkpt>
      <trkpt lat="43.67743" lon="4.63191">
        <ele>24.92</ele>
        <time>2019-05-30T08:29:02.000Z</time>
      </trkpt>
      <trkpt lat="43.67742" lon="4.63173">
        <ele>25.6</ele>
        <time>2019-05-30T08:29:07.000Z</time>
      </trkpt>
      <trkpt lat="43.67728" lon="4.63162">
        <ele>25.79</ele>
        <time>2019-05-30T08:29:12.000Z</time>
      </trkpt>
      <trkpt lat="43.67715" lon="4.63154">
        <ele>25.85</ele>
        <time>2019-05-30T08:29:17.000Z</time>
      </trkpt>
      <trkpt lat="43.67707" lon="4.63135">
        <ele>26.61</ele>
        <time>2019-05-30T08:29:22.000Z</time>
      </trkpt>
      <trkpt lat="43.67704" lon="4.63116">
        <ele>25.87</ele>
        <time>2019-05-30T08:29:27.000Z</time>
      </trkpt>
      <trkpt lat="43.67702" lon="4.63102">
        <ele>26.6</ele>
        <time>2019-05-30T08:29:32.000Z</time>
      </trkpt>
      <trkpt lat="43.67703" lon="4.63085">
        <ele>28.59</ele>
        <time>2019-05-30T08:29:37.000Z</time>
      </trkpt>
      <trkpt lat="43.67705" lon="4.63072">
        <ele>28.1</ele>
        <time>2019-05-30T08:29:42.000Z</time>
      </trkpt>
      <trkpt lat="43.67708" lon="4.63059">
        <ele>28.85</ele>
        <time>2019-05-30T08:29:47.000Z</time>
      </trkpt>
      <trkpt lat="43.67715" lon="4.63048">
        <ele>27.16</ele>
        <time>2019-05-30T08:29:55.000Z</time>
      </trkpt>
      <trkpt lat="43.67724" lon="4.63045">
        <ele>29.84</ele>
        <time>2019-05-30T08:30:04.000Z</time>
      </trkpt>
      <trkpt lat="43.67715" lon="4.63041">
        <ele>27.9</ele>
        <time>2019-05-30T08:30:19.000Z</time>
      </trkpt>
      <trkpt lat="43.67702" lon="4.63037">
        <ele>28.91</ele>
        <time>2019-05-30T08:30:24.000Z</time>
      </trkpt>
      <trkpt lat="43.67691" lon="4.63037">
        <ele>27.86</ele>
        <time>2019-05-30T08:30:29.000Z</time>
      </trkpt>
      <trkpt lat="43.67682" lon="4.63034">
        <ele>27.86</ele>
        <time>2019-05-30T08:30:40.000Z</time>
      </trkpt>
      <trkpt lat="43.67689" lon="4.63014">
        <ele>25.92</ele>
        <time>2019-05-30T08:30:45.000Z</time>
      </trkpt>
      <trkpt lat="43.677" lon="4.62987">
        <ele>23.87</ele>
        <time>2019-05-30T08:30:50.000Z</time>
      </trkpt>
      <trkpt lat="43.67702" lon="4.62959">
        <ele>23.66</ele>
        <time>2019-05-30T08:30:55.000Z</time>
      </trkpt>
      <trkpt lat="43.67703" lon="4.62946">
        <ele>22.09</ele>
        <time>2019-05-30T08:31:05.000Z</time>
      </trkpt>
      <trkpt lat="43.67697" lon="4.62955">
        <ele>24.58</ele>
        <time>2019-05-30T08:31:36.000Z</time>
      </trkpt>
      <trkpt lat="43.67705" lon="4.62946">
        <ele>20.93</ele>
        <time>2019-05-30T08:31:46.000Z</time>
      </trkpt>
      <trkpt lat="43.67701" lon="4.62932">
        <ele>22.41</ele>
        <time>2019-05-30T08:31:51.000Z</time>
      </trkpt>
      <trkpt lat="43.67699" lon="4.62919">
        <ele>22.11</ele>
        <time>2019-05-30T08:32:02.000Z</time>
      </trkpt>
      <trkpt lat="43.6769" lon="4.62922">
        <ele>23.08</ele>
        <time>2019-05-30T08:32:08.000Z</time>
      </trkpt>
      <trkpt lat="43.6768" lon="4.62918">
        <ele>22.09</ele>
        <time>2019-05-30T08:32:14.000Z</time>
      </trkpt>
      <trkpt lat="43.67689" lon="4.62911">
        <ele>22.65</ele>
        <time>2019-05-30T08:32:19.000Z</time>
      </trkpt>
      <trkpt lat="43.67699" lon="4.62912">
        <ele>21.43</ele>
        <time>2019-05-30T08:32:24.000Z</time>
      </trkpt>
      <trkpt lat="43.67695" lon="4.62895">
        <ele>23.1</ele>
        <time>2019-05-30T08:32:29.000Z</time>
      </trkpt>
      <trkpt lat="43.67695" lon="4.62879">
        <ele>21.87</ele>
        <time>2019-05-30T08:32:34.000Z</time>
      </trkpt>
      <trkpt lat="43.67696" lon="4.62865">
        <ele>18.64</ele>
        <time>2019-05-30T08:32:39.000Z</time>
      </trkpt>
      <trkpt lat="43.67699" lon="4.62852">
        <ele>14</ele>
        <time>2019-05-30T08:32:44.000Z</time>
      </trkpt>
      <trkpt lat="43.67701" lon="4.62839">
        <ele>12.12</ele>
        <time>2019-05-30T08:32:49.000Z</time>
      </trkpt>
      <trkpt lat="43.67706" lon="4.62816">
        <ele>13.18</ele>
        <time>2019-05-30T08:32:54.000Z</time>
      </trkpt>
      <trkpt lat="43.67704" lon="4.62796">
        <ele>11.84</ele>
        <time>2019-05-30T08:32:59.000Z</time>
      </trkpt>
      <trkpt lat="43.67704" lon="4.62783">
        <ele>16.43</ele>
        <time>2019-05-30T08:33:04.000Z</time>
      </trkpt>
      <trkpt lat="43.67693" lon="4.62784">
        <ele>16.53</ele>
        <time>2019-05-30T08:33:11.000Z</time>
      </trkpt>
      <trkpt lat="43.67678" lon="4.62781">
        <ele>15.91</ele>
        <time>2019-05-30T08:33:16.000Z</time>
      </trkpt>
      <trkpt lat="43.67671" lon="4.62771">
        <ele>12.62</ele>
        <time>2019-05-30T08:33:23.000Z</time>
      </trkpt>
      <trkpt lat="43.67669" lon="4.62757">
        <ele>11.93</ele>
        <time>2019-05-30T08:33:28.000Z</time>
      </trkpt>
      <trkpt lat="43.6767" lon="4.62743">
        <ele>12.66</ele>
        <time>2019-05-30T08:33:34.000Z</time>
      </trkpt>
      <trkpt lat="43.67663" lon="4.6275">
        <ele>15.35</ele>
        <time>2019-05-30T08:34:17.000Z</time>
      </trkpt>
      <trkpt lat="43.67654" lon="4.62742">
        <ele>16.53</ele>
        <time>2019-05-30T08:34:22.000Z</time>
      </trkpt>
      <trkpt lat="43.67643" lon="4.62743">
        <ele>17.79</ele>
        <time>2019-05-30T08:34:28.000Z</time>
      </trkpt>
      <trkpt lat="43.67632" lon="4.62743">
        <ele>16.86</ele>
        <time>2019-05-30T08:34:33.000Z</time>
      </trkpt>
      <trkpt lat="43.67623" lon="4.62746">
        <ele>39.23</ele>
        <time>2019-05-30T08:37:13.000Z</time>
      </trkpt>
      <trkpt lat="43.67616" lon="4.62735">
        <ele>24.16</ele>
        <time>2019-05-30T08:37:19.000Z</time>
      </trkpt>
      <trkpt lat="43.67614" lon="4.62721">
        <ele>19.98</ele>
        <time>2019-05-30T08:37:25.000Z</time>
      </trkpt>
      <trkpt lat="43.67615" lon="4.62707">
        <ele>17.87</ele>
        <time>2019-05-30T08:37:32.000Z</time>
      </trkpt>
      <trkpt lat="43.6762" lon="4.62696">
        <ele>17.1</ele>
        <time>2019-05-30T08:37:37.000Z</time>
      </trkpt>
      <trkpt lat="43.67625" lon="4.62683">
        <ele>14.12</ele>
        <time>2019-05-30T08:37:43.000Z</time>
      </trkpt>
      <trkpt lat="43.67628" lon="4.6267">
        <ele>14.84</ele>
        <time>2019-05-30T08:37:48.000Z</time>
      </trkpt>
      <trkpt lat="43.67632" lon="4.62658">
        <ele>14.17</ele>
        <time>2019-05-30T08:37:53.000Z</time>
      </trkpt>
      <trkpt lat="43.67636" lon="4.62642">
        <ele>13.85</ele>
        <time>2019-05-30T08:37:58.000Z</time>
      </trkpt>
      <trkpt lat="43.67641" lon="4.62628">
        <ele>11.93</ele>
        <time>2019-05-30T08:38:03.000Z</time>
      </trkpt>
      <trkpt lat="43.67642" lon="4.62615">
        <ele>10.11</ele>
        <time>2019-05-30T08:38:08.000Z</time>
      </trkpt>
      <trkpt lat="43.67652" lon="4.62603">
        <ele>10.84</ele>
        <time>2019-05-30T08:38:13.000Z</time>
      </trkpt>
      <trkpt lat="43.67655" lon="4.62586">
        <ele>10.1</ele>
        <time>2019-05-30T08:38:18.000Z</time>
      </trkpt>
      <trkpt lat="43.67663" lon="4.6257">
        <ele>9.85</ele>
        <time>2019-05-30T08:38:23.000Z</time>
      </trkpt>
      <trkpt lat="43.67674" lon="4.62554">
        <ele>9.8</ele>
        <time>2019-05-30T08:38:28.000Z</time>
      </trkpt>
      <trkpt lat="43.67681" lon="4.62533">
        <ele>11.12</ele>
        <time>2019-05-30T08:38:33.000Z</time>
      </trkpt>
      <trkpt lat="43.67694" lon="4.6252">
        <ele>7.93</ele>
        <time>2019-05-30T08:38:38.000Z</time>
      </trkpt>
      <trkpt lat="43.67702" lon="4.62506">
        <ele>6.86</ele>
        <time>2019-05-30T08:38:43.000Z</time>
      </trkpt>
      <trkpt lat="43.67708" lon="4.62492">
        <ele>7.79</ele>
        <time>2019-05-30T08:38:48.000Z</time>
      </trkpt>
      <trkpt lat="43.67704" lon="4.6248">
        <ele>12.29</ele>
        <time>2019-05-30T08:38:59.000Z</time>
      </trkpt>
      <trkpt lat="43.67715" lon="4.62464">
        <ele>9.04</ele>
        <time>2019-05-30T08:39:04.000Z</time>
      </trkpt>
      <trkpt lat="43.67728" lon="4.62443">
        <ele>5.93</ele>
        <time>2019-05-30T08:39:09.000Z</time>
      </trkpt>
      <trkpt lat="43.67746" lon="4.62431">
        <ele>10.51</ele>
        <time>2019-05-30T08:39:14.000Z</time>
      </trkpt>
      <trkpt lat="43.67768" lon="4.62421">
        <ele>11.85</ele>
        <time>2019-05-30T08:39:19.000Z</time>
      </trkpt>
      <trkpt lat="43.67787" lon="4.62416">
        <ele>12.04</ele>
        <time>2019-05-30T08:39:24.000Z</time>
      </trkpt>
      <trkpt lat="43.67798" lon="4.6241">
        <ele>13.54</ele>
        <time>2019-05-30T08:39:29.000Z</time>
      </trkpt>
      <trkpt lat="43.67811" lon="4.62398">
        <ele>16.13</ele>
        <time>2019-05-30T08:39:34.000Z</time>
      </trkpt>
      <trkpt lat="43.67824" lon="4.62384">
        <ele>15.6</ele>
        <time>2019-05-30T08:39:39.000Z</time>
      </trkpt>
      <trkpt lat="43.67836" lon="4.62371">
        <ele>17.79</ele>
        <time>2019-05-30T08:39:44.000Z</time>
      </trkpt>
      <trkpt lat="43.67848" lon="4.62357">
        <ele>18.6</ele>
        <time>2019-05-30T08:39:49.000Z</time>
      </trkpt>
      <trkpt lat="43.67861" lon="4.62345">
        <ele>17.85</ele>
        <time>2019-05-30T08:39:54.000Z</time>
      </trkpt>
      <trkpt lat="43.67873" lon="4.62333">
        <ele>18.79</ele>
        <time>2019-05-30T08:39:59.000Z</time>
      </trkpt>
      <trkpt lat="43.67885" lon="4.62321">
        <ele>17.87</ele>
        <time>2019-05-30T08:40:04.000Z</time>
      </trkpt>
      <trkpt lat="43.67899" lon="4.62308">
        <ele>16.91</ele>
        <time>2019-05-30T08:40:09.000Z</time>
      </trkpt>
      <trkpt lat="43.67913" lon="4.62295">
        <ele>16.85</ele>
        <time>2019-05-30T08:40:14.000Z</time>
      </trkpt>
      <trkpt lat="43.67929" lon="4.62279">
        <ele>15.91</ele>
        <time>2019-05-30T08:40:19.000Z</time>
      </trkpt>
      <trkpt lat="43.67949" lon="4.6226">
        <ele>15.85</ele>
        <time>2019-05-30T08:40:24.000Z</time>
      </trkpt>
      <trkpt lat="43.6797" lon="4.62241">
        <ele>14.9</ele>
        <time>2019-05-30T08:40:29.000Z</time>
      </trkpt>
      <trkpt lat="43.67993" lon="4.62221">
        <ele>13.85</ele>
        <time>2019-05-30T08:40:34.000Z</time>
      </trkpt>
      <trkpt lat="43.68018" lon="4.62199">
        <ele>13.9</ele>
        <time>2019-05-30T08:40:39.000Z</time>
      </trkpt>
      <trkpt lat="43.68036" lon="4.62167">
        <ele>15.84</ele>
        <time>2019-05-30T08:40:44.000Z</time>
      </trkpt>
      <trkpt lat="43.6804" lon="4.62129">
        <ele>12.93</ele>
        <time>2019-05-30T08:40:49.000Z</time>
      </trkpt>
      <trkpt lat="43.6804" lon="4.62116">
        <ele>11.85</ele>
        <time>2019-05-30T08:41:18.000Z</time>
      </trkpt>
      <trkpt lat="43.68042" lon="4.62091">
        <ele>11.84</ele>
        <time>2019-05-30T08:41:23.000Z</time>
      </trkpt>
      <trkpt lat="43.68043" lon="4.62063">
        <ele>10.9</ele>
        <time>2019-05-30T08:41:28.000Z</time>
      </trkpt>
      <trkpt lat="43.68041" lon="4.62044">
        <ele>9.84</ele>
        <time>2019-05-30T08:41:33.000Z</time>
      </trkpt>
      <trkpt lat="43.68034" lon="4.62034">
        <ele>12.83</ele>
        <time>2019-05-30T08:41:43.000Z</time>
      </trkpt>
      <trkpt lat="43.68015" lon="4.62025">
        <ele>11.1</ele>
        <time>2019-05-30T08:41:48.000Z</time>
      </trkpt>
      <trkpt lat="43.67996" lon="4.6202">
        <ele>10.85</ele>
        <time>2019-05-30T08:41:53.000Z</time>
      </trkpt>
      <trkpt lat="43.67976" lon="4.62006">
        <ele>7.98</ele>
        <time>2019-05-30T08:41:58.000Z</time>
      </trkpt>
      <trkpt lat="43.67969" lon="4.61978">
        <ele>7.8</ele>
        <time>2019-05-30T08:42:03.000Z</time>
      </trkpt>
      <trkpt lat="43.67963" lon="4.61951">
        <ele>8.83</ele>
        <time>2019-05-30T08:42:08.000Z</time>
      </trkpt>
      <trkpt lat="43.67961" lon="4.61921">
        <ele>7.85</ele>
        <time>2019-05-30T08:42:13.000Z</time>
      </trkpt>
      <trkpt lat="43.67963" lon="4.61894">
        <ele>7.1</ele>
        <time>2019-05-30T08:42:18.000Z</time>
      </trkpt>
      <trkpt lat="43.67957" lon="4.61883">
        <ele>12.08</ele>
        <time>2019-05-30T08:43:38.000Z</time>
      </trkpt>
      <trkpt lat="43.67958" lon="4.61847">
        <ele>10.85</ele>
        <time>2019-05-30T08:43:43.000Z</time>
      </trkpt>
      <trkpt lat="43.67959" lon="4.61812">
        <ele>10.61</ele>
        <time>2019-05-30T08:43:48.000Z</time>
      </trkpt>
      <trkpt lat="43.67951" lon="4.61778">
        <ele>7.87</ele>
        <time>2019-05-30T08:43:53.000Z</time>
      </trkpt>
      <trkpt lat="43.67928" lon="4.61754">
        <ele>5.85</ele>
        <time>2019-05-30T08:43:58.000Z</time>
      </trkpt>
      <trkpt lat="43.67896" lon="4.61746">
        <ele>6.9</ele>
        <time>2019-05-30T08:44:03.000Z</time>
      </trkpt>
      <trkpt lat="43.67864" lon="4.6174">
        <ele>6.85</ele>
        <time>2019-05-30T08:44:08.000Z</time>
      </trkpt>
      <trkpt lat="43.67836" lon="4.61728">
        <ele>4.87</ele>
        <time>2019-05-30T08:44:13.000Z</time>
      </trkpt>
      <trkpt lat="43.67811" lon="4.61702">
        <ele>4.86</ele>
        <time>2019-05-30T08:44:18.000Z</time>
      </trkpt>
      <trkpt lat="43.67785" lon="4.61677">
        <ele>4.8</ele>
        <time>2019-05-30T08:44:23.000Z</time>
      </trkpt>
      <trkpt lat="43.67761" lon="4.61649">
        <ele>4.84</ele>
        <time>2019-05-30T08:44:28.000Z</time>
      </trkpt>
      <trkpt lat="43.67739" lon="4.61622">
        <ele>5.04</ele>
        <time>2019-05-30T08:44:33.000Z</time>
      </trkpt>
      <trkpt lat="43.67717" lon="4.61596">
        <ele>4.11</ele>
        <time>2019-05-30T08:44:38.000Z</time>
      </trkpt>
      <trkpt lat="43.67699" lon="4.61576">
        <ele>4.14</ele>
        <time>2019-05-30T08:44:43.000Z</time>
      </trkpt>
      <trkpt lat="43.67681" lon="4.61582">
        <ele>3.83</ele>
        <time>2019-05-30T08:44:48.000Z</time>
      </trkpt>
      <trkpt lat="43.67664" lon="4.61596">
        <ele>3.85</ele>
        <time>2019-05-30T08:44:53.000Z</time>
      </trkpt>
      <trkpt lat="43.67646" lon="4.61613">
        <ele>3.8</ele>
        <time>2019-05-30T08:44:58.000Z</time>
      </trkpt>
      <trkpt lat="43.6763" lon="4.61604">
        <ele>7.53</ele>
        <time>2019-05-30T08:45:03.000Z</time>
      </trkpt>
      <trkpt lat="43.67619" lon="4.61588">
        <ele>7.79</ele>
        <time>2019-05-30T08:45:08.000Z</time>
      </trkpt>
      <trkpt lat="43.67612" lon="4.61605">
        <ele>11.65</ele>
        <time>2019-05-30T08:45:13.000Z</time>
      </trkpt>
      <trkpt lat="43.67632" lon="4.61631">
        <ele>10.86</ele>
        <time>2019-05-30T08:45:18.000Z</time>
      </trkpt>
      <trkpt lat="43.67647" lon="4.61654">
        <ele>8.18</ele>
        <time>2019-05-30T08:45:23.000Z</time>
      </trkpt>
      <trkpt lat="43.67659" lon="4.61674">
        <ele>5.87</ele>
        <time>2019-05-30T08:45:28.000Z</time>
      </trkpt>
      <trkpt lat="43.67669" lon="4.61691">
        <ele>4.11</ele>
        <time>2019-05-30T08:45:33.000Z</time>
      </trkpt>
      <trkpt lat="43.67681" lon="4.61704">
        <ele>4.8</ele>
        <time>2019-05-30T08:45:38.000Z</time>
      </trkpt>
      <trkpt lat="43.67693" lon="4.61693">
        <ele>5.65</ele>
        <time>2019-05-30T08:45:43.000Z</time>
      </trkpt>
      <trkpt lat="43.67705" lon="4.61681">
        <ele>8.78</ele>
        <time>2019-05-30T08:45:48.000Z</time>
      </trkpt>
      <trkpt lat="43.6772" lon="4.6167">
        <ele>9.83</ele>
        <time>2019-05-30T08:45:53.000Z</time>
      </trkpt>
      <trkpt lat="43.67726" lon="4.61645">
        <ele>9.85</ele>
        <time>2019-05-30T08:45:58.000Z</time>
      </trkpt>
      <trkpt lat="43.67722" lon="4.61618">
        <ele>9.05</ele>
        <time>2019-05-30T08:46:03.000Z</time>
      </trkpt>
      <trkpt lat="43.67701" lon="4.61597">
        <ele>8.85</ele>
        <time>2019-05-30T08:46:08.000Z</time>
      </trkpt>
      <trkpt lat="43.67699" lon="4.61584">
        <ele>6.87</ele>
        <time>2019-05-30T08:46:13.000Z</time>
      </trkpt>
      <trkpt lat="43.67698" lon="4.61568">
        <ele>10.22</ele>
        <time>2019-05-30T08:46:39.000Z</time>
      </trkpt>
      <trkpt lat="43.67679" lon="4.61541">
        <ele>4.2</ele>
        <time>2019-05-30T08:46:44.000Z</time>
      </trkpt>
      <trkpt lat="43.67665" lon="4.61515">
        <ele>5.77</ele>
        <time>2019-05-30T08:46:49.000Z</time>
      </trkpt>
      <trkpt lat="43.67647" lon="4.61485">
        <ele>5.77</ele>
        <time>2019-05-30T08:46:54.000Z</time>
      </trkpt>
      <trkpt lat="43.67631" lon="4.61454">
        <ele>8.63</ele>
        <time>2019-05-30T08:46:59.000Z</time>
      </trkpt>
      <trkpt lat="43.67617" lon="4.61422">
        <ele>7.1</ele>
        <time>2019-05-30T08:47:04.000Z</time>
      </trkpt>
      <trkpt lat="43.676" lon="4.61387">
        <ele>7.6</ele>
        <time>2019-05-30T08:47:09.000Z</time>
      </trkpt>
      <trkpt lat="43.67585" lon="4.61354">
        <ele>5.68</ele>
        <time>2019-05-30T08:47:14.000Z</time>
      </trkpt>
      <trkpt lat="43.6757" lon="4.61318">
        <ele>6.6</ele>
        <time>2019-05-30T08:47:19.000Z</time>
      </trkpt>
      <trkpt lat="43.67554" lon="4.61284">
        <ele>3.87</ele>
        <time>2019-05-30T08:47:24.000Z</time>
      </trkpt>
      <trkpt lat="43.67538" lon="4.61247">
        <ele>4.6</ele>
        <time>2019-05-30T08:47:29.000Z</time>
      </trkpt>
      <trkpt lat="43.67522" lon="4.61212">
        <ele>4.54</ele>
        <time>2019-05-30T08:47:34.000Z</time>
      </trkpt>
      <trkpt lat="43.67509" lon="4.61176">
        <ele>4.41</ele>
        <time>2019-05-30T08:47:39.000Z</time>
      </trkpt>
      <trkpt lat="43.67494" lon="4.61143">
        <ele>4.04</ele>
        <time>2019-05-30T08:47:44.000Z</time>
      </trkpt>
      <trkpt lat="43.67477" lon="4.61108">
        <ele>2.85</ele>
        <time>2019-05-30T08:47:49.000Z</time>
      </trkpt>
      <trkpt lat="43.67461" lon="4.61073">
        <ele>1.93</ele>
        <time>2019-05-30T08:47:54.000Z</time>
      </trkpt>
      <trkpt lat="43.67447" lon="4.61034">
        <ele>1.14</ele>
        <time>2019-05-30T08:47:59.000Z</time>
      </trkpt>
      <trkpt lat="43.67439" lon="4.60996">
        <ele>3.52</ele>
        <time>2019-05-30T08:48:04.000Z</time>
      </trkpt>
      <trkpt lat="43.6743" lon="4.60955">
        <ele>4.83</ele>
        <time>2019-05-30T08:48:09.000Z</time>
      </trkpt>
      <trkpt lat="43.67423" lon="4.60915">
        <ele>4.84</ele>
        <time>2019-05-30T08:48:14.000Z</time>
      </trkpt>
      <trkpt lat="43.67414" lon="4.60877">
        <ele>7.84</ele>
        <time>2019-05-30T08:48:19.000Z</time>
      </trkpt>
      <trkpt lat="43.67405" lon="4.60836">
        <ele>6.05</ele>
        <time>2019-05-30T08:48:24.000Z</time>
      </trkpt>
      <trkpt lat="43.67399" lon="4.60797">
        <ele>6.78</ele>
        <time>2019-05-30T08:48:29.000Z</time>
      </trkpt>
      <trkpt lat="43.6739" lon="4.60758">
        <ele>5.6</ele>
        <time>2019-05-30T08:48:34.000Z</time>
      </trkpt>
      <trkpt lat="43.67378" lon="4.60718">
        <ele>6.03</ele>
        <time>2019-05-30T08:48:39.000Z</time>
      </trkpt>
      <trkpt lat="43.67365" lon="4.60684">
        <ele>5.86</ele>
        <time>2019-05-30T08:48:44.000Z</time>
      </trkpt>
      <trkpt lat="43.67368" lon="4.60657">
        <ele>5.85</ele>
        <time>2019-05-30T08:48:49.000Z</time>
      </trkpt>
      <trkpt lat="43.67381" lon="4.60628">
        <ele>5.1</ele>
        <time>2019-05-30T08:48:54.000Z</time>
      </trkpt>
      <trkpt lat="43.67374" lon="4.60595">
        <ele>4.85</ele>
        <time>2019-05-30T08:48:59.000Z</time>
      </trkpt>
      <trkpt lat="43.67366" lon="4.60558">
        <ele>3.86</ele>
        <time>2019-05-30T08:49:04.000Z</time>
      </trkpt>
      <trkpt lat="43.67361" lon="4.60516">
        <ele>0.91</ele>
        <time>2019-05-30T08:49:09.000Z</time>
      </trkpt>
      <trkpt lat="43.67357" lon="4.6047">
        <ele>1.08</ele>
        <time>2019-05-30T08:49:14.000Z</time>
      </trkpt>
      <trkpt lat="43.67346" lon="4.60427">
        <ele>1.78</ele>
        <time>2019-05-30T08:49:19.000Z</time>
      </trkpt>
      <trkpt lat="43.67334" lon="4.60386">
        <ele>1.9</ele>
        <time>2019-05-30T08:49:24.000Z</time>
      </trkpt>
      <trkpt lat="43.67323" lon="4.60346">
        <ele>1.83</ele>
        <time>2019-05-30T08:49:29.000Z</time>
      </trkpt>
      <trkpt lat="43.67312" lon="4.60306">
        <ele>1.61</ele>
        <time>2019-05-30T08:49:34.000Z</time>
      </trkpt>
      <trkpt lat="43.67304" lon="4.60265">
        <ele>1.89</ele>
        <time>2019-05-30T08:49:39.000Z</time>
      </trkpt>
      <trkpt lat="43.67295" lon="4.60225">
        <ele>1.85</ele>
        <time>2019-05-30T08:49:44.000Z</time>
      </trkpt>
      <trkpt lat="43.6729" lon="4.60186">
        <ele>1.1</ele>
        <time>2019-05-30T08:49:49.000Z</time>
      </trkpt>
      <trkpt lat="43.67282" lon="4.60145">
        <ele>1.85</ele>
        <time>2019-05-30T08:49:54.000Z</time>
      </trkpt>
      <trkpt lat="43.67274" lon="4.60104">
        <ele>0.85</ele>
        <time>2019-05-30T08:49:59.000Z</time>
      </trkpt>
      <trkpt lat="43.6727" lon="4.60065">
        <ele>1.6</ele>
        <time>2019-05-30T08:50:04.000Z</time>
      </trkpt>
      <trkpt lat="43.67265" lon="4.60028">
        <ele>0.86</ele>
        <time>2019-05-30T08:50:09.000Z</time>
      </trkpt>
      <trkpt lat="43.67259" lon="4.59989">
        <ele>1.78</ele>
        <time>2019-05-30T08:50:14.000Z</time>
      </trkpt>
      <trkpt lat="43.67255" lon="4.59954">
        <ele>3.58</ele>
        <time>2019-05-30T08:50:19.000Z</time>
      </trkpt>
      <trkpt lat="43.67251" lon="4.59916">
        <ele>4.84</ele>
        <time>2019-05-30T08:50:24.000Z</time>
      </trkpt>
      <trkpt lat="43.67245" lon="4.59878">
        <ele>4.85</ele>
        <time>2019-05-30T08:50:29.000Z</time>
      </trkpt>
      <trkpt lat="43.67241" lon="4.59838">
        <ele>4.83</ele>
        <time>2019-05-30T08:50:34.000Z</time>
      </trkpt>
      <trkpt lat="43.67236" lon="4.59797">
        <ele>3.86</ele>
        <time>2019-05-30T08:50:39.000Z</time>
      </trkpt>
      <trkpt lat="43.6723" lon="4.59756">
        <ele>1.85</ele>
        <time>2019-05-30T08:50:44.000Z</time>
      </trkpt>
      <trkpt lat="43.67227" lon="4.59719">
        <ele>0.35</ele>
        <time>2019-05-30T08:50:49.000Z</time>
      </trkpt>
      <trkpt lat="43.67222" lon="4.59681">
        <ele>0.6</ele>
        <time>2019-05-30T08:50:54.000Z</time>
      </trkpt>
      <trkpt lat="43.67216" lon="4.59645">
        <ele>1.3</ele>
        <time>2019-05-30T08:50:59.000Z</time>
      </trkpt>
      <trkpt lat="43.67206" lon="4.59607">
        <ele>1.8</ele>
        <time>2019-05-30T08:51:04.000Z</time>
      </trkpt>
      <trkpt lat="43.6719" lon="4.59571">
        <ele>1.8</ele>
        <time>2019-05-30T08:51:09.000Z</time>
      </trkpt>
      <trkpt lat="43.67174" lon="4.5954">
        <ele>1.09</ele>
        <time>2019-05-30T08:51:14.000Z</time>
      </trkpt>
      <trkpt lat="43.67158" lon="4.59508">
        <ele>2.53</ele>
        <time>2019-05-30T08:51:19.000Z</time>
      </trkpt>
      <trkpt lat="43.67141" lon="4.59478">
        <ele>1.85</ele>
        <time>2019-05-30T08:51:24.000Z</time>
      </trkpt>
      <trkpt lat="43.67125" lon="4.59446">
        <ele>3.03</ele>
        <time>2019-05-30T08:51:29.000Z</time>
      </trkpt>
      <trkpt lat="43.67107" lon="4.59412">
        <ele>3.64</ele>
        <time>2019-05-30T08:51:34.000Z</time>
      </trkpt>
      <trkpt lat="43.6709" lon="4.59378">
        <ele>3.84</ele>
        <time>2019-05-30T08:51:39.000Z</time>
      </trkpt>
      <trkpt lat="43.67075" lon="4.59345">
        <ele>2.85</ele>
        <time>2019-05-30T08:51:44.000Z</time>
      </trkpt>
      <trkpt lat="43.67059" lon="4.5931">
        <ele>0.91</ele>
        <time>2019-05-30T08:51:49.000Z</time>
      </trkpt>
      <trkpt lat="43.67042" lon="4.59275">
        <ele>1.78</ele>
        <time>2019-05-30T08:51:54.000Z</time>
      </trkpt>
      <trkpt lat="43.67025" lon="4.59237">
        <ele>1.09</ele>
        <time>2019-05-30T08:51:59.000Z</time>
      </trkpt>
      <trkpt lat="43.67009" lon="4.59199">
        <ele>5</ele>
        <time>2019-05-30T08:52:04.000Z</time>
      </trkpt>
      <trkpt lat="43.6699" lon="4.59162">
        <ele>2.58</ele>
        <time>2019-05-30T08:52:09.000Z</time>
      </trkpt>
      <trkpt lat="43.66972" lon="4.59129">
        <ele>1.8</ele>
        <time>2019-05-30T08:52:14.000Z</time>
      </trkpt>
      <trkpt lat="43.6695" lon="4.59095">
        <ele>0.09</ele>
        <time>2019-05-30T08:52:19.000Z</time>
      </trkpt>
      <trkpt lat="43.66928" lon="4.59062">
        <ele>0.84</ele>
        <time>2019-05-30T08:52:24.000Z</time>
      </trkpt>
      <trkpt lat="43.66904" lon="4.59028">
        <ele>0.09</ele>
        <time>2019-05-30T08:52:29.000Z</time>
      </trkpt>
      <trkpt lat="43.66881" lon="4.58997">
        <ele>0.78</ele>
        <time>2019-05-30T08:52:34.000Z</time>
      </trkpt>
      <trkpt lat="43.66859" lon="4.58965">
        <ele>2.34</ele>
        <time>2019-05-30T08:52:39.000Z</time>
      </trkpt>
      <trkpt lat="43.66842" lon="4.58926">
        <ele>0.85</ele>
        <time>2019-05-30T08:52:44.000Z</time>
      </trkpt>
      <trkpt lat="43.66831" lon="4.58883">
        <ele>0.15</ele>
        <time>2019-05-30T08:52:49.000Z</time>
      </trkpt>
      <trkpt lat="43.66817" lon="4.58844">
        <ele>5</ele>
        <time>2019-05-30T08:52:54.000Z</time>
      </trkpt>
      <trkpt lat="43.66801" lon="4.58808">
        <ele>1.35</ele>
        <time>2019-05-30T08:52:59.000Z</time>
      </trkpt>
      <trkpt lat="43.66786" lon="4.58768">
        <ele>0.1</ele>
        <time>2019-05-30T08:53:04.000Z</time>
      </trkpt>
      <trkpt lat="43.66774" lon="4.58729">
        <ele>1.58</ele>
        <time>2019-05-30T08:53:09.000Z</time>
      </trkpt>
      <trkpt lat="43.66761" lon="4.58689">
        <ele>0.91</ele>
        <time>2019-05-30T08:53:14.000Z</time>
      </trkpt>
      <trkpt lat="43.66751" lon="4.58646">
        <ele>1.59</ele>
        <time>2019-05-30T08:53:19.000Z</time>
      </trkpt>
      <trkpt lat="43.66742" lon="4.58604">
        <ele>0.1</ele>
        <time>2019-05-30T08:53:24.000Z</time>
      </trkpt>
      <trkpt lat="43.66732" lon="4.58564">
        <ele>1.34</ele>
        <time>2019-05-30T08:53:29.000Z</time>
      </trkpt>
      <trkpt lat="43.66722" lon="4.58523">
        <ele>3</ele>
        <time>2019-05-30T08:53:34.000Z</time>
      </trkpt>
      <trkpt lat="43.66713" lon="4.58483">
        <ele>3</ele>
        <time>2019-05-30T08:53:39.000Z</time>
      </trkpt>
      <trkpt lat="43.66705" lon="4.58442">
        <ele>0.84</ele>
        <time>2019-05-30T08:53:44.000Z</time>
      </trkpt>
      <trkpt lat="43.66696" lon="4.58402">
        <ele>3.34</ele>
        <time>2019-05-30T08:53:49.000Z</time>
      </trkpt>
      <trkpt lat="43.66688" lon="4.5836">
        <ele>1.91</ele>
        <time>2019-05-30T08:53:54.000Z</time>
      </trkpt>
      <trkpt lat="43.66679" lon="4.5832">
        <ele>2.59</ele>
        <time>2019-05-30T08:53:59.000Z</time>
      </trkpt>
      <trkpt lat="43.66669" lon="4.58282">
        <ele>2.84</ele>
        <time>2019-05-30T08:54:04.000Z</time>
      </trkpt>
      <trkpt lat="43.66661" lon="4.58243">
        <ele>2.84</ele>
        <time>2019-05-30T08:54:09.000Z</time>
      </trkpt>
      <trkpt lat="43.66652" lon="4.58202">
        <ele>3.03</ele>
        <time>2019-05-30T08:54:14.000Z</time>
      </trkpt>
      <trkpt lat="43.66641" lon="4.58158">
        <ele>2.85</ele>
        <time>2019-05-30T08:54:19.000Z</time>
      </trkpt>
      <trkpt lat="43.66631" lon="4.58115">
        <ele>2.09</ele>
        <time>2019-05-30T08:54:24.000Z</time>
      </trkpt>
      <trkpt lat="43.6662" lon="4.58072">
        <ele>0.86</ele>
        <time>2019-05-30T08:54:29.000Z</time>
      </trkpt>
      <trkpt lat="43.66611" lon="4.58029">
        <ele>1.84</ele>
        <time>2019-05-30T08:54:34.000Z</time>
      </trkpt>
      <trkpt lat="43.66604" lon="4.57986">
        <ele>0.11</ele>
        <time>2019-05-30T08:54:39.000Z</time>
      </trkpt>
      <trkpt lat="43.66599" lon="4.57944">
        <ele>0.59</ele>
        <time>2019-05-30T08:54:44.000Z</time>
      </trkpt>
      <trkpt lat="43.66594" lon="4.57901">
        <ele>1.59</ele>
        <time>2019-05-30T08:54:49.000Z</time>
      </trkpt>
      <trkpt lat="43.66588" lon="4.57858">
        <ele>2.78</ele>
        <time>2019-05-30T08:54:54.000Z</time>
      </trkpt>
      <trkpt lat="43.66583" lon="4.57815">
        <ele>2.84</ele>
        <time>2019-05-30T08:54:59.000Z</time>
      </trkpt>
      <trkpt lat="43.66583" lon="4.57773">
        <ele>2.84</ele>
        <time>2019-05-30T08:55:04.000Z</time>
      </trkpt>
      <trkpt lat="43.66584" lon="4.57732">
        <ele>3.78</ele>
        <time>2019-05-30T08:55:09.000Z</time>
      </trkpt>
      <trkpt lat="43.66585" lon="4.57691">
        <ele>3.89</ele>
        <time>2019-05-30T08:55:14.000Z</time>
      </trkpt>
      <trkpt lat="43.66587" lon="4.57649">
        <ele>3.84</ele>
        <time>2019-05-30T08:55:19.000Z</time>
      </trkpt>
      <trkpt lat="43.66588" lon="4.57608">
        <ele>4.84</ele>
        <time>2019-05-30T08:55:24.000Z</time>
      </trkpt>
      <trkpt lat="43.66587" lon="4.57567">
        <ele>4.84</ele>
        <time>2019-05-30T08:55:29.000Z</time>
      </trkpt>
      <trkpt lat="43.66586" lon="4.57529">
        <ele>4.65</ele>
        <time>2019-05-30T08:55:34.000Z</time>
      </trkpt>
      <trkpt lat="43.66586" lon="4.57489">
        <ele>4.84</ele>
        <time>2019-05-30T08:55:39.000Z</time>
      </trkpt>
      <trkpt lat="43.66585" lon="4.57449">
        <ele>3.89</ele>
        <time>2019-05-30T08:55:44.000Z</time>
      </trkpt>
      <trkpt lat="43.66583" lon="4.57406">
        <ele>1.84</ele>
        <time>2019-05-30T08:55:49.000Z</time>
      </trkpt>
      <trkpt lat="43.66582" lon="4.57364">
        <ele>1.84</ele>
        <time>2019-05-30T08:55:54.000Z</time>
      </trkpt>
      <trkpt lat="43.6658" lon="4.57321">
        <ele>2.84</ele>
        <time>2019-05-30T08:55:59.000Z</time>
      </trkpt>
      <trkpt lat="43.66572" lon="4.57282">
        <ele>3.07</ele>
        <time>2019-05-30T08:56:04.000Z</time>
      </trkpt>
      <trkpt lat="43.66543" lon="4.57274">
        <ele>2.9</ele>
        <time>2019-05-30T08:56:09.000Z</time>
      </trkpt>
      <trkpt lat="43.66518" lon="4.57263">
        <ele>2.84</ele>
        <time>2019-05-30T08:56:14.000Z</time>
      </trkpt>
      <trkpt lat="43.66516" lon="4.57227">
        <ele>3.59</ele>
        <time>2019-05-30T08:56:19.000Z</time>
      </trkpt>
      <trkpt lat="43.66515" lon="4.57191">
        <ele>3.78</ele>
        <time>2019-05-30T08:56:24.000Z</time>
      </trkpt>
      <trkpt lat="43.66512" lon="4.57151">
        <ele>2.84</ele>
        <time>2019-05-30T08:56:29.000Z</time>
      </trkpt>
      <trkpt lat="43.66509" lon="4.57108">
        <ele>2.15</ele>
        <time>2019-05-30T08:56:34.000Z</time>
      </trkpt>
      <trkpt lat="43.66504" lon="4.57068">
        <ele>2.07</ele>
        <time>2019-05-30T08:56:39.000Z</time>
      </trkpt>
      <trkpt lat="43.66502" lon="4.57027">
        <ele>0.9</ele>
        <time>2019-05-30T08:56:44.000Z</time>
      </trkpt>
      <trkpt lat="43.66498" lon="4.56987">
        <ele>0.84</ele>
        <time>2019-05-30T08:56:49.000Z</time>
      </trkpt>
      <trkpt lat="43.66493" lon="4.56947">
        <ele>0.84</ele>
        <time>2019-05-30T08:56:54.000Z</time>
      </trkpt>
      <trkpt lat="43.66488" lon="4.56903">
        <ele>3.57</ele>
        <time>2019-05-30T08:56:59.000Z</time>
      </trkpt>
      <trkpt lat="43.66482" lon="4.56857">
        <ele>3.84</ele>
        <time>2019-05-30T08:57:04.000Z</time>
      </trkpt>
      <trkpt lat="43.66476" lon="4.56812">
        <ele>3.84</ele>
        <time>2019-05-30T08:57:09.000Z</time>
      </trkpt>
      <trkpt lat="43.66471" lon="4.56769">
        <ele>3.84</ele>
        <time>2019-05-30T08:57:14.000Z</time>
      </trkpt>
      <trkpt lat="43.66466" lon="4.56724">
        <ele>3.6</ele>
        <time>2019-05-30T08:57:19.000Z</time>
      </trkpt>
      <trkpt lat="43.66462" lon="4.56681">
        <ele>2.84</ele>
        <time>2019-05-30T08:57:24.000Z</time>
      </trkpt>
      <trkpt lat="43.66461" lon="4.56639">
        <ele>2.83</ele>
        <time>2019-05-30T08:57:29.000Z</time>
      </trkpt>
      <trkpt lat="43.6646" lon="4.56598">
        <ele>3.09</ele>
        <time>2019-05-30T08:57:34.000Z</time>
      </trkpt>
      <trkpt lat="43.66458" lon="4.56555">
        <ele>2.84</ele>
        <time>2019-05-30T08:57:39.000Z</time>
      </trkpt>
      <trkpt lat="43.66458" lon="4.56513">
        <ele>1.85</ele>
        <time>2019-05-30T08:57:44.000Z</time>
      </trkpt>
      <trkpt lat="43.66455" lon="4.5647">
        <ele>2.82</ele>
        <time>2019-05-30T08:57:49.000Z</time>
      </trkpt>
      <trkpt lat="43.66454" lon="4.56429">
        <ele>2.84</ele>
        <time>2019-05-30T08:57:54.000Z</time>
      </trkpt>
      <trkpt lat="43.66453" lon="4.5639">
        <ele>2.03</ele>
        <time>2019-05-30T08:57:59.000Z</time>
      </trkpt>
      <trkpt lat="43.66451" lon="4.56352">
        <ele>2.59</ele>
        <time>2019-05-30T08:58:04.000Z</time>
      </trkpt>
      <trkpt lat="43.66449" lon="4.56314">
        <ele>2.84</ele>
        <time>2019-05-30T08:58:09.000Z</time>
      </trkpt>
      <trkpt lat="43.66447" lon="4.56272">
        <ele>2.65</ele>
        <time>2019-05-30T08:58:14.000Z</time>
      </trkpt>
      <trkpt lat="43.66444" lon="4.5623">
        <ele>2.84</ele>
        <time>2019-05-30T08:58:19.000Z</time>
      </trkpt>
      <trkpt lat="43.66439" lon="4.56187">
        <ele>2.04</ele>
        <time>2019-05-30T08:58:24.000Z</time>
      </trkpt>
      <trkpt lat="43.66431" lon="4.56144">
        <ele>0.09</ele>
        <time>2019-05-30T08:58:29.000Z</time>
      </trkpt>
      <trkpt lat="43.66425" lon="4.56102">
        <ele>2</ele>
        <time>2019-05-30T08:58:34.000Z</time>
      </trkpt>
      <trkpt lat="43.66418" lon="4.56061">
        <ele>2</ele>
        <time>2019-05-30T08:58:39.000Z</time>
      </trkpt>
      <trkpt lat="43.66411" lon="4.56021">
        <ele>2</ele>
        <time>2019-05-30T08:58:44.000Z</time>
      </trkpt>
      <trkpt lat="43.66403" lon="4.55981">
        <ele>2</ele>
        <time>2019-05-30T08:58:49.000Z</time>
      </trkpt>
      <trkpt lat="43.66396" lon="4.55944">
        <ele>2</ele>
        <time>2019-05-30T08:58:54.000Z</time>
      </trkpt>
      <trkpt lat="43.6639" lon="4.55906">
        <ele>0.07</ele>
        <time>2019-05-30T08:58:59.000Z</time>
      </trkpt>
      <trkpt lat="43.66383" lon="4.5587">
        <ele>0.83</ele>
        <time>2019-05-30T08:59:04.000Z</time>
      </trkpt>
      <trkpt lat="43.66375" lon="4.55834">
        <ele>1.84</ele>
        <time>2019-05-30T08:59:09.000Z</time>
      </trkpt>
      <trkpt lat="43.66369" lon="4.55797">
        <ele>0.9</ele>
        <time>2019-05-30T08:59:14.000Z</time>
      </trkpt>
      <trkpt lat="43.66362" lon="4.55761">
        <ele>1.82</ele>
        <time>2019-05-30T08:59:19.000Z</time>
      </trkpt>
      <trkpt lat="43.66355" lon="4.55726">
        <ele>1.84</ele>
        <time>2019-05-30T08:59:24.000Z</time>
      </trkpt>
      <trkpt lat="43.66347" lon="4.55693">
        <ele>0.9</ele>
        <time>2019-05-30T08:59:29.000Z</time>
      </trkpt>
      <trkpt lat="43.66339" lon="4.5566">
        <ele>1.83</ele>
        <time>2019-05-30T08:59:34.000Z</time>
      </trkpt>
      <trkpt lat="43.66332" lon="4.55626">
        <ele>2.07</ele>
        <time>2019-05-30T08:59:39.000Z</time>
      </trkpt>
      <trkpt lat="43.66324" lon="4.5559">
        <ele>1.84</ele>
        <time>2019-05-30T08:59:44.000Z</time>
      </trkpt>
      <trkpt lat="43.66316" lon="4.55555">
        <ele>2.07</ele>
        <time>2019-05-30T08:59:49.000Z</time>
      </trkpt>
      <trkpt lat="43.66309" lon="4.55518">
        <ele>2.83</ele>
        <time>2019-05-30T08:59:54.000Z</time>
      </trkpt>
      <trkpt lat="43.66302" lon="4.55479">
        <ele>2.84</ele>
        <time>2019-05-30T08:59:59.000Z</time>
      </trkpt>
      <trkpt lat="43.66295" lon="4.55441">
        <ele>1.85</ele>
        <time>2019-05-30T09:00:04.000Z</time>
      </trkpt>
      <trkpt lat="43.66287" lon="4.55404">
        <ele>2.02</ele>
        <time>2019-05-30T09:00:09.000Z</time>
      </trkpt>
      <trkpt lat="43.6628" lon="4.55365">
        <ele>2.82</ele>
        <time>2019-05-30T09:00:14.000Z</time>
      </trkpt>
      <trkpt lat="43.66273" lon="4.55327">
        <ele>1.9</ele>
        <time>2019-05-30T09:00:19.000Z</time>
      </trkpt>
      <trkpt lat="43.66268" lon="4.55287">
        <ele>0.84</ele>
        <time>2019-05-30T09:00:24.000Z</time>
      </trkpt>
      <trkpt lat="43.66261" lon="4.5525">
        <ele>0.83</ele>
        <time>2019-05-30T09:00:29.000Z</time>
      </trkpt>
      <trkpt lat="43.66255" lon="4.55212">
        <ele>1.63</ele>
        <time>2019-05-30T09:00:34.000Z</time>
      </trkpt>
      <trkpt lat="43.66248" lon="4.55172">
        <ele>1.65</ele>
        <time>2019-05-30T09:00:39.000Z</time>
      </trkpt>
      <trkpt lat="43.66241" lon="4.55133">
        <ele>1.83</ele>
        <time>2019-05-30T09:00:44.000Z</time>
      </trkpt>
      <trkpt lat="43.66234" lon="4.55092">
        <ele>0.9</ele>
        <time>2019-05-30T09:00:49.000Z</time>
      </trkpt>
      <trkpt lat="43.66226" lon="4.5505">
        <ele>1.77</ele>
        <time>2019-05-30T09:00:54.000Z</time>
      </trkpt>
      <trkpt lat="43.66218" lon="4.55008">
        <ele>2.02</ele>
        <time>2019-05-30T09:00:59.000Z</time>
      </trkpt>
      <trkpt lat="43.66211" lon="4.54967">
        <ele>1.85</ele>
        <time>2019-05-30T09:01:04.000Z</time>
      </trkpt>
      <trkpt lat="43.66205" lon="4.54924">
        <ele>1.59</ele>
        <time>2019-05-30T09:01:09.000Z</time>
      </trkpt>
      <trkpt lat="43.66202" lon="4.54882">
        <ele>0.84</ele>
        <time>2019-05-30T09:01:14.000Z</time>
      </trkpt>
      <trkpt lat="43.66198" lon="4.54843">
        <ele>1.83</ele>
        <time>2019-05-30T09:01:19.000Z</time>
      </trkpt>
      <trkpt lat="43.66193" lon="4.54803">
        <ele>1.79</ele>
        <time>2019-05-30T09:01:24.000Z</time>
      </trkpt>
      <trkpt lat="43.6619" lon="4.54765">
        <ele>1.83</ele>
        <time>2019-05-30T09:01:29.000Z</time>
      </trkpt>
      <trkpt lat="43.66189" lon="4.54726">
        <ele>1.83</ele>
        <time>2019-05-30T09:01:34.000Z</time>
      </trkpt>
      <trkpt lat="43.66192" lon="4.54689">
        <ele>2.58</ele>
        <time>2019-05-30T09:01:39.000Z</time>
      </trkpt>
      <trkpt lat="43.66195" lon="4.54653">
        <ele>1.85</ele>
        <time>2019-05-30T09:01:44.000Z</time>
      </trkpt>
      <trkpt lat="43.66198" lon="4.54616">
        <ele>2.63</ele>
        <time>2019-05-30T09:01:49.000Z</time>
      </trkpt>
      <trkpt lat="43.66205" lon="4.54582">
        <ele>2.83</ele>
        <time>2019-05-30T09:01:54.000Z</time>
      </trkpt>
      <trkpt lat="43.66199" lon="4.54556">
        <ele>3.77</ele>
        <time>2019-05-30T09:01:59.000Z</time>
      </trkpt>
      <trkpt lat="43.6618" lon="4.54538">
        <ele>3.82</ele>
        <time>2019-05-30T09:02:04.000Z</time>
      </trkpt>
      <trkpt lat="43.66159" lon="4.5452">
        <ele>2.09</ele>
        <time>2019-05-30T09:02:09.000Z</time>
      </trkpt>
      <trkpt lat="43.66138" lon="4.54497">
        <ele>1.6</ele>
        <time>2019-05-30T09:02:14.000Z</time>
      </trkpt>
      <trkpt lat="43.66115" lon="4.54473">
        <ele>1.83</ele>
        <time>2019-05-30T09:02:19.000Z</time>
      </trkpt>
      <trkpt lat="43.66092" lon="4.54449">
        <ele>1.82</ele>
        <time>2019-05-30T09:02:24.000Z</time>
      </trkpt>
      <trkpt lat="43.66067" lon="4.54422">
        <ele>0.84</ele>
        <time>2019-05-30T09:02:29.000Z</time>
      </trkpt>
      <trkpt lat="43.66055" lon="4.54383">
        <ele>0.79</ele>
        <time>2019-05-30T09:02:34.000Z</time>
      </trkpt>
      <trkpt lat="43.66056" lon="4.54344">
        <ele>1.58</ele>
        <time>2019-05-30T09:02:39.000Z</time>
      </trkpt>
      <trkpt lat="43.6606" lon="4.54307">
        <ele>1.83</ele>
        <time>2019-05-30T09:02:44.000Z</time>
      </trkpt>
      <trkpt lat="43.66061" lon="4.5427">
        <ele>1.83</ele>
        <time>2019-05-30T09:02:49.000Z</time>
      </trkpt>
      <trkpt lat="43.66061" lon="4.54235">
        <ele>1.83</ele>
        <time>2019-05-30T09:02:54.000Z</time>
      </trkpt>
      <trkpt lat="43.66051" lon="4.54202">
        <ele>1.84</ele>
        <time>2019-05-30T09:02:59.000Z</time>
      </trkpt>
      <trkpt lat="43.66041" lon="4.54169">
        <ele>2.83</ele>
        <time>2019-05-30T09:03:04.000Z</time>
      </trkpt>
      <trkpt lat="43.66029" lon="4.54133">
        <ele>2.83</ele>
        <time>2019-05-30T09:03:09.000Z</time>
      </trkpt>
      <trkpt lat="43.66016" lon="4.54096">
        <ele>2.83</ele>
        <time>2019-05-30T09:03:14.000Z</time>
      </trkpt>
      <trkpt lat="43.66004" lon="4.54061">
        <ele>2.83</ele>
        <time>2019-05-30T09:03:19.000Z</time>
      </trkpt>
      <trkpt lat="43.65994" lon="4.54025">
        <ele>3.58</ele>
        <time>2019-05-30T09:03:24.000Z</time>
      </trkpt>
      <trkpt lat="43.65982" lon="4.53988">
        <ele>2.83</ele>
        <time>2019-05-30T09:03:29.000Z</time>
      </trkpt>
      <trkpt lat="43.65968" lon="4.5395">
        <ele>2.83</ele>
        <time>2019-05-30T09:03:34.000Z</time>
      </trkpt>
      <trkpt lat="43.65955" lon="4.53911">
        <ele>2.08</ele>
        <time>2019-05-30T09:03:39.000Z</time>
      </trkpt>
      <trkpt lat="43.65942" lon="4.53875">
        <ele>1.83</ele>
        <time>2019-05-30T09:03:44.000Z</time>
      </trkpt>
      <trkpt lat="43.6593" lon="4.53838">
        <ele>1.83</ele>
        <time>2019-05-30T09:03:49.000Z</time>
      </trkpt>
      <trkpt lat="43.65919" lon="4.53801">
        <ele>1.83</ele>
        <time>2019-05-30T09:03:54.000Z</time>
      </trkpt>
      <trkpt lat="43.65908" lon="4.53771">
        <ele>0.6</ele>
        <time>2019-05-30T09:03:59.000Z</time>
      </trkpt>
      <trkpt lat="43.65897" lon="4.53738">
        <ele>0.83</ele>
        <time>2019-05-30T09:04:04.000Z</time>
      </trkpt>
      <trkpt lat="43.65887" lon="4.53707">
        <ele>1.58</ele>
        <time>2019-05-30T09:04:09.000Z</time>
      </trkpt>
      <trkpt lat="43.65876" lon="4.53673">
        <ele>1.83</ele>
        <time>2019-05-30T09:04:14.000Z</time>
      </trkpt>
      <trkpt lat="43.65865" lon="4.53637">
        <ele>0.89</ele>
        <time>2019-05-30T09:04:19.000Z</time>
      </trkpt>
      <trkpt lat="43.65855" lon="4.53601">
        <ele>1.58</ele>
        <time>2019-05-30T09:04:24.000Z</time>
      </trkpt>
      <trkpt lat="43.65843" lon="4.53564">
        <ele>0.64</ele>
        <time>2019-05-30T09:04:29.000Z</time>
      </trkpt>
      <trkpt lat="43.65834" lon="4.53528">
        <ele>0.83</ele>
        <time>2019-05-30T09:04:34.000Z</time>
      </trkpt>
      <trkpt lat="43.65823" lon="4.53492">
        <ele>1.81</ele>
        <time>2019-05-30T09:04:39.000Z</time>
      </trkpt>
      <trkpt lat="43.65813" lon="4.53455">
        <ele>1.83</ele>
        <time>2019-05-30T09:04:44.000Z</time>
      </trkpt>
      <trkpt lat="43.65802" lon="4.53419">
        <ele>1.83</ele>
        <time>2019-05-30T09:04:49.000Z</time>
      </trkpt>
      <trkpt lat="43.65792" lon="4.53382">
        <ele>1.83</ele>
        <time>2019-05-30T09:04:54.000Z</time>
      </trkpt>
      <trkpt lat="43.65781" lon="4.53344">
        <ele>2.57</ele>
        <time>2019-05-30T09:04:59.000Z</time>
      </trkpt>
      <trkpt lat="43.65769" lon="4.53305">
        <ele>1.83</ele>
        <time>2019-05-30T09:05:04.000Z</time>
      </trkpt>
      <trkpt lat="43.65757" lon="4.53265">
        <ele>1.83</ele>
        <time>2019-05-30T09:05:09.000Z</time>
      </trkpt>
      <trkpt lat="43.65747" lon="4.53226">
        <ele>1.08</ele>
        <time>2019-05-30T09:05:14.000Z</time>
      </trkpt>
      <trkpt lat="43.65735" lon="4.53188">
        <ele>1.83</ele>
        <time>2019-05-30T09:05:19.000Z</time>
      </trkpt>
      <trkpt lat="43.65722" lon="4.53148">
        <ele>1.82</ele>
        <time>2019-05-30T09:05:24.000Z</time>
      </trkpt>
      <trkpt lat="43.6571" lon="4.53111">
        <ele>1.82</ele>
        <time>2019-05-30T09:05:29.000Z</time>
      </trkpt>
      <trkpt lat="43.65702" lon="4.53078">
        <ele>1.88</ele>
        <time>2019-05-30T09:05:34.000Z</time>
      </trkpt>
      <trkpt lat="43.65691" lon="4.53039">
        <ele>1.83</ele>
        <time>2019-05-30T09:05:39.000Z</time>
      </trkpt>
      <trkpt lat="43.65679" lon="4.53002">
        <ele>1.89</ele>
        <time>2019-05-30T09:05:44.000Z</time>
      </trkpt>
      <trkpt lat="43.65668" lon="4.52964">
        <ele>1.83</ele>
        <time>2019-05-30T09:05:49.000Z</time>
      </trkpt>
      <trkpt lat="43.65655" lon="4.5293">
        <ele>1.09</ele>
        <time>2019-05-30T09:05:54.000Z</time>
      </trkpt>
      <trkpt lat="43.65645" lon="4.52892">
        <ele>1</ele>
        <time>2019-05-30T09:05:59.000Z</time>
      </trkpt>
      <trkpt lat="43.65633" lon="4.52854">
        <ele>0.83</ele>
        <time>2019-05-30T09:06:04.000Z</time>
      </trkpt>
      <trkpt lat="43.65624" lon="4.52818">
        <ele>1.02</ele>
        <time>2019-05-30T09:06:09.000Z</time>
      </trkpt>
      <trkpt lat="43.65615" lon="4.5278">
        <ele>0.83</ele>
        <time>2019-05-30T09:06:14.000Z</time>
      </trkpt>
      <trkpt lat="43.65604" lon="4.52742">
        <ele>1.77</ele>
        <time>2019-05-30T09:06:19.000Z</time>
      </trkpt>
      <trkpt lat="43.65596" lon="4.52703">
        <ele>1.83</ele>
        <time>2019-05-30T09:06:24.000Z</time>
      </trkpt>
      <trkpt lat="43.65592" lon="4.52664">
        <ele>1.13</ele>
        <time>2019-05-30T09:06:29.000Z</time>
      </trkpt>
      <trkpt lat="43.65586" lon="4.52627">
        <ele>1.83</ele>
        <time>2019-05-30T09:06:34.000Z</time>
      </trkpt>
      <trkpt lat="43.65593" lon="4.52596">
        <ele>2.82</ele>
        <time>2019-05-30T09:06:39.000Z</time>
      </trkpt>
      <trkpt lat="43.6559" lon="4.52561">
        <ele>2.83</ele>
        <time>2019-05-30T09:06:44.000Z</time>
      </trkpt>
      <trkpt lat="43.6558" lon="4.52524">
        <ele>2.83</ele>
        <time>2019-05-30T09:06:49.000Z</time>
      </trkpt>
      <trkpt lat="43.65568" lon="4.52487">
        <ele>2.83</ele>
        <time>2019-05-30T09:06:54.000Z</time>
      </trkpt>
      <trkpt lat="43.65556" lon="4.52449">
        <ele>3.02</ele>
        <time>2019-05-30T09:06:59.000Z</time>
      </trkpt>
      <trkpt lat="43.65545" lon="4.5241">
        <ele>2.08</ele>
        <time>2019-05-30T09:07:04.000Z</time>
      </trkpt>
      <trkpt lat="43.65533" lon="4.52371">
        <ele>1.83</ele>
        <time>2019-05-30T09:07:09.000Z</time>
      </trkpt>
      <trkpt lat="43.6552" lon="4.52333">
        <ele>1.59</ele>
        <time>2019-05-30T09:07:14.000Z</time>
      </trkpt>
      <trkpt lat="43.65508" lon="4.52294">
        <ele>1.83</ele>
        <time>2019-05-30T09:07:19.000Z</time>
      </trkpt>
      <trkpt lat="43.65497" lon="4.52258">
        <ele>2.83</ele>
        <time>2019-05-30T09:07:24.000Z</time>
      </trkpt>
      <trkpt lat="43.65486" lon="4.52223">
        <ele>2.08</ele>
        <time>2019-05-30T09:07:29.000Z</time>
      </trkpt>
      <trkpt lat="43.65474" lon="4.52187">
        <ele>1.64</ele>
        <time>2019-05-30T09:07:34.000Z</time>
      </trkpt>
      <trkpt lat="43.6547" lon="4.52169">
        <ele>1.82</ele>
        <time>2019-05-30T09:07:39.000Z</time>
      </trkpt>
      <trkpt lat="43.65465" lon="4.52157">
        <ele>0.83</ele>
        <time>2019-05-30T09:09:21.000Z</time>
      </trkpt>
      <trkpt lat="43.65456" lon="4.52133">
        <ele>0.83</ele>
        <time>2019-05-30T09:09:26.000Z</time>
      </trkpt>
      <trkpt lat="43.65446" lon="4.52103">
        <ele>0.83</ele>
        <time>2019-05-30T09:09:31.000Z</time>
      </trkpt>
      <trkpt lat="43.65435" lon="4.52071">
        <ele>0.83</ele>
        <time>2019-05-30T09:09:36.000Z</time>
      </trkpt>
      <trkpt lat="43.65424" lon="4.52036">
        <ele>1.06</ele>
        <time>2019-05-30T09:09:41.000Z</time>
      </trkpt>
      <trkpt lat="43.65412" lon="4.51999">
        <ele>1.01</ele>
        <time>2019-05-30T09:09:46.000Z</time>
      </trkpt>
      <trkpt lat="43.65401" lon="4.51961">
        <ele>0.83</ele>
        <time>2019-05-30T09:09:51.000Z</time>
      </trkpt>
      <trkpt lat="43.6539" lon="4.51922">
        <ele>1</ele>
        <time>2019-05-30T09:09:56.000Z</time>
      </trkpt>
      <trkpt lat="43.65377" lon="4.51883">
        <ele>0.76</ele>
        <time>2019-05-30T09:10:01.000Z</time>
      </trkpt>
      <trkpt lat="43.65364" lon="4.51842">
        <ele>0.84</ele>
        <time>2019-05-30T09:10:06.000Z</time>
      </trkpt>
      <trkpt lat="43.65351" lon="4.51803">
        <ele>0.83</ele>
        <time>2019-05-30T09:10:11.000Z</time>
      </trkpt>
      <trkpt lat="43.6534" lon="4.51764">
        <ele>0.83</ele>
        <time>2019-05-30T09:10:16.000Z</time>
      </trkpt>
      <trkpt lat="43.65327" lon="4.51728">
        <ele>0.83</ele>
        <time>2019-05-30T09:10:21.000Z</time>
      </trkpt>
      <trkpt lat="43.65315" lon="4.51688">
        <ele>0.78</ele>
        <time>2019-05-30T09:10:26.000Z</time>
      </trkpt>
      <trkpt lat="43.65303" lon="4.51654">
        <ele>0.01</ele>
        <time>2019-05-30T09:10:31.000Z</time>
      </trkpt>
      <trkpt lat="43.65293" lon="4.51619">
        <ele>1</ele>
        <time>2019-05-30T09:10:36.000Z</time>
      </trkpt>
      <trkpt lat="43.65282" lon="4.51584">
        <ele>0.58</ele>
        <time>2019-05-30T09:10:41.000Z</time>
      </trkpt>
      <trkpt lat="43.65269" lon="4.5155">
        <ele>1.81</ele>
        <time>2019-05-30T09:10:46.000Z</time>
      </trkpt>
      <trkpt lat="43.65259" lon="4.51516">
        <ele>2.82</ele>
        <time>2019-05-30T09:10:51.000Z</time>
      </trkpt>
      <trkpt lat="43.6525" lon="4.5148">
        <ele>2.83</ele>
        <time>2019-05-30T09:10:56.000Z</time>
      </trkpt>
      <trkpt lat="43.65237" lon="4.51444">
        <ele>2.08</ele>
        <time>2019-05-30T09:11:01.000Z</time>
      </trkpt>
      <trkpt lat="43.65224" lon="4.51406">
        <ele>1.78</ele>
        <time>2019-05-30T09:11:06.000Z</time>
      </trkpt>
      <trkpt lat="43.65214" lon="4.51368">
        <ele>4.54</ele>
        <time>2019-05-30T09:11:11.000Z</time>
      </trkpt>
      <trkpt lat="43.652" lon="4.51329">
        <ele>2.89</ele>
        <time>2019-05-30T09:11:16.000Z</time>
      </trkpt>
      <trkpt lat="43.65187" lon="4.51289">
        <ele>3.01</ele>
        <time>2019-05-30T09:11:21.000Z</time>
      </trkpt>
      <trkpt lat="43.65175" lon="4.5125">
        <ele>2.83</ele>
        <time>2019-05-30T09:11:26.000Z</time>
      </trkpt>
      <trkpt lat="43.65162" lon="4.51211">
        <ele>2.84</ele>
        <time>2019-05-30T09:11:31.000Z</time>
      </trkpt>
      <trkpt lat="43.6515" lon="4.51172">
        <ele>3.58</ele>
        <time>2019-05-30T09:11:36.000Z</time>
      </trkpt>
      <trkpt lat="43.65138" lon="4.51134">
        <ele>2.83</ele>
        <time>2019-05-30T09:11:41.000Z</time>
      </trkpt>
      <trkpt lat="43.65126" lon="4.51095">
        <ele>2.82</ele>
        <time>2019-05-30T09:11:46.000Z</time>
      </trkpt>
      <trkpt lat="43.65113" lon="4.51056">
        <ele>2.84</ele>
        <time>2019-05-30T09:11:51.000Z</time>
      </trkpt>
      <trkpt lat="43.65101" lon="4.51018">
        <ele>4.57</ele>
        <time>2019-05-30T09:11:56.000Z</time>
      </trkpt>
      <trkpt lat="43.65088" lon="4.50979">
        <ele>3.83</ele>
        <time>2019-05-30T09:12:01.000Z</time>
      </trkpt>
      <trkpt lat="43.65077" lon="4.50941">
        <ele>4.76</ele>
        <time>2019-05-30T09:12:06.000Z</time>
      </trkpt>
      <trkpt lat="43.65064" lon="4.50899">
        <ele>4.82</ele>
        <time>2019-05-30T09:12:11.000Z</time>
      </trkpt>
      <trkpt lat="43.6505" lon="4.50858">
        <ele>4.82</ele>
        <time>2019-05-30T09:12:16.000Z</time>
      </trkpt>
      <trkpt lat="43.65038" lon="4.50816">
        <ele>4.82</ele>
        <time>2019-05-30T09:12:21.000Z</time>
      </trkpt>
      <trkpt lat="43.65024" lon="4.50775">
        <ele>3.84</ele>
        <time>2019-05-30T09:12:26.000Z</time>
      </trkpt>
      <trkpt lat="43.65012" lon="4.50735">
        <ele>4.82</ele>
        <time>2019-05-30T09:12:31.000Z</time>
      </trkpt>
      <trkpt lat="43.64999" lon="4.50695">
        <ele>3.84</ele>
        <time>2019-05-30T09:12:36.000Z</time>
      </trkpt>
      <trkpt lat="43.64986" lon="4.50655">
        <ele>4.77</ele>
        <time>2019-05-30T09:12:41.000Z</time>
      </trkpt>
      <trkpt lat="43.64973" lon="4.50613">
        <ele>4.82</ele>
        <time>2019-05-30T09:12:46.000Z</time>
      </trkpt>
      <trkpt lat="43.64968" lon="4.50569">
        <ele>3.84</ele>
        <time>2019-05-30T09:12:51.000Z</time>
      </trkpt>
      <trkpt lat="43.64969" lon="4.50526">
        <ele>3.82</ele>
        <time>2019-05-30T09:12:56.000Z</time>
      </trkpt>
      <trkpt lat="43.6497" lon="4.50485">
        <ele>3.87</ele>
        <time>2019-05-30T09:13:01.000Z</time>
      </trkpt>
      <trkpt lat="43.64971" lon="4.50446">
        <ele>4.82</ele>
        <time>2019-05-30T09:13:06.000Z</time>
      </trkpt>
      <trkpt lat="43.64972" lon="4.50406">
        <ele>3.84</ele>
        <time>2019-05-30T09:13:11.000Z</time>
      </trkpt>
      <trkpt lat="43.64975" lon="4.50365">
        <ele>4.82</ele>
        <time>2019-05-30T09:13:16.000Z</time>
      </trkpt>
      <trkpt lat="43.64982" lon="4.50325">
        <ele>3.07</ele>
        <time>2019-05-30T09:13:21.000Z</time>
      </trkpt>
      <trkpt lat="43.64993" lon="4.50287">
        <ele>3.82</ele>
        <time>2019-05-30T09:13:26.000Z</time>
      </trkpt>
      <trkpt lat="43.65009" lon="4.5025">
        <ele>2.82</ele>
        <time>2019-05-30T09:13:31.000Z</time>
      </trkpt>
      <trkpt lat="43.65027" lon="4.50218">
        <ele>2.64</ele>
        <time>2019-05-30T09:13:36.000Z</time>
      </trkpt>
      <trkpt lat="43.65043" lon="4.50189">
        <ele>3.81</ele>
        <time>2019-05-30T09:13:41.000Z</time>
      </trkpt>
      <trkpt lat="43.65061" lon="4.50159">
        <ele>3.82</ele>
        <time>2019-05-30T09:13:46.000Z</time>
      </trkpt>
      <trkpt lat="43.65078" lon="4.50132">
        <ele>3.07</ele>
        <time>2019-05-30T09:13:51.000Z</time>
      </trkpt>
      <trkpt lat="43.65094" lon="4.50104">
        <ele>3.82</ele>
        <time>2019-05-30T09:13:56.000Z</time>
      </trkpt>
      <trkpt lat="43.6511" lon="4.50077">
        <ele>3.59</ele>
        <time>2019-05-30T09:14:01.000Z</time>
      </trkpt>
      <trkpt lat="43.65125" lon="4.50053">
        <ele>3.63</ele>
        <time>2019-05-30T09:14:06.000Z</time>
      </trkpt>
      <trkpt lat="43.6514" lon="4.50029">
        <ele>4.76</ele>
        <time>2019-05-30T09:14:11.000Z</time>
      </trkpt>
      <trkpt lat="43.65155" lon="4.50005">
        <ele>3.88</ele>
        <time>2019-05-30T09:14:16.000Z</time>
      </trkpt>
      <trkpt lat="43.6517" lon="4.49979">
        <ele>4.82</ele>
        <time>2019-05-30T09:14:21.000Z</time>
      </trkpt>
      <trkpt lat="43.65184" lon="4.49954">
        <ele>3.84</ele>
        <time>2019-05-30T09:14:26.000Z</time>
      </trkpt>
      <trkpt lat="43.65198" lon="4.4993">
        <ele>2.84</ele>
        <time>2019-05-30T09:14:31.000Z</time>
      </trkpt>
      <trkpt lat="43.65213" lon="4.49907">
        <ele>3.81</ele>
        <time>2019-05-30T09:14:36.000Z</time>
      </trkpt>
      <trkpt lat="43.65224" lon="4.49888">
        <ele>3.07</ele>
        <time>2019-05-30T09:14:41.000Z</time>
      </trkpt>
      <trkpt lat="43.6523" lon="4.49878">
        <ele>1.77</ele>
        <time>2019-05-30T09:15:10.000Z</time>
      </trkpt>
      <trkpt lat="43.65242" lon="4.49859">
        <ele>2.82</ele>
        <time>2019-05-30T09:15:15.000Z</time>
      </trkpt>
      <trkpt lat="43.65256" lon="4.49836">
        <ele>2.88</ele>
        <time>2019-05-30T09:15:20.000Z</time>
      </trkpt>
      <trkpt lat="43.65272" lon="4.49811">
        <ele>3.07</ele>
        <time>2019-05-30T09:15:25.000Z</time>
      </trkpt>
      <trkpt lat="43.65287" lon="4.49786">
        <ele>3.87</ele>
        <time>2019-05-30T09:15:30.000Z</time>
      </trkpt>
      <trkpt lat="43.65302" lon="4.49759">
        <ele>1.9</ele>
        <time>2019-05-30T09:15:35.000Z</time>
      </trkpt>
      <trkpt lat="43.65318" lon="4.49734">
        <ele>2.07</ele>
        <time>2019-05-30T09:15:40.000Z</time>
      </trkpt>
      <trkpt lat="43.65336" lon="4.49706">
        <ele>2.81</ele>
        <time>2019-05-30T09:15:45.000Z</time>
      </trkpt>
      <trkpt lat="43.65354" lon="4.49676">
        <ele>2.83</ele>
        <time>2019-05-30T09:15:50.000Z</time>
      </trkpt>
      <trkpt lat="43.6537" lon="4.49646">
        <ele>2.82</ele>
        <time>2019-05-30T09:15:55.000Z</time>
      </trkpt>
      <trkpt lat="43.65383" lon="4.49612">
        <ele>3.82</ele>
        <time>2019-05-30T09:16:00.000Z</time>
      </trkpt>
      <trkpt lat="43.65395" lon="4.49577">
        <ele>3.82</ele>
        <time>2019-05-30T09:16:05.000Z</time>
      </trkpt>
      <trkpt lat="43.65406" lon="4.49543">
        <ele>2.07</ele>
        <time>2019-05-30T09:16:10.000Z</time>
      </trkpt>
      <trkpt lat="43.65416" lon="4.49508">
        <ele>1.82</ele>
        <time>2019-05-30T09:16:15.000Z</time>
      </trkpt>
      <trkpt lat="43.65426" lon="4.49475">
        <ele>2.8</ele>
        <time>2019-05-30T09:16:20.000Z</time>
      </trkpt>
      <trkpt lat="43.65437" lon="4.49441">
        <ele>1.82</ele>
        <time>2019-05-30T09:16:25.000Z</time>
      </trkpt>
      <trkpt lat="43.65448" lon="4.49406">
        <ele>2.01</ele>
        <time>2019-05-30T09:16:30.000Z</time>
      </trkpt>
      <trkpt lat="43.65457" lon="4.49372">
        <ele>1.82</ele>
        <time>2019-05-30T09:16:35.000Z</time>
      </trkpt>
      <trkpt lat="43.65458" lon="4.49337">
        <ele>1.83</ele>
        <time>2019-05-30T09:16:40.000Z</time>
      </trkpt>
      <trkpt lat="43.65452" lon="4.49301">
        <ele>2.76</ele>
        <time>2019-05-30T09:16:45.000Z</time>
      </trkpt>
      <trkpt lat="43.65442" lon="4.49266">
        <ele>2.82</ele>
        <time>2019-05-30T09:16:50.000Z</time>
      </trkpt>
      <trkpt lat="43.65433" lon="4.49232">
        <ele>2.07</ele>
        <time>2019-05-30T09:16:55.000Z</time>
      </trkpt>
      <trkpt lat="43.65419" lon="4.49201">
        <ele>2.82</ele>
        <time>2019-05-30T09:17:00.000Z</time>
      </trkpt>
      <trkpt lat="43.65398" lon="4.49173">
        <ele>2.82</ele>
        <time>2019-05-30T09:17:05.000Z</time>
      </trkpt>
      <trkpt lat="43.65375" lon="4.49147">
        <ele>2.88</ele>
        <time>2019-05-30T09:17:10.000Z</time>
      </trkpt>
      <trkpt lat="43.65352" lon="4.49121">
        <ele>2.76</ele>
        <time>2019-05-30T09:17:15.000Z</time>
      </trkpt>
      <trkpt lat="43.65331" lon="4.49093">
        <ele>1.88</ele>
        <time>2019-05-30T09:17:20.000Z</time>
      </trkpt>
      <trkpt lat="43.6531" lon="4.49065">
        <ele>2.05</ele>
        <time>2019-05-30T09:17:25.000Z</time>
      </trkpt>
      <trkpt lat="43.65287" lon="4.49034">
        <ele>1.07</ele>
        <time>2019-05-30T09:17:30.000Z</time>
      </trkpt>
      <trkpt lat="43.65267" lon="4.49005">
        <ele>0.82</ele>
        <time>2019-05-30T09:17:35.000Z</time>
      </trkpt>
      <trkpt lat="43.65249" lon="4.48974">
        <ele>1.82</ele>
        <time>2019-05-30T09:17:40.000Z</time>
      </trkpt>
      <trkpt lat="43.65228" lon="4.48945">
        <ele>2.57</ele>
        <time>2019-05-30T09:17:45.000Z</time>
      </trkpt>
      <trkpt lat="43.65208" lon="4.48914">
        <ele>3.05</ele>
        <time>2019-05-30T09:17:50.000Z</time>
      </trkpt>
      <trkpt lat="43.6519" lon="4.48881">
        <ele>1.88</ele>
        <time>2019-05-30T09:17:55.000Z</time>
      </trkpt>
      <trkpt lat="43.65175" lon="4.48845">
        <ele>0.88</ele>
        <time>2019-05-30T09:18:00.000Z</time>
      </trkpt>
      <trkpt lat="43.65159" lon="4.4881">
        <ele>1.82</ele>
        <time>2019-05-30T09:18:05.000Z</time>
      </trkpt>
      <trkpt lat="43.65143" lon="4.48775">
        <ele>1.82</ele>
        <time>2019-05-30T09:18:10.000Z</time>
      </trkpt>
      <trkpt lat="43.65128" lon="4.48741">
        <ele>1.82</ele>
        <time>2019-05-30T09:18:15.000Z</time>
      </trkpt>
      <trkpt lat="43.65125" lon="4.48711">
        <ele>1.82</ele>
        <time>2019-05-30T09:18:20.000Z</time>
      </trkpt>
      <trkpt lat="43.65144" lon="4.48697">
        <ele>1.82</ele>
        <time>2019-05-30T09:18:25.000Z</time>
      </trkpt>
      <trkpt lat="43.65164" lon="4.48683">
        <ele>1.57</ele>
        <time>2019-05-30T09:18:30.000Z</time>
      </trkpt>
      <trkpt lat="43.65186" lon="4.4867">
        <ele>2.81</ele>
        <time>2019-05-30T09:18:35.000Z</time>
      </trkpt>
      <trkpt lat="43.65206" lon="4.48655">
        <ele>2.07</ele>
        <time>2019-05-30T09:18:40.000Z</time>
      </trkpt>
      <trkpt lat="43.65226" lon="4.4864">
        <ele>2.63</ele>
        <time>2019-05-30T09:18:45.000Z</time>
      </trkpt>
      <trkpt lat="43.65246" lon="4.48625">
        <ele>1.82</ele>
        <time>2019-05-30T09:18:50.000Z</time>
      </trkpt>
      <trkpt lat="43.65266" lon="4.48613">
        <ele>1.77</ele>
        <time>2019-05-30T09:18:55.000Z</time>
      </trkpt>
      <trkpt lat="43.65284" lon="4.48601">
        <ele>0.88</ele>
        <time>2019-05-30T09:19:00.000Z</time>
      </trkpt>
      <trkpt lat="43.65304" lon="4.48589">
        <ele>0.82</ele>
        <time>2019-05-30T09:19:05.000Z</time>
      </trkpt>
      <trkpt lat="43.65324" lon="4.48577">
        <ele>3.75</ele>
        <time>2019-05-30T09:19:10.000Z</time>
      </trkpt>
      <trkpt lat="43.65343" lon="4.48563">
        <ele>2.82</ele>
        <time>2019-05-30T09:19:15.000Z</time>
      </trkpt>
      <trkpt lat="43.65361" lon="4.48548">
        <ele>1.88</ele>
        <time>2019-05-30T09:19:20.000Z</time>
      </trkpt>
      <trkpt lat="43.65378" lon="4.48532">
        <ele>2.57</ele>
        <time>2019-05-30T09:19:25.000Z</time>
      </trkpt>
      <trkpt lat="43.65394" lon="4.48515">
        <ele>1.82</ele>
        <time>2019-05-30T09:19:30.000Z</time>
      </trkpt>
      <trkpt lat="43.65409" lon="4.48499">
        <ele>0.88</ele>
        <time>2019-05-30T09:19:35.000Z</time>
      </trkpt>
      <trkpt lat="43.65422" lon="4.48484">
        <ele>1.81</ele>
        <time>2019-05-30T09:19:40.000Z</time>
      </trkpt>
      <trkpt lat="43.65434" lon="4.48468">
        <ele>2.76</ele>
        <time>2019-05-30T09:19:45.000Z</time>
      </trkpt>
      <trkpt lat="43.65447" lon="4.4845">
        <ele>2.81</ele>
        <time>2019-05-30T09:19:50.000Z</time>
      </trkpt>
      <trkpt lat="43.65459" lon="4.48434">
        <ele>2.76</ele>
        <time>2019-05-30T09:19:55.000Z</time>
      </trkpt>
      <trkpt lat="43.65472" lon="4.48417">
        <ele>2.82</ele>
        <time>2019-05-30T09:20:00.000Z</time>
      </trkpt>
      <trkpt lat="43.65485" lon="4.48399">
        <ele>3.82</ele>
        <time>2019-05-30T09:20:05.000Z</time>
      </trkpt>
      <trkpt lat="43.655" lon="4.48381">
        <ele>3.83</ele>
        <time>2019-05-30T09:20:10.000Z</time>
      </trkpt>
      <trkpt lat="43.65515" lon="4.48362">
        <ele>1.09</ele>
        <time>2019-05-30T09:20:15.000Z</time>
      </trkpt>
      <trkpt lat="43.65529" lon="4.48342">
        <ele>0.13</ele>
        <time>2019-05-30T09:20:20.000Z</time>
      </trkpt>
      <trkpt lat="43.65542" lon="4.48325">
        <ele>1.55</ele>
        <time>2019-05-30T09:20:25.000Z</time>
      </trkpt>
      <trkpt lat="43.65553" lon="4.48309">
        <ele>1.05</ele>
        <time>2019-05-30T09:20:30.000Z</time>
      </trkpt>
      <trkpt lat="43.65563" lon="4.48295">
        <ele>2</ele>
        <time>2019-05-30T09:20:35.000Z</time>
      </trkpt>
      <trkpt lat="43.65574" lon="4.48282">
        <ele>2</ele>
        <time>2019-05-30T09:20:40.000Z</time>
      </trkpt>
      <trkpt lat="43.65587" lon="4.48268">
        <ele>2</ele>
        <time>2019-05-30T09:20:45.000Z</time>
      </trkpt>
      <trkpt lat="43.65599" lon="4.48253">
        <ele>1.8</ele>
        <time>2019-05-30T09:20:50.000Z</time>
      </trkpt>
      <trkpt lat="43.65611" lon="4.48239">
        <ele>1.77</ele>
        <time>2019-05-30T09:20:55.000Z</time>
      </trkpt>
      <trkpt lat="43.65625" lon="4.48225">
        <ele>2.81</ele>
        <time>2019-05-30T09:21:00.000Z</time>
      </trkpt>
      <trkpt lat="43.65639" lon="4.48213">
        <ele>2.64</ele>
        <time>2019-05-30T09:21:05.000Z</time>
      </trkpt>
      <trkpt lat="43.65655" lon="4.48203">
        <ele>3</ele>
        <time>2019-05-30T09:21:10.000Z</time>
      </trkpt>
      <trkpt lat="43.65673" lon="4.48196">
        <ele>2.82</ele>
        <time>2019-05-30T09:21:15.000Z</time>
      </trkpt>
      <trkpt lat="43.65691" lon="4.48189">
        <ele>2.82</ele>
        <time>2019-05-30T09:21:20.000Z</time>
      </trkpt>
      <trkpt lat="43.65709" lon="4.48179">
        <ele>3.75</ele>
        <time>2019-05-30T09:21:25.000Z</time>
      </trkpt>
      <trkpt lat="43.65727" lon="4.48169">
        <ele>3.57</ele>
        <time>2019-05-30T09:21:30.000Z</time>
      </trkpt>
      <trkpt lat="43.65746" lon="4.48157">
        <ele>4.5</ele>
        <time>2019-05-30T09:21:35.000Z</time>
      </trkpt>
      <trkpt lat="43.65764" lon="4.48145">
        <ele>2.08</ele>
        <time>2019-05-30T09:21:40.000Z</time>
      </trkpt>
      <trkpt lat="43.65781" lon="4.48131">
        <ele>0.08</ele>
        <time>2019-05-30T09:21:45.000Z</time>
      </trkpt>
      <trkpt lat="43.65797" lon="4.48117">
        <ele>2.55</ele>
        <time>2019-05-30T09:21:50.000Z</time>
      </trkpt>
      <trkpt lat="43.65814" lon="4.48101">
        <ele>2.38</ele>
        <time>2019-05-30T09:21:55.000Z</time>
      </trkpt>
      <trkpt lat="43.6583" lon="4.48085">
        <ele>0.82</ele>
        <time>2019-05-30T09:22:00.000Z</time>
      </trkpt>
      <trkpt lat="43.65845" lon="4.48068">
        <ele>0.82</ele>
        <time>2019-05-30T09:22:05.000Z</time>
      </trkpt>
      <trkpt lat="43.65862" lon="4.48047">
        <ele>2.5</ele>
        <time>2019-05-30T09:22:10.000Z</time>
      </trkpt>
      <trkpt lat="43.65879" lon="4.48023">
        <ele>3.81</ele>
        <time>2019-05-30T09:22:15.000Z</time>
      </trkpt>
      <trkpt lat="43.65897" lon="4.47996">
        <ele>4.8</ele>
        <time>2019-05-30T09:22:20.000Z</time>
      </trkpt>
      <trkpt lat="43.65913" lon="4.47966">
        <ele>4.82</ele>
        <time>2019-05-30T09:22:25.000Z</time>
      </trkpt>
      <trkpt lat="43.65928" lon="4.47937">
        <ele>4.07</ele>
        <time>2019-05-30T09:22:30.000Z</time>
      </trkpt>
      <trkpt lat="43.65942" lon="4.47905">
        <ele>4.8</ele>
        <time>2019-05-30T09:22:35.000Z</time>
      </trkpt>
      <trkpt lat="43.65954" lon="4.47873">
        <ele>4.82</ele>
        <time>2019-05-30T09:22:40.000Z</time>
      </trkpt>
      <trkpt lat="43.65968" lon="4.47839">
        <ele>5.81</ele>
        <time>2019-05-30T09:22:45.000Z</time>
      </trkpt>
      <trkpt lat="43.65982" lon="4.47807">
        <ele>4.89</ele>
        <time>2019-05-30T09:22:50.000Z</time>
      </trkpt>
      <trkpt lat="43.65995" lon="4.47774">
        <ele>5.57</ele>
        <time>2019-05-30T09:22:55.000Z</time>
      </trkpt>
      <trkpt lat="43.66007" lon="4.47743">
        <ele>5.77</ele>
        <time>2019-05-30T09:23:00.000Z</time>
      </trkpt>
      <trkpt lat="43.6602" lon="4.4771">
        <ele>5.02</ele>
        <time>2019-05-30T09:23:05.000Z</time>
      </trkpt>
      <trkpt lat="43.66033" lon="4.47678">
        <ele>4.82</ele>
        <time>2019-05-30T09:23:10.000Z</time>
      </trkpt>
      <trkpt lat="43.66049" lon="4.47649">
        <ele>7.3</ele>
        <time>2019-05-30T09:23:15.000Z</time>
      </trkpt>
      <trkpt lat="43.66066" lon="4.47621">
        <ele>5.83</ele>
        <time>2019-05-30T09:23:20.000Z</time>
      </trkpt>
      <trkpt lat="43.66083" lon="4.47597">
        <ele>5.81</ele>
        <time>2019-05-30T09:23:25.000Z</time>
      </trkpt>
      <trkpt lat="43.66101" lon="4.47572">
        <ele>5.81</ele>
        <time>2019-05-30T09:23:30.000Z</time>
      </trkpt>
      <trkpt lat="43.66118" lon="4.47545">
        <ele>3.88</ele>
        <time>2019-05-30T09:23:35.000Z</time>
      </trkpt>
      <trkpt lat="43.66136" lon="4.47516">
        <ele>3.57</ele>
        <time>2019-05-30T09:23:40.000Z</time>
      </trkpt>
      <trkpt lat="43.66153" lon="4.47491">
        <ele>3.81</ele>
        <time>2019-05-30T09:23:45.000Z</time>
      </trkpt>
      <trkpt lat="43.66169" lon="4.47466">
        <ele>4.81</ele>
        <time>2019-05-30T09:23:50.000Z</time>
      </trkpt>
      <trkpt lat="43.66184" lon="4.47444">
        <ele>4.83</ele>
        <time>2019-05-30T09:23:55.000Z</time>
      </trkpt>
      <trkpt lat="43.66199" lon="4.47423">
        <ele>3.88</ele>
        <time>2019-05-30T09:24:00.000Z</time>
      </trkpt>
      <trkpt lat="43.66214" lon="4.474">
        <ele>4.77</ele>
        <time>2019-05-30T09:24:05.000Z</time>
      </trkpt>
      <trkpt lat="43.66227" lon="4.47378">
        <ele>3.88</ele>
        <time>2019-05-30T09:24:10.000Z</time>
      </trkpt>
      <trkpt lat="43.66242" lon="4.47357">
        <ele>3.83</ele>
        <time>2019-05-30T09:24:15.000Z</time>
      </trkpt>
      <trkpt lat="43.66255" lon="4.47337">
        <ele>3.83</ele>
        <time>2019-05-30T09:24:20.000Z</time>
      </trkpt>
      <trkpt lat="43.66267" lon="4.47319">
        <ele>2.81</ele>
        <time>2019-05-30T09:24:25.000Z</time>
      </trkpt>
      <trkpt lat="43.66278" lon="4.47303">
        <ele>3.62</ele>
        <time>2019-05-30T09:24:30.000Z</time>
      </trkpt>
      <trkpt lat="43.66289" lon="4.47285">
        <ele>3.81</ele>
        <time>2019-05-30T09:24:35.000Z</time>
      </trkpt>
      <trkpt lat="43.66303" lon="4.47267">
        <ele>4.81</ele>
        <time>2019-05-30T09:24:40.000Z</time>
      </trkpt>
      <trkpt lat="43.66317" lon="4.47247">
        <ele>4.81</ele>
        <time>2019-05-30T09:24:45.000Z</time>
      </trkpt>
      <trkpt lat="43.66332" lon="4.47223">
        <ele>4.8</ele>
        <time>2019-05-30T09:24:50.000Z</time>
      </trkpt>
      <trkpt lat="43.66348" lon="4.472">
        <ele>5</ele>
        <time>2019-05-30T09:24:55.000Z</time>
      </trkpt>
      <trkpt lat="43.66365" lon="4.47174">
        <ele>5.56</ele>
        <time>2019-05-30T09:25:00.000Z</time>
      </trkpt>
      <trkpt lat="43.66381" lon="4.47149">
        <ele>6.81</ele>
        <time>2019-05-30T09:25:05.000Z</time>
      </trkpt>
      <trkpt lat="43.66398" lon="4.47123">
        <ele>6.58</ele>
        <time>2019-05-30T09:25:10.000Z</time>
      </trkpt>
      <trkpt lat="43.66413" lon="4.47094">
        <ele>6.81</ele>
        <time>2019-05-30T09:25:15.000Z</time>
      </trkpt>
      <trkpt lat="43.66426" lon="4.47064">
        <ele>5.69</ele>
        <time>2019-05-30T09:25:20.000Z</time>
      </trkpt>
      <trkpt lat="43.66438" lon="4.47033">
        <ele>6.56</ele>
        <time>2019-05-30T09:25:25.000Z</time>
      </trkpt>
      <trkpt lat="43.66449" lon="4.47002">
        <ele>5.87</ele>
        <time>2019-05-30T09:25:30.000Z</time>
      </trkpt>
      <trkpt lat="43.6646" lon="4.4697">
        <ele>4.89</ele>
        <time>2019-05-30T09:25:35.000Z</time>
      </trkpt>
      <trkpt lat="43.66471" lon="4.46934">
        <ele>5.81</ele>
        <time>2019-05-30T09:25:40.000Z</time>
      </trkpt>
      <trkpt lat="43.66482" lon="4.46897">
        <ele>4.81</ele>
        <time>2019-05-30T09:25:45.000Z</time>
      </trkpt>
      <trkpt lat="43.66492" lon="4.46861">
        <ele>4.06</ele>
        <time>2019-05-30T09:25:50.000Z</time>
      </trkpt>
      <trkpt lat="43.66502" lon="4.46824">
        <ele>4.56</ele>
        <time>2019-05-30T09:25:55.000Z</time>
      </trkpt>
      <trkpt lat="43.66514" lon="4.46791">
        <ele>5.75</ele>
        <time>2019-05-30T09:26:00.000Z</time>
      </trkpt>
      <trkpt lat="43.66525" lon="4.46759">
        <ele>4.81</ele>
        <time>2019-05-30T09:26:05.000Z</time>
      </trkpt>
      <trkpt lat="43.66533" lon="4.46728">
        <ele>3.63</ele>
        <time>2019-05-30T09:26:10.000Z</time>
      </trkpt>
      <trkpt lat="43.66542" lon="4.46699">
        <ele>2.83</ele>
        <time>2019-05-30T09:26:15.000Z</time>
      </trkpt>
      <trkpt lat="43.66551" lon="4.4667">
        <ele>3.62</ele>
        <time>2019-05-30T09:26:20.000Z</time>
      </trkpt>
      <trkpt lat="43.6656" lon="4.46653">
        <ele>4.81</ele>
        <time>2019-05-30T09:26:25.000Z</time>
      </trkpt>
      <trkpt lat="43.66564" lon="4.46642">
        <ele>6.81</ele>
        <time>2019-05-30T09:26:34.000Z</time>
      </trkpt>
      <trkpt lat="43.66568" lon="4.46621">
        <ele>6.87</ele>
        <time>2019-05-30T09:26:39.000Z</time>
      </trkpt>
      <trkpt lat="43.66574" lon="4.46595">
        <ele>6.11</ele>
        <time>2019-05-30T09:26:44.000Z</time>
      </trkpt>
      <trkpt lat="43.66583" lon="4.46564">
        <ele>6.81</ele>
        <time>2019-05-30T09:26:49.000Z</time>
      </trkpt>
      <trkpt lat="43.66591" lon="4.46534">
        <ele>6.81</ele>
        <time>2019-05-30T09:26:54.000Z</time>
      </trkpt>
      <trkpt lat="43.66599" lon="4.46509">
        <ele>5.06</ele>
        <time>2019-05-30T09:26:59.000Z</time>
      </trkpt>
      <trkpt lat="43.66609" lon="4.46483">
        <ele>4.81</ele>
        <time>2019-05-30T09:27:04.000Z</time>
      </trkpt>
      <trkpt lat="43.66617" lon="4.46455">
        <ele>4.81</ele>
        <time>2019-05-30T09:27:09.000Z</time>
      </trkpt>
      <trkpt lat="43.66627" lon="4.46426">
        <ele>3.81</ele>
        <time>2019-05-30T09:27:14.000Z</time>
      </trkpt>
      <trkpt lat="43.66637" lon="4.46393">
        <ele>3.81</ele>
        <time>2019-05-30T09:27:19.000Z</time>
      </trkpt>
      <trkpt lat="43.66649" lon="4.4636">
        <ele>3.76</ele>
        <time>2019-05-30T09:27:24.000Z</time>
      </trkpt>
      <trkpt lat="43.6666" lon="4.46327">
        <ele>3.81</ele>
        <time>2019-05-30T09:27:29.000Z</time>
      </trkpt>
      <trkpt lat="43.6667" lon="4.46295">
        <ele>2.83</ele>
        <time>2019-05-30T09:27:34.000Z</time>
      </trkpt>
      <trkpt lat="43.66678" lon="4.46266">
        <ele>3.75</ele>
        <time>2019-05-30T09:27:39.000Z</time>
      </trkpt>
      <trkpt lat="43.66689" lon="4.46235">
        <ele>5.79</ele>
        <time>2019-05-30T09:27:44.000Z</time>
      </trkpt>
      <trkpt lat="43.66699" lon="4.46204">
        <ele>5.81</ele>
        <time>2019-05-30T09:27:49.000Z</time>
      </trkpt>
      <trkpt lat="43.66709" lon="4.46171">
        <ele>6.61</ele>
        <time>2019-05-30T09:27:54.000Z</time>
      </trkpt>
      <trkpt lat="43.66721" lon="4.4614">
        <ele>6.75</ele>
        <time>2019-05-30T09:27:59.000Z</time>
      </trkpt>
      <trkpt lat="43.66731" lon="4.46109">
        <ele>4.83</ele>
        <time>2019-05-30T09:28:04.000Z</time>
      </trkpt>
      <trkpt lat="43.66738" lon="4.46074">
        <ele>2.81</ele>
        <time>2019-05-30T09:28:09.000Z</time>
      </trkpt>
      <trkpt lat="43.6674" lon="4.46041">
        <ele>4</ele>
        <time>2019-05-30T09:28:14.000Z</time>
      </trkpt>
      <trkpt lat="43.66737" lon="4.46009">
        <ele>5</ele>
        <time>2019-05-30T09:28:19.000Z</time>
      </trkpt>
      <trkpt lat="43.66728" lon="4.45979">
        <ele>6.54</ele>
        <time>2019-05-30T09:28:24.000Z</time>
      </trkpt>
      <trkpt lat="43.66717" lon="4.45949">
        <ele>7.81</ele>
        <time>2019-05-30T09:28:29.000Z</time>
      </trkpt>
      <trkpt lat="43.66708" lon="4.4592">
        <ele>7.76</ele>
        <time>2019-05-30T09:28:34.000Z</time>
      </trkpt>
      <trkpt lat="43.66697" lon="4.4589">
        <ele>7.31</ele>
        <time>2019-05-30T09:28:39.000Z</time>
      </trkpt>
      <trkpt lat="43.66686" lon="4.45859">
        <ele>7.81</ele>
        <time>2019-05-30T09:28:44.000Z</time>
      </trkpt>
      <trkpt lat="43.66677" lon="4.45829">
        <ele>7.56</ele>
        <time>2019-05-30T09:28:49.000Z</time>
      </trkpt>
      <trkpt lat="43.66665" lon="4.45798">
        <ele>9.75</ele>
        <time>2019-05-30T09:28:54.000Z</time>
      </trkpt>
      <trkpt lat="43.66655" lon="4.45765">
        <ele>10.75</ele>
        <time>2019-05-30T09:28:59.000Z</time>
      </trkpt>
      <trkpt lat="43.66643" lon="4.45734">
        <ele>10.81</ele>
        <time>2019-05-30T09:29:04.000Z</time>
      </trkpt>
      <trkpt lat="43.66629" lon="4.45703">
        <ele>9.51</ele>
        <time>2019-05-30T09:29:09.000Z</time>
      </trkpt>
      <trkpt lat="43.66607" lon="4.45679">
        <ele>8.87</ele>
        <time>2019-05-30T09:29:14.000Z</time>
      </trkpt>
      <trkpt lat="43.66579" lon="4.45666">
        <ele>7.87</ele>
        <time>2019-05-30T09:29:19.000Z</time>
      </trkpt>
      <trkpt lat="43.6655" lon="4.45659">
        <ele>5.88</ele>
        <time>2019-05-30T09:29:24.000Z</time>
      </trkpt>
      <trkpt lat="43.66525" lon="4.45635">
        <ele>4.06</ele>
        <time>2019-05-30T09:29:29.000Z</time>
      </trkpt>
      <trkpt lat="43.66514" lon="4.45597">
        <ele>5.56</ele>
        <time>2019-05-30T09:29:34.000Z</time>
      </trkpt>
      <trkpt lat="43.66513" lon="4.45555">
        <ele>5.8</ele>
        <time>2019-05-30T09:29:39.000Z</time>
      </trkpt>
      <trkpt lat="43.66509" lon="4.45517">
        <ele>5.76</ele>
        <time>2019-05-30T09:29:44.000Z</time>
      </trkpt>
      <trkpt lat="43.66499" lon="4.45484">
        <ele>5.81</ele>
        <time>2019-05-30T09:29:49.000Z</time>
      </trkpt>
      <trkpt lat="43.66492" lon="4.45458">
        <ele>6.79</ele>
        <time>2019-05-30T09:29:54.000Z</time>
      </trkpt>
      <trkpt lat="43.66484" lon="4.45442">
        <ele>7.75</ele>
        <time>2019-05-30T09:29:59.000Z</time>
      </trkpt>
      <trkpt lat="43.66472" lon="4.45444">
        <ele>9.48</ele>
        <time>2019-05-30T09:30:04.000Z</time>
      </trkpt>
      <trkpt lat="43.66469" lon="4.45432">
        <ele>10.8</ele>
        <time>2019-05-30T09:30:09.000Z</time>
      </trkpt>
      <trkpt lat="43.6648" lon="4.45421">
        <ele>11.81</ele>
        <time>2019-05-30T09:30:14.000Z</time>
      </trkpt>
      <trkpt lat="43.66491" lon="4.45409">
        <ele>10.87</ele>
        <time>2019-05-30T09:30:19.000Z</time>
      </trkpt>
      <trkpt lat="43.66502" lon="4.45395">
        <ele>9.84</ele>
        <time>2019-05-30T09:30:24.000Z</time>
      </trkpt>
      <trkpt lat="43.66513" lon="4.45381">
        <ele>8.86</ele>
        <time>2019-05-30T09:30:29.000Z</time>
      </trkpt>
      <trkpt lat="43.66526" lon="4.45364">
        <ele>11.6</ele>
        <time>2019-05-30T09:30:34.000Z</time>
      </trkpt>
      <trkpt lat="43.66538" lon="4.45347">
        <ele>12.81</ele>
        <time>2019-05-30T09:30:39.000Z</time>
      </trkpt>
      <trkpt lat="43.66552" lon="4.45332">
        <ele>12.06</ele>
        <time>2019-05-30T09:30:44.000Z</time>
      </trkpt>
      <trkpt lat="43.66565" lon="4.45317">
        <ele>12.86</ele>
        <time>2019-05-30T09:30:49.000Z</time>
      </trkpt>
      <trkpt lat="43.66578" lon="4.45301">
        <ele>13.56</ele>
        <time>2019-05-30T09:30:54.000Z</time>
      </trkpt>
      <trkpt lat="43.66592" lon="4.45283">
        <ele>12.56</ele>
        <time>2019-05-30T09:30:59.000Z</time>
      </trkpt>
      <trkpt lat="43.66607" lon="4.45265">
        <ele>11.82</ele>
        <time>2019-05-30T09:31:04.000Z</time>
      </trkpt>
      <trkpt lat="43.66622" lon="4.45247">
        <ele>10.74</ele>
        <time>2019-05-30T09:31:09.000Z</time>
      </trkpt>
      <trkpt lat="43.66639" lon="4.45225">
        <ele>10.92</ele>
        <time>2019-05-30T09:31:14.000Z</time>
      </trkpt>
      <trkpt lat="43.66658" lon="4.45201">
        <ele>10.81</ele>
        <time>2019-05-30T09:31:19.000Z</time>
      </trkpt>
      <trkpt lat="43.66674" lon="4.45175">
        <ele>10.29</ele>
        <time>2019-05-30T09:31:24.000Z</time>
      </trkpt>
      <trkpt lat="43.66691" lon="4.45146">
        <ele>7.82</ele>
        <time>2019-05-30T09:31:29.000Z</time>
      </trkpt>
      <trkpt lat="43.66707" lon="4.45117">
        <ele>7.56</ele>
        <time>2019-05-30T09:31:34.000Z</time>
      </trkpt>
      <trkpt lat="43.66724" lon="4.45081">
        <ele>6.81</ele>
        <time>2019-05-30T09:31:39.000Z</time>
      </trkpt>
      <trkpt lat="43.6674" lon="4.4504">
        <ele>6.76</ele>
        <time>2019-05-30T09:31:44.000Z</time>
      </trkpt>
      <trkpt lat="43.66752" lon="4.45003">
        <ele>4.12</ele>
        <time>2019-05-30T09:31:49.000Z</time>
      </trkpt>
      <trkpt lat="43.66765" lon="4.44968">
        <ele>2</ele>
        <time>2019-05-30T09:31:54.000Z</time>
      </trkpt>
      <trkpt lat="43.66775" lon="4.44942">
        <ele>0.76</ele>
        <time>2019-05-30T09:31:59.000Z</time>
      </trkpt>
      <trkpt lat="43.66781" lon="4.44922">
        <ele>2.74</ele>
        <time>2019-05-30T09:32:04.000Z</time>
      </trkpt>
      <trkpt lat="43.66789" lon="4.44902">
        <ele>2.79</ele>
        <time>2019-05-30T09:32:09.000Z</time>
      </trkpt>
      <trkpt lat="43.66798" lon="4.44877">
        <ele>2.81</ele>
        <time>2019-05-30T09:32:14.000Z</time>
      </trkpt>
      <trkpt lat="43.66808" lon="4.44851">
        <ele>4.54</ele>
        <time>2019-05-30T09:32:19.000Z</time>
      </trkpt>
      <trkpt lat="43.66818" lon="4.44822">
        <ele>4.81</ele>
        <time>2019-05-30T09:32:24.000Z</time>
      </trkpt>
      <trkpt lat="43.66828" lon="4.44794">
        <ele>4.81</ele>
        <time>2019-05-30T09:32:29.000Z</time>
      </trkpt>
      <trkpt lat="43.66839" lon="4.44763">
        <ele>5.56</ele>
        <time>2019-05-30T09:32:34.000Z</time>
      </trkpt>
      <trkpt lat="43.66852" lon="4.44732">
        <ele>5.81</ele>
        <time>2019-05-30T09:32:39.000Z</time>
      </trkpt>
      <trkpt lat="43.66865" lon="4.447">
        <ele>3.82</ele>
        <time>2019-05-30T09:32:44.000Z</time>
      </trkpt>
      <trkpt lat="43.66878" lon="4.44669">
        <ele>3.06</ele>
        <time>2019-05-30T09:32:49.000Z</time>
      </trkpt>
      <trkpt lat="43.66893" lon="4.44639">
        <ele>3.81</ele>
        <time>2019-05-30T09:32:54.000Z</time>
      </trkpt>
      <trkpt lat="43.66905" lon="4.44611">
        <ele>3.81</ele>
        <time>2019-05-30T09:32:59.000Z</time>
      </trkpt>
      <trkpt lat="43.66916" lon="4.44585">
        <ele>4.56</ele>
        <time>2019-05-30T09:33:04.000Z</time>
      </trkpt>
      <trkpt lat="43.66926" lon="4.44559">
        <ele>4.79</ele>
        <time>2019-05-30T09:33:09.000Z</time>
      </trkpt>
      <trkpt lat="43.66936" lon="4.44533">
        <ele>3.81</ele>
        <time>2019-05-30T09:33:14.000Z</time>
      </trkpt>
      <trkpt lat="43.66949" lon="4.44504">
        <ele>4.56</ele>
        <time>2019-05-30T09:33:19.000Z</time>
      </trkpt>
      <trkpt lat="43.6696" lon="4.44482">
        <ele>5.8</ele>
        <time>2019-05-30T09:33:24.000Z</time>
      </trkpt>
      <trkpt lat="43.6697" lon="4.44456">
        <ele>5.57</ele>
        <time>2019-05-30T09:33:29.000Z</time>
      </trkpt>
      <trkpt lat="43.6698" lon="4.44429">
        <ele>5.81</ele>
        <time>2019-05-30T09:33:34.000Z</time>
      </trkpt>
      <trkpt lat="43.6699" lon="4.44404">
        <ele>5.06</ele>
        <time>2019-05-30T09:33:39.000Z</time>
      </trkpt>
      <trkpt lat="43.66995" lon="4.44393">
        <ele>5.56</ele>
        <time>2019-05-30T09:33:44.000Z</time>
      </trkpt>
      <trkpt lat="43.66988" lon="4.44385">
        <ele>6.81</ele>
        <time>2019-05-30T09:34:17.000Z</time>
      </trkpt>
      <trkpt lat="43.66968" lon="4.44374">
        <ele>4.81</ele>
        <time>2019-05-30T09:34:22.000Z</time>
      </trkpt>
      <trkpt lat="43.66946" lon="4.44361">
        <ele>4.8</ele>
        <time>2019-05-30T09:34:27.000Z</time>
      </trkpt>
      <trkpt lat="43.66922" lon="4.44346">
        <ele>5.79</ele>
        <time>2019-05-30T09:34:32.000Z</time>
      </trkpt>
      <trkpt lat="43.66895" lon="4.44334">
        <ele>5.06</ele>
        <time>2019-05-30T09:34:37.000Z</time>
      </trkpt>
      <trkpt lat="43.66865" lon="4.44324">
        <ele>3.81</ele>
        <time>2019-05-30T09:34:42.000Z</time>
      </trkpt>
      <trkpt lat="43.66836" lon="4.44313">
        <ele>2.82</ele>
        <time>2019-05-30T09:34:47.000Z</time>
      </trkpt>
      <trkpt lat="43.66804" lon="4.44304">
        <ele>2.81</ele>
        <time>2019-05-30T09:34:52.000Z</time>
      </trkpt>
      <trkpt lat="43.66773" lon="4.44296">
        <ele>3.8</ele>
        <time>2019-05-30T09:34:57.000Z</time>
      </trkpt>
      <trkpt lat="43.66742" lon="4.44288">
        <ele>3.56</ele>
        <time>2019-05-30T09:35:02.000Z</time>
      </trkpt>
      <trkpt lat="43.66721" lon="4.44284">
        <ele>3.06</ele>
        <time>2019-05-30T09:35:07.000Z</time>
      </trkpt>
      <trkpt lat="43.66698" lon="4.44276">
        <ele>2.75</ele>
        <time>2019-05-30T09:35:12.000Z</time>
      </trkpt>
      <trkpt lat="43.6667" lon="4.44266">
        <ele>1.82</ele>
        <time>2019-05-30T09:35:17.000Z</time>
      </trkpt>
      <trkpt lat="43.66642" lon="4.44251">
        <ele>1.79</ele>
        <time>2019-05-30T09:35:22.000Z</time>
      </trkpt>
      <trkpt lat="43.66612" lon="4.44234">
        <ele>2.04</ele>
        <time>2019-05-30T09:35:27.000Z</time>
      </trkpt>
      <trkpt lat="43.66582" lon="4.44218">
        <ele>2.61</ele>
        <time>2019-05-30T09:35:32.000Z</time>
      </trkpt>
      <trkpt lat="43.66549" lon="4.44201">
        <ele>1.82</ele>
        <time>2019-05-30T09:35:37.000Z</time>
      </trkpt>
      <trkpt lat="43.66518" lon="4.44184">
        <ele>2.74</ele>
        <time>2019-05-30T09:35:42.000Z</time>
      </trkpt>
      <trkpt lat="43.66492" lon="4.44167">
        <ele>2.81</ele>
        <time>2019-05-30T09:35:47.000Z</time>
      </trkpt>
      <trkpt lat="43.66492" lon="4.44153">
        <ele>2</ele>
        <time>2019-05-30T09:36:17.000Z</time>
      </trkpt>
      <trkpt lat="43.6651" lon="4.44148">
        <ele>2.49</ele>
        <time>2019-05-30T09:36:22.000Z</time>
      </trkpt>
      <trkpt lat="43.6653" lon="4.44141">
        <ele>2.82</ele>
        <time>2019-05-30T09:36:27.000Z</time>
      </trkpt>
      <trkpt lat="43.66549" lon="4.44133">
        <ele>1.86</ele>
        <time>2019-05-30T09:36:32.000Z</time>
      </trkpt>
      <trkpt lat="43.66569" lon="4.44126">
        <ele>2.61</ele>
        <time>2019-05-30T09:36:37.000Z</time>
      </trkpt>
      <trkpt lat="43.66589" lon="4.44116">
        <ele>2.82</ele>
        <time>2019-05-30T09:36:42.000Z</time>
      </trkpt>
      <trkpt lat="43.6661" lon="4.44109">
        <ele>4.74</ele>
        <time>2019-05-30T09:36:47.000Z</time>
      </trkpt>
      <trkpt lat="43.66631" lon="4.441">
        <ele>2.87</ele>
        <time>2019-05-30T09:36:52.000Z</time>
      </trkpt>
      <trkpt lat="43.66654" lon="4.44094">
        <ele>2.06</ele>
        <time>2019-05-30T09:36:57.000Z</time>
      </trkpt>
      <trkpt lat="43.66679" lon="4.44091">
        <ele>1.81</ele>
        <time>2019-05-30T09:37:02.000Z</time>
      </trkpt>
      <trkpt lat="43.66705" lon="4.44092">
        <ele>2.79</ele>
        <time>2019-05-30T09:37:07.000Z</time>
      </trkpt>
      <trkpt lat="43.66732" lon="4.44093">
        <ele>2.05</ele>
        <time>2019-05-30T09:37:12.000Z</time>
      </trkpt>
      <trkpt lat="43.66758" lon="4.44094">
        <ele>2.8</ele>
        <time>2019-05-30T09:37:17.000Z</time>
      </trkpt>
      <trkpt lat="43.66783" lon="4.44096">
        <ele>2</ele>
        <time>2019-05-30T09:37:22.000Z</time>
      </trkpt>
      <trkpt lat="43.66807" lon="4.44099">
        <ele>1.57</ele>
        <time>2019-05-30T09:37:27.000Z</time>
      </trkpt>
      <trkpt lat="43.66829" lon="4.44102">
        <ele>1.86</ele>
        <time>2019-05-30T09:37:32.000Z</time>
      </trkpt>
      <trkpt lat="43.66853" lon="4.44106">
        <ele>1.62</ele>
        <time>2019-05-30T09:37:37.000Z</time>
      </trkpt>
      <trkpt lat="43.66873" lon="4.44107">
        <ele>1.8</ele>
        <time>2019-05-30T09:37:42.000Z</time>
      </trkpt>
      <trkpt lat="43.66892" lon="4.44105">
        <ele>1.8</ele>
        <time>2019-05-30T09:37:47.000Z</time>
      </trkpt>
      <trkpt lat="43.66911" lon="4.44095">
        <ele>1.05</ele>
        <time>2019-05-30T09:37:52.000Z</time>
      </trkpt>
      <trkpt lat="43.6693" lon="4.44075">
        <ele>1.79</ele>
        <time>2019-05-30T09:37:57.000Z</time>
      </trkpt>
      <trkpt lat="43.66948" lon="4.4405">
        <ele>2.74</ele>
        <time>2019-05-30T09:38:02.000Z</time>
      </trkpt>
      <trkpt lat="43.66964" lon="4.44025">
        <ele>2.8</ele>
        <time>2019-05-30T09:38:07.000Z</time>
      </trkpt>
      <trkpt lat="43.66979" lon="4.43996">
        <ele>2.99</ele>
        <time>2019-05-30T09:38:12.000Z</time>
      </trkpt>
      <trkpt lat="43.66995" lon="4.43967">
        <ele>3.8</ele>
        <time>2019-05-30T09:38:17.000Z</time>
      </trkpt>
      <trkpt lat="43.6701" lon="4.43937">
        <ele>3.56</ele>
        <time>2019-05-30T09:38:22.000Z</time>
      </trkpt>
      <trkpt lat="43.67028" lon="4.4391">
        <ele>3.8</ele>
        <time>2019-05-30T09:38:27.000Z</time>
      </trkpt>
      <trkpt lat="43.67048" lon="4.43888">
        <ele>3.6</ele>
        <time>2019-05-30T09:38:32.000Z</time>
      </trkpt>
      <trkpt lat="43.67067" lon="4.43873">
        <ele>3.8</ele>
        <time>2019-05-30T09:38:37.000Z</time>
      </trkpt>
      <trkpt lat="43.67088" lon="4.43856">
        <ele>4.79</ele>
        <time>2019-05-30T09:38:42.000Z</time>
      </trkpt>
      <trkpt lat="43.67106" lon="4.43846">
        <ele>4.99</ele>
        <time>2019-05-30T09:38:47.000Z</time>
      </trkpt>
      <trkpt lat="43.67122" lon="4.43846">
        <ele>3.82</ele>
        <time>2019-05-30T09:38:52.000Z</time>
      </trkpt>
      <trkpt lat="43.67131" lon="4.43839">
        <ele>5.99</ele>
        <time>2019-05-30T09:39:13.000Z</time>
      </trkpt>
      <trkpt lat="43.67136" lon="4.43812">
        <ele>6.05</ele>
        <time>2019-05-30T09:39:18.000Z</time>
      </trkpt>
      <trkpt lat="43.67139" lon="4.43776">
        <ele>4.87</ele>
        <time>2019-05-30T09:39:23.000Z</time>
      </trkpt>
      <trkpt lat="43.67146" lon="4.43743">
        <ele>4.55</ele>
        <time>2019-05-30T09:39:28.000Z</time>
      </trkpt>
      <trkpt lat="43.67168" lon="4.43721">
        <ele>4.79</ele>
        <time>2019-05-30T09:39:33.000Z</time>
      </trkpt>
      <trkpt lat="43.67189" lon="4.43706">
        <ele>5.05</ele>
        <time>2019-05-30T09:39:38.000Z</time>
      </trkpt>
      <trkpt lat="43.67204" lon="4.43677">
        <ele>6.74</ele>
        <time>2019-05-30T09:39:43.000Z</time>
      </trkpt>
      <trkpt lat="43.67218" lon="4.43651">
        <ele>8.8</ele>
        <time>2019-05-30T09:39:48.000Z</time>
      </trkpt>
      <trkpt lat="43.67232" lon="4.43625">
        <ele>8.8</ele>
        <time>2019-05-30T09:39:53.000Z</time>
      </trkpt>
      <trkpt lat="43.67247" lon="4.43596">
        <ele>7.99</ele>
        <time>2019-05-30T09:39:58.000Z</time>
      </trkpt>
      <trkpt lat="43.6726" lon="4.43564">
        <ele>6.87</ele>
        <time>2019-05-30T09:40:03.000Z</time>
      </trkpt>
      <trkpt lat="43.67275" lon="4.43535">
        <ele>7.57</ele>
        <time>2019-05-30T09:40:08.000Z</time>
      </trkpt>
      <trkpt lat="43.67287" lon="4.4351">
        <ele>8.79</ele>
        <time>2019-05-30T09:40:13.000Z</time>
      </trkpt>
      <trkpt lat="43.67296" lon="4.43493">
        <ele>10.74</ele>
        <time>2019-05-30T09:40:18.000Z</time>
      </trkpt>
      <trkpt lat="43.67306" lon="4.43474">
        <ele>10.61</ele>
        <time>2019-05-30T09:40:23.000Z</time>
      </trkpt>
      <trkpt lat="43.67318" lon="4.43449">
        <ele>8.87</ele>
        <time>2019-05-30T09:40:28.000Z</time>
      </trkpt>
      <trkpt lat="43.67333" lon="4.43415">
        <ele>6.88</ele>
        <time>2019-05-30T09:40:33.000Z</time>
      </trkpt>
      <trkpt lat="43.67349" lon="4.43381">
        <ele>6.8</ele>
        <time>2019-05-30T09:40:38.000Z</time>
      </trkpt>
      <trkpt lat="43.67365" lon="4.43356">
        <ele>5.82</ele>
        <time>2019-05-30T09:40:43.000Z</time>
      </trkpt>
      <trkpt lat="43.6737" lon="4.43343">
        <ele>4.62</ele>
        <time>2019-05-30T09:40:59.000Z</time>
      </trkpt>
      <trkpt lat="43.67378" lon="4.43329">
        <ele>6.55</ele>
        <time>2019-05-30T09:41:04.000Z</time>
      </trkpt>
      <trkpt lat="43.67386" lon="4.43313">
        <ele>5.8</ele>
        <time>2019-05-30T09:41:09.000Z</time>
      </trkpt>
      <trkpt lat="43.67395" lon="4.43294">
        <ele>7.74</ele>
        <time>2019-05-30T09:41:14.000Z</time>
      </trkpt>
      <trkpt lat="43.67404" lon="4.43284">
        <ele>9.55</ele>
        <time>2019-05-30T09:41:19.000Z</time>
      </trkpt>
      <trkpt lat="43.67408" lon="4.43272">
        <ele>9.05</ele>
        <time>2019-05-30T09:41:25.000Z</time>
      </trkpt>
      <trkpt lat="43.67414" lon="4.43261">
        <ele>10.72</ele>
        <time>2019-05-30T09:41:31.000Z</time>
      </trkpt>
      <trkpt lat="43.67423" lon="4.43255">
        <ele>10.86</ele>
        <time>2019-05-30T09:41:41.000Z</time>
      </trkpt>
      <trkpt lat="43.6743" lon="4.43242">
        <ele>10.79</ele>
        <time>2019-05-30T09:41:46.000Z</time>
      </trkpt>
      <trkpt lat="43.67438" lon="4.4325">
        <ele>16.86</ele>
        <time>2019-05-30T09:42:45.000Z</time>
      </trkpt>
      <trkpt lat="43.67452" lon="4.43261">
        <ele>14.87</ele>
        <time>2019-05-30T09:42:50.000Z</time>
      </trkpt>
      <trkpt lat="43.67466" lon="4.43274">
        <ele>12.07</ele>
        <time>2019-05-30T09:42:55.000Z</time>
      </trkpt>
      <trkpt lat="43.67482" lon="4.43286">
        <ele>10.81</ele>
        <time>2019-05-30T09:43:00.000Z</time>
      </trkpt>
      <trkpt lat="43.67497" lon="4.43296">
        <ele>8.83</ele>
        <time>2019-05-30T09:43:05.000Z</time>
      </trkpt>
      <trkpt lat="43.67509" lon="4.43311">
        <ele>7.82</ele>
        <time>2019-05-30T09:43:10.000Z</time>
      </trkpt>
      <trkpt lat="43.67524" lon="4.43326">
        <ele>9.78</ele>
        <time>2019-05-30T09:43:15.000Z</time>
      </trkpt>
      <trkpt lat="43.67536" lon="4.43339">
        <ele>13.02</ele>
        <time>2019-05-30T09:43:20.000Z</time>
      </trkpt>
      <trkpt lat="43.67544" lon="4.43346">
        <ele>13.55</ele>
        <time>2019-05-30T09:43:25.000Z</time>
      </trkpt>
      <trkpt lat="43.67548" lon="4.43364">
        <ele>13.05</ele>
        <time>2019-05-30T09:43:30.000Z</time>
      </trkpt>
      <trkpt lat="43.67541" lon="4.43374">
        <ele>10.57</ele>
        <time>2019-05-30T09:43:39.000Z</time>
      </trkpt>
      <trkpt lat="43.67551" lon="4.43392">
        <ele>9.11</ele>
        <time>2019-05-30T09:43:44.000Z</time>
      </trkpt>
      <trkpt lat="43.67554" lon="4.43406">
        <ele>4.18</ele>
        <time>2019-05-30T09:43:49.000Z</time>
      </trkpt>
      <trkpt lat="43.67545" lon="4.43409">
        <ele>4.54</ele>
        <time>2019-05-30T09:43:54.000Z</time>
      </trkpt>
      <trkpt lat="43.67535" lon="4.43397">
        <ele>5.35</ele>
        <time>2019-05-30T09:43:59.000Z</time>
      </trkpt>
      <trkpt lat="43.67519" lon="4.43385">
        <ele>6.11</ele>
        <time>2019-05-30T09:44:04.000Z</time>
      </trkpt>
      <trkpt lat="43.67505" lon="4.43372">
        <ele>7.05</ele>
        <time>2019-05-30T09:44:09.000Z</time>
      </trkpt>
      <trkpt lat="43.67493" lon="4.43358">
        <ele>5.81</ele>
        <time>2019-05-30T09:44:14.000Z</time>
      </trkpt>
      <trkpt lat="43.6748" lon="4.43347">
        <ele>5.57</ele>
        <time>2019-05-30T09:44:19.000Z</time>
      </trkpt>
      <trkpt lat="43.67469" lon="4.43345">
        <ele>3.6</ele>
        <time>2019-05-30T09:45:20.000Z</time>
      </trkpt>
      <trkpt lat="43.6746" lon="4.43337">
        <ele>4.11</ele>
        <time>2019-05-30T09:45:25.000Z</time>
      </trkpt>
      <trkpt lat="43.67448" lon="4.43324">
        <ele>6.54</ele>
        <time>2019-05-30T09:45:30.000Z</time>
      </trkpt>
      <trkpt lat="43.67438" lon="4.43313">
        <ele>6.05</ele>
        <time>2019-05-30T09:45:35.000Z</time>
      </trkpt>
      <trkpt lat="43.6743" lon="4.43305">
        <ele>7.69</ele>
        <time>2019-05-30T09:45:41.000Z</time>
      </trkpt>
      <trkpt lat="43.67421" lon="4.43307">
        <ele>11.79</ele>
        <time>2019-05-30T09:46:07.000Z</time>
      </trkpt>
      <trkpt lat="43.67413" lon="4.43299">
        <ele>14.8</ele>
        <time>2019-05-30T09:46:14.000Z</time>
      </trkpt>
      <trkpt lat="43.67404" lon="4.43293">
        <ele>15.56</ele>
        <time>2019-05-30T09:46:23.000Z</time>
      </trkpt>
      <trkpt lat="43.67395" lon="4.43294">
        <ele>13.85</ele>
        <time>2019-05-30T09:46:37.000Z</time>
      </trkpt>
      <trkpt lat="43.67393" lon="4.43306">
        <ele>12.8</ele>
        <time>2019-05-30T09:46:52.000Z</time>
      </trkpt>
      <trkpt lat="43.67401" lon="4.43311">
        <ele>13.04</ele>
        <time>2019-05-30T09:50:54.000Z</time>
      </trkpt>
      <trkpt lat="43.67411" lon="4.4332">
        <ele>16.42</ele>
        <time>2019-05-30T09:51:12.000Z</time>
      </trkpt>
      <trkpt lat="43.67416" lon="4.43331">
        <ele>16.48</ele>
        <time>2019-05-30T09:51:17.000Z</time>
      </trkpt>
      <trkpt lat="43.67421" lon="4.4332">
        <ele>17.75</ele>
        <time>2019-05-30T09:51:23.000Z</time>
      </trkpt>
      <trkpt lat="43.67437" lon="4.43339">
        <ele>9.97</ele>
        <time>2019-05-30T09:52:29.000Z</time>
      </trkpt>
      <trkpt lat="43.67445" lon="4.43345">
        <ele>1.4</ele>
        <time>2019-05-30T09:52:39.000Z</time>
      </trkpt>
      <trkpt lat="43.67455" lon="4.4335">
        <ele>3.74</ele>
        <time>2019-05-30T09:52:49.000Z</time>
      </trkpt>
      <trkpt lat="43.67463" lon="4.43356">
        <ele>1.25</ele>
        <time>2019-05-30T09:52:59.000Z</time>
      </trkpt>
      <trkpt lat="43.67471" lon="4.43362">
        <ele>1.8</ele>
        <time>2019-05-30T09:53:08.000Z</time>
      </trkpt>
      <trkpt lat="43.6748" lon="4.4337">
        <ele>11.55</ele>
        <time>2019-05-30T09:54:27.000Z</time>
      </trkpt>
      <trkpt lat="43.67488" lon="4.43376">
        <ele>10.77</ele>
        <time>2019-05-30T09:54:36.000Z</time>
      </trkpt>
      <trkpt lat="43.67495" lon="4.43383">
        <ele>7.87</ele>
        <time>2019-05-30T09:54:46.000Z</time>
      </trkpt>
      <trkpt lat="43.67503" lon="4.4339">
        <ele>5.62</ele>
        <time>2019-05-30T09:54:55.000Z</time>
      </trkpt>
      <trkpt lat="43.6751" lon="4.43398">
        <ele>5.05</ele>
        <time>2019-05-30T09:55:03.000Z</time>
      </trkpt>
      <trkpt lat="43.67518" lon="4.43405">
        <ele>6.86</ele>
        <time>2019-05-30T09:55:16.000Z</time>
      </trkpt>
      <trkpt lat="43.67526" lon="4.43411">
        <ele>9.49</ele>
        <time>2019-05-30T09:55:28.000Z</time>
      </trkpt>
      <trkpt lat="43.67533" lon="4.43424">
        <ele>9.13</ele>
        <time>2019-05-30T09:55:33.000Z</time>
      </trkpt>
      <trkpt lat="43.67543" lon="4.43424">
        <ele>7.8</ele>
        <time>2019-05-30T09:55:43.000Z</time>
      </trkpt>
      <trkpt lat="43.67551" lon="4.43431">
        <ele>8</ele>
        <time>2019-05-30T09:55:58.000Z</time>
      </trkpt>
      <trkpt lat="43.67557" lon="4.4344">
        <ele>7.33</ele>
        <time>2019-05-30T09:56:04.000Z</time>
      </trkpt>
      <trkpt lat="43.67566" lon="4.43448">
        <ele>4.04</ele>
        <time>2019-05-30T09:56:15.000Z</time>
      </trkpt>
      <trkpt lat="43.67574" lon="4.43455">
        <ele>0.79</ele>
        <time>2019-05-30T09:56:27.000Z</time>
      </trkpt>
      <trkpt lat="43.67581" lon="4.43464">
        <ele>1.87</ele>
        <time>2019-05-30T09:56:39.000Z</time>
      </trkpt>
      <trkpt lat="43.67591" lon="4.43469">
        <ele>1.89</ele>
        <time>2019-05-30T09:56:47.000Z</time>
      </trkpt>
      <trkpt lat="43.67599" lon="4.43477">
        <ele>0.13</ele>
        <time>2019-05-30T09:57:02.000Z</time>
      </trkpt>
      <trkpt lat="43.67607" lon="4.43485">
        <ele>0.88</ele>
        <time>2019-05-30T09:57:12.000Z</time>
      </trkpt>
      <trkpt lat="43.67614" lon="4.43493">
        <ele>8</ele>
        <time>2019-05-30T09:57:19.000Z</time>
      </trkpt>
      <trkpt lat="43.67622" lon="4.435">
        <ele>1.55</ele>
        <time>2019-05-30T09:57:27.000Z</time>
      </trkpt>
      <trkpt lat="43.6763" lon="4.43508">
        <ele>4.74</ele>
        <time>2019-05-30T09:57:37.000Z</time>
      </trkpt>
      <trkpt lat="43.67637" lon="4.43517">
        <ele>6.55</ele>
        <time>2019-05-30T09:57:50.000Z</time>
      </trkpt>
      <trkpt lat="43.67645" lon="4.43523">
        <ele>4.68</ele>
        <time>2019-05-30T09:58:04.000Z</time>
      </trkpt>
      <trkpt lat="43.67637" lon="4.43529">
        <ele>7.74</ele>
        <time>2019-05-30T09:58:31.000Z</time>
      </trkpt>
      <trkpt lat="43.67628" lon="4.43524">
        <ele>7.82</ele>
        <time>2019-05-30T09:58:42.000Z</time>
      </trkpt>
      <trkpt lat="43.67622" lon="4.43505">
        <ele>5.99</ele>
        <time>2019-05-30T09:58:47.000Z</time>
      </trkpt>
      <trkpt lat="43.67613" lon="4.43502">
        <ele>7.97</ele>
        <time>2019-05-30T09:58:53.000Z</time>
      </trkpt>
      <trkpt lat="43.67606" lon="4.43494">
        <ele>5.62</ele>
        <time>2019-05-30T09:58:59.000Z</time>
      </trkpt>
      <trkpt lat="43.67596" lon="4.4349">
        <ele>5.49</ele>
        <time>2019-05-30T09:59:07.000Z</time>
      </trkpt>
      <trkpt lat="43.67589" lon="4.43482">
        <ele>4.12</ele>
        <time>2019-05-30T09:59:13.000Z</time>
      </trkpt>
      <trkpt lat="43.6758" lon="4.43479">
        <ele>0.08</ele>
        <time>2019-05-30T09:59:21.000Z</time>
      </trkpt>
      <trkpt lat="43.67571" lon="4.43472">
        <ele>1.8</ele>
        <time>2019-05-30T09:59:27.000Z</time>
      </trkpt>
      <trkpt lat="43.67563" lon="4.43463">
        <ele>6</ele>
        <time>2019-05-30T09:59:35.000Z</time>
      </trkpt>
      <trkpt lat="43.67555" lon="4.43455">
        <ele>1.56</ele>
        <time>2019-05-30T09:59:45.000Z</time>
      </trkpt>
      <trkpt lat="43.67548" lon="4.43446">
        <ele>4.29</ele>
        <time>2019-05-30T09:59:52.000Z</time>
      </trkpt>
      <trkpt lat="43.67541" lon="4.43439">
        <ele>2.06</ele>
        <time>2019-05-30T09:59:59.000Z</time>
      </trkpt>
      <trkpt lat="43.67532" lon="4.4343">
        <ele>4.78</ele>
        <time>2019-05-30T10:00:07.000Z</time>
      </trkpt>
      <trkpt lat="43.67524" lon="4.43424">
        <ele>7.78</ele>
        <time>2019-05-30T10:00:16.000Z</time>
      </trkpt>
      <trkpt lat="43.67514" lon="4.43416">
        <ele>5.68</ele>
        <time>2019-05-30T10:00:30.000Z</time>
      </trkpt>
      <trkpt lat="43.67499" lon="4.43416">
        <ele>5.63</ele>
        <time>2019-05-30T10:00:35.000Z</time>
      </trkpt>
      <trkpt lat="43.67495" lon="4.43428">
        <ele>7.56</ele>
        <time>2019-05-30T10:00:44.000Z</time>
      </trkpt>
      <trkpt lat="43.67491" lon="4.4344">
        <ele>3.04</ele>
        <time>2019-05-30T10:00:53.000Z</time>
      </trkpt>
      <trkpt lat="43.67487" lon="4.43452">
        <ele>1.06</ele>
        <time>2019-05-30T10:01:00.000Z</time>
      </trkpt>
      <trkpt lat="43.67479" lon="4.43463">
        <ele>4.54</ele>
        <time>2019-05-30T10:01:06.000Z</time>
      </trkpt>
      <trkpt lat="43.67472" lon="4.43473">
        <ele>5</ele>
        <time>2019-05-30T10:01:15.000Z</time>
      </trkpt>
      <trkpt lat="43.67463" lon="4.43481">
        <ele>5</ele>
        <time>2019-05-30T10:01:20.000Z</time>
      </trkpt>
      <trkpt lat="43.67456" lon="4.43492">
        <ele>5</ele>
        <time>2019-05-30T10:01:26.000Z</time>
      </trkpt>
      <trkpt lat="43.6745" lon="4.43504">
        <ele>2.43</ele>
        <time>2019-05-30T10:01:31.000Z</time>
      </trkpt>
      <trkpt lat="43.6744" lon="4.43512">
        <ele>3.74</ele>
        <time>2019-05-30T10:01:36.000Z</time>
      </trkpt>
      <trkpt lat="43.67441" lon="4.43525">
        <ele>4.22</ele>
        <time>2019-05-30T10:01:47.000Z</time>
      </trkpt>
      <trkpt lat="43.67433" lon="4.43516">
        <ele>4.81</ele>
        <time>2019-05-30T10:02:00.000Z</time>
      </trkpt>
      <trkpt lat="43.67426" lon="4.43507">
        <ele>5</ele>
        <time>2019-05-30T10:02:06.000Z</time>
      </trkpt>
      <trkpt lat="43.6742" lon="4.43496">
        <ele>5</ele>
        <time>2019-05-30T10:02:13.000Z</time>
      </trkpt>
      <trkpt lat="43.67411" lon="4.4349">
        <ele>5</ele>
        <time>2019-05-30T10:02:43.000Z</time>
      </trkpt>
      <trkpt lat="43.67402" lon="4.43483">
        <ele>5</ele>
        <time>2019-05-30T10:02:48.000Z</time>
      </trkpt>
      <trkpt lat="43.67394" lon="4.43478">
        <ele>5</ele>
        <time>2019-05-30T10:02:54.000Z</time>
      </trkpt>
      <trkpt lat="43.67385" lon="4.43474">
        <ele>5</ele>
        <time>2019-05-30T10:03:02.000Z</time>
      </trkpt>
      <trkpt lat="43.67377" lon="4.43467">
        <ele>5</ele>
        <time>2019-05-30T10:03:09.000Z</time>
      </trkpt>
      <trkpt lat="43.6737" lon="4.43459">
        <ele>5</ele>
        <time>2019-05-30T10:03:15.000Z</time>
      </trkpt>
      <trkpt lat="43.67362" lon="4.43451">
        <ele>5</ele>
        <time>2019-05-30T10:03:24.000Z</time>
      </trkpt>
      <trkpt lat="43.67354" lon="4.43446">
        <ele>5</ele>
        <time>2019-05-30T10:03:31.000Z</time>
      </trkpt>
      <trkpt lat="43.67345" lon="4.43438">
        <ele>5</ele>
        <time>2019-05-30T10:03:39.000Z</time>
      </trkpt>
      <trkpt lat="43.67413" lon="4.43436">
        <ele>8.86</ele>
        <time>2019-05-30T12:09:57.000Z</time>
      </trkpt>
      <trkpt lat="43.67419" lon="4.43424">
        <ele>8.79</ele>
        <time>2019-05-30T12:10:02.000Z</time>
      </trkpt>
      <trkpt lat="43.67424" lon="4.43412">
        <ele>6.8</ele>
        <time>2019-05-30T12:10:08.000Z</time>
      </trkpt>
      <trkpt lat="43.6743" lon="4.434">
        <ele>7.68</ele>
        <time>2019-05-30T12:10:13.000Z</time>
      </trkpt>
      <trkpt lat="43.67436" lon="4.43387">
        <ele>7.1</ele>
        <time>2019-05-30T12:10:18.000Z</time>
      </trkpt>
      <trkpt lat="43.67442" lon="4.43375">
        <ele>7.55</ele>
        <time>2019-05-30T12:10:23.000Z</time>
      </trkpt>
      <trkpt lat="43.6745" lon="4.43364">
        <ele>7.33</ele>
        <time>2019-05-30T12:10:28.000Z</time>
      </trkpt>
      <trkpt lat="43.67447" lon="4.43348">
        <ele>9.24</ele>
        <time>2019-05-30T12:10:33.000Z</time>
      </trkpt>
      <trkpt lat="43.67434" lon="4.43337">
        <ele>12.72</ele>
        <time>2019-05-30T12:10:38.000Z</time>
      </trkpt>
      <trkpt lat="43.6742" lon="4.43325">
        <ele>12.81</ele>
        <time>2019-05-30T12:10:43.000Z</time>
      </trkpt>
      <trkpt lat="43.67413" lon="4.43307">
        <ele>11.13</ele>
        <time>2019-05-30T12:10:48.000Z</time>
      </trkpt>
      <trkpt lat="43.67403" lon="4.43293">
        <ele>8.88</ele>
        <time>2019-05-30T12:10:53.000Z</time>
      </trkpt>
      <trkpt lat="43.67393" lon="4.4329">
        <ele>9.04</ele>
        <time>2019-05-30T12:11:03.000Z</time>
      </trkpt>
      <trkpt lat="43.67383" lon="4.43298">
        <ele>7.07</ele>
        <time>2019-05-30T12:11:08.000Z</time>
      </trkpt>
      <trkpt lat="43.67375" lon="4.43317">
        <ele>7.55</ele>
        <time>2019-05-30T12:11:13.000Z</time>
      </trkpt>
      <trkpt lat="43.67365" lon="4.43337">
        <ele>5.81</ele>
        <time>2019-05-30T12:11:18.000Z</time>
      </trkpt>
      <trkpt lat="43.67353" lon="4.43359">
        <ele>3.87</ele>
        <time>2019-05-30T12:11:23.000Z</time>
      </trkpt>
      <trkpt lat="43.67341" lon="4.43382">
        <ele>4.6</ele>
        <time>2019-05-30T12:11:28.000Z</time>
      </trkpt>
      <trkpt lat="43.67331" lon="4.43403">
        <ele>3.81</ele>
        <time>2019-05-30T12:11:33.000Z</time>
      </trkpt>
      <trkpt lat="43.67322" lon="4.43422">
        <ele>4.56</ele>
        <time>2019-05-30T12:11:38.000Z</time>
      </trkpt>
      <trkpt lat="43.67315" lon="4.43439">
        <ele>4.8</ele>
        <time>2019-05-30T12:11:43.000Z</time>
      </trkpt>
      <trkpt lat="43.67305" lon="4.43457">
        <ele>4.99</ele>
        <time>2019-05-30T12:11:48.000Z</time>
      </trkpt>
      <trkpt lat="43.67296" lon="4.43477">
        <ele>4.8</ele>
        <time>2019-05-30T12:11:53.000Z</time>
      </trkpt>
      <trkpt lat="43.67282" lon="4.43505">
        <ele>5.04</ele>
        <time>2019-05-30T12:11:58.000Z</time>
      </trkpt>
      <trkpt lat="43.67266" lon="4.4354">
        <ele>2.13</ele>
        <time>2019-05-30T12:12:03.000Z</time>
      </trkpt>
      <trkpt lat="43.67248" lon="4.43578">
        <ele>5</ele>
        <time>2019-05-30T12:12:08.000Z</time>
      </trkpt>
      <trkpt lat="43.6723" lon="4.43612">
        <ele>4</ele>
        <time>2019-05-30T12:12:13.000Z</time>
      </trkpt>
      <trkpt lat="43.67213" lon="4.43644">
        <ele>4</ele>
        <time>2019-05-30T12:12:18.000Z</time>
      </trkpt>
      <trkpt lat="43.67196" lon="4.4368">
        <ele>3</ele>
        <time>2019-05-30T12:12:23.000Z</time>
      </trkpt>
      <trkpt lat="43.67175" lon="4.43713">
        <ele>3</ele>
        <time>2019-05-30T12:12:28.000Z</time>
      </trkpt>
      <trkpt lat="43.67149" lon="4.43729">
        <ele>3</ele>
        <time>2019-05-30T12:12:33.000Z</time>
      </trkpt>
      <trkpt lat="43.67136" lon="4.43757">
        <ele>3</ele>
        <time>2019-05-30T12:12:38.000Z</time>
      </trkpt>
      <trkpt lat="43.67131" lon="4.43793">
        <ele>3</ele>
        <time>2019-05-30T12:12:43.000Z</time>
      </trkpt>
      <trkpt lat="43.67121" lon="4.43823">
        <ele>3</ele>
        <time>2019-05-30T12:12:48.000Z</time>
      </trkpt>
      <trkpt lat="43.67099" lon="4.43841">
        <ele>3</ele>
        <time>2019-05-30T12:12:53.000Z</time>
      </trkpt>
      <trkpt lat="43.67077" lon="4.43857">
        <ele>0.99</ele>
        <time>2019-05-30T12:12:58.000Z</time>
      </trkpt>
      <trkpt lat="43.67055" lon="4.43878">
        <ele>0.8</ele>
        <time>2019-05-30T12:13:03.000Z</time>
      </trkpt>
      <trkpt lat="43.67034" lon="4.43897">
        <ele>0.87</ele>
        <time>2019-05-30T12:13:08.000Z</time>
      </trkpt>
      <trkpt lat="43.67014" lon="4.4392">
        <ele>3</ele>
        <time>2019-05-30T12:13:13.000Z</time>
      </trkpt>
      <trkpt lat="43.66998" lon="4.43952">
        <ele>3</ele>
        <time>2019-05-30T12:13:18.000Z</time>
      </trkpt>
      <trkpt lat="43.66981" lon="4.43983">
        <ele>4</ele>
        <time>2019-05-30T12:13:23.000Z</time>
      </trkpt>
      <trkpt lat="43.66965" lon="4.44015">
        <ele>3</ele>
        <time>2019-05-30T12:13:28.000Z</time>
      </trkpt>
      <trkpt lat="43.66946" lon="4.44045">
        <ele>3</ele>
        <time>2019-05-30T12:13:33.000Z</time>
      </trkpt>
      <trkpt lat="43.66925" lon="4.44072">
        <ele>2</ele>
        <time>2019-05-30T12:13:38.000Z</time>
      </trkpt>
      <trkpt lat="43.66899" lon="4.44091">
        <ele>2</ele>
        <time>2019-05-30T12:13:43.000Z</time>
      </trkpt>
      <trkpt lat="43.6687" lon="4.44098">
        <ele>2</ele>
        <time>2019-05-30T12:13:48.000Z</time>
      </trkpt>
      <trkpt lat="43.6684" lon="4.44096">
        <ele>2</ele>
        <time>2019-05-30T12:13:53.000Z</time>
      </trkpt>
      <trkpt lat="43.66808" lon="4.44092">
        <ele>2</ele>
        <time>2019-05-30T12:13:58.000Z</time>
      </trkpt>
      <trkpt lat="43.66778" lon="4.44089">
        <ele>2</ele>
        <time>2019-05-30T12:14:03.000Z</time>
      </trkpt>
      <trkpt lat="43.66749" lon="4.44086">
        <ele>0.05</ele>
        <time>2019-05-30T12:14:08.000Z</time>
      </trkpt>
      <trkpt lat="43.66719" lon="4.44083">
        <ele>0.8</ele>
        <time>2019-05-30T12:14:13.000Z</time>
      </trkpt>
      <trkpt lat="43.66689" lon="4.44082">
        <ele>0.8</ele>
        <time>2019-05-30T12:14:18.000Z</time>
      </trkpt>
      <trkpt lat="43.66661" lon="4.44083">
        <ele>1.8</ele>
        <time>2019-05-30T12:14:23.000Z</time>
      </trkpt>
      <trkpt lat="43.6663" lon="4.44091">
        <ele>1.74</ele>
        <time>2019-05-30T12:14:28.000Z</time>
      </trkpt>
      <trkpt lat="43.66602" lon="4.44102">
        <ele>0.86</ele>
        <time>2019-05-30T12:14:33.000Z</time>
      </trkpt>
      <trkpt lat="43.66574" lon="4.44114">
        <ele>0.56</ele>
        <time>2019-05-30T12:14:38.000Z</time>
      </trkpt>
      <trkpt lat="43.66545" lon="4.44127">
        <ele>0.61</ele>
        <time>2019-05-30T12:14:43.000Z</time>
      </trkpt>
      <trkpt lat="43.66516" lon="4.44139">
        <ele>1.6</ele>
        <time>2019-05-30T12:14:48.000Z</time>
      </trkpt>
      <trkpt lat="43.66486" lon="4.4415">
        <ele>1.81</ele>
        <time>2019-05-30T12:14:53.000Z</time>
      </trkpt>
      <trkpt lat="43.66455" lon="4.44164">
        <ele>2.56</ele>
        <time>2019-05-30T12:14:58.000Z</time>
      </trkpt>
      <trkpt lat="43.66424" lon="4.44177">
        <ele>1.62</ele>
        <time>2019-05-30T12:15:03.000Z</time>
      </trkpt>
      <trkpt lat="43.66394" lon="4.44189">
        <ele>1.85</ele>
        <time>2019-05-30T12:15:08.000Z</time>
      </trkpt>
      <trkpt lat="43.66363" lon="4.44201">
        <ele>1</ele>
        <time>2019-05-30T12:15:13.000Z</time>
      </trkpt>
      <trkpt lat="43.66332" lon="4.44209">
        <ele>1</ele>
        <time>2019-05-30T12:15:18.000Z</time>
      </trkpt>
      <trkpt lat="43.66301" lon="4.44213">
        <ele>1</ele>
        <time>2019-05-30T12:15:23.000Z</time>
      </trkpt>
      <trkpt lat="43.66272" lon="4.4421">
        <ele>1</ele>
        <time>2019-05-30T12:15:28.000Z</time>
      </trkpt>
      <trkpt lat="43.66242" lon="4.44203">
        <ele>1</ele>
        <time>2019-05-30T12:15:33.000Z</time>
      </trkpt>
      <trkpt lat="43.66212" lon="4.44194">
        <ele>1</ele>
        <time>2019-05-30T12:15:38.000Z</time>
      </trkpt>
      <trkpt lat="43.66182" lon="4.44183">
        <ele>1</ele>
        <time>2019-05-30T12:15:43.000Z</time>
      </trkpt>
      <trkpt lat="43.6615" lon="4.44171">
        <ele>1</ele>
        <time>2019-05-30T12:15:48.000Z</time>
      </trkpt>
      <trkpt lat="43.66115" lon="4.44159">
        <ele>0.04</ele>
        <time>2019-05-30T12:15:53.000Z</time>
      </trkpt>
      <trkpt lat="43.66079" lon="4.44148">
        <ele>1</ele>
        <time>2019-05-30T12:15:58.000Z</time>
      </trkpt>
      <trkpt lat="43.66043" lon="4.44137">
        <ele>2</ele>
        <time>2019-05-30T12:16:03.000Z</time>
      </trkpt>
      <trkpt lat="43.6601" lon="4.44123">
        <ele>2</ele>
        <time>2019-05-30T12:16:08.000Z</time>
      </trkpt>
      <trkpt lat="43.65976" lon="4.4411">
        <ele>2</ele>
        <time>2019-05-30T12:16:13.000Z</time>
      </trkpt>
      <trkpt lat="43.65941" lon="4.44096">
        <ele>3</ele>
        <time>2019-05-30T12:16:18.000Z</time>
      </trkpt>
      <trkpt lat="43.65904" lon="4.44083">
        <ele>3</ele>
        <time>2019-05-30T12:16:23.000Z</time>
      </trkpt>
      <trkpt lat="43.65869" lon="4.44072">
        <ele>0.56</ele>
        <time>2019-05-30T12:16:28.000Z</time>
      </trkpt>
      <trkpt lat="43.65833" lon="4.44064">
        <ele>0.79</ele>
        <time>2019-05-30T12:16:33.000Z</time>
      </trkpt>
      <trkpt lat="43.65796" lon="4.44059">
        <ele>0.74</ele>
        <time>2019-05-30T12:16:38.000Z</time>
      </trkpt>
      <trkpt lat="43.6576" lon="4.44055">
        <ele>2</ele>
        <time>2019-05-30T12:16:43.000Z</time>
      </trkpt>
      <trkpt lat="43.65723" lon="4.4405">
        <ele>2</ele>
        <time>2019-05-30T12:16:48.000Z</time>
      </trkpt>
      <trkpt lat="43.65689" lon="4.44041">
        <ele>2</ele>
        <time>2019-05-30T12:16:53.000Z</time>
      </trkpt>
      <trkpt lat="43.65655" lon="4.44027">
        <ele>2</ele>
        <time>2019-05-30T12:16:58.000Z</time>
      </trkpt>
      <trkpt lat="43.65623" lon="4.44012">
        <ele>2</ele>
        <time>2019-05-30T12:17:03.000Z</time>
      </trkpt>
      <trkpt lat="43.65588" lon="4.43995">
        <ele>2</ele>
        <time>2019-05-30T12:17:08.000Z</time>
      </trkpt>
      <trkpt lat="43.65554" lon="4.4398">
        <ele>2</ele>
        <time>2019-05-30T12:17:13.000Z</time>
      </trkpt>
      <trkpt lat="43.65519" lon="4.43965">
        <ele>2</ele>
        <time>2019-05-30T12:17:18.000Z</time>
      </trkpt>
      <trkpt lat="43.65485" lon="4.4395">
        <ele>1</ele>
        <time>2019-05-30T12:17:23.000Z</time>
      </trkpt>
      <trkpt lat="43.6545" lon="4.43936">
        <ele>1</ele>
        <time>2019-05-30T12:17:28.000Z</time>
      </trkpt>
      <trkpt lat="43.65415" lon="4.43921">
        <ele>1</ele>
        <time>2019-05-30T12:17:33.000Z</time>
      </trkpt>
      <trkpt lat="43.65381" lon="4.43904">
        <ele>1</ele>
        <time>2019-05-30T12:17:38.000Z</time>
      </trkpt>
      <trkpt lat="43.65347" lon="4.43889">
        <ele>1</ele>
        <time>2019-05-30T12:17:43.000Z</time>
      </trkpt>
      <trkpt lat="43.65313" lon="4.43873">
        <ele>1</ele>
        <time>2019-05-30T12:17:48.000Z</time>
      </trkpt>
      <trkpt lat="43.65279" lon="4.43856">
        <ele>1</ele>
        <time>2019-05-30T12:17:53.000Z</time>
      </trkpt>
      <trkpt lat="43.65245" lon="4.4384">
        <ele>1</ele>
        <time>2019-05-30T12:17:58.000Z</time>
      </trkpt>
      <trkpt lat="43.65209" lon="4.43825">
        <ele>1</ele>
        <time>2019-05-30T12:18:03.000Z</time>
      </trkpt>
      <trkpt lat="43.65173" lon="4.4381">
        <ele>2</ele>
        <time>2019-05-30T12:18:08.000Z</time>
      </trkpt>
      <trkpt lat="43.65137" lon="4.43796">
        <ele>2</ele>
        <time>2019-05-30T12:18:13.000Z</time>
      </trkpt>
      <trkpt lat="43.65103" lon="4.43782">
        <ele>1</ele>
        <time>2019-05-30T12:18:18.000Z</time>
      </trkpt>
      <trkpt lat="43.65068" lon="4.4376">
        <ele>1</ele>
        <time>2019-05-30T12:18:23.000Z</time>
      </trkpt>
      <trkpt lat="43.65035" lon="4.43736">
        <ele>1</ele>
        <time>2019-05-30T12:18:28.000Z</time>
      </trkpt>
      <trkpt lat="43.65003" lon="4.4371">
        <ele>1</ele>
        <time>2019-05-30T12:18:33.000Z</time>
      </trkpt>
      <trkpt lat="43.64971" lon="4.43685">
        <ele>2</ele>
        <time>2019-05-30T12:18:38.000Z</time>
      </trkpt>
      <trkpt lat="43.64937" lon="4.43661">
        <ele>2</ele>
        <time>2019-05-30T12:18:43.000Z</time>
      </trkpt>
      <trkpt lat="43.64905" lon="4.4364">
        <ele>3</ele>
        <time>2019-05-30T12:18:48.000Z</time>
      </trkpt>
      <trkpt lat="43.64871" lon="4.43622">
        <ele>3</ele>
        <time>2019-05-30T12:18:53.000Z</time>
      </trkpt>
      <trkpt lat="43.64838" lon="4.43601">
        <ele>3</ele>
        <time>2019-05-30T12:18:58.000Z</time>
      </trkpt>
      <trkpt lat="43.64804" lon="4.43583">
        <ele>4</ele>
        <time>2019-05-30T12:19:03.000Z</time>
      </trkpt>
      <trkpt lat="43.64772" lon="4.4356">
        <ele>4</ele>
        <time>2019-05-30T12:19:08.000Z</time>
      </trkpt>
      <trkpt lat="43.64743" lon="4.43531">
        <ele>5</ele>
        <time>2019-05-30T12:19:13.000Z</time>
      </trkpt>
      <trkpt lat="43.64725" lon="4.43496">
        <ele>4</ele>
        <time>2019-05-30T12:19:18.000Z</time>
      </trkpt>
      <trkpt lat="43.64711" lon="4.43458">
        <ele>0.79</ele>
        <time>2019-05-30T12:19:23.000Z</time>
      </trkpt>
      <trkpt lat="43.64696" lon="4.43419">
        <ele>5</ele>
        <time>2019-05-30T12:19:28.000Z</time>
      </trkpt>
      <trkpt lat="43.64683" lon="4.43379">
        <ele>0.8</ele>
        <time>2019-05-30T12:19:33.000Z</time>
      </trkpt>
      <trkpt lat="43.64668" lon="4.43336">
        <ele>0.81</ele>
        <time>2019-05-30T12:19:38.000Z</time>
      </trkpt>
      <trkpt lat="43.64653" lon="4.43293">
        <ele>0.81</ele>
        <time>2019-05-30T12:19:43.000Z</time>
      </trkpt>
      <trkpt lat="43.64638" lon="4.43251">
        <ele>0.57</ele>
        <time>2019-05-30T12:19:48.000Z</time>
      </trkpt>
      <trkpt lat="43.64623" lon="4.43209">
        <ele>0.81</ele>
        <time>2019-05-30T12:19:53.000Z</time>
      </trkpt>
      <trkpt lat="43.64609" lon="4.43168">
        <ele>4</ele>
        <time>2019-05-30T12:19:58.000Z</time>
      </trkpt>
      <trkpt lat="43.64593" lon="4.43125">
        <ele>4</ele>
        <time>2019-05-30T12:20:03.000Z</time>
      </trkpt>
      <trkpt lat="43.64571" lon="4.43089">
        <ele>5</ele>
        <time>2019-05-30T12:20:08.000Z</time>
      </trkpt>
      <trkpt lat="43.64543" lon="4.43066">
        <ele>4</ele>
        <time>2019-05-30T12:20:13.000Z</time>
      </trkpt>
      <trkpt lat="43.64516" lon="4.43053">
        <ele>4</ele>
        <time>2019-05-30T12:20:18.000Z</time>
      </trkpt>
      <trkpt lat="43.6449" lon="4.43052">
        <ele>0.74</ele>
        <time>2019-05-30T12:20:23.000Z</time>
      </trkpt>
      <trkpt lat="43.64468" lon="4.43057">
        <ele>2.79</ele>
        <time>2019-05-30T12:20:28.000Z</time>
      </trkpt>
      <trkpt lat="43.64446" lon="4.43069">
        <ele>5.54</ele>
        <time>2019-05-30T12:20:33.000Z</time>
      </trkpt>
      <trkpt lat="43.64425" lon="4.43082">
        <ele>6.6</ele>
        <time>2019-05-30T12:20:38.000Z</time>
      </trkpt>
      <trkpt lat="43.64404" lon="4.43097">
        <ele>7.56</ele>
        <time>2019-05-30T12:20:43.000Z</time>
      </trkpt>
      <trkpt lat="43.64383" lon="4.43111">
        <ele>8.8</ele>
        <time>2019-05-30T12:20:48.000Z</time>
      </trkpt>
      <trkpt lat="43.64362" lon="4.43124">
        <ele>7.81</ele>
        <time>2019-05-30T12:20:53.000Z</time>
      </trkpt>
      <trkpt lat="43.64337" lon="4.43141">
        <ele>7.87</ele>
        <time>2019-05-30T12:20:58.000Z</time>
      </trkpt>
      <trkpt lat="43.64307" lon="4.4316">
        <ele>6.87</ele>
        <time>2019-05-30T12:21:03.000Z</time>
      </trkpt>
      <trkpt lat="43.64275" lon="4.4318">
        <ele>5.87</ele>
        <time>2019-05-30T12:21:08.000Z</time>
      </trkpt>
      <trkpt lat="43.6424" lon="4.43204">
        <ele>3.87</ele>
        <time>2019-05-30T12:21:13.000Z</time>
      </trkpt>
      <trkpt lat="43.64201" lon="4.43231">
        <ele>3.01</ele>
        <time>2019-05-30T12:21:18.000Z</time>
      </trkpt>
      <trkpt lat="43.64161" lon="4.43254">
        <ele>2.06</ele>
        <time>2019-05-30T12:21:23.000Z</time>
      </trkpt>
      <trkpt lat="43.64119" lon="4.43263">
        <ele>0.87</ele>
        <time>2019-05-30T12:21:28.000Z</time>
      </trkpt>
      <trkpt lat="43.64078" lon="4.43251">
        <ele>0.85</ele>
        <time>2019-05-30T12:21:33.000Z</time>
      </trkpt>
      <trkpt lat="43.64037" lon="4.43234">
        <ele>1</ele>
        <time>2019-05-30T12:21:38.000Z</time>
      </trkpt>
      <trkpt lat="43.63998" lon="4.43218">
        <ele>1</ele>
        <time>2019-05-30T12:21:43.000Z</time>
      </trkpt>
      <trkpt lat="43.63959" lon="4.43202">
        <ele>1</ele>
        <time>2019-05-30T12:21:48.000Z</time>
      </trkpt>
      <trkpt lat="43.63921" lon="4.43186">
        <ele>1</ele>
        <time>2019-05-30T12:21:53.000Z</time>
      </trkpt>
      <trkpt lat="43.63883" lon="4.4317">
        <ele>2</ele>
        <time>2019-05-30T12:21:58.000Z</time>
      </trkpt>
      <trkpt lat="43.63844" lon="4.43155">
        <ele>3</ele>
        <time>2019-05-30T12:22:03.000Z</time>
      </trkpt>
      <trkpt lat="43.63806" lon="4.4314">
        <ele>2</ele>
        <time>2019-05-30T12:22:08.000Z</time>
      </trkpt>
      <trkpt lat="43.63768" lon="4.43124">
        <ele>2</ele>
        <time>2019-05-30T12:22:13.000Z</time>
      </trkpt>
      <trkpt lat="43.63728" lon="4.43108">
        <ele>2</ele>
        <time>2019-05-30T12:22:18.000Z</time>
      </trkpt>
      <trkpt lat="43.6369" lon="4.43093">
        <ele>2</ele>
        <time>2019-05-30T12:22:23.000Z</time>
      </trkpt>
      <trkpt lat="43.63653" lon="4.43078">
        <ele>3</ele>
        <time>2019-05-30T12:22:28.000Z</time>
      </trkpt>
      <trkpt lat="43.63616" lon="4.43056">
        <ele>2</ele>
        <time>2019-05-30T12:22:33.000Z</time>
      </trkpt>
      <trkpt lat="43.63582" lon="4.4303">
        <ele>2</ele>
        <time>2019-05-30T12:22:38.000Z</time>
      </trkpt>
      <trkpt lat="43.63548" lon="4.43004">
        <ele>2</ele>
        <time>2019-05-30T12:22:43.000Z</time>
      </trkpt>
      <trkpt lat="43.63515" lon="4.42979">
        <ele>2</ele>
        <time>2019-05-30T12:22:48.000Z</time>
      </trkpt>
      <trkpt lat="43.63484" lon="4.42953">
        <ele>2</ele>
        <time>2019-05-30T12:22:53.000Z</time>
      </trkpt>
      <trkpt lat="43.63455" lon="4.42929">
        <ele>2</ele>
        <time>2019-05-30T12:22:58.000Z</time>
      </trkpt>
      <trkpt lat="43.63428" lon="4.42905">
        <ele>2</ele>
        <time>2019-05-30T12:23:03.000Z</time>
      </trkpt>
      <trkpt lat="43.634" lon="4.42881">
        <ele>2</ele>
        <time>2019-05-30T12:23:08.000Z</time>
      </trkpt>
      <trkpt lat="43.63373" lon="4.42855">
        <ele>2</ele>
        <time>2019-05-30T12:23:13.000Z</time>
      </trkpt>
      <trkpt lat="43.63345" lon="4.42832">
        <ele>2</ele>
        <time>2019-05-30T12:23:18.000Z</time>
      </trkpt>
      <trkpt lat="43.63318" lon="4.42808">
        <ele>2</ele>
        <time>2019-05-30T12:23:23.000Z</time>
      </trkpt>
      <trkpt lat="43.6329" lon="4.42782">
        <ele>2</ele>
        <time>2019-05-30T12:23:28.000Z</time>
      </trkpt>
      <trkpt lat="43.63262" lon="4.42757">
        <ele>2</ele>
        <time>2019-05-30T12:23:33.000Z</time>
      </trkpt>
      <trkpt lat="43.63235" lon="4.42733">
        <ele>2</ele>
        <time>2019-05-30T12:23:38.000Z</time>
      </trkpt>
      <trkpt lat="43.63206" lon="4.42714">
        <ele>2</ele>
        <time>2019-05-30T12:23:43.000Z</time>
      </trkpt>
      <trkpt lat="43.63177" lon="4.42695">
        <ele>2</ele>
        <time>2019-05-30T12:23:48.000Z</time>
      </trkpt>
      <trkpt lat="43.63148" lon="4.42676">
        <ele>2</ele>
        <time>2019-05-30T12:23:53.000Z</time>
      </trkpt>
      <trkpt lat="43.63118" lon="4.42657">
        <ele>2</ele>
        <time>2019-05-30T12:23:58.000Z</time>
      </trkpt>
      <trkpt lat="43.63091" lon="4.42638">
        <ele>2</ele>
        <time>2019-05-30T12:24:03.000Z</time>
      </trkpt>
      <trkpt lat="43.63062" lon="4.42619">
        <ele>3</ele>
        <time>2019-05-30T12:24:08.000Z</time>
      </trkpt>
      <trkpt lat="43.63034" lon="4.42599">
        <ele>3</ele>
        <time>2019-05-30T12:24:13.000Z</time>
      </trkpt>
      <trkpt lat="43.63005" lon="4.42579">
        <ele>4</ele>
        <time>2019-05-30T12:24:18.000Z</time>
      </trkpt>
      <trkpt lat="43.62976" lon="4.42559">
        <ele>4</ele>
        <time>2019-05-30T12:24:23.000Z</time>
      </trkpt>
      <trkpt lat="43.62948" lon="4.42546">
        <ele>4</ele>
        <time>2019-05-30T12:24:28.000Z</time>
      </trkpt>
      <trkpt lat="43.62923" lon="4.42568">
        <ele>4</ele>
        <time>2019-05-30T12:24:33.000Z</time>
      </trkpt>
      <trkpt lat="43.62898" lon="4.42593">
        <ele>4</ele>
        <time>2019-05-30T12:24:38.000Z</time>
      </trkpt>
      <trkpt lat="43.62866" lon="4.42588">
        <ele>4</ele>
        <time>2019-05-30T12:24:43.000Z</time>
      </trkpt>
      <trkpt lat="43.62832" lon="4.42578">
        <ele>4</ele>
        <time>2019-05-30T12:24:48.000Z</time>
      </trkpt>
      <trkpt lat="43.62796" lon="4.4257">
        <ele>3</ele>
        <time>2019-05-30T12:24:53.000Z</time>
      </trkpt>
      <trkpt lat="43.62761" lon="4.42557">
        <ele>3</ele>
        <time>2019-05-30T12:24:58.000Z</time>
      </trkpt>
      <trkpt lat="43.62727" lon="4.42546">
        <ele>3</ele>
        <time>2019-05-30T12:25:03.000Z</time>
      </trkpt>
      <trkpt lat="43.62692" lon="4.4254">
        <ele>3</ele>
        <time>2019-05-30T12:25:08.000Z</time>
      </trkpt>
      <trkpt lat="43.62656" lon="4.42532">
        <ele>3</ele>
        <time>2019-05-30T12:25:13.000Z</time>
      </trkpt>
      <trkpt lat="43.62622" lon="4.42522">
        <ele>3</ele>
        <time>2019-05-30T12:25:18.000Z</time>
      </trkpt>
      <trkpt lat="43.62588" lon="4.42514">
        <ele>3</ele>
        <time>2019-05-30T12:25:23.000Z</time>
      </trkpt>
      <trkpt lat="43.62552" lon="4.42503">
        <ele>3</ele>
        <time>2019-05-30T12:25:28.000Z</time>
      </trkpt>
      <trkpt lat="43.62518" lon="4.42486">
        <ele>1</ele>
        <time>2019-05-30T12:25:33.000Z</time>
      </trkpt>
      <trkpt lat="43.62487" lon="4.42463">
        <ele>1</ele>
        <time>2019-05-30T12:25:38.000Z</time>
      </trkpt>
      <trkpt lat="43.62473" lon="4.42422">
        <ele>1</ele>
        <time>2019-05-30T12:25:43.000Z</time>
      </trkpt>
      <trkpt lat="43.6246" lon="4.42379">
        <ele>1</ele>
        <time>2019-05-30T12:25:48.000Z</time>
      </trkpt>
      <trkpt lat="43.62446" lon="4.42333">
        <ele>2</ele>
        <time>2019-05-30T12:25:53.000Z</time>
      </trkpt>
      <trkpt lat="43.62436" lon="4.42286">
        <ele>2</ele>
        <time>2019-05-30T12:25:58.000Z</time>
      </trkpt>
      <trkpt lat="43.62424" lon="4.42239">
        <ele>2</ele>
        <time>2019-05-30T12:26:03.000Z</time>
      </trkpt>
      <trkpt lat="43.62399" lon="4.42199">
        <ele>3</ele>
        <time>2019-05-30T12:26:08.000Z</time>
      </trkpt>
      <trkpt lat="43.62365" lon="4.42176">
        <ele>2</ele>
        <time>2019-05-30T12:26:13.000Z</time>
      </trkpt>
      <trkpt lat="43.6233" lon="4.42155">
        <ele>2</ele>
        <time>2019-05-30T12:26:18.000Z</time>
      </trkpt>
      <trkpt lat="43.62298" lon="4.42126">
        <ele>1</ele>
        <time>2019-05-30T12:26:23.000Z</time>
      </trkpt>
      <trkpt lat="43.62272" lon="4.42087">
        <ele>1</ele>
        <time>2019-05-30T12:26:28.000Z</time>
      </trkpt>
      <trkpt lat="43.62247" lon="4.42047">
        <ele>1</ele>
        <time>2019-05-30T12:26:33.000Z</time>
      </trkpt>
      <trkpt lat="43.62218" lon="4.42011">
        <ele>1</ele>
        <time>2019-05-30T12:26:38.000Z</time>
      </trkpt>
      <trkpt lat="43.62187" lon="4.41978">
        <ele>1</ele>
        <time>2019-05-30T12:26:43.000Z</time>
      </trkpt>
      <trkpt lat="43.62157" lon="4.41943">
        <ele>1</ele>
        <time>2019-05-30T12:26:48.000Z</time>
      </trkpt>
      <trkpt lat="43.62126" lon="4.4191">
        <ele>1</ele>
        <time>2019-05-30T12:26:53.000Z</time>
      </trkpt>
      <trkpt lat="43.62093" lon="4.4188">
        <ele>1</ele>
        <time>2019-05-30T12:26:58.000Z</time>
      </trkpt>
      <trkpt lat="43.62061" lon="4.4185">
        <ele>1</ele>
        <time>2019-05-30T12:27:03.000Z</time>
      </trkpt>
      <trkpt lat="43.62029" lon="4.4182">
        <ele>2</ele>
        <time>2019-05-30T12:27:08.000Z</time>
      </trkpt>
      <trkpt lat="43.61996" lon="4.41794">
        <ele>2</ele>
        <time>2019-05-30T12:27:13.000Z</time>
      </trkpt>
      <trkpt lat="43.6196" lon="4.41777">
        <ele>2</ele>
        <time>2019-05-30T12:27:18.000Z</time>
      </trkpt>
      <trkpt lat="43.61922" lon="4.41762">
        <ele>2</ele>
        <time>2019-05-30T12:27:23.000Z</time>
      </trkpt>
      <trkpt lat="43.61887" lon="4.41738">
        <ele>2</ele>
        <time>2019-05-30T12:27:28.000Z</time>
      </trkpt>
      <trkpt lat="43.61856" lon="4.41706">
        <ele>2</ele>
        <time>2019-05-30T12:27:33.000Z</time>
      </trkpt>
      <trkpt lat="43.61822" lon="4.41681">
        <ele>2</ele>
        <time>2019-05-30T12:27:38.000Z</time>
      </trkpt>
      <trkpt lat="43.61789" lon="4.41658">
        <ele>2</ele>
        <time>2019-05-30T12:27:43.000Z</time>
      </trkpt>
      <trkpt lat="43.61757" lon="4.41636">
        <ele>1.54</ele>
        <time>2019-05-30T12:27:48.000Z</time>
      </trkpt>
      <trkpt lat="43.61726" lon="4.41613">
        <ele>1.81</ele>
        <time>2019-05-30T12:27:53.000Z</time>
      </trkpt>
      <trkpt lat="43.61694" lon="4.41591">
        <ele>2.8</ele>
        <time>2019-05-30T12:27:58.000Z</time>
      </trkpt>
      <trkpt lat="43.61663" lon="4.41569">
        <ele>2.56</ele>
        <time>2019-05-30T12:28:03.000Z</time>
      </trkpt>
      <trkpt lat="43.61629" lon="4.41548">
        <ele>2.8</ele>
        <time>2019-05-30T12:28:08.000Z</time>
      </trkpt>
      <trkpt lat="43.61595" lon="4.41528">
        <ele>1.87</ele>
        <time>2019-05-30T12:28:13.000Z</time>
      </trkpt>
      <trkpt lat="43.61562" lon="4.41506">
        <ele>1.06</ele>
        <time>2019-05-30T12:28:18.000Z</time>
      </trkpt>
      <trkpt lat="43.61527" lon="4.41485">
        <ele>0.81</ele>
        <time>2019-05-30T12:28:23.000Z</time>
      </trkpt>
      <trkpt lat="43.61493" lon="4.41463">
        <ele>1.79</ele>
        <time>2019-05-30T12:28:28.000Z</time>
      </trkpt>
      <trkpt lat="43.61461" lon="4.41441">
        <ele>0.07</ele>
        <time>2019-05-30T12:28:33.000Z</time>
      </trkpt>
      <trkpt lat="43.61428" lon="4.41419">
        <ele>1.74</ele>
        <time>2019-05-30T12:28:38.000Z</time>
      </trkpt>
      <trkpt lat="43.61398" lon="4.41392">
        <ele>1.81</ele>
        <time>2019-05-30T12:28:43.000Z</time>
      </trkpt>
      <trkpt lat="43.61367" lon="4.41371">
        <ele>1.81</ele>
        <time>2019-05-30T12:28:48.000Z</time>
      </trkpt>
      <trkpt lat="43.61336" lon="4.4135">
        <ele>1.81</ele>
        <time>2019-05-30T12:28:53.000Z</time>
      </trkpt>
      <trkpt lat="43.61312" lon="4.41318">
        <ele>2.8</ele>
        <time>2019-05-30T12:28:58.000Z</time>
      </trkpt>
      <trkpt lat="43.61306" lon="4.41273">
        <ele>1.81</ele>
        <time>2019-05-30T12:29:03.000Z</time>
      </trkpt>
      <trkpt lat="43.61302" lon="4.41229">
        <ele>1.81</ele>
        <time>2019-05-30T12:29:08.000Z</time>
      </trkpt>
      <trkpt lat="43.61297" lon="4.41184">
        <ele>0.82</ele>
        <time>2019-05-30T12:29:13.000Z</time>
      </trkpt>
      <trkpt lat="43.61293" lon="4.41141">
        <ele>1</ele>
        <time>2019-05-30T12:29:18.000Z</time>
      </trkpt>
      <trkpt lat="43.61288" lon="4.41094">
        <ele>1</ele>
        <time>2019-05-30T12:29:23.000Z</time>
      </trkpt>
      <trkpt lat="43.61283" lon="4.41051">
        <ele>1</ele>
        <time>2019-05-30T12:29:28.000Z</time>
      </trkpt>
      <trkpt lat="43.61278" lon="4.41006">
        <ele>1</ele>
        <time>2019-05-30T12:29:33.000Z</time>
      </trkpt>
      <trkpt lat="43.61273" lon="4.40962">
        <ele>1</ele>
        <time>2019-05-30T12:29:38.000Z</time>
      </trkpt>
      <trkpt lat="43.61268" lon="4.40917">
        <ele>1</ele>
        <time>2019-05-30T12:29:43.000Z</time>
      </trkpt>
      <trkpt lat="43.61263" lon="4.40871">
        <ele>1</ele>
        <time>2019-05-30T12:29:48.000Z</time>
      </trkpt>
      <trkpt lat="43.61259" lon="4.40828">
        <ele>1</ele>
        <time>2019-05-30T12:29:53.000Z</time>
      </trkpt>
      <trkpt lat="43.61253" lon="4.40783">
        <ele>1</ele>
        <time>2019-05-30T12:29:58.000Z</time>
      </trkpt>
      <trkpt lat="43.61247" lon="4.4074">
        <ele>1</ele>
        <time>2019-05-30T12:30:03.000Z</time>
      </trkpt>
      <trkpt lat="43.61243" lon="4.40698">
        <ele>1</ele>
        <time>2019-05-30T12:30:08.000Z</time>
      </trkpt>
      <trkpt lat="43.61237" lon="4.40656">
        <ele>1</ele>
        <time>2019-05-30T12:30:13.000Z</time>
      </trkpt>
      <trkpt lat="43.61234" lon="4.40612">
        <ele>1</ele>
        <time>2019-05-30T12:30:18.000Z</time>
      </trkpt>
      <trkpt lat="43.61229" lon="4.4057">
        <ele>1</ele>
        <time>2019-05-30T12:30:23.000Z</time>
      </trkpt>
      <trkpt lat="43.61228" lon="4.40537">
        <ele>1</ele>
        <time>2019-05-30T12:30:28.000Z</time>
      </trkpt>
      <trkpt lat="43.61222" lon="4.40525">
        <ele>3</ele>
        <time>2019-05-30T12:33:56.000Z</time>
      </trkpt>
      <trkpt lat="43.6122" lon="4.40497">
        <ele>1.82</ele>
        <time>2019-05-30T12:34:01.000Z</time>
      </trkpt>
      <trkpt lat="43.61217" lon="4.40462">
        <ele>0.81</ele>
        <time>2019-05-30T12:34:06.000Z</time>
      </trkpt>
      <trkpt lat="43.61213" lon="4.40427">
        <ele>2</ele>
        <time>2019-05-30T12:34:11.000Z</time>
      </trkpt>
      <trkpt lat="43.61208" lon="4.4039">
        <ele>1</ele>
        <time>2019-05-30T12:34:16.000Z</time>
      </trkpt>
      <trkpt lat="43.61204" lon="4.4035">
        <ele>1</ele>
        <time>2019-05-30T12:34:21.000Z</time>
      </trkpt>
      <trkpt lat="43.612" lon="4.40309">
        <ele>1</ele>
        <time>2019-05-30T12:34:26.000Z</time>
      </trkpt>
      <trkpt lat="43.61195" lon="4.40268">
        <ele>1</ele>
        <time>2019-05-30T12:34:31.000Z</time>
      </trkpt>
      <trkpt lat="43.61191" lon="4.40227">
        <ele>1</ele>
        <time>2019-05-30T12:34:36.000Z</time>
      </trkpt>
      <trkpt lat="43.61186" lon="4.40185">
        <ele>1</ele>
        <time>2019-05-30T12:34:41.000Z</time>
      </trkpt>
      <trkpt lat="43.61181" lon="4.40142">
        <ele>1</ele>
        <time>2019-05-30T12:34:46.000Z</time>
      </trkpt>
      <trkpt lat="43.61174" lon="4.40099">
        <ele>1</ele>
        <time>2019-05-30T12:34:51.000Z</time>
      </trkpt>
      <trkpt lat="43.61169" lon="4.40055">
        <ele>1</ele>
        <time>2019-05-30T12:34:56.000Z</time>
      </trkpt>
      <trkpt lat="43.61165" lon="4.40012">
        <ele>1</ele>
        <time>2019-05-30T12:35:01.000Z</time>
      </trkpt>
      <trkpt lat="43.61161" lon="4.39967">
        <ele>1</ele>
        <time>2019-05-30T12:35:06.000Z</time>
      </trkpt>
      <trkpt lat="43.61156" lon="4.39923">
        <ele>1</ele>
        <time>2019-05-30T12:35:11.000Z</time>
      </trkpt>
      <trkpt lat="43.61151" lon="4.3988">
        <ele>1</ele>
        <time>2019-05-30T12:35:16.000Z</time>
      </trkpt>
      <trkpt lat="43.61146" lon="4.39837">
        <ele>1</ele>
        <time>2019-05-30T12:35:21.000Z</time>
      </trkpt>
      <trkpt lat="43.61141" lon="4.39796">
        <ele>1</ele>
        <time>2019-05-30T12:35:26.000Z</time>
      </trkpt>
      <trkpt lat="43.61136" lon="4.39752">
        <ele>1</ele>
        <time>2019-05-30T12:35:31.000Z</time>
      </trkpt>
      <trkpt lat="43.61131" lon="4.39709">
        <ele>1</ele>
        <time>2019-05-30T12:35:36.000Z</time>
      </trkpt>
      <trkpt lat="43.61126" lon="4.39665">
        <ele>1</ele>
        <time>2019-05-30T12:35:41.000Z</time>
      </trkpt>
      <trkpt lat="43.61121" lon="4.39622">
        <ele>1</ele>
        <time>2019-05-30T12:35:46.000Z</time>
      </trkpt>
      <trkpt lat="43.61114" lon="4.3958">
        <ele>1</ele>
        <time>2019-05-30T12:35:51.000Z</time>
      </trkpt>
      <trkpt lat="43.61105" lon="4.39537">
        <ele>1</ele>
        <time>2019-05-30T12:35:56.000Z</time>
      </trkpt>
      <trkpt lat="43.61092" lon="4.39493">
        <ele>1</ele>
        <time>2019-05-30T12:36:01.000Z</time>
      </trkpt>
      <trkpt lat="43.61078" lon="4.3945">
        <ele>1</ele>
        <time>2019-05-30T12:36:06.000Z</time>
      </trkpt>
      <trkpt lat="43.61063" lon="4.39405">
        <ele>1</ele>
        <time>2019-05-30T12:36:11.000Z</time>
      </trkpt>
      <trkpt lat="43.61047" lon="4.39358">
        <ele>1</ele>
        <time>2019-05-30T12:36:16.000Z</time>
      </trkpt>
      <trkpt lat="43.61033" lon="4.39313">
        <ele>1</ele>
        <time>2019-05-30T12:36:21.000Z</time>
      </trkpt>
      <trkpt lat="43.6102" lon="4.3927">
        <ele>2</ele>
        <time>2019-05-30T12:36:26.000Z</time>
      </trkpt>
      <trkpt lat="43.61008" lon="4.39226">
        <ele>2</ele>
        <time>2019-05-30T12:36:31.000Z</time>
      </trkpt>
      <trkpt lat="43.60995" lon="4.39182">
        <ele>1</ele>
        <time>2019-05-30T12:36:36.000Z</time>
      </trkpt>
      <trkpt lat="43.60983" lon="4.39136">
        <ele>1</ele>
        <time>2019-05-30T12:36:41.000Z</time>
      </trkpt>
      <trkpt lat="43.60972" lon="4.39091">
        <ele>1</ele>
        <time>2019-05-30T12:36:46.000Z</time>
      </trkpt>
      <trkpt lat="43.60957" lon="4.39049">
        <ele>1</ele>
        <time>2019-05-30T12:36:51.000Z</time>
      </trkpt>
      <trkpt lat="43.6094" lon="4.39014">
        <ele>1</ele>
        <time>2019-05-30T12:36:56.000Z</time>
      </trkpt>
      <trkpt lat="43.60916" lon="4.38982">
        <ele>1</ele>
        <time>2019-05-30T12:37:01.000Z</time>
      </trkpt>
      <trkpt lat="43.60896" lon="4.38945">
        <ele>1</ele>
        <time>2019-05-30T12:37:06.000Z</time>
      </trkpt>
      <trkpt lat="43.60872" lon="4.38914">
        <ele>1</ele>
        <time>2019-05-30T12:37:11.000Z</time>
      </trkpt>
      <trkpt lat="43.60846" lon="4.38888">
        <ele>1</ele>
        <time>2019-05-30T12:37:16.000Z</time>
      </trkpt>
      <trkpt lat="43.60827" lon="4.38848">
        <ele>1</ele>
        <time>2019-05-30T12:37:21.000Z</time>
      </trkpt>
      <trkpt lat="43.60808" lon="4.3881">
        <ele>1</ele>
        <time>2019-05-30T12:37:26.000Z</time>
      </trkpt>
      <trkpt lat="43.60789" lon="4.38773">
        <ele>1</ele>
        <time>2019-05-30T12:37:31.000Z</time>
      </trkpt>
      <trkpt lat="43.6077" lon="4.38738">
        <ele>1</ele>
        <time>2019-05-30T12:37:36.000Z</time>
      </trkpt>
      <trkpt lat="43.60751" lon="4.38703">
        <ele>1</ele>
        <time>2019-05-30T12:37:41.000Z</time>
      </trkpt>
      <trkpt lat="43.60732" lon="4.38666">
        <ele>1</ele>
        <time>2019-05-30T12:37:46.000Z</time>
      </trkpt>
      <trkpt lat="43.60713" lon="4.38629">
        <ele>1</ele>
        <time>2019-05-30T12:37:51.000Z</time>
      </trkpt>
      <trkpt lat="43.60692" lon="4.38592">
        <ele>1</ele>
        <time>2019-05-30T12:37:56.000Z</time>
      </trkpt>
      <trkpt lat="43.60673" lon="4.38555">
        <ele>1</ele>
        <time>2019-05-30T12:38:01.000Z</time>
      </trkpt>
      <trkpt lat="43.60654" lon="4.38518">
        <ele>1</ele>
        <time>2019-05-30T12:38:06.000Z</time>
      </trkpt>
      <trkpt lat="43.60638" lon="4.38478">
        <ele>1</ele>
        <time>2019-05-30T12:38:11.000Z</time>
      </trkpt>
      <trkpt lat="43.60624" lon="4.38435">
        <ele>1</ele>
        <time>2019-05-30T12:38:16.000Z</time>
      </trkpt>
      <trkpt lat="43.6061" lon="4.38393">
        <ele>1</ele>
        <time>2019-05-30T12:38:21.000Z</time>
      </trkpt>
      <trkpt lat="43.60596" lon="4.3835">
        <ele>1</ele>
        <time>2019-05-30T12:38:26.000Z</time>
      </trkpt>
      <trkpt lat="43.60582" lon="4.38308">
        <ele>1</ele>
        <time>2019-05-30T12:38:31.000Z</time>
      </trkpt>
      <trkpt lat="43.60568" lon="4.38264">
        <ele>1</ele>
        <time>2019-05-30T12:38:36.000Z</time>
      </trkpt>
      <trkpt lat="43.60559" lon="4.38219">
        <ele>1</ele>
        <time>2019-05-30T12:38:41.000Z</time>
      </trkpt>
      <trkpt lat="43.60557" lon="4.38172">
        <ele>1</ele>
        <time>2019-05-30T12:38:46.000Z</time>
      </trkpt>
      <trkpt lat="43.60558" lon="4.38124">
        <ele>1</ele>
        <time>2019-05-30T12:38:51.000Z</time>
      </trkpt>
      <trkpt lat="43.60559" lon="4.38076">
        <ele>2</ele>
        <time>2019-05-30T12:38:56.000Z</time>
      </trkpt>
      <trkpt lat="43.6056" lon="4.3803">
        <ele>2</ele>
        <time>2019-05-30T12:39:01.000Z</time>
      </trkpt>
      <trkpt lat="43.6056" lon="4.37983">
        <ele>1</ele>
        <time>2019-05-30T12:39:06.000Z</time>
      </trkpt>
      <trkpt lat="43.6056" lon="4.37935">
        <ele>1</ele>
        <time>2019-05-30T12:39:11.000Z</time>
      </trkpt>
      <trkpt lat="43.60561" lon="4.37889">
        <ele>1</ele>
        <time>2019-05-30T12:39:16.000Z</time>
      </trkpt>
      <trkpt lat="43.60563" lon="4.37843">
        <ele>2</ele>
        <time>2019-05-30T12:39:21.000Z</time>
      </trkpt>
      <trkpt lat="43.60566" lon="4.37799">
        <ele>2</ele>
        <time>2019-05-30T12:39:26.000Z</time>
      </trkpt>
      <trkpt lat="43.60569" lon="4.37754">
        <ele>2</ele>
        <time>2019-05-30T12:39:31.000Z</time>
      </trkpt>
      <trkpt lat="43.6057" lon="4.37709">
        <ele>2</ele>
        <time>2019-05-30T12:39:36.000Z</time>
      </trkpt>
      <trkpt lat="43.6057" lon="4.37662">
        <ele>1</ele>
        <time>2019-05-30T12:39:41.000Z</time>
      </trkpt>
      <trkpt lat="43.60567" lon="4.37617">
        <ele>2</ele>
        <time>2019-05-30T12:39:46.000Z</time>
      </trkpt>
      <trkpt lat="43.60561" lon="4.37571">
        <ele>2</ele>
        <time>2019-05-30T12:39:51.000Z</time>
      </trkpt>
      <trkpt lat="43.60554" lon="4.37523">
        <ele>2</ele>
        <time>2019-05-30T12:39:56.000Z</time>
      </trkpt>
      <trkpt lat="43.60546" lon="4.37475">
        <ele>1</ele>
        <time>2019-05-30T12:40:01.000Z</time>
      </trkpt>
      <trkpt lat="43.60541" lon="4.37429">
        <ele>1</ele>
        <time>2019-05-30T12:40:06.000Z</time>
      </trkpt>
      <trkpt lat="43.60533" lon="4.37383">
        <ele>1</ele>
        <time>2019-05-30T12:40:11.000Z</time>
      </trkpt>
      <trkpt lat="43.60528" lon="4.37336">
        <ele>1</ele>
        <time>2019-05-30T12:40:16.000Z</time>
      </trkpt>
      <trkpt lat="43.60521" lon="4.37292">
        <ele>1</ele>
        <time>2019-05-30T12:40:21.000Z</time>
      </trkpt>
      <trkpt lat="43.60515" lon="4.37247">
        <ele>1</ele>
        <time>2019-05-30T12:40:26.000Z</time>
      </trkpt>
      <trkpt lat="43.60508" lon="4.37203">
        <ele>1</ele>
        <time>2019-05-30T12:40:31.000Z</time>
      </trkpt>
      <trkpt lat="43.60502" lon="4.37159">
        <ele>1</ele>
        <time>2019-05-30T12:40:36.000Z</time>
      </trkpt>
      <trkpt lat="43.60496" lon="4.37115">
        <ele>1</ele>
        <time>2019-05-30T12:40:41.000Z</time>
      </trkpt>
      <trkpt lat="43.60491" lon="4.37072">
        <ele>1</ele>
        <time>2019-05-30T12:40:46.000Z</time>
      </trkpt>
      <trkpt lat="43.60487" lon="4.37027">
        <ele>1</ele>
        <time>2019-05-30T12:40:51.000Z</time>
      </trkpt>
      <trkpt lat="43.60485" lon="4.36984">
        <ele>1</ele>
        <time>2019-05-30T12:40:56.000Z</time>
      </trkpt>
      <trkpt lat="43.60483" lon="4.36941">
        <ele>1</ele>
        <time>2019-05-30T12:41:01.000Z</time>
      </trkpt>
      <trkpt lat="43.60485" lon="4.36897">
        <ele>1</ele>
        <time>2019-05-30T12:41:06.000Z</time>
      </trkpt>
      <trkpt lat="43.60487" lon="4.36855">
        <ele>2</ele>
        <time>2019-05-30T12:41:11.000Z</time>
      </trkpt>
      <trkpt lat="43.60489" lon="4.36813">
        <ele>2</ele>
        <time>2019-05-30T12:41:16.000Z</time>
      </trkpt>
      <trkpt lat="43.60492" lon="4.36771">
        <ele>2</ele>
        <time>2019-05-30T12:41:21.000Z</time>
      </trkpt>
      <trkpt lat="43.60495" lon="4.36729">
        <ele>2</ele>
        <time>2019-05-30T12:41:26.000Z</time>
      </trkpt>
      <trkpt lat="43.60495" lon="4.36687">
        <ele>2</ele>
        <time>2019-05-30T12:41:31.000Z</time>
      </trkpt>
      <trkpt lat="43.60496" lon="4.36646">
        <ele>1</ele>
        <time>2019-05-30T12:41:36.000Z</time>
      </trkpt>
      <trkpt lat="43.60495" lon="4.36605">
        <ele>1.8</ele>
        <time>2019-05-30T12:41:41.000Z</time>
      </trkpt>
      <trkpt lat="43.60495" lon="4.36563">
        <ele>1</ele>
        <time>2019-05-30T12:41:46.000Z</time>
      </trkpt>
      <trkpt lat="43.60494" lon="4.3652">
        <ele>1</ele>
        <time>2019-05-30T12:41:51.000Z</time>
      </trkpt>
      <trkpt lat="43.60494" lon="4.36478">
        <ele>1</ele>
        <time>2019-05-30T12:41:56.000Z</time>
      </trkpt>
      <trkpt lat="43.60493" lon="4.36435">
        <ele>2</ele>
        <time>2019-05-30T12:42:01.000Z</time>
      </trkpt>
      <trkpt lat="43.60493" lon="4.36391">
        <ele>2</ele>
        <time>2019-05-30T12:42:06.000Z</time>
      </trkpt>
      <trkpt lat="43.60493" lon="4.36348">
        <ele>1</ele>
        <time>2019-05-30T12:42:11.000Z</time>
      </trkpt>
      <trkpt lat="43.60493" lon="4.36306">
        <ele>1</ele>
        <time>2019-05-30T12:42:16.000Z</time>
      </trkpt>
      <trkpt lat="43.60493" lon="4.36265">
        <ele>1</ele>
        <time>2019-05-30T12:42:21.000Z</time>
      </trkpt>
      <trkpt lat="43.60492" lon="4.36225">
        <ele>1</ele>
        <time>2019-05-30T12:42:26.000Z</time>
      </trkpt>
      <trkpt lat="43.60492" lon="4.36187">
        <ele>1</ele>
        <time>2019-05-30T12:42:31.000Z</time>
      </trkpt>
      <trkpt lat="43.60491" lon="4.3615">
        <ele>1</ele>
        <time>2019-05-30T12:42:36.000Z</time>
      </trkpt>
      <trkpt lat="43.60485" lon="4.36113">
        <ele>1</ele>
        <time>2019-05-30T12:42:41.000Z</time>
      </trkpt>
      <trkpt lat="43.60479" lon="4.36077">
        <ele>1</ele>
        <time>2019-05-30T12:42:46.000Z</time>
      </trkpt>
      <trkpt lat="43.60476" lon="4.36039">
        <ele>1</ele>
        <time>2019-05-30T12:42:51.000Z</time>
      </trkpt>
      <trkpt lat="43.60478" lon="4.35998">
        <ele>1</ele>
        <time>2019-05-30T12:42:56.000Z</time>
      </trkpt>
      <trkpt lat="43.60486" lon="4.3596">
        <ele>1</ele>
        <time>2019-05-30T12:43:01.000Z</time>
      </trkpt>
      <trkpt lat="43.60497" lon="4.35921">
        <ele>1</ele>
        <time>2019-05-30T12:43:06.000Z</time>
      </trkpt>
      <trkpt lat="43.60508" lon="4.35882">
        <ele>1</ele>
        <time>2019-05-30T12:43:11.000Z</time>
      </trkpt>
      <trkpt lat="43.60517" lon="4.35846">
        <ele>2</ele>
        <time>2019-05-30T12:43:16.000Z</time>
      </trkpt>
      <trkpt lat="43.60525" lon="4.35817">
        <ele>1</ele>
        <time>2019-05-30T12:43:21.000Z</time>
      </trkpt>
      <trkpt lat="43.60527" lon="4.35803">
        <ele>0.8</ele>
        <time>2019-05-30T12:43:52.000Z</time>
      </trkpt>
      <trkpt lat="43.6053" lon="4.35788">
        <ele>0.05</ele>
        <time>2019-05-30T12:43:57.000Z</time>
      </trkpt>
      <trkpt lat="43.60525" lon="4.35776">
        <ele>1</ele>
        <time>2019-05-30T12:44:22.000Z</time>
      </trkpt>
      <trkpt lat="43.60521" lon="4.35752">
        <ele>1</ele>
        <time>2019-05-30T12:44:27.000Z</time>
      </trkpt>
      <trkpt lat="43.60517" lon="4.35721">
        <ele>1</ele>
        <time>2019-05-30T12:44:32.000Z</time>
      </trkpt>
      <trkpt lat="43.60512" lon="4.35687">
        <ele>1</ele>
        <time>2019-05-30T12:44:37.000Z</time>
      </trkpt>
      <trkpt lat="43.60506" lon="4.35651">
        <ele>2</ele>
        <time>2019-05-30T12:44:42.000Z</time>
      </trkpt>
      <trkpt lat="43.605" lon="4.35613">
        <ele>1.1</ele>
        <time>2019-05-30T12:44:47.000Z</time>
      </trkpt>
      <trkpt lat="43.60494" lon="4.35574">
        <ele>1</ele>
        <time>2019-05-30T12:44:52.000Z</time>
      </trkpt>
      <trkpt lat="43.60488" lon="4.35534">
        <ele>1</ele>
        <time>2019-05-30T12:44:57.000Z</time>
      </trkpt>
      <trkpt lat="43.60483" lon="4.35493">
        <ele>1</ele>
        <time>2019-05-30T12:45:02.000Z</time>
      </trkpt>
      <trkpt lat="43.60481" lon="4.35452">
        <ele>1</ele>
        <time>2019-05-30T12:45:07.000Z</time>
      </trkpt>
      <trkpt lat="43.60478" lon="4.35413">
        <ele>1</ele>
        <time>2019-05-30T12:45:12.000Z</time>
      </trkpt>
      <trkpt lat="43.60476" lon="4.35371">
        <ele>1</ele>
        <time>2019-05-30T12:45:17.000Z</time>
      </trkpt>
      <trkpt lat="43.60473" lon="4.35331">
        <ele>1</ele>
        <time>2019-05-30T12:45:22.000Z</time>
      </trkpt>
      <trkpt lat="43.60471" lon="4.3529">
        <ele>1</ele>
        <time>2019-05-30T12:45:27.000Z</time>
      </trkpt>
      <trkpt lat="43.60468" lon="4.35247">
        <ele>1</ele>
        <time>2019-05-30T12:45:32.000Z</time>
      </trkpt>
      <trkpt lat="43.60465" lon="4.35203">
        <ele>1</ele>
        <time>2019-05-30T12:45:37.000Z</time>
      </trkpt>
      <trkpt lat="43.60462" lon="4.35158">
        <ele>1</ele>
        <time>2019-05-30T12:45:42.000Z</time>
      </trkpt>
      <trkpt lat="43.6046" lon="4.35113">
        <ele>1</ele>
        <time>2019-05-30T12:45:47.000Z</time>
      </trkpt>
      <trkpt lat="43.60457" lon="4.35069">
        <ele>2</ele>
        <time>2019-05-30T12:45:52.000Z</time>
      </trkpt>
      <trkpt lat="43.60455" lon="4.35025">
        <ele>2</ele>
        <time>2019-05-30T12:45:57.000Z</time>
      </trkpt>
      <trkpt lat="43.60451" lon="4.34982">
        <ele>2</ele>
        <time>2019-05-30T12:46:02.000Z</time>
      </trkpt>
      <trkpt lat="43.60448" lon="4.34939">
        <ele>2</ele>
        <time>2019-05-30T12:46:07.000Z</time>
      </trkpt>
      <trkpt lat="43.60448" lon="4.34895">
        <ele>2</ele>
        <time>2019-05-30T12:46:12.000Z</time>
      </trkpt>
      <trkpt lat="43.60454" lon="4.34852">
        <ele>2</ele>
        <time>2019-05-30T12:46:17.000Z</time>
      </trkpt>
      <trkpt lat="43.6046" lon="4.34809">
        <ele>1</ele>
        <time>2019-05-30T12:46:22.000Z</time>
      </trkpt>
      <trkpt lat="43.60463" lon="4.34766">
        <ele>1</ele>
        <time>2019-05-30T12:46:27.000Z</time>
      </trkpt>
      <trkpt lat="43.60466" lon="4.34724">
        <ele>1</ele>
        <time>2019-05-30T12:46:32.000Z</time>
      </trkpt>
      <trkpt lat="43.60469" lon="4.34681">
        <ele>1</ele>
        <time>2019-05-30T12:46:37.000Z</time>
      </trkpt>
      <trkpt lat="43.60472" lon="4.34639">
        <ele>1</ele>
        <time>2019-05-30T12:46:42.000Z</time>
      </trkpt>
      <trkpt lat="43.60473" lon="4.34596">
        <ele>1</ele>
        <time>2019-05-30T12:46:47.000Z</time>
      </trkpt>
      <trkpt lat="43.60475" lon="4.34551">
        <ele>1</ele>
        <time>2019-05-30T12:46:52.000Z</time>
      </trkpt>
      <trkpt lat="43.60476" lon="4.34508">
        <ele>1</ele>
        <time>2019-05-30T12:46:57.000Z</time>
      </trkpt>
      <trkpt lat="43.60479" lon="4.34464">
        <ele>1</ele>
        <time>2019-05-30T12:47:02.000Z</time>
      </trkpt>
      <trkpt lat="43.60482" lon="4.3442">
        <ele>1</ele>
        <time>2019-05-30T12:47:07.000Z</time>
      </trkpt>
      <trkpt lat="43.60481" lon="4.34375">
        <ele>1</ele>
        <time>2019-05-30T12:47:12.000Z</time>
      </trkpt>
      <trkpt lat="43.60478" lon="4.34329">
        <ele>1</ele>
        <time>2019-05-30T12:47:17.000Z</time>
      </trkpt>
      <trkpt lat="43.6048" lon="4.34284">
        <ele>1</ele>
        <time>2019-05-30T12:47:22.000Z</time>
      </trkpt>
      <trkpt lat="43.60484" lon="4.3424">
        <ele>1</ele>
        <time>2019-05-30T12:47:27.000Z</time>
      </trkpt>
      <trkpt lat="43.60489" lon="4.34196">
        <ele>1</ele>
        <time>2019-05-30T12:47:32.000Z</time>
      </trkpt>
      <trkpt lat="43.60493" lon="4.34152">
        <ele>1</ele>
        <time>2019-05-30T12:47:37.000Z</time>
      </trkpt>
      <trkpt lat="43.60498" lon="4.34108">
        <ele>2</ele>
        <time>2019-05-30T12:47:42.000Z</time>
      </trkpt>
      <trkpt lat="43.60504" lon="4.34064">
        <ele>2</ele>
        <time>2019-05-30T12:47:47.000Z</time>
      </trkpt>
      <trkpt lat="43.60511" lon="4.3402">
        <ele>1</ele>
        <time>2019-05-30T12:47:52.000Z</time>
      </trkpt>
      <trkpt lat="43.60519" lon="4.33978">
        <ele>2</ele>
        <time>2019-05-30T12:47:57.000Z</time>
      </trkpt>
      <trkpt lat="43.60524" lon="4.33934">
        <ele>2</ele>
        <time>2019-05-30T12:48:02.000Z</time>
      </trkpt>
      <trkpt lat="43.60527" lon="4.33889">
        <ele>3</ele>
        <time>2019-05-30T12:48:07.000Z</time>
      </trkpt>
      <trkpt lat="43.6053" lon="4.33845">
        <ele>3</ele>
        <time>2019-05-30T12:48:12.000Z</time>
      </trkpt>
      <trkpt lat="43.60534" lon="4.33802">
        <ele>2</ele>
        <time>2019-05-30T12:48:17.000Z</time>
      </trkpt>
      <trkpt lat="43.60536" lon="4.33761">
        <ele>2</ele>
        <time>2019-05-30T12:48:22.000Z</time>
      </trkpt>
      <trkpt lat="43.60543" lon="4.33722">
        <ele>2</ele>
        <time>2019-05-30T12:48:27.000Z</time>
      </trkpt>
      <trkpt lat="43.60541" lon="4.33686">
        <ele>2</ele>
        <time>2019-05-30T12:48:32.000Z</time>
      </trkpt>
      <trkpt lat="43.60536" lon="4.33661">
        <ele>1</ele>
        <time>2019-05-30T12:48:37.000Z</time>
      </trkpt>
      <trkpt lat="43.60534" lon="4.33648">
        <ele>1</ele>
        <time>2019-05-30T12:49:06.000Z</time>
      </trkpt>
      <trkpt lat="43.60542" lon="4.33638">
        <ele>1</ele>
        <time>2019-05-30T12:49:17.000Z</time>
      </trkpt>
      <trkpt lat="43.60563" lon="4.33634">
        <ele>1</ele>
        <time>2019-05-30T12:49:22.000Z</time>
      </trkpt>
      <trkpt lat="43.60588" lon="4.33629">
        <ele>1</ele>
        <time>2019-05-30T12:49:27.000Z</time>
      </trkpt>
      <trkpt lat="43.60612" lon="4.33612">
        <ele>1</ele>
        <time>2019-05-30T12:49:32.000Z</time>
      </trkpt>
      <trkpt lat="43.60634" lon="4.33589">
        <ele>1</ele>
        <time>2019-05-30T12:49:37.000Z</time>
      </trkpt>
      <trkpt lat="43.60656" lon="4.33563">
        <ele>0.73</ele>
        <time>2019-05-30T12:49:42.000Z</time>
      </trkpt>
      <trkpt lat="43.60678" lon="4.33537">
        <ele>1</ele>
        <time>2019-05-30T12:49:47.000Z</time>
      </trkpt>
      <trkpt lat="43.607" lon="4.33511">
        <ele>0.53</ele>
        <time>2019-05-30T12:49:52.000Z</time>
      </trkpt>
      <trkpt lat="43.6072" lon="4.33486">
        <ele>0.04</ele>
        <time>2019-05-30T12:49:57.000Z</time>
      </trkpt>
      <trkpt lat="43.6074" lon="4.33461">
        <ele>1</ele>
        <time>2019-05-30T12:50:02.000Z</time>
      </trkpt>
      <trkpt lat="43.6076" lon="4.33436">
        <ele>1</ele>
        <time>2019-05-30T12:50:07.000Z</time>
      </trkpt>
      <trkpt lat="43.60781" lon="4.33411">
        <ele>1.48</ele>
        <time>2019-05-30T12:50:12.000Z</time>
      </trkpt>
      <trkpt lat="43.60801" lon="4.33387">
        <ele>1.79</ele>
        <time>2019-05-30T12:50:17.000Z</time>
      </trkpt>
      <trkpt lat="43.6082" lon="4.33364">
        <ele>1.81</ele>
        <time>2019-05-30T12:50:22.000Z</time>
      </trkpt>
      <trkpt lat="43.60839" lon="4.33341">
        <ele>1.79</ele>
        <time>2019-05-30T12:50:27.000Z</time>
      </trkpt>
      <trkpt lat="43.60859" lon="4.33316">
        <ele>2</ele>
        <time>2019-05-30T12:50:32.000Z</time>
      </trkpt>
      <trkpt lat="43.60877" lon="4.33293">
        <ele>2</ele>
        <time>2019-05-30T12:50:37.000Z</time>
      </trkpt>
      <trkpt lat="43.60897" lon="4.33271">
        <ele>1</ele>
        <time>2019-05-30T12:50:42.000Z</time>
      </trkpt>
      <trkpt lat="43.60917" lon="4.33247">
        <ele>1</ele>
        <time>2019-05-30T12:50:47.000Z</time>
      </trkpt>
      <trkpt lat="43.60936" lon="4.33224">
        <ele>1</ele>
        <time>2019-05-30T12:50:52.000Z</time>
      </trkpt>
      <trkpt lat="43.60957" lon="4.332">
        <ele>1</ele>
        <time>2019-05-30T12:50:57.000Z</time>
      </trkpt>
      <trkpt lat="43.60977" lon="4.33176">
        <ele>1</ele>
        <time>2019-05-30T12:51:02.000Z</time>
      </trkpt>
      <trkpt lat="43.60997" lon="4.33151">
        <ele>1</ele>
        <time>2019-05-30T12:51:07.000Z</time>
      </trkpt>
      <trkpt lat="43.61018" lon="4.33125">
        <ele>1</ele>
        <time>2019-05-30T12:51:12.000Z</time>
      </trkpt>
      <trkpt lat="43.6104" lon="4.33101">
        <ele>1</ele>
        <time>2019-05-30T12:51:17.000Z</time>
      </trkpt>
      <trkpt lat="43.61061" lon="4.33076">
        <ele>1</ele>
        <time>2019-05-30T12:51:22.000Z</time>
      </trkpt>
      <trkpt lat="43.61082" lon="4.33051">
        <ele>1</ele>
        <time>2019-05-30T12:51:27.000Z</time>
      </trkpt>
      <trkpt lat="43.61104" lon="4.33023">
        <ele>1</ele>
        <time>2019-05-30T12:51:32.000Z</time>
      </trkpt>
      <trkpt lat="43.61125" lon="4.32999">
        <ele>1</ele>
        <time>2019-05-30T12:51:37.000Z</time>
      </trkpt>
      <trkpt lat="43.61146" lon="4.32974">
        <ele>1</ele>
        <time>2019-05-30T12:51:42.000Z</time>
      </trkpt>
      <trkpt lat="43.61167" lon="4.32948">
        <ele>1</ele>
        <time>2019-05-30T12:51:47.000Z</time>
      </trkpt>
      <trkpt lat="43.6119" lon="4.32922">
        <ele>1</ele>
        <time>2019-05-30T12:51:52.000Z</time>
      </trkpt>
      <trkpt lat="43.61212" lon="4.32896">
        <ele>1</ele>
        <time>2019-05-30T12:51:57.000Z</time>
      </trkpt>
      <trkpt lat="43.61234" lon="4.32871">
        <ele>1</ele>
        <time>2019-05-30T12:52:02.000Z</time>
      </trkpt>
      <trkpt lat="43.61256" lon="4.32843">
        <ele>1</ele>
        <time>2019-05-30T12:52:07.000Z</time>
      </trkpt>
      <trkpt lat="43.61278" lon="4.32816">
        <ele>1</ele>
        <time>2019-05-30T12:52:12.000Z</time>
      </trkpt>
      <trkpt lat="43.613" lon="4.3279">
        <ele>1</ele>
        <time>2019-05-30T12:52:17.000Z</time>
      </trkpt>
      <trkpt lat="43.61323" lon="4.32763">
        <ele>1</ele>
        <time>2019-05-30T12:52:22.000Z</time>
      </trkpt>
      <trkpt lat="43.61345" lon="4.32737">
        <ele>1</ele>
        <time>2019-05-30T12:52:27.000Z</time>
      </trkpt>
      <trkpt lat="43.61366" lon="4.32711">
        <ele>1</ele>
        <time>2019-05-30T12:52:32.000Z</time>
      </trkpt>
      <trkpt lat="43.61388" lon="4.32685">
        <ele>1</ele>
        <time>2019-05-30T12:52:37.000Z</time>
      </trkpt>
      <trkpt lat="43.6141" lon="4.3266">
        <ele>1</ele>
        <time>2019-05-30T12:52:42.000Z</time>
      </trkpt>
      <trkpt lat="43.61431" lon="4.32635">
        <ele>1</ele>
        <time>2019-05-30T12:52:47.000Z</time>
      </trkpt>
      <trkpt lat="43.61453" lon="4.32609">
        <ele>1</ele>
        <time>2019-05-30T12:52:52.000Z</time>
      </trkpt>
      <trkpt lat="43.61475" lon="4.32584">
        <ele>1</ele>
        <time>2019-05-30T12:52:57.000Z</time>
      </trkpt>
      <trkpt lat="43.61495" lon="4.32559">
        <ele>1</ele>
        <time>2019-05-30T12:53:02.000Z</time>
      </trkpt>
      <trkpt lat="43.61514" lon="4.32536">
        <ele>1</ele>
        <time>2019-05-30T12:53:07.000Z</time>
      </trkpt>
      <trkpt lat="43.61533" lon="4.32514">
        <ele>1.52</ele>
        <time>2019-05-30T12:53:12.000Z</time>
      </trkpt>
      <trkpt lat="43.61553" lon="4.32492">
        <ele>0.8</ele>
        <time>2019-05-30T12:53:17.000Z</time>
      </trkpt>
      <trkpt lat="43.61573" lon="4.32469">
        <ele>1</ele>
        <time>2019-05-30T12:53:22.000Z</time>
      </trkpt>
      <trkpt lat="43.61593" lon="4.32445">
        <ele>1</ele>
        <time>2019-05-30T12:53:27.000Z</time>
      </trkpt>
      <trkpt lat="43.61612" lon="4.3242">
        <ele>1</ele>
        <time>2019-05-30T12:53:32.000Z</time>
      </trkpt>
      <trkpt lat="43.61633" lon="4.32396">
        <ele>1</ele>
        <time>2019-05-30T12:53:37.000Z</time>
      </trkpt>
      <trkpt lat="43.61652" lon="4.32371">
        <ele>1</ele>
        <time>2019-05-30T12:53:42.000Z</time>
      </trkpt>
      <trkpt lat="43.61672" lon="4.32349">
        <ele>1</ele>
        <time>2019-05-30T12:53:47.000Z</time>
      </trkpt>
      <trkpt lat="43.61691" lon="4.32326">
        <ele>1</ele>
        <time>2019-05-30T12:53:52.000Z</time>
      </trkpt>
      <trkpt lat="43.61711" lon="4.32303">
        <ele>1</ele>
        <time>2019-05-30T12:53:57.000Z</time>
      </trkpt>
      <trkpt lat="43.6173" lon="4.32279">
        <ele>1</ele>
        <time>2019-05-30T12:54:02.000Z</time>
      </trkpt>
      <trkpt lat="43.61749" lon="4.32257">
        <ele>1</ele>
        <time>2019-05-30T12:54:07.000Z</time>
      </trkpt>
      <trkpt lat="43.61769" lon="4.32234">
        <ele>1</ele>
        <time>2019-05-30T12:54:12.000Z</time>
      </trkpt>
      <trkpt lat="43.61787" lon="4.32211">
        <ele>1</ele>
        <time>2019-05-30T12:54:17.000Z</time>
      </trkpt>
      <trkpt lat="43.61806" lon="4.32188">
        <ele>1</ele>
        <time>2019-05-30T12:54:22.000Z</time>
      </trkpt>
      <trkpt lat="43.61826" lon="4.32164">
        <ele>1</ele>
        <time>2019-05-30T12:54:27.000Z</time>
      </trkpt>
      <trkpt lat="43.61846" lon="4.32141">
        <ele>0.79</ele>
        <time>2019-05-30T12:54:32.000Z</time>
      </trkpt>
      <trkpt lat="43.61866" lon="4.32118">
        <ele>0.79</ele>
        <time>2019-05-30T12:54:37.000Z</time>
      </trkpt>
      <trkpt lat="43.61885" lon="4.32095">
        <ele>0.79</ele>
        <time>2019-05-30T12:54:42.000Z</time>
      </trkpt>
      <trkpt lat="43.61904" lon="4.32071">
        <ele>1</ele>
        <time>2019-05-30T12:54:47.000Z</time>
      </trkpt>
      <trkpt lat="43.61925" lon="4.32047">
        <ele>0.02</ele>
        <time>2019-05-30T12:54:52.000Z</time>
      </trkpt>
      <trkpt lat="43.61945" lon="4.32023">
        <ele>0.77</ele>
        <time>2019-05-30T12:54:57.000Z</time>
      </trkpt>
      <trkpt lat="43.61967" lon="4.31999">
        <ele>1</ele>
        <time>2019-05-30T12:55:02.000Z</time>
      </trkpt>
      <trkpt lat="43.61987" lon="4.31973">
        <ele>1</ele>
        <time>2019-05-30T12:55:07.000Z</time>
      </trkpt>
      <trkpt lat="43.6201" lon="4.31947">
        <ele>1</ele>
        <time>2019-05-30T12:55:12.000Z</time>
      </trkpt>
      <trkpt lat="43.62031" lon="4.31921">
        <ele>1</ele>
        <time>2019-05-30T12:55:17.000Z</time>
      </trkpt>
      <trkpt lat="43.62052" lon="4.31894">
        <ele>1</ele>
        <time>2019-05-30T12:55:22.000Z</time>
      </trkpt>
      <trkpt lat="43.62075" lon="4.31867">
        <ele>1</ele>
        <time>2019-05-30T12:55:27.000Z</time>
      </trkpt>
      <trkpt lat="43.62097" lon="4.31841">
        <ele>1</ele>
        <time>2019-05-30T12:55:32.000Z</time>
      </trkpt>
      <trkpt lat="43.62118" lon="4.31815">
        <ele>1</ele>
        <time>2019-05-30T12:55:37.000Z</time>
      </trkpt>
      <trkpt lat="43.62142" lon="4.31789">
        <ele>1</ele>
        <time>2019-05-30T12:55:42.000Z</time>
      </trkpt>
      <trkpt lat="43.62163" lon="4.31764">
        <ele>1</ele>
        <time>2019-05-30T12:55:47.000Z</time>
      </trkpt>
      <trkpt lat="43.62183" lon="4.31738">
        <ele>0.54</ele>
        <time>2019-05-30T12:55:52.000Z</time>
      </trkpt>
      <trkpt lat="43.62205" lon="4.31713">
        <ele>0.79</ele>
        <time>2019-05-30T12:55:57.000Z</time>
      </trkpt>
      <trkpt lat="43.62225" lon="4.31688">
        <ele>0.73</ele>
        <time>2019-05-30T12:56:02.000Z</time>
      </trkpt>
      <trkpt lat="43.62246" lon="4.31663">
        <ele>0.78</ele>
        <time>2019-05-30T12:56:07.000Z</time>
      </trkpt>
      <trkpt lat="43.62268" lon="4.31638">
        <ele>0.79</ele>
        <time>2019-05-30T12:56:12.000Z</time>
      </trkpt>
      <trkpt lat="43.62289" lon="4.31613">
        <ele>1</ele>
        <time>2019-05-30T12:56:17.000Z</time>
      </trkpt>
      <trkpt lat="43.62312" lon="4.31587">
        <ele>0.78</ele>
        <time>2019-05-30T12:56:22.000Z</time>
      </trkpt>
      <trkpt lat="43.62333" lon="4.31561">
        <ele>0.03</ele>
        <time>2019-05-30T12:56:27.000Z</time>
      </trkpt>
      <trkpt lat="43.62354" lon="4.31537">
        <ele>1</ele>
        <time>2019-05-30T12:56:32.000Z</time>
      </trkpt>
      <trkpt lat="43.62373" lon="4.31511">
        <ele>1</ele>
        <time>2019-05-30T12:56:37.000Z</time>
      </trkpt>
      <trkpt lat="43.62394" lon="4.31488">
        <ele>1</ele>
        <time>2019-05-30T12:56:42.000Z</time>
      </trkpt>
      <trkpt lat="43.62414" lon="4.31464">
        <ele>1</ele>
        <time>2019-05-30T12:56:47.000Z</time>
      </trkpt>
      <trkpt lat="43.62435" lon="4.31438">
        <ele>1</ele>
        <time>2019-05-30T12:56:52.000Z</time>
      </trkpt>
      <trkpt lat="43.62456" lon="4.31414">
        <ele>1</ele>
        <time>2019-05-30T12:56:57.000Z</time>
      </trkpt>
      <trkpt lat="43.62477" lon="4.3139">
        <ele>1</ele>
        <time>2019-05-30T12:57:02.000Z</time>
      </trkpt>
      <trkpt lat="43.62497" lon="4.31366">
        <ele>1</ele>
        <time>2019-05-30T12:57:07.000Z</time>
      </trkpt>
      <trkpt lat="43.62518" lon="4.31339">
        <ele>1</ele>
        <time>2019-05-30T12:57:12.000Z</time>
      </trkpt>
      <trkpt lat="43.62538" lon="4.31314">
        <ele>1</ele>
        <time>2019-05-30T12:57:17.000Z</time>
      </trkpt>
      <trkpt lat="43.62559" lon="4.31289">
        <ele>1</ele>
        <time>2019-05-30T12:57:22.000Z</time>
      </trkpt>
      <trkpt lat="43.62579" lon="4.31266">
        <ele>1</ele>
        <time>2019-05-30T12:57:27.000Z</time>
      </trkpt>
      <trkpt lat="43.626" lon="4.31243">
        <ele>1</ele>
        <time>2019-05-30T12:57:32.000Z</time>
      </trkpt>
      <trkpt lat="43.62621" lon="4.31217">
        <ele>1</ele>
        <time>2019-05-30T12:57:37.000Z</time>
      </trkpt>
      <trkpt lat="43.62642" lon="4.31192">
        <ele>1</ele>
        <time>2019-05-30T12:57:42.000Z</time>
      </trkpt>
      <trkpt lat="43.62662" lon="4.31168">
        <ele>1</ele>
        <time>2019-05-30T12:57:47.000Z</time>
      </trkpt>
      <trkpt lat="43.62683" lon="4.31143">
        <ele>1</ele>
        <time>2019-05-30T12:57:52.000Z</time>
      </trkpt>
      <trkpt lat="43.62703" lon="4.31118">
        <ele>0.72</ele>
        <time>2019-05-30T12:57:57.000Z</time>
      </trkpt>
      <trkpt lat="43.62722" lon="4.31096">
        <ele>0.78</ele>
        <time>2019-05-30T12:58:02.000Z</time>
      </trkpt>
      <trkpt lat="43.62741" lon="4.31072">
        <ele>0.84</ele>
        <time>2019-05-30T12:58:07.000Z</time>
      </trkpt>
      <trkpt lat="43.62761" lon="4.31049">
        <ele>0.77</ele>
        <time>2019-05-30T12:58:12.000Z</time>
      </trkpt>
      <trkpt lat="43.62781" lon="4.31027">
        <ele>0.03</ele>
        <time>2019-05-30T12:58:17.000Z</time>
      </trkpt>
      <trkpt lat="43.62799" lon="4.31006">
        <ele>0.77</ele>
        <time>2019-05-30T12:58:22.000Z</time>
      </trkpt>
      <trkpt lat="43.62816" lon="4.30984">
        <ele>0.78</ele>
        <time>2019-05-30T12:58:27.000Z</time>
      </trkpt>
      <trkpt lat="43.62834" lon="4.30963">
        <ele>0.78</ele>
        <time>2019-05-30T12:58:32.000Z</time>
      </trkpt>
      <trkpt lat="43.62852" lon="4.30942">
        <ele>0.8</ele>
        <time>2019-05-30T12:58:37.000Z</time>
      </trkpt>
      <trkpt lat="43.62869" lon="4.30921">
        <ele>0.78</ele>
        <time>2019-05-30T12:58:42.000Z</time>
      </trkpt>
      <trkpt lat="43.62885" lon="4.309">
        <ele>0.78</ele>
        <time>2019-05-30T12:58:47.000Z</time>
      </trkpt>
      <trkpt lat="43.62903" lon="4.30878">
        <ele>0.78</ele>
        <time>2019-05-30T12:58:52.000Z</time>
      </trkpt>
      <trkpt lat="43.62922" lon="4.30857">
        <ele>1.78</ele>
        <time>2019-05-30T12:58:57.000Z</time>
      </trkpt>
      <trkpt lat="43.62939" lon="4.30837">
        <ele>1.79</ele>
        <time>2019-05-30T12:59:02.000Z</time>
      </trkpt>
      <trkpt lat="43.62956" lon="4.30817">
        <ele>1.78</ele>
        <time>2019-05-30T12:59:07.000Z</time>
      </trkpt>
      <trkpt lat="43.62973" lon="4.30797">
        <ele>0.79</ele>
        <time>2019-05-30T12:59:12.000Z</time>
      </trkpt>
      <trkpt lat="43.62988" lon="4.30779">
        <ele>0.78</ele>
        <time>2019-05-30T12:59:17.000Z</time>
      </trkpt>
      <trkpt lat="43.63004" lon="4.3076">
        <ele>0.78</ele>
        <time>2019-05-30T12:59:22.000Z</time>
      </trkpt>
      <trkpt lat="43.63018" lon="4.30741">
        <ele>0.78</ele>
        <time>2019-05-30T12:59:27.000Z</time>
      </trkpt>
      <trkpt lat="43.63035" lon="4.30722">
        <ele>0.78</ele>
        <time>2019-05-30T12:59:32.000Z</time>
      </trkpt>
      <trkpt lat="43.63051" lon="4.30702">
        <ele>1.03</ele>
        <time>2019-05-30T12:59:37.000Z</time>
      </trkpt>
      <trkpt lat="43.63068" lon="4.30681">
        <ele>0.78</ele>
        <time>2019-05-30T12:59:42.000Z</time>
      </trkpt>
      <trkpt lat="43.63085" lon="4.3066">
        <ele>1</ele>
        <time>2019-05-30T12:59:47.000Z</time>
      </trkpt>
      <trkpt lat="43.63102" lon="4.3064">
        <ele>0.53</ele>
        <time>2019-05-30T12:59:52.000Z</time>
      </trkpt>
      <trkpt lat="43.63119" lon="4.3062">
        <ele>1</ele>
        <time>2019-05-30T12:59:57.000Z</time>
      </trkpt>
      <trkpt lat="43.63135" lon="4.306">
        <ele>1</ele>
        <time>2019-05-30T13:00:02.000Z</time>
      </trkpt>
      <trkpt lat="43.63151" lon="4.30579">
        <ele>1</ele>
        <time>2019-05-30T13:00:07.000Z</time>
      </trkpt>
      <trkpt lat="43.63168" lon="4.3056">
        <ele>1</ele>
        <time>2019-05-30T13:00:12.000Z</time>
      </trkpt>
      <trkpt lat="43.63185" lon="4.30539">
        <ele>1</ele>
        <time>2019-05-30T13:00:17.000Z</time>
      </trkpt>
      <trkpt lat="43.63202" lon="4.30518">
        <ele>0.58</ele>
        <time>2019-05-30T13:00:22.000Z</time>
      </trkpt>
      <trkpt lat="43.63219" lon="4.30497">
        <ele>1</ele>
        <time>2019-05-30T13:00:27.000Z</time>
      </trkpt>
      <trkpt lat="43.63236" lon="4.30477">
        <ele>1</ele>
        <time>2019-05-30T13:00:32.000Z</time>
      </trkpt>
      <trkpt lat="43.63254" lon="4.30456">
        <ele>1</ele>
        <time>2019-05-30T13:00:37.000Z</time>
      </trkpt>
      <trkpt lat="43.63271" lon="4.30438">
        <ele>1</ele>
        <time>2019-05-30T13:00:42.000Z</time>
      </trkpt>
      <trkpt lat="43.63289" lon="4.30417">
        <ele>1</ele>
        <time>2019-05-30T13:00:47.000Z</time>
      </trkpt>
      <trkpt lat="43.63307" lon="4.30395">
        <ele>1</ele>
        <time>2019-05-30T13:00:52.000Z</time>
      </trkpt>
      <trkpt lat="43.63327" lon="4.30372">
        <ele>1</ele>
        <time>2019-05-30T13:00:57.000Z</time>
      </trkpt>
      <trkpt lat="43.63345" lon="4.30349">
        <ele>1</ele>
        <time>2019-05-30T13:01:02.000Z</time>
      </trkpt>
      <trkpt lat="43.63365" lon="4.30327">
        <ele>1</ele>
        <time>2019-05-30T13:01:07.000Z</time>
      </trkpt>
      <trkpt lat="43.63385" lon="4.30303">
        <ele>1</ele>
        <time>2019-05-30T13:01:12.000Z</time>
      </trkpt>
      <trkpt lat="43.63406" lon="4.30277">
        <ele>1</ele>
        <time>2019-05-30T13:01:17.000Z</time>
      </trkpt>
      <trkpt lat="43.63426" lon="4.30253">
        <ele>1</ele>
        <time>2019-05-30T13:01:22.000Z</time>
      </trkpt>
      <trkpt lat="43.63446" lon="4.30228">
        <ele>1</ele>
        <time>2019-05-30T13:01:27.000Z</time>
      </trkpt>
      <trkpt lat="43.63466" lon="4.30202">
        <ele>1</ele>
        <time>2019-05-30T13:01:32.000Z</time>
      </trkpt>
      <trkpt lat="43.63487" lon="4.30178">
        <ele>1</ele>
        <time>2019-05-30T13:01:37.000Z</time>
      </trkpt>
      <trkpt lat="43.63507" lon="4.30155">
        <ele>1</ele>
        <time>2019-05-30T13:01:42.000Z</time>
      </trkpt>
      <trkpt lat="43.63526" lon="4.3013">
        <ele>1</ele>
        <time>2019-05-30T13:01:47.000Z</time>
      </trkpt>
      <trkpt lat="43.63547" lon="4.30107">
        <ele>1</ele>
        <time>2019-05-30T13:01:52.000Z</time>
      </trkpt>
      <trkpt lat="43.63568" lon="4.30083">
        <ele>1</ele>
        <time>2019-05-30T13:01:57.000Z</time>
      </trkpt>
      <trkpt lat="43.63589" lon="4.30058">
        <ele>1</ele>
        <time>2019-05-30T13:02:02.000Z</time>
      </trkpt>
      <trkpt lat="43.63608" lon="4.30035">
        <ele>1</ele>
        <time>2019-05-30T13:02:07.000Z</time>
      </trkpt>
      <trkpt lat="43.63628" lon="4.30009">
        <ele>1</ele>
        <time>2019-05-30T13:02:12.000Z</time>
      </trkpt>
      <trkpt lat="43.63645" lon="4.29986">
        <ele>1</ele>
        <time>2019-05-30T13:02:17.000Z</time>
      </trkpt>
      <trkpt lat="43.63659" lon="4.29965">
        <ele>1</ele>
        <time>2019-05-30T13:02:22.000Z</time>
      </trkpt>
      <trkpt lat="43.63669" lon="4.29942">
        <ele>1</ele>
        <time>2019-05-30T13:02:27.000Z</time>
      </trkpt>
      <trkpt lat="43.63675" lon="4.29931">
        <ele>1</ele>
        <time>2019-05-30T13:02:32.000Z</time>
      </trkpt>
      <trkpt lat="43.63684" lon="4.29921">
        <ele>1.53</ele>
        <time>2019-05-30T13:03:47.000Z</time>
      </trkpt>
      <trkpt lat="43.63693" lon="4.29908">
        <ele>1.54</ele>
        <time>2019-05-30T13:03:52.000Z</time>
      </trkpt>
      <trkpt lat="43.63702" lon="4.29897">
        <ele>1.58</ele>
        <time>2019-05-30T13:03:57.000Z</time>
      </trkpt>
      <trkpt lat="43.63716" lon="4.29888">
        <ele>1.78</ele>
        <time>2019-05-30T13:04:02.000Z</time>
      </trkpt>
      <trkpt lat="43.63727" lon="4.29878">
        <ele>1.73</ele>
        <time>2019-05-30T13:04:07.000Z</time>
      </trkpt>
      <trkpt lat="43.6374" lon="4.29874">
        <ele>2.76</ele>
        <time>2019-05-30T13:04:12.000Z</time>
      </trkpt>
      <trkpt lat="43.63752" lon="4.29871">
        <ele>3.78</ele>
        <time>2019-05-30T13:04:17.000Z</time>
      </trkpt>
      <trkpt lat="43.63762" lon="4.29868">
        <ele>4.77</ele>
        <time>2019-05-30T13:04:22.000Z</time>
      </trkpt>
      <trkpt lat="43.6377" lon="4.29861">
        <ele>4.76</ele>
        <time>2019-05-30T13:04:57.000Z</time>
      </trkpt>
      <trkpt lat="43.6376" lon="4.29863">
        <ele>3.78</ele>
        <time>2019-05-30T13:05:04.000Z</time>
      </trkpt>
      <trkpt lat="43.63748" lon="4.2987">
        <ele>3.78</ele>
        <time>2019-05-30T13:05:09.000Z</time>
      </trkpt>
      <trkpt lat="43.6373" lon="4.29876">
        <ele>2.84</ele>
        <time>2019-05-30T13:05:14.000Z</time>
      </trkpt>
      <trkpt lat="43.63706" lon="4.29893">
        <ele>1.78</ele>
        <time>2019-05-30T13:05:19.000Z</time>
      </trkpt>
      <trkpt lat="43.63687" lon="4.29914">
        <ele>1.79</ele>
        <time>2019-05-30T13:05:24.000Z</time>
      </trkpt>
      <trkpt lat="43.63673" lon="4.29937">
        <ele>2.72</ele>
        <time>2019-05-30T13:05:29.000Z</time>
      </trkpt>
      <trkpt lat="43.63661" lon="4.29953">
        <ele>1.79</ele>
        <time>2019-05-30T13:05:34.000Z</time>
      </trkpt>
      <trkpt lat="43.63657" lon="4.29967">
        <ele>1.77</ele>
        <time>2019-05-30T13:05:39.000Z</time>
      </trkpt>
      <trkpt lat="43.63651" lon="4.29953">
        <ele>1.77</ele>
        <time>2019-05-30T13:05:44.000Z</time>
      </trkpt>
      <trkpt lat="43.63662" lon="4.2993">
        <ele>2.72</ele>
        <time>2019-05-30T13:05:49.000Z</time>
      </trkpt>
      <trkpt lat="43.63674" lon="4.29908">
        <ele>2.96</ele>
        <time>2019-05-30T13:05:54.000Z</time>
      </trkpt>
      <trkpt lat="43.63688" lon="4.29889">
        <ele>3.96</ele>
        <time>2019-05-30T13:05:59.000Z</time>
      </trkpt>
      <trkpt lat="43.63701" lon="4.29874">
        <ele>4.76</ele>
        <time>2019-05-30T13:06:04.000Z</time>
      </trkpt>
      <trkpt lat="43.63717" lon="4.29864">
        <ele>5.76</ele>
        <time>2019-05-30T13:06:09.000Z</time>
      </trkpt>
      <trkpt lat="43.63732" lon="4.29858">
        <ele>5.79</ele>
        <time>2019-05-30T13:06:14.000Z</time>
      </trkpt>
      <trkpt lat="43.63748" lon="4.29853">
        <ele>7.53</ele>
        <time>2019-05-30T13:06:19.000Z</time>
      </trkpt>
      <trkpt lat="43.63762" lon="4.29849">
        <ele>9.51</ele>
        <time>2019-05-30T13:06:24.000Z</time>
      </trkpt>
      <trkpt lat="43.63777" lon="4.29844">
        <ele>8.78</ele>
        <time>2019-05-30T13:06:29.000Z</time>
      </trkpt>
      <trkpt lat="43.63792" lon="4.2984">
        <ele>8.78</ele>
        <time>2019-05-30T13:06:34.000Z</time>
      </trkpt>
      <trkpt lat="43.63813" lon="4.29836">
        <ele>7.84</ele>
        <time>2019-05-30T13:06:39.000Z</time>
      </trkpt>
      <trkpt lat="43.63838" lon="4.29831">
        <ele>5.11</ele>
        <time>2019-05-30T13:06:44.000Z</time>
      </trkpt>
      <trkpt lat="43.63864" lon="4.2983">
        <ele>2.09</ele>
        <time>2019-05-30T13:06:49.000Z</time>
      </trkpt>
      <trkpt lat="43.63871" lon="4.29819">
        <ele>0.78</ele>
        <time>2019-05-30T13:06:54.000Z</time>
      </trkpt>
      <trkpt lat="43.63862" lon="4.29815">
        <ele>2.71</ele>
        <time>2019-05-30T13:07:26.000Z</time>
      </trkpt>
      <trkpt lat="43.63852" lon="4.29815">
        <ele>2.78</ele>
        <time>2019-05-30T13:08:07.000Z</time>
      </trkpt>
      <trkpt lat="43.63839" lon="4.29811">
        <ele>2.78</ele>
        <time>2019-05-30T13:08:12.000Z</time>
      </trkpt>
      <trkpt lat="43.63827" lon="4.29806">
        <ele>3.71</ele>
        <time>2019-05-30T13:08:17.000Z</time>
      </trkpt>
      <trkpt lat="43.63816" lon="4.29802">
        <ele>2.84</ele>
        <time>2019-05-30T13:08:22.000Z</time>
      </trkpt>
      <trkpt lat="43.63804" lon="4.29789">
        <ele>1.78</ele>
        <time>2019-05-30T13:08:27.000Z</time>
      </trkpt>
      <trkpt lat="43.638" lon="4.29763">
        <ele>1.78</ele>
        <time>2019-05-30T13:08:32.000Z</time>
      </trkpt>
      <trkpt lat="43.63796" lon="4.29731">
        <ele>1.78</ele>
        <time>2019-05-30T13:08:37.000Z</time>
      </trkpt>
      <trkpt lat="43.63791" lon="4.297">
        <ele>2.71</ele>
        <time>2019-05-30T13:08:42.000Z</time>
      </trkpt>
      <trkpt lat="43.63784" lon="4.2967">
        <ele>1.53</ele>
        <time>2019-05-30T13:08:47.000Z</time>
      </trkpt>
      <trkpt lat="43.63777" lon="4.2964">
        <ele>2.78</ele>
        <time>2019-05-30T13:08:52.000Z</time>
      </trkpt>
      <trkpt lat="43.63769" lon="4.29607">
        <ele>1.78</ele>
        <time>2019-05-30T13:08:57.000Z</time>
      </trkpt>
      <trkpt lat="43.63762" lon="4.29573">
        <ele>1.78</ele>
        <time>2019-05-30T13:09:02.000Z</time>
      </trkpt>
      <trkpt lat="43.63757" lon="4.29539">
        <ele>0.78</ele>
        <time>2019-05-30T13:09:07.000Z</time>
      </trkpt>
      <trkpt lat="43.63749" lon="4.29504">
        <ele>0.78</ele>
        <time>2019-05-30T13:09:12.000Z</time>
      </trkpt>
      <trkpt lat="43.63743" lon="4.29468">
        <ele>0.78</ele>
        <time>2019-05-30T13:09:17.000Z</time>
      </trkpt>
      <trkpt lat="43.63736" lon="4.29428">
        <ele>1</ele>
        <time>2019-05-30T13:09:22.000Z</time>
      </trkpt>
      <trkpt lat="43.63729" lon="4.29389">
        <ele>1</ele>
        <time>2019-05-30T13:09:27.000Z</time>
      </trkpt>
      <trkpt lat="43.63723" lon="4.29352">
        <ele>1</ele>
        <time>2019-05-30T13:09:32.000Z</time>
      </trkpt>
      <trkpt lat="43.63717" lon="4.29315">
        <ele>1</ele>
        <time>2019-05-30T13:09:37.000Z</time>
      </trkpt>
      <trkpt lat="43.6371" lon="4.29275">
        <ele>1</ele>
        <time>2019-05-30T13:09:42.000Z</time>
      </trkpt>
      <trkpt lat="43.63702" lon="4.29231">
        <ele>1</ele>
        <time>2019-05-30T13:09:47.000Z</time>
      </trkpt>
      <trkpt lat="43.63695" lon="4.29189">
        <ele>1.2</ele>
        <time>2019-05-30T13:09:52.000Z</time>
      </trkpt>
      <trkpt lat="43.63687" lon="4.29147">
        <ele>2.7</ele>
        <time>2019-05-30T13:09:57.000Z</time>
      </trkpt>
      <trkpt lat="43.63681" lon="4.29105">
        <ele>1.8</ele>
        <time>2019-05-30T13:10:02.000Z</time>
      </trkpt>
      <trkpt lat="43.63675" lon="4.29063">
        <ele>1</ele>
        <time>2019-05-30T13:10:07.000Z</time>
      </trkpt>
      <trkpt lat="43.63668" lon="4.29023">
        <ele>1.2</ele>
        <time>2019-05-30T13:10:12.000Z</time>
      </trkpt>
      <trkpt lat="43.63658" lon="4.28983">
        <ele>1</ele>
        <time>2019-05-30T13:10:17.000Z</time>
      </trkpt>
      <trkpt lat="43.63649" lon="4.28944">
        <ele>1</ele>
        <time>2019-05-30T13:10:22.000Z</time>
      </trkpt>
      <trkpt lat="43.63639" lon="4.28904">
        <ele>1</ele>
        <time>2019-05-30T13:10:27.000Z</time>
      </trkpt>
      <trkpt lat="43.63628" lon="4.28865">
        <ele>1</ele>
        <time>2019-05-30T13:10:32.000Z</time>
      </trkpt>
      <trkpt lat="43.63616" lon="4.2883">
        <ele>1</ele>
        <time>2019-05-30T13:10:37.000Z</time>
      </trkpt>
      <trkpt lat="43.63601" lon="4.28797">
        <ele>1</ele>
        <time>2019-05-30T13:10:42.000Z</time>
      </trkpt>
      <trkpt lat="43.63587" lon="4.28764">
        <ele>1</ele>
        <time>2019-05-30T13:10:47.000Z</time>
      </trkpt>
      <trkpt lat="43.63571" lon="4.28728">
        <ele>1</ele>
        <time>2019-05-30T13:10:52.000Z</time>
      </trkpt>
      <trkpt lat="43.63555" lon="4.28692">
        <ele>1</ele>
        <time>2019-05-30T13:10:57.000Z</time>
      </trkpt>
      <trkpt lat="43.6354" lon="4.28656">
        <ele>0.71</ele>
        <time>2019-05-30T13:11:02.000Z</time>
      </trkpt>
      <trkpt lat="43.63524" lon="4.28621">
        <ele>0.71</ele>
        <time>2019-05-30T13:11:07.000Z</time>
      </trkpt>
      <trkpt lat="43.63508" lon="4.28585">
        <ele>0.02</ele>
        <time>2019-05-30T13:11:12.000Z</time>
      </trkpt>
      <trkpt lat="43.63493" lon="4.28548">
        <ele>1</ele>
        <time>2019-05-30T13:11:17.000Z</time>
      </trkpt>
      <trkpt lat="43.63478" lon="4.28513">
        <ele>1</ele>
        <time>2019-05-30T13:11:22.000Z</time>
      </trkpt>
      <trkpt lat="43.63462" lon="4.28479">
        <ele>1</ele>
        <time>2019-05-30T13:11:27.000Z</time>
      </trkpt>
      <trkpt lat="43.63448" lon="4.28443">
        <ele>0.52</ele>
        <time>2019-05-30T13:11:32.000Z</time>
      </trkpt>
      <trkpt lat="43.63434" lon="4.28408">
        <ele>1</ele>
        <time>2019-05-30T13:11:37.000Z</time>
      </trkpt>
      <trkpt lat="43.63419" lon="4.28373">
        <ele>0.73</ele>
        <time>2019-05-30T13:11:42.000Z</time>
      </trkpt>
      <trkpt lat="43.63404" lon="4.28338">
        <ele>1</ele>
        <time>2019-05-30T13:11:47.000Z</time>
      </trkpt>
      <trkpt lat="43.6339" lon="4.28303">
        <ele>1</ele>
        <time>2019-05-30T13:11:52.000Z</time>
      </trkpt>
      <trkpt lat="43.63376" lon="4.28269">
        <ele>1</ele>
        <time>2019-05-30T13:11:57.000Z</time>
      </trkpt>
      <trkpt lat="43.63362" lon="4.28235">
        <ele>1</ele>
        <time>2019-05-30T13:12:02.000Z</time>
      </trkpt>
      <trkpt lat="43.63347" lon="4.28202">
        <ele>1</ele>
        <time>2019-05-30T13:12:07.000Z</time>
      </trkpt>
      <trkpt lat="43.63334" lon="4.28168">
        <ele>1</ele>
        <time>2019-05-30T13:12:12.000Z</time>
      </trkpt>
      <trkpt lat="43.63319" lon="4.28132">
        <ele>1</ele>
        <time>2019-05-30T13:12:17.000Z</time>
      </trkpt>
      <trkpt lat="43.63304" lon="4.28096">
        <ele>1</ele>
        <time>2019-05-30T13:12:22.000Z</time>
      </trkpt>
      <trkpt lat="43.6329" lon="4.2806">
        <ele>1</ele>
        <time>2019-05-30T13:12:27.000Z</time>
      </trkpt>
      <trkpt lat="43.63275" lon="4.28025">
        <ele>1</ele>
        <time>2019-05-30T13:12:32.000Z</time>
      </trkpt>
      <trkpt lat="43.63259" lon="4.27989">
        <ele>2.5</ele>
        <time>2019-05-30T13:12:37.000Z</time>
      </trkpt>
      <trkpt lat="43.63242" lon="4.27951">
        <ele>2</ele>
        <time>2019-05-30T13:12:42.000Z</time>
      </trkpt>
      <trkpt lat="43.63226" lon="4.27913">
        <ele>1.9</ele>
        <time>2019-05-30T13:12:47.000Z</time>
      </trkpt>
      <trkpt lat="43.6321" lon="4.27876">
        <ele>1.7</ele>
        <time>2019-05-30T13:12:52.000Z</time>
      </trkpt>
      <trkpt lat="43.63195" lon="4.27838">
        <ele>2</ele>
        <time>2019-05-30T13:12:57.000Z</time>
      </trkpt>
      <trkpt lat="43.63179" lon="4.27802">
        <ele>1</ele>
        <time>2019-05-30T13:13:02.000Z</time>
      </trkpt>
      <trkpt lat="43.63164" lon="4.27766">
        <ele>1</ele>
        <time>2019-05-30T13:13:07.000Z</time>
      </trkpt>
      <trkpt lat="43.63148" lon="4.27729">
        <ele>1</ele>
        <time>2019-05-30T13:13:12.000Z</time>
      </trkpt>
      <trkpt lat="43.63133" lon="4.27692">
        <ele>1</ele>
        <time>2019-05-30T13:13:17.000Z</time>
      </trkpt>
      <trkpt lat="43.63119" lon="4.27657">
        <ele>1</ele>
        <time>2019-05-30T13:13:22.000Z</time>
      </trkpt>
      <trkpt lat="43.63104" lon="4.27621">
        <ele>1</ele>
        <time>2019-05-30T13:13:27.000Z</time>
      </trkpt>
      <trkpt lat="43.63086" lon="4.27584">
        <ele>1</ele>
        <time>2019-05-30T13:13:32.000Z</time>
      </trkpt>
      <trkpt lat="43.63069" lon="4.27546">
        <ele>1.8</ele>
        <time>2019-05-30T13:13:37.000Z</time>
      </trkpt>
      <trkpt lat="43.63051" lon="4.27506">
        <ele>1.8</ele>
        <time>2019-05-30T13:13:42.000Z</time>
      </trkpt>
      <trkpt lat="43.63033" lon="4.27468">
        <ele>1</ele>
        <time>2019-05-30T13:13:47.000Z</time>
      </trkpt>
      <trkpt lat="43.63014" lon="4.27432">
        <ele>1</ele>
        <time>2019-05-30T13:13:52.000Z</time>
      </trkpt>
      <trkpt lat="43.62995" lon="4.27399">
        <ele>1</ele>
        <time>2019-05-30T13:13:57.000Z</time>
      </trkpt>
      <trkpt lat="43.62975" lon="4.27367">
        <ele>1</ele>
        <time>2019-05-30T13:14:02.000Z</time>
      </trkpt>
      <trkpt lat="43.62953" lon="4.27336">
        <ele>1</ele>
        <time>2019-05-30T13:14:07.000Z</time>
      </trkpt>
      <trkpt lat="43.62931" lon="4.27305">
        <ele>1</ele>
        <time>2019-05-30T13:14:12.000Z</time>
      </trkpt>
      <trkpt lat="43.62908" lon="4.27273">
        <ele>1.8</ele>
        <time>2019-05-30T13:14:17.000Z</time>
      </trkpt>
      <trkpt lat="43.62886" lon="4.27241">
        <ele>1</ele>
        <time>2019-05-30T13:14:22.000Z</time>
      </trkpt>
      <trkpt lat="43.62863" lon="4.2721">
        <ele>1.4</ele>
        <time>2019-05-30T13:14:27.000Z</time>
      </trkpt>
      <trkpt lat="43.6284" lon="4.2718">
        <ele>1.9</ele>
        <time>2019-05-30T13:14:32.000Z</time>
      </trkpt>
      <trkpt lat="43.62818" lon="4.27149">
        <ele>1</ele>
        <time>2019-05-30T13:14:37.000Z</time>
      </trkpt>
      <trkpt lat="43.62796" lon="4.27118">
        <ele>1</ele>
        <time>2019-05-30T13:14:42.000Z</time>
      </trkpt>
      <trkpt lat="43.62773" lon="4.27088">
        <ele>1</ele>
        <time>2019-05-30T13:14:47.000Z</time>
      </trkpt>
      <trkpt lat="43.62752" lon="4.27058">
        <ele>1</ele>
        <time>2019-05-30T13:14:52.000Z</time>
      </trkpt>
      <trkpt lat="43.62731" lon="4.27029">
        <ele>1</ele>
        <time>2019-05-30T13:14:57.000Z</time>
      </trkpt>
      <trkpt lat="43.62709" lon="4.26998">
        <ele>1</ele>
        <time>2019-05-30T13:15:02.000Z</time>
      </trkpt>
      <trkpt lat="43.62687" lon="4.26968">
        <ele>1</ele>
        <time>2019-05-30T13:15:07.000Z</time>
      </trkpt>
      <trkpt lat="43.62664" lon="4.26938">
        <ele>1</ele>
        <time>2019-05-30T13:15:12.000Z</time>
      </trkpt>
      <trkpt lat="43.62643" lon="4.26908">
        <ele>1</ele>
        <time>2019-05-30T13:15:17.000Z</time>
      </trkpt>
      <trkpt lat="43.62622" lon="4.26879">
        <ele>1</ele>
        <time>2019-05-30T13:15:22.000Z</time>
      </trkpt>
      <trkpt lat="43.62601" lon="4.26848">
        <ele>1</ele>
        <time>2019-05-30T13:15:27.000Z</time>
      </trkpt>
      <trkpt lat="43.6258" lon="4.26819">
        <ele>1</ele>
        <time>2019-05-30T13:15:32.000Z</time>
      </trkpt>
      <trkpt lat="43.62558" lon="4.26789">
        <ele>1</ele>
        <time>2019-05-30T13:15:37.000Z</time>
      </trkpt>
      <trkpt lat="43.62537" lon="4.26759">
        <ele>1</ele>
        <time>2019-05-30T13:15:42.000Z</time>
      </trkpt>
      <trkpt lat="43.62515" lon="4.26729">
        <ele>1</ele>
        <time>2019-05-30T13:15:47.000Z</time>
      </trkpt>
      <trkpt lat="43.62494" lon="4.26699">
        <ele>1</ele>
        <time>2019-05-30T13:15:52.000Z</time>
      </trkpt>
      <trkpt lat="43.62473" lon="4.2667">
        <ele>1</ele>
        <time>2019-05-30T13:15:57.000Z</time>
      </trkpt>
      <trkpt lat="43.62451" lon="4.2664">
        <ele>0.01</ele>
        <time>2019-05-30T13:16:02.000Z</time>
      </trkpt>
      <trkpt lat="43.62429" lon="4.26611">
        <ele>1</ele>
        <time>2019-05-30T13:16:07.000Z</time>
      </trkpt>
      <trkpt lat="43.62407" lon="4.2658">
        <ele>1</ele>
        <time>2019-05-30T13:16:12.000Z</time>
      </trkpt>
      <trkpt lat="43.62385" lon="4.26549">
        <ele>1</ele>
        <time>2019-05-30T13:16:17.000Z</time>
      </trkpt>
      <trkpt lat="43.62362" lon="4.26518">
        <ele>1</ele>
        <time>2019-05-30T13:16:22.000Z</time>
      </trkpt>
      <trkpt lat="43.6234" lon="4.26488">
        <ele>1</ele>
        <time>2019-05-30T13:16:27.000Z</time>
      </trkpt>
      <trkpt lat="43.62318" lon="4.26457">
        <ele>1</ele>
        <time>2019-05-30T13:16:32.000Z</time>
      </trkpt>
      <trkpt lat="43.62296" lon="4.26426">
        <ele>1</ele>
        <time>2019-05-30T13:16:37.000Z</time>
      </trkpt>
      <trkpt lat="43.62273" lon="4.26395">
        <ele>1</ele>
        <time>2019-05-30T13:16:42.000Z</time>
      </trkpt>
      <trkpt lat="43.6225" lon="4.26363">
        <ele>1</ele>
        <time>2019-05-30T13:16:47.000Z</time>
      </trkpt>
      <trkpt lat="43.62228" lon="4.26332">
        <ele>1</ele>
        <time>2019-05-30T13:16:52.000Z</time>
      </trkpt>
      <trkpt lat="43.62205" lon="4.26302">
        <ele>1</ele>
        <time>2019-05-30T13:16:57.000Z</time>
      </trkpt>
      <trkpt lat="43.62183" lon="4.26271">
        <ele>1</ele>
        <time>2019-05-30T13:17:02.000Z</time>
      </trkpt>
      <trkpt lat="43.6216" lon="4.26239">
        <ele>1</ele>
        <time>2019-05-30T13:17:07.000Z</time>
      </trkpt>
      <trkpt lat="43.62137" lon="4.26209">
        <ele>1</ele>
        <time>2019-05-30T13:17:12.000Z</time>
      </trkpt>
      <trkpt lat="43.62117" lon="4.2618">
        <ele>1</ele>
        <time>2019-05-30T13:17:17.000Z</time>
      </trkpt>
      <trkpt lat="43.62096" lon="4.26152">
        <ele>1</ele>
        <time>2019-05-30T13:17:22.000Z</time>
      </trkpt>
      <trkpt lat="43.62074" lon="4.26122">
        <ele>1</ele>
        <time>2019-05-30T13:17:27.000Z</time>
      </trkpt>
      <trkpt lat="43.62052" lon="4.26091">
        <ele>1</ele>
        <time>2019-05-30T13:17:32.000Z</time>
      </trkpt>
      <trkpt lat="43.62031" lon="4.26062">
        <ele>1</ele>
        <time>2019-05-30T13:17:37.000Z</time>
      </trkpt>
      <trkpt lat="43.62012" lon="4.26032">
        <ele>1</ele>
        <time>2019-05-30T13:17:42.000Z</time>
      </trkpt>
      <trkpt lat="43.6199" lon="4.26009">
        <ele>1</ele>
        <time>2019-05-30T13:17:47.000Z</time>
      </trkpt>
      <trkpt lat="43.61968" lon="4.25985">
        <ele>1</ele>
        <time>2019-05-30T13:17:52.000Z</time>
      </trkpt>
      <trkpt lat="43.61946" lon="4.25962">
        <ele>1</ele>
        <time>2019-05-30T13:17:57.000Z</time>
      </trkpt>
      <trkpt lat="43.61926" lon="4.25936">
        <ele>1</ele>
        <time>2019-05-30T13:18:02.000Z</time>
      </trkpt>
      <trkpt lat="43.61912" lon="4.25905">
        <ele>1</ele>
        <time>2019-05-30T13:18:07.000Z</time>
      </trkpt>
      <trkpt lat="43.61895" lon="4.25878">
        <ele>1</ele>
        <time>2019-05-30T13:18:12.000Z</time>
      </trkpt>
      <trkpt lat="43.61888" lon="4.2587">
        <ele>0.77</ele>
        <time>2019-05-30T13:19:58.000Z</time>
      </trkpt>
      <trkpt lat="43.61882" lon="4.25854">
        <ele>0.77</ele>
        <time>2019-05-30T13:20:03.000Z</time>
      </trkpt>
      <trkpt lat="43.61867" lon="4.25834">
        <ele>1</ele>
        <time>2019-05-30T13:20:08.000Z</time>
      </trkpt>
      <trkpt lat="43.61849" lon="4.2581">
        <ele>1</ele>
        <time>2019-05-30T13:20:13.000Z</time>
      </trkpt>
      <trkpt lat="43.61832" lon="4.25786">
        <ele>1</ele>
        <time>2019-05-30T13:20:18.000Z</time>
      </trkpt>
      <trkpt lat="43.61813" lon="4.2576">
        <ele>1</ele>
        <time>2019-05-30T13:20:23.000Z</time>
      </trkpt>
      <trkpt lat="43.61794" lon="4.25733">
        <ele>1</ele>
        <time>2019-05-30T13:20:28.000Z</time>
      </trkpt>
      <trkpt lat="43.61773" lon="4.25705">
        <ele>1</ele>
        <time>2019-05-30T13:20:33.000Z</time>
      </trkpt>
      <trkpt lat="43.61752" lon="4.25676">
        <ele>1</ele>
        <time>2019-05-30T13:20:38.000Z</time>
      </trkpt>
      <trkpt lat="43.61731" lon="4.25647">
        <ele>1</ele>
        <time>2019-05-30T13:20:43.000Z</time>
      </trkpt>
      <trkpt lat="43.61709" lon="4.25616">
        <ele>1</ele>
        <time>2019-05-30T13:20:48.000Z</time>
      </trkpt>
      <trkpt lat="43.61687" lon="4.25585">
        <ele>1</ele>
        <time>2019-05-30T13:20:53.000Z</time>
      </trkpt>
      <trkpt lat="43.61665" lon="4.25556">
        <ele>1</ele>
        <time>2019-05-30T13:20:58.000Z</time>
      </trkpt>
      <trkpt lat="43.61643" lon="4.25525">
        <ele>1</ele>
        <time>2019-05-30T13:21:03.000Z</time>
      </trkpt>
      <trkpt lat="43.6162" lon="4.25495">
        <ele>1</ele>
        <time>2019-05-30T13:21:08.000Z</time>
      </trkpt>
      <trkpt lat="43.61599" lon="4.25466">
        <ele>1</ele>
        <time>2019-05-30T13:21:13.000Z</time>
      </trkpt>
      <trkpt lat="43.61578" lon="4.25435">
        <ele>1</ele>
        <time>2019-05-30T13:21:18.000Z</time>
      </trkpt>
      <trkpt lat="43.61556" lon="4.25404">
        <ele>0.71</ele>
        <time>2019-05-30T13:21:23.000Z</time>
      </trkpt>
      <trkpt lat="43.61533" lon="4.25374">
        <ele>1</ele>
        <time>2019-05-30T13:21:28.000Z</time>
      </trkpt>
      <trkpt lat="43.61513" lon="4.25346">
        <ele>1</ele>
        <time>2019-05-30T13:21:33.000Z</time>
      </trkpt>
      <trkpt lat="43.61497" lon="4.25324">
        <ele>1</ele>
        <time>2019-05-30T13:21:38.000Z</time>
      </trkpt>
      <trkpt lat="43.61484" lon="4.25305">
        <ele>1</ele>
        <time>2019-05-30T13:21:43.000Z</time>
      </trkpt>
      <trkpt lat="43.61468" lon="4.25282">
        <ele>1</ele>
        <time>2019-05-30T13:21:48.000Z</time>
      </trkpt>
      <trkpt lat="43.61449" lon="4.25257">
        <ele>1.6</ele>
        <time>2019-05-30T13:21:53.000Z</time>
      </trkpt>
      <trkpt lat="43.61428" lon="4.25229">
        <ele>1.2</ele>
        <time>2019-05-30T13:21:58.000Z</time>
      </trkpt>
      <trkpt lat="43.61406" lon="4.252">
        <ele>1</ele>
        <time>2019-05-30T13:22:03.000Z</time>
      </trkpt>
      <trkpt lat="43.61384" lon="4.2517">
        <ele>1.9</ele>
        <time>2019-05-30T13:22:08.000Z</time>
      </trkpt>
      <trkpt lat="43.61363" lon="4.2514">
        <ele>2</ele>
        <time>2019-05-30T13:22:13.000Z</time>
      </trkpt>
      <trkpt lat="43.61341" lon="4.25111">
        <ele>1</ele>
        <time>2019-05-30T13:22:18.000Z</time>
      </trkpt>
      <trkpt lat="43.61319" lon="4.25081">
        <ele>1.5</ele>
        <time>2019-05-30T13:22:23.000Z</time>
      </trkpt>
      <trkpt lat="43.61297" lon="4.2505">
        <ele>1.9</ele>
        <time>2019-05-30T13:22:28.000Z</time>
      </trkpt>
      <trkpt lat="43.61276" lon="4.2502">
        <ele>0.71</ele>
        <time>2019-05-30T13:22:33.000Z</time>
      </trkpt>
      <trkpt lat="43.61254" lon="4.2499">
        <ele>1.4</ele>
        <time>2019-05-30T13:22:38.000Z</time>
      </trkpt>
      <trkpt lat="43.61231" lon="4.24958">
        <ele>1</ele>
        <time>2019-05-30T13:22:43.000Z</time>
      </trkpt>
      <trkpt lat="43.6121" lon="4.24927">
        <ele>1</ele>
        <time>2019-05-30T13:22:48.000Z</time>
      </trkpt>
      <trkpt lat="43.61188" lon="4.24901">
        <ele>1</ele>
        <time>2019-05-30T13:22:53.000Z</time>
      </trkpt>
      <trkpt lat="43.61168" lon="4.24872">
        <ele>1</ele>
        <time>2019-05-30T13:22:58.000Z</time>
      </trkpt>
      <trkpt lat="43.61146" lon="4.24842">
        <ele>1</ele>
        <time>2019-05-30T13:23:03.000Z</time>
      </trkpt>
      <trkpt lat="43.61125" lon="4.24814">
        <ele>1</ele>
        <time>2019-05-30T13:23:08.000Z</time>
      </trkpt>
      <trkpt lat="43.61103" lon="4.24784">
        <ele>0.77</ele>
        <time>2019-05-30T13:23:13.000Z</time>
      </trkpt>
      <trkpt lat="43.61082" lon="4.24753">
        <ele>0.82</ele>
        <time>2019-05-30T13:23:18.000Z</time>
      </trkpt>
      <trkpt lat="43.61059" lon="4.24722">
        <ele>1.76</ele>
        <time>2019-05-30T13:23:23.000Z</time>
      </trkpt>
      <trkpt lat="43.61037" lon="4.2469">
        <ele>0.54</ele>
        <time>2019-05-30T13:23:28.000Z</time>
      </trkpt>
      <trkpt lat="43.61014" lon="4.2466">
        <ele>0.53</ele>
        <time>2019-05-30T13:23:33.000Z</time>
      </trkpt>
      <trkpt lat="43.60991" lon="4.24629">
        <ele>1</ele>
        <time>2019-05-30T13:23:38.000Z</time>
      </trkpt>
      <trkpt lat="43.60969" lon="4.24597">
        <ele>1</ele>
        <time>2019-05-30T13:23:43.000Z</time>
      </trkpt>
      <trkpt lat="43.60945" lon="4.24565">
        <ele>0.77</ele>
        <time>2019-05-30T13:23:48.000Z</time>
      </trkpt>
      <trkpt lat="43.60922" lon="4.24533">
        <ele>0.77</ele>
        <time>2019-05-30T13:23:53.000Z</time>
      </trkpt>
      <trkpt lat="43.609" lon="4.24502">
        <ele>0.77</ele>
        <time>2019-05-30T13:23:58.000Z</time>
      </trkpt>
      <trkpt lat="43.60877" lon="4.24471">
        <ele>0.83</ele>
        <time>2019-05-30T13:24:03.000Z</time>
      </trkpt>
      <trkpt lat="43.60854" lon="4.24442">
        <ele>0.77</ele>
        <time>2019-05-30T13:24:08.000Z</time>
      </trkpt>
      <trkpt lat="43.60833" lon="4.24411">
        <ele>0.77</ele>
        <time>2019-05-30T13:24:13.000Z</time>
      </trkpt>
      <trkpt lat="43.60812" lon="4.2438">
        <ele>2</ele>
        <time>2019-05-30T13:24:18.000Z</time>
      </trkpt>
      <trkpt lat="43.60788" lon="4.24349">
        <ele>2</ele>
        <time>2019-05-30T13:24:23.000Z</time>
      </trkpt>
      <trkpt lat="43.60765" lon="4.24317">
        <ele>2</ele>
        <time>2019-05-30T13:24:28.000Z</time>
      </trkpt>
      <trkpt lat="43.60743" lon="4.24286">
        <ele>1</ele>
        <time>2019-05-30T13:24:33.000Z</time>
      </trkpt>
      <trkpt lat="43.60722" lon="4.24255">
        <ele>1</ele>
        <time>2019-05-30T13:24:38.000Z</time>
      </trkpt>
      <trkpt lat="43.60699" lon="4.24225">
        <ele>1</ele>
        <time>2019-05-30T13:24:43.000Z</time>
      </trkpt>
      <trkpt lat="43.60675" lon="4.24196">
        <ele>1</ele>
        <time>2019-05-30T13:24:48.000Z</time>
      </trkpt>
      <trkpt lat="43.60652" lon="4.24171">
        <ele>1</ele>
        <time>2019-05-30T13:24:53.000Z</time>
      </trkpt>
      <trkpt lat="43.60633" lon="4.2414">
        <ele>1</ele>
        <time>2019-05-30T13:24:58.000Z</time>
      </trkpt>
      <trkpt lat="43.60612" lon="4.24104">
        <ele>1</ele>
        <time>2019-05-30T13:25:03.000Z</time>
      </trkpt>
      <trkpt lat="43.60591" lon="4.24072">
        <ele>1</ele>
        <time>2019-05-30T13:25:08.000Z</time>
      </trkpt>
      <trkpt lat="43.60568" lon="4.24042">
        <ele>1</ele>
        <time>2019-05-30T13:25:13.000Z</time>
      </trkpt>
      <trkpt lat="43.60545" lon="4.24012">
        <ele>1</ele>
        <time>2019-05-30T13:25:18.000Z</time>
      </trkpt>
      <trkpt lat="43.60523" lon="4.23981">
        <ele>1</ele>
        <time>2019-05-30T13:25:23.000Z</time>
      </trkpt>
      <trkpt lat="43.60502" lon="4.2395">
        <ele>1</ele>
        <time>2019-05-30T13:25:28.000Z</time>
      </trkpt>
      <trkpt lat="43.6048" lon="4.23919">
        <ele>1</ele>
        <time>2019-05-30T13:25:33.000Z</time>
      </trkpt>
      <trkpt lat="43.60458" lon="4.23888">
        <ele>0.71</ele>
        <time>2019-05-30T13:25:38.000Z</time>
      </trkpt>
      <trkpt lat="43.60436" lon="4.2386">
        <ele>1</ele>
        <time>2019-05-30T13:25:43.000Z</time>
      </trkpt>
      <trkpt lat="43.60415" lon="4.2383">
        <ele>1</ele>
        <time>2019-05-30T13:25:48.000Z</time>
      </trkpt>
      <trkpt lat="43.60393" lon="4.23799">
        <ele>1</ele>
        <time>2019-05-30T13:25:53.000Z</time>
      </trkpt>
      <trkpt lat="43.6037" lon="4.23768">
        <ele>1</ele>
        <time>2019-05-30T13:25:58.000Z</time>
      </trkpt>
      <trkpt lat="43.60348" lon="4.23738">
        <ele>1</ele>
        <time>2019-05-30T13:26:03.000Z</time>
      </trkpt>
      <trkpt lat="43.60326" lon="4.23707">
        <ele>1</ele>
        <time>2019-05-30T13:26:08.000Z</time>
      </trkpt>
      <trkpt lat="43.60302" lon="4.23676">
        <ele>1</ele>
        <time>2019-05-30T13:26:13.000Z</time>
      </trkpt>
      <trkpt lat="43.6028" lon="4.23644">
        <ele>1</ele>
        <time>2019-05-30T13:26:18.000Z</time>
      </trkpt>
      <trkpt lat="43.60256" lon="4.23613">
        <ele>1</ele>
        <time>2019-05-30T13:26:23.000Z</time>
      </trkpt>
      <trkpt lat="43.60235" lon="4.23582">
        <ele>1</ele>
        <time>2019-05-30T13:26:28.000Z</time>
      </trkpt>
      <trkpt lat="43.60213" lon="4.23553">
        <ele>2</ele>
        <time>2019-05-30T13:26:33.000Z</time>
      </trkpt>
      <trkpt lat="43.60191" lon="4.23523">
        <ele>2</ele>
        <time>2019-05-30T13:26:38.000Z</time>
      </trkpt>
      <trkpt lat="43.60169" lon="4.23492">
        <ele>3</ele>
        <time>2019-05-30T13:26:43.000Z</time>
      </trkpt>
      <trkpt lat="43.60147" lon="4.23461">
        <ele>2</ele>
        <time>2019-05-30T13:26:48.000Z</time>
      </trkpt>
      <trkpt lat="43.60125" lon="4.2343">
        <ele>2</ele>
        <time>2019-05-30T13:26:53.000Z</time>
      </trkpt>
      <trkpt lat="43.60103" lon="4.234">
        <ele>1</ele>
        <time>2019-05-30T13:26:58.000Z</time>
      </trkpt>
      <trkpt lat="43.60081" lon="4.2337">
        <ele>1</ele>
        <time>2019-05-30T13:27:03.000Z</time>
      </trkpt>
      <trkpt lat="43.60058" lon="4.23339">
        <ele>1</ele>
        <time>2019-05-30T13:27:08.000Z</time>
      </trkpt>
      <trkpt lat="43.60036" lon="4.23308">
        <ele>1</ele>
        <time>2019-05-30T13:27:13.000Z</time>
      </trkpt>
      <trkpt lat="43.60013" lon="4.23278">
        <ele>1</ele>
        <time>2019-05-30T13:27:18.000Z</time>
      </trkpt>
      <trkpt lat="43.59991" lon="4.23246">
        <ele>1.1</ele>
        <time>2019-05-30T13:27:23.000Z</time>
      </trkpt>
      <trkpt lat="43.59968" lon="4.23216">
        <ele>1</ele>
        <time>2019-05-30T13:27:28.000Z</time>
      </trkpt>
      <trkpt lat="43.59947" lon="4.23187">
        <ele>1</ele>
        <time>2019-05-30T13:27:33.000Z</time>
      </trkpt>
      <trkpt lat="43.59926" lon="4.23157">
        <ele>1</ele>
        <time>2019-05-30T13:27:38.000Z</time>
      </trkpt>
      <trkpt lat="43.59904" lon="4.23128">
        <ele>1.2</ele>
        <time>2019-05-30T13:27:43.000Z</time>
      </trkpt>
      <trkpt lat="43.59883" lon="4.23099">
        <ele>1</ele>
        <time>2019-05-30T13:27:48.000Z</time>
      </trkpt>
      <trkpt lat="43.5986" lon="4.23069">
        <ele>1</ele>
        <time>2019-05-30T13:27:53.000Z</time>
      </trkpt>
      <trkpt lat="43.59838" lon="4.23039">
        <ele>1</ele>
        <time>2019-05-30T13:27:58.000Z</time>
      </trkpt>
      <trkpt lat="43.59816" lon="4.23008">
        <ele>2</ele>
        <time>2019-05-30T13:28:03.000Z</time>
      </trkpt>
      <trkpt lat="43.59793" lon="4.22978">
        <ele>2</ele>
        <time>2019-05-30T13:28:08.000Z</time>
      </trkpt>
      <trkpt lat="43.5977" lon="4.22945">
        <ele>2</ele>
        <time>2019-05-30T13:28:13.000Z</time>
      </trkpt>
      <trkpt lat="43.59747" lon="4.22914">
        <ele>1</ele>
        <time>2019-05-30T13:28:18.000Z</time>
      </trkpt>
      <trkpt lat="43.59725" lon="4.22882">
        <ele>1</ele>
        <time>2019-05-30T13:28:23.000Z</time>
      </trkpt>
      <trkpt lat="43.59702" lon="4.22851">
        <ele>1</ele>
        <time>2019-05-30T13:28:28.000Z</time>
      </trkpt>
      <trkpt lat="43.59678" lon="4.2282">
        <ele>1</ele>
        <time>2019-05-30T13:28:33.000Z</time>
      </trkpt>
      <trkpt lat="43.59656" lon="4.22789">
        <ele>1</ele>
        <time>2019-05-30T13:28:38.000Z</time>
      </trkpt>
      <trkpt lat="43.59632" lon="4.22757">
        <ele>1</ele>
        <time>2019-05-30T13:28:43.000Z</time>
      </trkpt>
      <trkpt lat="43.59608" lon="4.22725">
        <ele>1</ele>
        <time>2019-05-30T13:28:48.000Z</time>
      </trkpt>
      <trkpt lat="43.59586" lon="4.22693">
        <ele>1</ele>
        <time>2019-05-30T13:28:53.000Z</time>
      </trkpt>
      <trkpt lat="43.59562" lon="4.22661">
        <ele>1.8</ele>
        <time>2019-05-30T13:28:58.000Z</time>
      </trkpt>
      <trkpt lat="43.5954" lon="4.22629">
        <ele>1.8</ele>
        <time>2019-05-30T13:29:03.000Z</time>
      </trkpt>
      <trkpt lat="43.59516" lon="4.22597">
        <ele>1.5</ele>
        <time>2019-05-30T13:29:08.000Z</time>
      </trkpt>
      <trkpt lat="43.59489" lon="4.22572">
        <ele>1</ele>
        <time>2019-05-30T13:29:13.000Z</time>
      </trkpt>
      <trkpt lat="43.59468" lon="4.2254">
        <ele>1.6</ele>
        <time>2019-05-30T13:29:18.000Z</time>
      </trkpt>
      <trkpt lat="43.59448" lon="4.22508">
        <ele>2</ele>
        <time>2019-05-30T13:29:23.000Z</time>
      </trkpt>
      <trkpt lat="43.59428" lon="4.22478">
        <ele>2</ele>
        <time>2019-05-30T13:29:28.000Z</time>
      </trkpt>
      <trkpt lat="43.59406" lon="4.22448">
        <ele>1.7</ele>
        <time>2019-05-30T13:29:33.000Z</time>
      </trkpt>
      <trkpt lat="43.59385" lon="4.22419">
        <ele>1.9</ele>
        <time>2019-05-30T13:29:38.000Z</time>
      </trkpt>
      <trkpt lat="43.59363" lon="4.22388">
        <ele>2</ele>
        <time>2019-05-30T13:29:43.000Z</time>
      </trkpt>
      <trkpt lat="43.59341" lon="4.22356">
        <ele>1.9</ele>
        <time>2019-05-30T13:29:48.000Z</time>
      </trkpt>
      <trkpt lat="43.59319" lon="4.22326">
        <ele>1.6</ele>
        <time>2019-05-30T13:29:53.000Z</time>
      </trkpt>
      <trkpt lat="43.59295" lon="4.22295">
        <ele>2</ele>
        <time>2019-05-30T13:29:58.000Z</time>
      </trkpt>
      <trkpt lat="43.59272" lon="4.2226">
        <ele>1.9</ele>
        <time>2019-05-30T13:30:03.000Z</time>
      </trkpt>
      <trkpt lat="43.59249" lon="4.22228">
        <ele>1</ele>
        <time>2019-05-30T13:30:08.000Z</time>
      </trkpt>
      <trkpt lat="43.59225" lon="4.22196">
        <ele>1</ele>
        <time>2019-05-30T13:30:13.000Z</time>
      </trkpt>
      <trkpt lat="43.59202" lon="4.22163">
        <ele>1</ele>
        <time>2019-05-30T13:30:18.000Z</time>
      </trkpt>
      <trkpt lat="43.59178" lon="4.22131">
        <ele>1</ele>
        <time>2019-05-30T13:30:23.000Z</time>
      </trkpt>
      <trkpt lat="43.59155" lon="4.22099">
        <ele>1</ele>
        <time>2019-05-30T13:30:28.000Z</time>
      </trkpt>
      <trkpt lat="43.59134" lon="4.22065">
        <ele>1</ele>
        <time>2019-05-30T13:30:33.000Z</time>
      </trkpt>
      <trkpt lat="43.59115" lon="4.22031">
        <ele>1</ele>
        <time>2019-05-30T13:30:38.000Z</time>
      </trkpt>
      <trkpt lat="43.59098" lon="4.21996">
        <ele>1</ele>
        <time>2019-05-30T13:30:43.000Z</time>
      </trkpt>
      <trkpt lat="43.5908" lon="4.2196">
        <ele>1</ele>
        <time>2019-05-30T13:30:48.000Z</time>
      </trkpt>
      <trkpt lat="43.59065" lon="4.21923">
        <ele>1</ele>
        <time>2019-05-30T13:30:53.000Z</time>
      </trkpt>
      <trkpt lat="43.59049" lon="4.21885">
        <ele>2.9</ele>
        <time>2019-05-30T13:30:58.000Z</time>
      </trkpt>
      <trkpt lat="43.59033" lon="4.21844">
        <ele>1.8</ele>
        <time>2019-05-30T13:31:03.000Z</time>
      </trkpt>
      <trkpt lat="43.5902" lon="4.21805">
        <ele>2</ele>
        <time>2019-05-30T13:31:08.000Z</time>
      </trkpt>
      <trkpt lat="43.59009" lon="4.21772">
        <ele>1.4</ele>
        <time>2019-05-30T13:31:13.000Z</time>
      </trkpt>
      <trkpt lat="43.58997" lon="4.21737">
        <ele>2</ele>
        <time>2019-05-30T13:31:18.000Z</time>
      </trkpt>
      <trkpt lat="43.58985" lon="4.21698">
        <ele>1.5</ele>
        <time>2019-05-30T13:31:23.000Z</time>
      </trkpt>
      <trkpt lat="43.58972" lon="4.2166">
        <ele>1</ele>
        <time>2019-05-30T13:31:28.000Z</time>
      </trkpt>
      <trkpt lat="43.5896" lon="4.21621">
        <ele>1</ele>
        <time>2019-05-30T13:31:33.000Z</time>
      </trkpt>
      <trkpt lat="43.58947" lon="4.21582">
        <ele>1</ele>
        <time>2019-05-30T13:31:38.000Z</time>
      </trkpt>
      <trkpt lat="43.58935" lon="4.21542">
        <ele>1</ele>
        <time>2019-05-30T13:31:43.000Z</time>
      </trkpt>
      <trkpt lat="43.58922" lon="4.21503">
        <ele>1</ele>
        <time>2019-05-30T13:31:48.000Z</time>
      </trkpt>
      <trkpt lat="43.5891" lon="4.21463">
        <ele>1</ele>
        <time>2019-05-30T13:31:53.000Z</time>
      </trkpt>
      <trkpt lat="43.58897" lon="4.21425">
        <ele>1</ele>
        <time>2019-05-30T13:31:58.000Z</time>
      </trkpt>
      <trkpt lat="43.58883" lon="4.21386">
        <ele>1.9</ele>
        <time>2019-05-30T13:32:03.000Z</time>
      </trkpt>
      <trkpt lat="43.5887" lon="4.21347">
        <ele>1</ele>
        <time>2019-05-30T13:32:08.000Z</time>
      </trkpt>
      <trkpt lat="43.5886" lon="4.21306">
        <ele>1</ele>
        <time>2019-05-30T13:32:13.000Z</time>
      </trkpt>
      <trkpt lat="43.58849" lon="4.21266">
        <ele>1</ele>
        <time>2019-05-30T13:32:18.000Z</time>
      </trkpt>
      <trkpt lat="43.58839" lon="4.21226">
        <ele>1</ele>
        <time>2019-05-30T13:32:23.000Z</time>
      </trkpt>
      <trkpt lat="43.58832" lon="4.21187">
        <ele>2</ele>
        <time>2019-05-30T13:32:28.000Z</time>
      </trkpt>
      <trkpt lat="43.58827" lon="4.21148">
        <ele>2</ele>
        <time>2019-05-30T13:32:33.000Z</time>
      </trkpt>
      <trkpt lat="43.58821" lon="4.21108">
        <ele>2</ele>
        <time>2019-05-30T13:32:38.000Z</time>
      </trkpt>
      <trkpt lat="43.5882" lon="4.21079">
        <ele>2</ele>
        <time>2019-05-30T13:32:43.000Z</time>
      </trkpt>
      <trkpt lat="43.5882" lon="4.21064">
        <ele>2</ele>
        <time>2019-05-30T13:32:55.000Z</time>
      </trkpt>
      <trkpt lat="43.58816" lon="4.21048">
        <ele>2</ele>
        <time>2019-05-30T13:33:00.000Z</time>
      </trkpt>
      <trkpt lat="43.58834" lon="4.21041">
        <ele>2</ele>
        <time>2019-05-30T13:33:05.000Z</time>
      </trkpt>
      <trkpt lat="43.58855" lon="4.21038">
        <ele>2</ele>
        <time>2019-05-30T13:33:10.000Z</time>
      </trkpt>
      <trkpt lat="43.58876" lon="4.21044">
        <ele>2</ele>
        <time>2019-05-30T13:33:15.000Z</time>
      </trkpt>
      <trkpt lat="43.58892" lon="4.21063">
        <ele>1</ele>
        <time>2019-05-30T13:33:20.000Z</time>
      </trkpt>
      <trkpt lat="43.58913" lon="4.21059">
        <ele>1</ele>
        <time>2019-05-30T13:33:25.000Z</time>
      </trkpt>
      <trkpt lat="43.58933" lon="4.21051">
        <ele>1</ele>
        <time>2019-05-30T13:33:30.000Z</time>
      </trkpt>
      <trkpt lat="43.58951" lon="4.21042">
        <ele>1</ele>
        <time>2019-05-30T13:33:35.000Z</time>
      </trkpt>
      <trkpt lat="43.58976" lon="4.21035">
        <ele>1</ele>
        <time>2019-05-30T13:33:40.000Z</time>
      </trkpt>
      <trkpt lat="43.59" lon="4.21027">
        <ele>1</ele>
        <time>2019-05-30T13:33:45.000Z</time>
      </trkpt>
      <trkpt lat="43.59025" lon="4.21017">
        <ele>1</ele>
        <time>2019-05-30T13:33:50.000Z</time>
      </trkpt>
      <trkpt lat="43.59048" lon="4.21006">
        <ele>1</ele>
        <time>2019-05-30T13:33:55.000Z</time>
      </trkpt>
      <trkpt lat="43.59071" lon="4.20996">
        <ele>1</ele>
        <time>2019-05-30T13:34:00.000Z</time>
      </trkpt>
      <trkpt lat="43.59094" lon="4.20986">
        <ele>1</ele>
        <time>2019-05-30T13:34:05.000Z</time>
      </trkpt>
      <trkpt lat="43.59115" lon="4.20978">
        <ele>1</ele>
        <time>2019-05-30T13:34:10.000Z</time>
      </trkpt>
      <trkpt lat="43.59138" lon="4.20969">
        <ele>1</ele>
        <time>2019-05-30T13:34:15.000Z</time>
      </trkpt>
      <trkpt lat="43.59159" lon="4.2096">
        <ele>1</ele>
        <time>2019-05-30T13:34:20.000Z</time>
      </trkpt>
      <trkpt lat="43.59179" lon="4.20952">
        <ele>1</ele>
        <time>2019-05-30T13:34:25.000Z</time>
      </trkpt>
      <trkpt lat="43.59199" lon="4.20944">
        <ele>1</ele>
        <time>2019-05-30T13:34:30.000Z</time>
      </trkpt>
      <trkpt lat="43.59213" lon="4.20938">
        <ele>1</ele>
        <time>2019-05-30T13:34:35.000Z</time>
      </trkpt>
      <trkpt lat="43.59223" lon="4.20936">
        <ele>0.5</ele>
        <time>2019-05-30T13:34:40.000Z</time>
      </trkpt>
      <trkpt lat="43.59214" lon="4.2094">
        <ele>1</ele>
        <time>2019-05-30T13:35:13.000Z</time>
      </trkpt>
      <trkpt lat="43.59219" lon="4.20928">
        <ele>1</ele>
        <time>2019-05-30T13:43:21.000Z</time>
      </trkpt>
      <trkpt lat="43.59204" lon="4.20923">
        <ele>1</ele>
        <time>2019-05-30T13:43:26.000Z</time>
      </trkpt>
      <trkpt lat="43.59185" lon="4.2094">
        <ele>1</ele>
        <time>2019-05-30T13:43:31.000Z</time>
      </trkpt>
      <trkpt lat="43.59163" lon="4.20952">
        <ele>1</ele>
        <time>2019-05-30T13:43:36.000Z</time>
      </trkpt>
      <trkpt lat="43.59139" lon="4.20962">
        <ele>1</ele>
        <time>2019-05-30T13:43:41.000Z</time>
      </trkpt>
      <trkpt lat="43.59112" lon="4.20974">
        <ele>1</ele>
        <time>2019-05-30T13:43:46.000Z</time>
      </trkpt>
      <trkpt lat="43.59084" lon="4.20985">
        <ele>1</ele>
        <time>2019-05-30T13:43:51.000Z</time>
      </trkpt>
      <trkpt lat="43.59057" lon="4.20998">
        <ele>1</ele>
        <time>2019-05-30T13:43:56.000Z</time>
      </trkpt>
      <trkpt lat="43.59027" lon="4.2101">
        <ele>1</ele>
        <time>2019-05-30T13:44:01.000Z</time>
      </trkpt>
      <trkpt lat="43.58996" lon="4.21022">
        <ele>1</ele>
        <time>2019-05-30T13:44:06.000Z</time>
      </trkpt>
      <trkpt lat="43.58964" lon="4.2103">
        <ele>1</ele>
        <time>2019-05-30T13:44:11.000Z</time>
      </trkpt>
      <trkpt lat="43.58934" lon="4.2103">
        <ele>1</ele>
        <time>2019-05-30T13:44:16.000Z</time>
      </trkpt>
      <trkpt lat="43.5891" lon="4.21023">
        <ele>2</ele>
        <time>2019-05-30T13:44:21.000Z</time>
      </trkpt>
      <trkpt lat="43.5889" lon="4.21015">
        <ele>2.45</ele>
        <time>2019-05-30T13:44:26.000Z</time>
      </trkpt>
      <trkpt lat="43.58875" lon="4.21009">
        <ele>3.75</ele>
        <time>2019-05-30T13:44:31.000Z</time>
      </trkpt>
      <trkpt lat="43.58861" lon="4.21005">
        <ele>5</ele>
        <time>2019-05-30T13:44:36.000Z</time>
      </trkpt>
      <trkpt lat="43.58848" lon="4.21002">
        <ele>5.52</ele>
        <time>2019-05-30T13:44:41.000Z</time>
      </trkpt>
      <trkpt lat="43.58835" lon="4.21001">
        <ele>6.75</ele>
        <time>2019-05-30T13:44:46.000Z</time>
      </trkpt>
      <trkpt lat="43.5882" lon="4.21001">
        <ele>7.52</ele>
        <time>2019-05-30T13:44:51.000Z</time>
      </trkpt>
      <trkpt lat="43.58805" lon="4.21002">
        <ele>7.75</ele>
        <time>2019-05-30T13:44:56.000Z</time>
      </trkpt>
      <trkpt lat="43.58793" lon="4.21002">
        <ele>7.71</ele>
        <time>2019-05-30T13:45:01.000Z</time>
      </trkpt>
      <trkpt lat="43.58778" lon="4.21003">
        <ele>8.76</ele>
        <time>2019-05-30T13:45:06.000Z</time>
      </trkpt>
      <trkpt lat="43.5876" lon="4.21003">
        <ele>8.77</ele>
        <time>2019-05-30T13:45:11.000Z</time>
      </trkpt>
      <trkpt lat="43.58741" lon="4.21003">
        <ele>7.83</ele>
        <time>2019-05-30T13:45:16.000Z</time>
      </trkpt>
      <trkpt lat="43.5872" lon="4.21004">
        <ele>6.77</ele>
        <time>2019-05-30T13:45:21.000Z</time>
      </trkpt>
      <trkpt lat="43.58694" lon="4.21002">
        <ele>6.02</ele>
        <time>2019-05-30T13:45:26.000Z</time>
      </trkpt>
      <trkpt lat="43.58667" lon="4.20985">
        <ele>3.84</ele>
        <time>2019-05-30T13:45:31.000Z</time>
      </trkpt>
      <trkpt lat="43.58641" lon="4.20961">
        <ele>2.02</ele>
        <time>2019-05-30T13:45:36.000Z</time>
      </trkpt>
      <trkpt lat="43.58611" lon="4.20957">
        <ele>0.02</ele>
        <time>2019-05-30T13:45:41.000Z</time>
      </trkpt>
      <trkpt lat="43.58597" lon="4.20956">
        <ele>7</ele>
        <time>2019-05-30T13:45:46.000Z</time>
      </trkpt>
      <trkpt lat="43.58602" lon="4.20943">
        <ele>7</ele>
        <time>2019-05-30T13:45:52.000Z</time>
      </trkpt>
      <trkpt lat="43.58619" lon="4.20947">
        <ele>7</ele>
        <time>2019-05-30T13:45:57.000Z</time>
      </trkpt>
      <trkpt lat="43.58638" lon="4.20949">
        <ele>7</ele>
        <time>2019-05-30T13:46:02.000Z</time>
      </trkpt>
      <trkpt lat="43.58658" lon="4.20952">
        <ele>7</ele>
        <time>2019-05-30T13:46:07.000Z</time>
      </trkpt>
      <trkpt lat="43.58681" lon="4.20956">
        <ele>5</ele>
        <time>2019-05-30T13:46:12.000Z</time>
      </trkpt>
      <trkpt lat="43.58703" lon="4.20964">
        <ele>5</ele>
        <time>2019-05-30T13:46:17.000Z</time>
      </trkpt>
      <trkpt lat="43.58724" lon="4.20975">
        <ele>5</ele>
        <time>2019-05-30T13:46:22.000Z</time>
      </trkpt>
      <trkpt lat="43.5874" lon="4.20994">
        <ele>5</ele>
        <time>2019-05-30T13:46:27.000Z</time>
      </trkpt>
      <trkpt lat="43.58738" lon="4.21023">
        <ele>2</ele>
        <time>2019-05-30T13:46:32.000Z</time>
      </trkpt>
      <trkpt lat="43.58731" lon="4.21036">
        <ele>0.56</ele>
        <time>2019-05-30T13:46:37.000Z</time>
      </trkpt>
      <trkpt lat="43.58723" lon="4.2106">
        <ele>2</ele>
        <time>2019-05-30T13:46:42.000Z</time>
      </trkpt>
      <trkpt lat="43.58724" lon="4.21093">
        <ele>2</ele>
        <time>2019-05-30T13:46:47.000Z</time>
      </trkpt>
      <trkpt lat="43.58727" lon="4.21126">
        <ele>2</ele>
        <time>2019-05-30T13:46:52.000Z</time>
      </trkpt>
      <trkpt lat="43.5873" lon="4.21161">
        <ele>2</ele>
        <time>2019-05-30T13:46:57.000Z</time>
      </trkpt>
      <trkpt lat="43.58735" lon="4.21195">
        <ele>2</ele>
        <time>2019-05-30T13:47:02.000Z</time>
      </trkpt>
      <trkpt lat="43.58741" lon="4.2123">
        <ele>1</ele>
        <time>2019-05-30T13:47:07.000Z</time>
      </trkpt>
      <trkpt lat="43.58746" lon="4.21265">
        <ele>1</ele>
        <time>2019-05-30T13:47:12.000Z</time>
      </trkpt>
      <trkpt lat="43.58756" lon="4.213">
        <ele>1</ele>
        <time>2019-05-30T13:47:17.000Z</time>
      </trkpt>
      <trkpt lat="43.58764" lon="4.21334">
        <ele>1</ele>
        <time>2019-05-30T13:47:22.000Z</time>
      </trkpt>
      <trkpt lat="43.58772" lon="4.21367">
        <ele>2</ele>
        <time>2019-05-30T13:47:27.000Z</time>
      </trkpt>
      <trkpt lat="43.58782" lon="4.21399">
        <ele>2</ele>
        <time>2019-05-30T13:47:32.000Z</time>
      </trkpt>
      <trkpt lat="43.58792" lon="4.2143">
        <ele>2</ele>
        <time>2019-05-30T13:47:37.000Z</time>
      </trkpt>
      <trkpt lat="43.58802" lon="4.21462">
        <ele>2</ele>
        <time>2019-05-30T13:47:42.000Z</time>
      </trkpt>
      <trkpt lat="43.58813" lon="4.21494">
        <ele>2</ele>
        <time>2019-05-30T13:47:47.000Z</time>
      </trkpt>
      <trkpt lat="43.58822" lon="4.21525">
        <ele>2</ele>
        <time>2019-05-30T13:47:52.000Z</time>
      </trkpt>
      <trkpt lat="43.58835" lon="4.21557">
        <ele>1</ele>
        <time>2019-05-30T13:47:57.000Z</time>
      </trkpt>
      <trkpt lat="43.58845" lon="4.21587">
        <ele>1</ele>
        <time>2019-05-30T13:48:02.000Z</time>
      </trkpt>
      <trkpt lat="43.58856" lon="4.21618">
        <ele>1</ele>
        <time>2019-05-30T13:48:07.000Z</time>
      </trkpt>
      <trkpt lat="43.58867" lon="4.21652">
        <ele>1</ele>
        <time>2019-05-30T13:48:12.000Z</time>
      </trkpt>
      <trkpt lat="43.58868" lon="4.21684">
        <ele>1</ele>
        <time>2019-05-30T13:48:17.000Z</time>
      </trkpt>
      <trkpt lat="43.58846" lon="4.21681">
        <ele>1</ele>
        <time>2019-05-30T13:48:22.000Z</time>
      </trkpt>
      <trkpt lat="43.58826" lon="4.21657">
        <ele>1</ele>
        <time>2019-05-30T13:48:27.000Z</time>
      </trkpt>
      <trkpt lat="43.58807" lon="4.2163">
        <ele>2</ele>
        <time>2019-05-30T13:48:32.000Z</time>
      </trkpt>
      <trkpt lat="43.58788" lon="4.21603">
        <ele>2</ele>
        <time>2019-05-30T13:48:37.000Z</time>
      </trkpt>
      <trkpt lat="43.58761" lon="4.21586">
        <ele>2</ele>
        <time>2019-05-30T13:48:42.000Z</time>
      </trkpt>
      <trkpt lat="43.58748" lon="4.21554">
        <ele>3</ele>
        <time>2019-05-30T13:48:47.000Z</time>
      </trkpt>
      <trkpt lat="43.58732" lon="4.21526">
        <ele>3</ele>
        <time>2019-05-30T13:48:52.000Z</time>
      </trkpt>
      <trkpt lat="43.58715" lon="4.21499">
        <ele>3</ele>
        <time>2019-05-30T13:48:57.000Z</time>
      </trkpt>
      <trkpt lat="43.58694" lon="4.21471">
        <ele>3</ele>
        <time>2019-05-30T13:49:02.000Z</time>
      </trkpt>
      <trkpt lat="43.58673" lon="4.21443">
        <ele>2</ele>
        <time>2019-05-30T13:49:07.000Z</time>
      </trkpt>
      <trkpt lat="43.58653" lon="4.21415">
        <ele>1</ele>
        <time>2019-05-30T13:49:12.000Z</time>
      </trkpt>
      <trkpt lat="43.58631" lon="4.21387">
        <ele>2</ele>
        <time>2019-05-30T13:49:17.000Z</time>
      </trkpt>
      <trkpt lat="43.58611" lon="4.21361">
        <ele>2</ele>
        <time>2019-05-30T13:49:22.000Z</time>
      </trkpt>
      <trkpt lat="43.58593" lon="4.21332">
        <ele>1</ele>
        <time>2019-05-30T13:49:27.000Z</time>
      </trkpt>
      <trkpt lat="43.58573" lon="4.21303">
        <ele>1</ele>
        <time>2019-05-30T13:49:32.000Z</time>
      </trkpt>
      <trkpt lat="43.58551" lon="4.21275">
        <ele>1</ele>
        <time>2019-05-30T13:49:37.000Z</time>
      </trkpt>
      <trkpt lat="43.58531" lon="4.21246">
        <ele>2</ele>
        <time>2019-05-30T13:49:42.000Z</time>
      </trkpt>
      <trkpt lat="43.5851" lon="4.21216">
        <ele>2</ele>
        <time>2019-05-30T13:49:47.000Z</time>
      </trkpt>
      <trkpt lat="43.58488" lon="4.21185">
        <ele>3</ele>
        <time>2019-05-30T13:49:52.000Z</time>
      </trkpt>
      <trkpt lat="43.58467" lon="4.21156">
        <ele>3</ele>
        <time>2019-05-30T13:49:57.000Z</time>
      </trkpt>
      <trkpt lat="43.58444" lon="4.21127">
        <ele>3</ele>
        <time>2019-05-30T13:50:02.000Z</time>
      </trkpt>
      <trkpt lat="43.58422" lon="4.21097">
        <ele>4</ele>
        <time>2019-05-30T13:50:07.000Z</time>
      </trkpt>
      <trkpt lat="43.584" lon="4.21067">
        <ele>4</ele>
        <time>2019-05-30T13:50:12.000Z</time>
      </trkpt>
      <trkpt lat="43.58377" lon="4.21035">
        <ele>4</ele>
        <time>2019-05-30T13:50:17.000Z</time>
      </trkpt>
      <trkpt lat="43.58357" lon="4.21004">
        <ele>3</ele>
        <time>2019-05-30T13:50:22.000Z</time>
      </trkpt>
      <trkpt lat="43.58334" lon="4.20974">
        <ele>3</ele>
        <time>2019-05-30T13:50:27.000Z</time>
      </trkpt>
      <trkpt lat="43.58312" lon="4.20943">
        <ele>3</ele>
        <time>2019-05-30T13:50:32.000Z</time>
      </trkpt>
      <trkpt lat="43.5829" lon="4.20912">
        <ele>3</ele>
        <time>2019-05-30T13:50:37.000Z</time>
      </trkpt>
      <trkpt lat="43.58268" lon="4.20883">
        <ele>3</ele>
        <time>2019-05-30T13:50:42.000Z</time>
      </trkpt>
      <trkpt lat="43.58247" lon="4.20853">
        <ele>3</ele>
        <time>2019-05-30T13:50:47.000Z</time>
      </trkpt>
      <trkpt lat="43.58226" lon="4.20823">
        <ele>3</ele>
        <time>2019-05-30T13:50:52.000Z</time>
      </trkpt>
      <trkpt lat="43.58204" lon="4.20792">
        <ele>2</ele>
        <time>2019-05-30T13:50:57.000Z</time>
      </trkpt>
      <trkpt lat="43.5818" lon="4.20761">
        <ele>2</ele>
        <time>2019-05-30T13:51:02.000Z</time>
      </trkpt>
      <trkpt lat="43.58156" lon="4.20729">
        <ele>2</ele>
        <time>2019-05-30T13:51:07.000Z</time>
      </trkpt>
      <trkpt lat="43.58133" lon="4.20698">
        <ele>2</ele>
        <time>2019-05-30T13:51:12.000Z</time>
      </trkpt>
      <trkpt lat="43.58109" lon="4.20666">
        <ele>2</ele>
        <time>2019-05-30T13:51:17.000Z</time>
      </trkpt>
      <trkpt lat="43.58085" lon="4.20634">
        <ele>2</ele>
        <time>2019-05-30T13:51:22.000Z</time>
      </trkpt>
      <trkpt lat="43.58061" lon="4.20602">
        <ele>2</ele>
        <time>2019-05-30T13:51:27.000Z</time>
      </trkpt>
      <trkpt lat="43.58038" lon="4.2057">
        <ele>2</ele>
        <time>2019-05-30T13:51:32.000Z</time>
      </trkpt>
      <trkpt lat="43.58017" lon="4.20539">
        <ele>2</ele>
        <time>2019-05-30T13:51:37.000Z</time>
      </trkpt>
      <trkpt lat="43.57997" lon="4.20509">
        <ele>1</ele>
        <time>2019-05-30T13:51:42.000Z</time>
      </trkpt>
      <trkpt lat="43.57977" lon="4.20478">
        <ele>2</ele>
        <time>2019-05-30T13:51:47.000Z</time>
      </trkpt>
      <trkpt lat="43.57957" lon="4.20446">
        <ele>2</ele>
        <time>2019-05-30T13:51:52.000Z</time>
      </trkpt>
      <trkpt lat="43.57937" lon="4.20416">
        <ele>3</ele>
        <time>2019-05-30T13:51:57.000Z</time>
      </trkpt>
      <trkpt lat="43.57915" lon="4.20385">
        <ele>3</ele>
        <time>2019-05-30T13:52:02.000Z</time>
      </trkpt>
      <trkpt lat="43.57891" lon="4.20358">
        <ele>3</ele>
        <time>2019-05-30T13:52:07.000Z</time>
      </trkpt>
      <trkpt lat="43.57867" lon="4.20329">
        <ele>3</ele>
        <time>2019-05-30T13:52:12.000Z</time>
      </trkpt>
      <trkpt lat="43.57845" lon="4.20297">
        <ele>3</ele>
        <time>2019-05-30T13:52:17.000Z</time>
      </trkpt>
      <trkpt lat="43.57823" lon="4.20264">
        <ele>3</ele>
        <time>2019-05-30T13:52:22.000Z</time>
      </trkpt>
      <trkpt lat="43.57801" lon="4.20234">
        <ele>2</ele>
        <time>2019-05-30T13:52:27.000Z</time>
      </trkpt>
      <trkpt lat="43.57778" lon="4.20205">
        <ele>2</ele>
        <time>2019-05-30T13:52:32.000Z</time>
      </trkpt>
      <trkpt lat="43.57755" lon="4.20176">
        <ele>2</ele>
        <time>2019-05-30T13:52:37.000Z</time>
      </trkpt>
      <trkpt lat="43.57734" lon="4.20143">
        <ele>2</ele>
        <time>2019-05-30T13:52:42.000Z</time>
      </trkpt>
      <trkpt lat="43.57711" lon="4.20109">
        <ele>2</ele>
        <time>2019-05-30T13:52:47.000Z</time>
      </trkpt>
      <trkpt lat="43.57688" lon="4.20077">
        <ele>1</ele>
        <time>2019-05-30T13:52:52.000Z</time>
      </trkpt>
      <trkpt lat="43.57666" lon="4.20047">
        <ele>1</ele>
        <time>2019-05-30T13:52:57.000Z</time>
      </trkpt>
      <trkpt lat="43.57643" lon="4.20015">
        <ele>2</ele>
        <time>2019-05-30T13:53:02.000Z</time>
      </trkpt>
      <trkpt lat="43.57621" lon="4.19983">
        <ele>1</ele>
        <time>2019-05-30T13:53:07.000Z</time>
      </trkpt>
      <trkpt lat="43.576" lon="4.19951">
        <ele>1</ele>
        <time>2019-05-30T13:53:12.000Z</time>
      </trkpt>
      <trkpt lat="43.57583" lon="4.19915">
        <ele>1</ele>
        <time>2019-05-30T13:53:17.000Z</time>
      </trkpt>
      <trkpt lat="43.5756" lon="4.19883">
        <ele>1</ele>
        <time>2019-05-30T13:53:22.000Z</time>
      </trkpt>
      <trkpt lat="43.57535" lon="4.19851">
        <ele>2</ele>
        <time>2019-05-30T13:53:27.000Z</time>
      </trkpt>
      <trkpt lat="43.57506" lon="4.19824">
        <ele>1</ele>
        <time>2019-05-30T13:53:32.000Z</time>
      </trkpt>
      <trkpt lat="43.57481" lon="4.19796">
        <ele>1</ele>
        <time>2019-05-30T13:53:37.000Z</time>
      </trkpt>
      <trkpt lat="43.57458" lon="4.19763">
        <ele>1</ele>
        <time>2019-05-30T13:53:42.000Z</time>
      </trkpt>
      <trkpt lat="43.57436" lon="4.19731">
        <ele>1</ele>
        <time>2019-05-30T13:53:47.000Z</time>
      </trkpt>
      <trkpt lat="43.57413" lon="4.19699">
        <ele>1</ele>
        <time>2019-05-30T13:53:52.000Z</time>
      </trkpt>
      <trkpt lat="43.57391" lon="4.19669">
        <ele>1</ele>
        <time>2019-05-30T13:53:57.000Z</time>
      </trkpt>
      <trkpt lat="43.57366" lon="4.1964">
        <ele>1</ele>
        <time>2019-05-30T13:54:02.000Z</time>
      </trkpt>
      <trkpt lat="43.57344" lon="4.19609">
        <ele>1</ele>
        <time>2019-05-30T13:54:07.000Z</time>
      </trkpt>
      <trkpt lat="43.57321" lon="4.19584">
        <ele>1</ele>
        <time>2019-05-30T13:54:12.000Z</time>
      </trkpt>
      <trkpt lat="43.57306" lon="4.19557">
        <ele>1</ele>
        <time>2019-05-30T13:54:17.000Z</time>
      </trkpt>
      <trkpt lat="43.57291" lon="4.1953">
        <ele>1</ele>
        <time>2019-05-30T13:54:22.000Z</time>
      </trkpt>
      <trkpt lat="43.57274" lon="4.19501">
        <ele>2</ele>
        <time>2019-05-30T13:54:27.000Z</time>
      </trkpt>
      <trkpt lat="43.57254" lon="4.19474">
        <ele>2</ele>
        <time>2019-05-30T13:54:32.000Z</time>
      </trkpt>
      <trkpt lat="43.5723" lon="4.19452">
        <ele>2</ele>
        <time>2019-05-30T13:54:37.000Z</time>
      </trkpt>
      <trkpt lat="43.57209" lon="4.19427">
        <ele>2</ele>
        <time>2019-05-30T13:54:42.000Z</time>
      </trkpt>
      <trkpt lat="43.57198" lon="4.19398">
        <ele>2</ele>
        <time>2019-05-30T13:54:47.000Z</time>
      </trkpt>
      <trkpt lat="43.57184" lon="4.19372">
        <ele>2</ele>
        <time>2019-05-30T13:54:52.000Z</time>
      </trkpt>
      <trkpt lat="43.57162" lon="4.19347">
        <ele>2</ele>
        <time>2019-05-30T13:54:57.000Z</time>
      </trkpt>
      <trkpt lat="43.57144" lon="4.19318">
        <ele>2</ele>
        <time>2019-05-30T13:55:02.000Z</time>
      </trkpt>
      <trkpt lat="43.57123" lon="4.19291">
        <ele>2</ele>
        <time>2019-05-30T13:55:07.000Z</time>
      </trkpt>
      <trkpt lat="43.57103" lon="4.19265">
        <ele>2</ele>
        <time>2019-05-30T13:55:12.000Z</time>
      </trkpt>
      <trkpt lat="43.57083" lon="4.1924">
        <ele>2</ele>
        <time>2019-05-30T13:55:17.000Z</time>
      </trkpt>
      <trkpt lat="43.57068" lon="4.19217">
        <ele>2</ele>
        <time>2019-05-30T13:55:22.000Z</time>
      </trkpt>
      <trkpt lat="43.57053" lon="4.19203">
        <ele>2</ele>
        <time>2019-05-30T13:55:27.000Z</time>
      </trkpt>
      <trkpt lat="43.57044" lon="4.19201">
        <ele>0.76</ele>
        <time>2019-05-30T13:55:32.000Z</time>
      </trkpt>
      <trkpt lat="43.57034" lon="4.19191">
        <ele>1</ele>
        <time>2019-05-30T13:55:37.000Z</time>
      </trkpt>
      <trkpt lat="43.57022" lon="4.19185">
        <ele>1</ele>
        <time>2019-05-30T13:55:42.000Z</time>
      </trkpt>
      <trkpt lat="43.57011" lon="4.19179">
        <ele>1</ele>
        <time>2019-05-30T13:55:47.000Z</time>
      </trkpt>
      <trkpt lat="43.57011" lon="4.19164">
        <ele>1</ele>
        <time>2019-05-30T13:55:52.000Z</time>
      </trkpt>
      <trkpt lat="43.57025" lon="4.19145">
        <ele>0.71</ele>
        <time>2019-05-30T13:55:57.000Z</time>
      </trkpt>
      <trkpt lat="43.57038" lon="4.19128">
        <ele>0.54</ele>
        <time>2019-05-30T13:56:02.000Z</time>
      </trkpt>
      <trkpt lat="43.57046" lon="4.19116">
        <ele>1.8</ele>
        <time>2019-05-30T13:56:07.000Z</time>
      </trkpt>
      <trkpt lat="43.57057" lon="4.19117">
        <ele>1.76</ele>
        <time>2019-05-30T13:56:16.000Z</time>
      </trkpt>
      <trkpt lat="43.57058" lon="4.19131">
        <ele>3.52</ele>
        <time>2019-05-30T13:56:21.000Z</time>
      </trkpt>
      <trkpt lat="43.57045" lon="4.19137">
        <ele>3.52</ele>
        <time>2019-05-30T13:56:26.000Z</time>
      </trkpt>
      <trkpt lat="43.5703" lon="4.19148">
        <ele>4.71</ele>
        <time>2019-05-30T13:56:31.000Z</time>
      </trkpt>
      <trkpt lat="43.57018" lon="4.19166">
        <ele>5.69</ele>
        <time>2019-05-30T13:56:36.000Z</time>
      </trkpt>
      <trkpt lat="43.57005" lon="4.19185">
        <ele>5.77</ele>
        <time>2019-05-30T13:56:41.000Z</time>
      </trkpt>
      <trkpt lat="43.56987" lon="4.19207">
        <ele>5.77</ele>
        <time>2019-05-30T13:56:46.000Z</time>
      </trkpt>
      <trkpt lat="43.56958" lon="4.19204">
        <ele>3.78</ele>
        <time>2019-05-30T13:56:51.000Z</time>
      </trkpt>
      <trkpt lat="43.56926" lon="4.19183">
        <ele>2.78</ele>
        <time>2019-05-30T13:56:56.000Z</time>
      </trkpt>
      <trkpt lat="43.569" lon="4.19163">
        <ele>2.58</ele>
        <time>2019-05-30T13:57:01.000Z</time>
      </trkpt>
      <trkpt lat="43.56882" lon="4.19147">
        <ele>2.58</ele>
        <time>2019-05-30T13:57:06.000Z</time>
      </trkpt>
      <trkpt lat="43.56873" lon="4.19132">
        <ele>2.71</ele>
        <time>2019-05-30T13:57:11.000Z</time>
      </trkpt>
      <trkpt lat="43.5686" lon="4.19122">
        <ele>2.77</ele>
        <time>2019-05-30T13:57:16.000Z</time>
      </trkpt>
      <trkpt lat="43.56854" lon="4.19132">
        <ele>2.01</ele>
        <time>2019-05-30T13:58:36.000Z</time>
      </trkpt>
      <trkpt lat="43.56845" lon="4.1912">
        <ele>0.79</ele>
        <time>2019-05-30T13:58:41.000Z</time>
      </trkpt>
      <trkpt lat="43.5684" lon="4.19109">
        <ele>2.52</ele>
        <time>2019-05-30T13:59:52.000Z</time>
      </trkpt>
      <trkpt lat="43.56826" lon="4.19112">
        <ele>2.01</ele>
        <time>2019-05-30T13:59:57.000Z</time>
      </trkpt>
      <trkpt lat="43.56817" lon="4.19106">
        <ele>2.82</ele>
        <time>2019-05-30T14:00:03.000Z</time>
      </trkpt>
      <trkpt lat="43.5681" lon="4.19097">
        <ele>0.09</ele>
        <time>2019-05-30T14:00:14.000Z</time>
      </trkpt>
      <trkpt lat="43.56801" lon="4.19092">
        <ele>0.58</ele>
        <time>2019-05-30T14:00:20.000Z</time>
      </trkpt>
      <trkpt lat="43.56793" lon="4.19088">
        <ele>2.58</ele>
        <time>2019-05-30T14:00:57.000Z</time>
      </trkpt>
      <trkpt lat="43.56784" lon="4.19095">
        <ele>2.72</ele>
        <time>2019-05-30T14:01:08.000Z</time>
      </trkpt>
      <trkpt lat="43.5678" lon="4.19107">
        <ele>4.75</ele>
        <time>2019-05-30T14:01:14.000Z</time>
      </trkpt>
      <trkpt lat="43.56773" lon="4.19117">
        <ele>3.79</ele>
        <time>2019-05-30T14:01:23.000Z</time>
      </trkpt>
      <trkpt lat="43.56768" lon="4.19127">
        <ele>6.51</ele>
        <time>2019-05-30T14:01:33.000Z</time>
      </trkpt>
      <trkpt lat="43.56758" lon="4.19133">
        <ele>8.71</ele>
        <time>2019-05-30T14:01:42.000Z</time>
      </trkpt>
      <trkpt lat="43.56748" lon="4.19126">
        <ele>9.76</ele>
        <time>2019-05-30T14:01:47.000Z</time>
      </trkpt>
      <trkpt lat="43.5674" lon="4.19119">
        <ele>10.74</ele>
        <time>2019-05-30T14:01:53.000Z</time>
      </trkpt>
      <trkpt lat="43.56732" lon="4.19111">
        <ele>5.34</ele>
        <time>2019-05-30T14:02:00.000Z</time>
      </trkpt>
      <trkpt lat="43.56723" lon="4.19106">
        <ele>2.79</ele>
        <time>2019-05-30T14:02:08.000Z</time>
      </trkpt>
      <trkpt lat="43.56714" lon="4.19097">
        <ele>2.77</ele>
        <time>2019-05-30T14:02:13.000Z</time>
      </trkpt>
      <trkpt lat="43.56703" lon="4.1909">
        <ele>1.02</ele>
        <time>2019-05-30T14:02:18.000Z</time>
      </trkpt>
      <trkpt lat="43.56693" lon="4.19085">
        <ele>1.71</ele>
        <time>2019-05-30T14:02:23.000Z</time>
      </trkpt>
      <trkpt lat="43.56683" lon="4.19079">
        <ele>2.76</ele>
        <time>2019-05-30T14:02:28.000Z</time>
      </trkpt>
      <trkpt lat="43.56672" lon="4.19072">
        <ele>2.02</ele>
        <time>2019-05-30T14:02:33.000Z</time>
      </trkpt>
      <trkpt lat="43.56664" lon="4.19063">
        <ele>0.09</ele>
        <time>2019-05-30T14:02:39.000Z</time>
      </trkpt>
      <trkpt lat="43.56655" lon="4.19056">
        <ele>7</ele>
        <time>2019-05-30T14:02:44.000Z</time>
      </trkpt>
      <trkpt lat="43.56645" lon="4.19048">
        <ele>0.52</ele>
        <time>2019-05-30T14:02:49.000Z</time>
      </trkpt>
      <trkpt lat="43.56638" lon="4.1904">
        <ele>0.04</ele>
        <time>2019-05-30T14:02:55.000Z</time>
      </trkpt>
      <trkpt lat="43.5663" lon="4.19032">
        <ele>2.77</ele>
        <time>2019-05-30T14:03:03.000Z</time>
      </trkpt>
      <trkpt lat="43.56619" lon="4.19022">
        <ele>3.58</ele>
        <time>2019-05-30T14:03:08.000Z</time>
      </trkpt>
      <trkpt lat="43.56607" lon="4.19013">
        <ele>3.57</ele>
        <time>2019-05-30T14:03:13.000Z</time>
      </trkpt>
      <trkpt lat="43.56597" lon="4.19002">
        <ele>1.15</ele>
        <time>2019-05-30T14:03:18.000Z</time>
      </trkpt>
      <trkpt lat="43.56588" lon="4.18991">
        <ele>0.77</ele>
        <time>2019-05-30T14:03:23.000Z</time>
      </trkpt>
      <trkpt lat="43.56575" lon="4.18985">
        <ele>1.77</ele>
        <time>2019-05-30T14:03:28.000Z</time>
      </trkpt>
      <trkpt lat="43.56562" lon="4.1898">
        <ele>3.75</ele>
        <time>2019-05-30T14:03:33.000Z</time>
      </trkpt>
      <trkpt lat="43.56546" lon="4.18978">
        <ele>3.73</ele>
        <time>2019-05-30T14:03:38.000Z</time>
      </trkpt>
      <trkpt lat="43.56538" lon="4.18971">
        <ele>4.04</ele>
        <time>2019-05-30T14:03:45.000Z</time>
      </trkpt>
      <trkpt lat="43.56532" lon="4.18961">
        <ele>2.82</ele>
        <time>2019-05-30T14:03:55.000Z</time>
      </trkpt>
      <trkpt lat="43.56523" lon="4.18953">
        <ele>1.84</ele>
        <time>2019-05-30T14:04:22.000Z</time>
      </trkpt>
      <trkpt lat="43.56516" lon="4.18943">
        <ele>1.77</ele>
        <time>2019-05-30T14:04:27.000Z</time>
      </trkpt>
      <trkpt lat="43.56507" lon="4.18934">
        <ele>0.56</ele>
        <time>2019-05-30T14:04:34.000Z</time>
      </trkpt>
      <trkpt lat="43.56512" lon="4.18946">
        <ele>3</ele>
        <time>2019-05-30T14:05:12.000Z</time>
      </trkpt>
      <trkpt lat="43.56521" lon="4.18955">
        <ele>3</ele>
        <time>2019-05-30T14:05:17.000Z</time>
      </trkpt>
      <trkpt lat="43.56531" lon="4.18956">
        <ele>0.02</ele>
        <time>2019-05-30T14:05:28.000Z</time>
      </trkpt>
      <trkpt lat="43.56539" lon="4.18943">
        <ele>4</ele>
        <time>2019-05-30T14:05:33.000Z</time>
      </trkpt>
      <trkpt lat="43.56547" lon="4.18925">
        <ele>0.77</ele>
        <time>2019-05-30T14:05:38.000Z</time>
      </trkpt>
      <trkpt lat="43.56556" lon="4.18904">
        <ele>3.75</ele>
        <time>2019-05-30T14:05:43.000Z</time>
      </trkpt>
      <trkpt lat="43.56566" lon="4.18882">
        <ele>3.73</ele>
        <time>2019-05-30T14:05:48.000Z</time>
      </trkpt>
      <trkpt lat="43.56576" lon="4.18863">
        <ele>6.44</ele>
        <time>2019-05-30T14:05:53.000Z</time>
      </trkpt>
      <trkpt lat="43.56586" lon="4.18843">
        <ele>8.46</ele>
        <time>2019-05-30T14:05:58.000Z</time>
      </trkpt>
      <trkpt lat="43.56597" lon="4.18825">
        <ele>11.5</ele>
        <time>2019-05-30T14:06:03.000Z</time>
      </trkpt>
      <trkpt lat="43.56606" lon="4.18805">
        <ele>12.71</ele>
        <time>2019-05-30T14:06:08.000Z</time>
      </trkpt>
      <trkpt lat="43.56617" lon="4.18789">
        <ele>13.02</ele>
        <time>2019-05-30T14:06:13.000Z</time>
      </trkpt>
      <trkpt lat="43.56633" lon="4.18791">
        <ele>8.04</ele>
        <time>2019-05-30T14:06:18.000Z</time>
      </trkpt>
      <trkpt lat="43.56648" lon="4.18803">
        <ele>6.77</ele>
        <time>2019-05-30T14:06:23.000Z</time>
      </trkpt>
      <trkpt lat="43.56661" lon="4.18815">
        <ele>1.79</ele>
        <time>2019-05-30T14:06:28.000Z</time>
      </trkpt>
      <trkpt lat="43.56687" lon="4.18819">
        <ele>0.27</ele>
        <time>2019-05-30T14:06:33.000Z</time>
      </trkpt>
      <trkpt lat="43.56697" lon="4.18833">
        <ele>0.72</ele>
        <time>2019-05-30T14:06:38.000Z</time>
      </trkpt>
      <trkpt lat="43.56708" lon="4.18853">
        <ele>1.52</ele>
        <time>2019-05-30T14:06:43.000Z</time>
      </trkpt>
      <trkpt lat="43.56716" lon="4.18862">
        <ele>2.77</ele>
        <time>2019-05-30T14:06:48.000Z</time>
      </trkpt>
      <trkpt lat="43.56724" lon="4.1887">
        <ele>4.96</ele>
        <time>2019-05-30T14:06:53.000Z</time>
      </trkpt>
      <trkpt lat="43.56733" lon="4.18876">
        <ele>2.77</ele>
        <time>2019-05-30T14:06:58.000Z</time>
      </trkpt>
      <trkpt lat="43.56742" lon="4.18876">
        <ele>1.07</ele>
        <time>2019-05-30T14:07:04.000Z</time>
      </trkpt>
      <trkpt lat="43.56751" lon="4.18882">
        <ele>1.91</ele>
        <time>2019-05-30T14:07:09.000Z</time>
      </trkpt>
      <trkpt lat="43.56761" lon="4.18889">
        <ele>2.15</ele>
        <time>2019-05-30T14:07:14.000Z</time>
      </trkpt>
      <trkpt lat="43.56773" lon="4.18898">
        <ele>5.69</ele>
        <time>2019-05-30T14:07:19.000Z</time>
      </trkpt>
      <trkpt lat="43.56784" lon="4.18909">
        <ele>3.04</ele>
        <time>2019-05-30T14:07:24.000Z</time>
      </trkpt>
      <trkpt lat="43.56779" lon="4.18929">
        <ele>4.52</ele>
        <time>2019-05-30T14:07:29.000Z</time>
      </trkpt>
      <trkpt lat="43.56775" lon="4.18948">
        <ele>6.33</ele>
        <time>2019-05-30T14:07:34.000Z</time>
      </trkpt>
      <trkpt lat="43.56779" lon="4.18961">
        <ele>6.83</ele>
        <time>2019-05-30T14:07:39.000Z</time>
      </trkpt>
      <trkpt lat="43.56788" lon="4.18973">
        <ele>6.79</ele>
        <time>2019-05-30T14:07:44.000Z</time>
      </trkpt>
      <trkpt lat="43.56796" lon="4.1899">
        <ele>7.95</ele>
        <time>2019-05-30T14:07:49.000Z</time>
      </trkpt>
      <trkpt lat="43.56803" lon="4.19003">
        <ele>8.96</ele>
        <time>2019-05-30T14:07:54.000Z</time>
      </trkpt>
      <trkpt lat="43.56805" lon="4.19016">
        <ele>11.75</ele>
        <time>2019-05-30T14:08:01.000Z</time>
      </trkpt>
      <trkpt lat="43.56804" lon="4.1903">
        <ele>10.02</ele>
        <time>2019-05-30T14:08:06.000Z</time>
      </trkpt>
      <trkpt lat="43.56802" lon="4.19045">
        <ele>10.46</ele>
        <time>2019-05-30T14:08:11.000Z</time>
      </trkpt>
      <trkpt lat="43.568" lon="4.19058">
        <ele>11.96</ele>
        <time>2019-05-30T14:08:16.000Z</time>
      </trkpt>
      <trkpt lat="43.56797" lon="4.1907">
        <ele>10.84</ele>
        <time>2019-05-30T14:08:21.000Z</time>
      </trkpt>
      <trkpt lat="43.56796" lon="4.19085">
        <ele>8.84</ele>
        <time>2019-05-30T14:08:28.000Z</time>
      </trkpt>
      <trkpt lat="43.568" lon="4.19098">
        <ele>6.09</ele>
        <time>2019-05-30T14:08:33.000Z</time>
      </trkpt>
      <trkpt lat="43.56808" lon="4.19105">
        <ele>5.02</ele>
        <time>2019-05-30T14:08:38.000Z</time>
      </trkpt>
      <trkpt lat="43.56816" lon="4.19111">
        <ele>4.26</ele>
        <time>2019-05-30T14:08:44.000Z</time>
      </trkpt>
      <trkpt lat="43.56826" lon="4.19114">
        <ele>7.5</ele>
        <time>2019-05-30T14:09:31.000Z</time>
      </trkpt>
      <trkpt lat="43.56835" lon="4.19123">
        <ele>9.76</ele>
        <time>2019-05-30T14:09:40.000Z</time>
      </trkpt>
      <trkpt lat="43.56849" lon="4.19135">
        <ele>9.22</ele>
        <time>2019-05-30T14:09:45.000Z</time>
      </trkpt>
      <trkpt lat="43.56856" lon="4.19125">
        <ele>6.79</ele>
        <time>2019-05-30T14:09:51.000Z</time>
      </trkpt>
      <trkpt lat="43.56858" lon="4.19098">
        <ele>4.79</ele>
        <time>2019-05-30T14:09:56.000Z</time>
      </trkpt>
      <trkpt lat="43.56861" lon="4.19065">
        <ele>3.77</ele>
        <time>2019-05-30T14:10:01.000Z</time>
      </trkpt>
      <trkpt lat="43.56873" lon="4.1904">
        <ele>2.79</ele>
        <time>2019-05-30T14:10:06.000Z</time>
      </trkpt>
      <trkpt lat="43.56884" lon="4.19019">
        <ele>3.71</ele>
        <time>2019-05-30T14:10:11.000Z</time>
      </trkpt>
      <trkpt lat="43.56893" lon="4.19004">
        <ele>3.52</ele>
        <time>2019-05-30T14:10:16.000Z</time>
      </trkpt>
      <trkpt lat="43.56902" lon="4.18994">
        <ele>1.71</ele>
        <time>2019-05-30T14:10:35.000Z</time>
      </trkpt>
      <trkpt lat="43.56911" lon="4.18981">
        <ele>2.77</ele>
        <time>2019-05-30T14:10:40.000Z</time>
      </trkpt>
      <trkpt lat="43.56914" lon="4.18956">
        <ele>4.71</ele>
        <time>2019-05-30T14:10:45.000Z</time>
      </trkpt>
      <trkpt lat="43.56916" lon="4.18931">
        <ele>5.77</ele>
        <time>2019-05-30T14:10:50.000Z</time>
      </trkpt>
      <trkpt lat="43.56917" lon="4.18907">
        <ele>6.77</ele>
        <time>2019-05-30T14:10:55.000Z</time>
      </trkpt>
      <trkpt lat="43.56919" lon="4.18882">
        <ele>6.77</ele>
        <time>2019-05-30T14:11:00.000Z</time>
      </trkpt>
      <trkpt lat="43.5692" lon="4.18858">
        <ele>5.83</ele>
        <time>2019-05-30T14:11:05.000Z</time>
      </trkpt>
      <trkpt lat="43.56895" lon="4.18839">
        <ele>2.8</ele>
        <time>2019-05-30T14:11:10.000Z</time>
      </trkpt>
      <trkpt lat="43.56872" lon="4.18808">
        <ele>3.02</ele>
        <time>2019-05-30T14:11:15.000Z</time>
      </trkpt>
      <trkpt lat="43.56855" lon="4.18784">
        <ele>1.77</ele>
        <time>2019-05-30T14:11:20.000Z</time>
      </trkpt>
      <trkpt lat="43.56838" lon="4.18758">
        <ele>0.78</ele>
        <time>2019-05-30T14:11:25.000Z</time>
      </trkpt>
      <trkpt lat="43.56819" lon="4.18732">
        <ele>2.75</ele>
        <time>2019-05-30T14:11:30.000Z</time>
      </trkpt>
      <trkpt lat="43.56799" lon="4.18705">
        <ele>5.7</ele>
        <time>2019-05-30T14:11:35.000Z</time>
      </trkpt>
      <trkpt lat="43.56779" lon="4.18685">
        <ele>4.53</ele>
        <time>2019-05-30T14:11:40.000Z</time>
      </trkpt>
      <trkpt lat="43.5676" lon="4.18664">
        <ele>3.83</ele>
        <time>2019-05-30T14:11:45.000Z</time>
      </trkpt>
      <trkpt lat="43.5674" lon="4.18643">
        <ele>2.77</ele>
        <time>2019-05-30T14:11:50.000Z</time>
      </trkpt>
      <trkpt lat="43.5672" lon="4.18619">
        <ele>3.76</ele>
        <time>2019-05-30T14:11:55.000Z</time>
      </trkpt>
      <trkpt lat="43.56697" lon="4.18594">
        <ele>2.77</ele>
        <time>2019-05-30T14:12:00.000Z</time>
      </trkpt>
      <trkpt lat="43.56669" lon="4.18577">
        <ele>1.77</ele>
        <time>2019-05-30T14:12:05.000Z</time>
      </trkpt>
      <trkpt lat="43.56639" lon="4.18569">
        <ele>0.77</ele>
        <time>2019-05-30T14:12:10.000Z</time>
      </trkpt>
      <trkpt lat="43.56611" lon="4.18563">
        <ele>1.3</ele>
        <time>2019-05-30T14:12:15.000Z</time>
      </trkpt>
      <trkpt lat="43.56595" lon="4.18535">
        <ele>0.71</ele>
        <time>2019-05-30T14:12:20.000Z</time>
      </trkpt>
      <trkpt lat="43.56587" lon="4.18501">
        <ele>0.77</ele>
        <time>2019-05-30T14:12:25.000Z</time>
      </trkpt>
      <trkpt lat="43.56564" lon="4.18478">
        <ele>0.96</ele>
        <time>2019-05-30T14:12:30.000Z</time>
      </trkpt>
      <trkpt lat="43.56537" lon="4.1847">
        <ele>1.9</ele>
        <time>2019-05-30T14:12:35.000Z</time>
      </trkpt>
      <trkpt lat="43.56505" lon="4.18468">
        <ele>1.2</ele>
        <time>2019-05-30T14:12:40.000Z</time>
      </trkpt>
      <trkpt lat="43.56473" lon="4.18468">
        <ele>1.8</ele>
        <time>2019-05-30T14:12:45.000Z</time>
      </trkpt>
      <trkpt lat="43.56442" lon="4.18468">
        <ele>1.9</ele>
        <time>2019-05-30T14:12:50.000Z</time>
      </trkpt>
      <trkpt lat="43.56411" lon="4.18468">
        <ele>2</ele>
        <time>2019-05-30T14:12:55.000Z</time>
      </trkpt>
      <trkpt lat="43.56385" lon="4.18488">
        <ele>1.9</ele>
        <time>2019-05-30T14:13:00.000Z</time>
      </trkpt>
      <trkpt lat="43.56355" lon="4.18503">
        <ele>1</ele>
        <time>2019-05-30T14:13:05.000Z</time>
      </trkpt>
      <trkpt lat="43.56323" lon="4.18497">
        <ele>1</ele>
        <time>2019-05-30T14:13:10.000Z</time>
      </trkpt>
      <trkpt lat="43.56292" lon="4.18487">
        <ele>1</ele>
        <time>2019-05-30T14:13:15.000Z</time>
      </trkpt>
      <trkpt lat="43.56261" lon="4.18479">
        <ele>1.6</ele>
        <time>2019-05-30T14:13:20.000Z</time>
      </trkpt>
      <trkpt lat="43.5623" lon="4.18471">
        <ele>2</ele>
        <time>2019-05-30T14:13:25.000Z</time>
      </trkpt>
      <trkpt lat="43.56199" lon="4.18462">
        <ele>0.52</ele>
        <time>2019-05-30T14:13:30.000Z</time>
      </trkpt>
      <trkpt lat="43.56168" lon="4.18451">
        <ele>0.77</ele>
        <time>2019-05-30T14:13:35.000Z</time>
      </trkpt>
      <trkpt lat="43.56136" lon="4.18438">
        <ele>0.77</ele>
        <time>2019-05-30T14:13:40.000Z</time>
      </trkpt>
      <trkpt lat="43.56104" lon="4.18425">
        <ele>0.77</ele>
        <time>2019-05-30T14:13:45.000Z</time>
      </trkpt>
      <trkpt lat="43.56075" lon="4.18409">
        <ele>1.54</ele>
        <time>2019-05-30T14:13:50.000Z</time>
      </trkpt>
      <trkpt lat="43.56045" lon="4.18389">
        <ele>1.83</ele>
        <time>2019-05-30T14:13:55.000Z</time>
      </trkpt>
      <trkpt lat="43.56013" lon="4.18369">
        <ele>2.71</ele>
        <time>2019-05-30T14:14:00.000Z</time>
      </trkpt>
      <trkpt lat="43.55981" lon="4.18349">
        <ele>2.53</ele>
        <time>2019-05-30T14:14:05.000Z</time>
      </trkpt>
      <trkpt lat="43.55953" lon="4.18329">
        <ele>1.79</ele>
        <time>2019-05-30T14:14:10.000Z</time>
      </trkpt>
      <trkpt lat="43.55924" lon="4.18307">
        <ele>1.77</ele>
        <time>2019-05-30T14:14:15.000Z</time>
      </trkpt>
      <trkpt lat="43.55896" lon="4.18281">
        <ele>0.78</ele>
        <time>2019-05-30T14:14:20.000Z</time>
      </trkpt>
      <trkpt lat="43.55869" lon="4.18254">
        <ele>0.78</ele>
        <time>2019-05-30T14:14:25.000Z</time>
      </trkpt>
      <trkpt lat="43.55842" lon="4.18224">
        <ele>0.59</ele>
        <time>2019-05-30T14:14:30.000Z</time>
      </trkpt>
      <trkpt lat="43.55816" lon="4.18193">
        <ele>0.02</ele>
        <time>2019-05-30T14:14:35.000Z</time>
      </trkpt>
      <trkpt lat="43.55791" lon="4.18161">
        <ele>0.77</ele>
        <time>2019-05-30T14:14:40.000Z</time>
      </trkpt>
      <trkpt lat="43.55767" lon="4.18127">
        <ele>0.78</ele>
        <time>2019-05-30T14:14:45.000Z</time>
      </trkpt>
      <trkpt lat="43.55744" lon="4.18092">
        <ele>1</ele>
        <time>2019-05-30T14:14:50.000Z</time>
      </trkpt>
      <trkpt lat="43.55724" lon="4.18057">
        <ele>0.77</ele>
        <time>2019-05-30T14:14:55.000Z</time>
      </trkpt>
      <trkpt lat="43.55704" lon="4.18022">
        <ele>0.03</ele>
        <time>2019-05-30T14:15:00.000Z</time>
      </trkpt>
      <trkpt lat="43.55683" lon="4.17987">
        <ele>1.8</ele>
        <time>2019-05-30T14:15:05.000Z</time>
      </trkpt>
      <trkpt lat="43.55662" lon="4.17951">
        <ele>1.8</ele>
        <time>2019-05-30T14:15:10.000Z</time>
      </trkpt>
      <trkpt lat="43.55643" lon="4.17912">
        <ele>1.3</ele>
        <time>2019-05-30T14:15:15.000Z</time>
      </trkpt>
      <trkpt lat="43.55623" lon="4.17878">
        <ele>1.8</ele>
        <time>2019-05-30T14:15:20.000Z</time>
      </trkpt>
      <trkpt lat="43.55605" lon="4.17841">
        <ele>0.76</ele>
        <time>2019-05-30T14:15:25.000Z</time>
      </trkpt>
      <trkpt lat="43.55584" lon="4.17804">
        <ele>2</ele>
        <time>2019-05-30T14:15:30.000Z</time>
      </trkpt>
      <trkpt lat="43.55565" lon="4.17768">
        <ele>1</ele>
        <time>2019-05-30T14:15:35.000Z</time>
      </trkpt>
      <trkpt lat="43.55545" lon="4.1773">
        <ele>1</ele>
        <time>2019-05-30T14:15:40.000Z</time>
      </trkpt>
      <trkpt lat="43.55524" lon="4.17693">
        <ele>1</ele>
        <time>2019-05-30T14:15:45.000Z</time>
      </trkpt>
      <trkpt lat="43.55503" lon="4.17658">
        <ele>1</ele>
        <time>2019-05-30T14:15:50.000Z</time>
      </trkpt>
      <trkpt lat="43.55484" lon="4.17621">
        <ele>3</ele>
        <time>2019-05-30T14:15:55.000Z</time>
      </trkpt>
      <trkpt lat="43.55464" lon="4.17584">
        <ele>3</ele>
        <time>2019-05-30T14:16:00.000Z</time>
      </trkpt>
      <trkpt lat="43.55446" lon="4.17544">
        <ele>2</ele>
        <time>2019-05-30T14:16:05.000Z</time>
      </trkpt>
      <trkpt lat="43.55429" lon="4.17503">
        <ele>1</ele>
        <time>2019-05-30T14:16:10.000Z</time>
      </trkpt>
      <trkpt lat="43.55411" lon="4.17461">
        <ele>1</ele>
        <time>2019-05-30T14:16:15.000Z</time>
      </trkpt>
      <trkpt lat="43.55394" lon="4.1742">
        <ele>1</ele>
        <time>2019-05-30T14:16:20.000Z</time>
      </trkpt>
      <trkpt lat="43.55376" lon="4.17378">
        <ele>1</ele>
        <time>2019-05-30T14:16:25.000Z</time>
      </trkpt>
      <trkpt lat="43.5536" lon="4.17338">
        <ele>1</ele>
        <time>2019-05-30T14:16:30.000Z</time>
      </trkpt>
      <trkpt lat="43.55342" lon="4.17299">
        <ele>1</ele>
        <time>2019-05-30T14:16:35.000Z</time>
      </trkpt>
      <trkpt lat="43.55325" lon="4.17258">
        <ele>1</ele>
        <time>2019-05-30T14:16:40.000Z</time>
      </trkpt>
      <trkpt lat="43.55309" lon="4.17219">
        <ele>1</ele>
        <time>2019-05-30T14:16:45.000Z</time>
      </trkpt>
      <trkpt lat="43.55293" lon="4.1718">
        <ele>1</ele>
        <time>2019-05-30T14:16:50.000Z</time>
      </trkpt>
      <trkpt lat="43.55276" lon="4.17142">
        <ele>2</ele>
        <time>2019-05-30T14:16:55.000Z</time>
      </trkpt>
      <trkpt lat="43.5526" lon="4.17103">
        <ele>2</ele>
        <time>2019-05-30T14:17:00.000Z</time>
      </trkpt>
      <trkpt lat="43.55244" lon="4.17063">
        <ele>2</ele>
        <time>2019-05-30T14:17:05.000Z</time>
      </trkpt>
      <trkpt lat="43.55227" lon="4.17025">
        <ele>2</ele>
        <time>2019-05-30T14:17:10.000Z</time>
      </trkpt>
      <trkpt lat="43.55211" lon="4.16987">
        <ele>2</ele>
        <time>2019-05-30T14:17:15.000Z</time>
      </trkpt>
      <trkpt lat="43.55196" lon="4.16949">
        <ele>1.76</ele>
        <time>2019-05-30T14:17:20.000Z</time>
      </trkpt>
      <trkpt lat="43.5518" lon="4.16911">
        <ele>2.57</ele>
        <time>2019-05-30T14:17:25.000Z</time>
      </trkpt>
      <trkpt lat="43.55168" lon="4.16885">
        <ele>2.78</ele>
        <time>2019-05-30T14:17:30.000Z</time>
      </trkpt>
      <trkpt lat="43.55162" lon="4.1687">
        <ele>1.79</ele>
        <time>2019-05-30T14:17:35.000Z</time>
      </trkpt>
      <trkpt lat="43.55154" lon="4.16848">
        <ele>1.78</ele>
        <time>2019-05-30T14:17:40.000Z</time>
      </trkpt>
      <trkpt lat="43.55143" lon="4.1682">
        <ele>1.78</ele>
        <time>2019-05-30T14:17:45.000Z</time>
      </trkpt>
      <trkpt lat="43.55131" lon="4.16792">
        <ele>0.79</ele>
        <time>2019-05-30T14:17:50.000Z</time>
      </trkpt>
      <trkpt lat="43.55118" lon="4.16761">
        <ele>4</ele>
        <time>2019-05-30T14:17:55.000Z</time>
      </trkpt>
      <trkpt lat="43.55104" lon="4.16728">
        <ele>0.02</ele>
        <time>2019-05-30T14:18:00.000Z</time>
      </trkpt>
      <trkpt lat="43.55089" lon="4.16693">
        <ele>2</ele>
        <time>2019-05-30T14:18:05.000Z</time>
      </trkpt>
      <trkpt lat="43.55073" lon="4.16657">
        <ele>1.9</ele>
        <time>2019-05-30T14:18:10.000Z</time>
      </trkpt>
      <trkpt lat="43.55057" lon="4.16621">
        <ele>0.53</ele>
        <time>2019-05-30T14:18:15.000Z</time>
      </trkpt>
      <trkpt lat="43.55042" lon="4.16584">
        <ele>0.78</ele>
        <time>2019-05-30T14:18:20.000Z</time>
      </trkpt>
      <trkpt lat="43.55026" lon="4.16548">
        <ele>0.78</ele>
        <time>2019-05-30T14:18:25.000Z</time>
      </trkpt>
      <trkpt lat="43.55011" lon="4.16512">
        <ele>0.03</ele>
        <time>2019-05-30T14:18:30.000Z</time>
      </trkpt>
      <trkpt lat="43.54996" lon="4.16476">
        <ele>1</ele>
        <time>2019-05-30T14:18:35.000Z</time>
      </trkpt>
      <trkpt lat="43.54984" lon="4.16439">
        <ele>1</ele>
        <time>2019-05-30T14:18:40.000Z</time>
      </trkpt>
      <trkpt lat="43.5497" lon="4.16402">
        <ele>0.53</ele>
        <time>2019-05-30T14:18:45.000Z</time>
      </trkpt>
      <trkpt lat="43.54954" lon="4.16365">
        <ele>0.76</ele>
        <time>2019-05-30T14:18:50.000Z</time>
      </trkpt>
      <trkpt lat="43.54939" lon="4.16327">
        <ele>0.78</ele>
        <time>2019-05-30T14:18:55.000Z</time>
      </trkpt>
      <trkpt lat="43.54923" lon="4.1629">
        <ele>0.76</ele>
        <time>2019-05-30T14:19:00.000Z</time>
      </trkpt>
      <trkpt lat="43.54909" lon="4.16253">
        <ele>2</ele>
        <time>2019-05-30T14:19:05.000Z</time>
      </trkpt>
      <trkpt lat="43.54893" lon="4.16217">
        <ele>1.3</ele>
        <time>2019-05-30T14:19:10.000Z</time>
      </trkpt>
      <trkpt lat="43.54876" lon="4.16179">
        <ele>0.76</ele>
        <time>2019-05-30T14:19:15.000Z</time>
      </trkpt>
      <trkpt lat="43.54859" lon="4.1614">
        <ele>2</ele>
        <time>2019-05-30T14:19:20.000Z</time>
      </trkpt>
      <trkpt lat="43.54842" lon="4.16099">
        <ele>1.6</ele>
        <time>2019-05-30T14:19:25.000Z</time>
      </trkpt>
      <trkpt lat="43.54826" lon="4.16061">
        <ele>1.8</ele>
        <time>2019-05-30T14:19:30.000Z</time>
      </trkpt>
      <trkpt lat="43.54812" lon="4.16024">
        <ele>1.3</ele>
        <time>2019-05-30T14:19:35.000Z</time>
      </trkpt>
      <trkpt lat="43.548" lon="4.15988">
        <ele>0.77</ele>
        <time>2019-05-30T14:19:40.000Z</time>
      </trkpt>
      <trkpt lat="43.54784" lon="4.15955">
        <ele>0.01</ele>
        <time>2019-05-30T14:19:45.000Z</time>
      </trkpt>
      <trkpt lat="43.54768" lon="4.1592">
        <ele>1.1</ele>
        <time>2019-05-30T14:19:50.000Z</time>
      </trkpt>
      <trkpt lat="43.54753" lon="4.15882">
        <ele>0.53</ele>
        <time>2019-05-30T14:19:55.000Z</time>
      </trkpt>
      <trkpt lat="43.54737" lon="4.15844">
        <ele>0.78</ele>
        <time>2019-05-30T14:20:00.000Z</time>
      </trkpt>
      <trkpt lat="43.5472" lon="4.15806">
        <ele>1.72</ele>
        <time>2019-05-30T14:20:05.000Z</time>
      </trkpt>
      <trkpt lat="43.54703" lon="4.15768">
        <ele>1.78</ele>
        <time>2019-05-30T14:20:10.000Z</time>
      </trkpt>
      <trkpt lat="43.54686" lon="4.15728">
        <ele>1.78</ele>
        <time>2019-05-30T14:20:15.000Z</time>
      </trkpt>
      <trkpt lat="43.54667" lon="4.1569">
        <ele>1.03</ele>
        <time>2019-05-30T14:20:20.000Z</time>
      </trkpt>
      <trkpt lat="43.54652" lon="4.15652">
        <ele>1</ele>
        <time>2019-05-30T14:20:25.000Z</time>
      </trkpt>
      <trkpt lat="43.54634" lon="4.15615">
        <ele>1</ele>
        <time>2019-05-30T14:20:30.000Z</time>
      </trkpt>
      <trkpt lat="43.54617" lon="4.15575">
        <ele>1</ele>
        <time>2019-05-30T14:20:35.000Z</time>
      </trkpt>
      <trkpt lat="43.54599" lon="4.15534">
        <ele>1</ele>
        <time>2019-05-30T14:20:40.000Z</time>
      </trkpt>
      <trkpt lat="43.54581" lon="4.15494">
        <ele>1</ele>
        <time>2019-05-30T14:20:45.000Z</time>
      </trkpt>
      <trkpt lat="43.54556" lon="4.15436">
        <ele>0.02</ele>
        <time>2019-05-30T14:20:52.000Z</time>
      </trkpt>
      <trkpt lat="43.54538" lon="4.15394">
        <ele>1</ele>
        <time>2019-05-30T14:20:57.000Z</time>
      </trkpt>
      <trkpt lat="43.54519" lon="4.1535">
        <ele>1.6</ele>
        <time>2019-05-30T14:21:02.000Z</time>
      </trkpt>
      <trkpt lat="43.545" lon="4.15306">
        <ele>1</ele>
        <time>2019-05-30T14:21:07.000Z</time>
      </trkpt>
      <trkpt lat="43.54479" lon="4.15262">
        <ele>1</ele>
        <time>2019-05-30T14:21:12.000Z</time>
      </trkpt>
      <trkpt lat="43.54457" lon="4.15217">
        <ele>1</ele>
        <time>2019-05-30T14:21:17.000Z</time>
      </trkpt>
      <trkpt lat="43.54438" lon="4.15174">
        <ele>1</ele>
        <time>2019-05-30T14:21:22.000Z</time>
      </trkpt>
      <trkpt lat="43.54422" lon="4.15129">
        <ele>1</ele>
        <time>2019-05-30T14:21:27.000Z</time>
      </trkpt>
      <trkpt lat="43.54405" lon="4.15088">
        <ele>1</ele>
        <time>2019-05-30T14:21:32.000Z</time>
      </trkpt>
      <trkpt lat="43.54387" lon="4.15048">
        <ele>2</ele>
        <time>2019-05-30T14:21:37.000Z</time>
      </trkpt>
      <trkpt lat="43.54369" lon="4.15008">
        <ele>0.96</ele>
        <time>2019-05-30T14:21:42.000Z</time>
      </trkpt>
      <trkpt lat="43.54352" lon="4.14967">
        <ele>0.78</ele>
        <time>2019-05-30T14:21:47.000Z</time>
      </trkpt>
      <trkpt lat="43.54335" lon="4.14926">
        <ele>2</ele>
        <time>2019-05-30T14:21:52.000Z</time>
      </trkpt>
      <trkpt lat="43.54317" lon="4.14886">
        <ele>0.78</ele>
        <time>2019-05-30T14:21:57.000Z</time>
      </trkpt>
      <trkpt lat="43.543" lon="4.14846">
        <ele>0.76</ele>
        <time>2019-05-30T14:22:02.000Z</time>
      </trkpt>
      <trkpt lat="43.54283" lon="4.14807">
        <ele>0.03</ele>
        <time>2019-05-30T14:22:07.000Z</time>
      </trkpt>
      <trkpt lat="43.54266" lon="4.14766">
        <ele>1</ele>
        <time>2019-05-30T14:22:12.000Z</time>
      </trkpt>
      <trkpt lat="43.54248" lon="4.14727">
        <ele>0.71</ele>
        <time>2019-05-30T14:22:17.000Z</time>
      </trkpt>
      <trkpt lat="43.54231" lon="4.14687">
        <ele>0.78</ele>
        <time>2019-05-30T14:22:22.000Z</time>
      </trkpt>
      <trkpt lat="43.54214" lon="4.14648">
        <ele>1.78</ele>
        <time>2019-05-30T14:22:27.000Z</time>
      </trkpt>
      <trkpt lat="43.54197" lon="4.14608">
        <ele>0.78</ele>
        <time>2019-05-30T14:22:32.000Z</time>
      </trkpt>
      <trkpt lat="43.5418" lon="4.14571">
        <ele>0.78</ele>
        <time>2019-05-30T14:22:37.000Z</time>
      </trkpt>
      <trkpt lat="43.5416" lon="4.14537">
        <ele>0.78</ele>
        <time>2019-05-30T14:22:42.000Z</time>
      </trkpt>
      <trkpt lat="43.54141" lon="4.14498">
        <ele>0.54</ele>
        <time>2019-05-30T14:22:47.000Z</time>
      </trkpt>
      <trkpt lat="43.54124" lon="4.14459">
        <ele>0.78</ele>
        <time>2019-05-30T14:22:52.000Z</time>
      </trkpt>
      <trkpt lat="43.54106" lon="4.14421">
        <ele>1</ele>
        <time>2019-05-30T14:22:57.000Z</time>
      </trkpt>
      <trkpt lat="43.54089" lon="4.14383">
        <ele>1</ele>
        <time>2019-05-30T14:23:02.000Z</time>
      </trkpt>
      <trkpt lat="43.54073" lon="4.14349">
        <ele>1</ele>
        <time>2019-05-30T14:23:07.000Z</time>
      </trkpt>
      <trkpt lat="43.54057" lon="4.14316">
        <ele>1</ele>
        <time>2019-05-30T14:23:12.000Z</time>
      </trkpt>
      <trkpt lat="43.5404" lon="4.14293">
        <ele>1</ele>
        <time>2019-05-30T14:23:17.000Z</time>
      </trkpt>
      <trkpt lat="43.54033" lon="4.14276">
        <ele>0.78</ele>
        <time>2019-05-30T14:23:22.000Z</time>
      </trkpt>
      <trkpt lat="43.54034" lon="4.14261">
        <ele>0.02</ele>
        <time>2019-05-30T14:23:28.000Z</time>
      </trkpt>
      <trkpt lat="43.54043" lon="4.14254">
        <ele>1.71</ele>
        <time>2019-05-30T14:23:33.000Z</time>
      </trkpt>
      <trkpt lat="43.54055" lon="4.14247">
        <ele>2.71</ele>
        <time>2019-05-30T14:23:38.000Z</time>
      </trkpt>
      <trkpt lat="43.5407" lon="4.14229">
        <ele>2.53</ele>
        <time>2019-05-30T14:23:43.000Z</time>
      </trkpt>
      <trkpt lat="43.54093" lon="4.14211">
        <ele>2.96</ele>
        <time>2019-05-30T14:23:48.000Z</time>
      </trkpt>
      <trkpt lat="43.54115" lon="4.14192">
        <ele>1.84</ele>
        <time>2019-05-30T14:23:53.000Z</time>
      </trkpt>
      <trkpt lat="43.54109" lon="4.14205">
        <ele>1.78</ele>
        <time>2019-05-30T14:24:02.000Z</time>
      </trkpt>
      <trkpt lat="43.54095" lon="4.14219">
        <ele>2.76</ele>
        <time>2019-05-30T14:24:07.000Z</time>
      </trkpt>
      <trkpt lat="43.54082" lon="4.14232">
        <ele>2.78</ele>
        <time>2019-05-30T14:24:12.000Z</time>
      </trkpt>
      <trkpt lat="43.54071" lon="4.14243">
        <ele>2.77</ele>
        <time>2019-05-30T14:24:17.000Z</time>
      </trkpt>
      <trkpt lat="43.54061" lon="4.14253">
        <ele>1.85</ele>
        <time>2019-05-30T14:24:22.000Z</time>
      </trkpt>
      <trkpt lat="43.54052" lon="4.14261">
        <ele>2.78</ele>
        <time>2019-05-30T14:24:27.000Z</time>
      </trkpt>
      <trkpt lat="43.54043" lon="4.14268">
        <ele>3.78</ele>
        <time>2019-05-30T14:24:34.000Z</time>
      </trkpt>
      <trkpt lat="43.54036" lon="4.14276">
        <ele>4.77</ele>
        <time>2019-05-30T14:24:46.000Z</time>
      </trkpt>
      <trkpt lat="43.54028" lon="4.14284">
        <ele>5.78</ele>
        <time>2019-05-30T14:24:53.000Z</time>
      </trkpt>
      <trkpt lat="43.5402" lon="4.14292">
        <ele>5.78</ele>
        <time>2019-05-30T14:25:01.000Z</time>
      </trkpt>
      <trkpt lat="43.54012" lon="4.14299">
        <ele>6.57</ele>
        <time>2019-05-30T14:25:10.000Z</time>
      </trkpt>
      <trkpt lat="43.54004" lon="4.14306">
        <ele>6.82</ele>
        <time>2019-05-30T14:25:24.000Z</time>
      </trkpt>
      <trkpt lat="43.53995" lon="4.14311">
        <ele>5.82</ele>
        <time>2019-05-30T14:25:36.000Z</time>
      </trkpt>
      <trkpt lat="43.53981" lon="4.14303">
        <ele>6.78</ele>
        <time>2019-05-30T14:25:41.000Z</time>
      </trkpt>
      <trkpt lat="43.53966" lon="4.14269">
        <ele>4.78</ele>
        <time>2019-05-30T14:25:46.000Z</time>
      </trkpt>
      <trkpt lat="43.53948" lon="4.1423">
        <ele>3.78</ele>
        <time>2019-05-30T14:25:51.000Z</time>
      </trkpt>
      <trkpt lat="43.53933" lon="4.14191">
        <ele>3.78</ele>
        <time>2019-05-30T14:25:56.000Z</time>
      </trkpt>
      <trkpt lat="43.53918" lon="4.14153">
        <ele>3.72</ele>
        <time>2019-05-30T14:26:01.000Z</time>
      </trkpt>
      <trkpt lat="43.53901" lon="4.14119">
        <ele>2.78</ele>
        <time>2019-05-30T14:26:06.000Z</time>
      </trkpt>
      <trkpt lat="43.53885" lon="4.14086">
        <ele>3.78</ele>
        <time>2019-05-30T14:26:11.000Z</time>
      </trkpt>
      <trkpt lat="43.53869" lon="4.14053">
        <ele>2.79</ele>
        <time>2019-05-30T14:26:16.000Z</time>
      </trkpt>
      <trkpt lat="43.53855" lon="4.14023">
        <ele>2.03</ele>
        <time>2019-05-30T14:26:21.000Z</time>
      </trkpt>
      <trkpt lat="43.5384" lon="4.13993">
        <ele>2.53</ele>
        <time>2019-05-30T14:26:26.000Z</time>
      </trkpt>
      <trkpt lat="43.53826" lon="4.13964">
        <ele>4.52</ele>
        <time>2019-05-30T14:26:31.000Z</time>
      </trkpt>
      <trkpt lat="43.53814" lon="4.13941">
        <ele>6.76</ele>
        <time>2019-05-30T14:26:36.000Z</time>
      </trkpt>
      <trkpt lat="43.53807" lon="4.13929">
        <ele>8.82</ele>
        <time>2019-05-30T14:26:42.000Z</time>
      </trkpt>
      <trkpt lat="43.53797" lon="4.13907">
        <ele>6.78</ele>
        <time>2019-05-30T14:26:47.000Z</time>
      </trkpt>
      <trkpt lat="43.53784" lon="4.13879">
        <ele>6.78</ele>
        <time>2019-05-30T14:26:52.000Z</time>
      </trkpt>
      <trkpt lat="43.53771" lon="4.13848">
        <ele>5.79</ele>
        <time>2019-05-30T14:26:57.000Z</time>
      </trkpt>
      <trkpt lat="43.53755" lon="4.13817">
        <ele>5.78</ele>
        <time>2019-05-30T14:27:02.000Z</time>
      </trkpt>
      <trkpt lat="43.53741" lon="4.13788">
        <ele>5.78</ele>
        <time>2019-05-30T14:27:07.000Z</time>
      </trkpt>
      <trkpt lat="43.53732" lon="4.13768">
        <ele>7.52</ele>
        <time>2019-05-30T14:27:12.000Z</time>
      </trkpt>
      <trkpt lat="43.53725" lon="4.1376">
        <ele>5.53</ele>
        <time>2019-05-30T14:27:41.000Z</time>
      </trkpt>
      <trkpt lat="43.53715" lon="4.13766">
        <ele>3.03</ele>
        <time>2019-05-30T14:27:46.000Z</time>
      </trkpt>
      <trkpt lat="43.53708" lon="4.13775">
        <ele>4</ele>
        <time>2019-05-30T14:28:02.000Z</time>
      </trkpt>
      <trkpt lat="43.537" lon="4.13781">
        <ele>3.71</ele>
        <time>2019-05-30T14:28:09.000Z</time>
      </trkpt>
      <trkpt lat="43.53689" lon="4.13787">
        <ele>0.84</ele>
        <time>2019-05-30T14:28:16.000Z</time>
      </trkpt>
      <trkpt lat="43.53676" lon="4.13797">
        <ele>1.78</ele>
        <time>2019-05-30T14:28:21.000Z</time>
      </trkpt>
      <trkpt lat="43.53664" lon="4.13807">
        <ele>1.73</ele>
        <time>2019-05-30T14:28:26.000Z</time>
      </trkpt>
      <trkpt lat="43.53653" lon="4.13815">
        <ele>1.78</ele>
        <time>2019-05-30T14:28:31.000Z</time>
      </trkpt>
      <trkpt lat="43.53643" lon="4.13823">
        <ele>2.78</ele>
        <time>2019-05-30T14:28:36.000Z</time>
      </trkpt>
      <trkpt lat="43.53633" lon="4.13829">
        <ele>2.83</ele>
        <time>2019-05-30T14:28:41.000Z</time>
      </trkpt>
      <trkpt lat="43.5362" lon="4.13815">
        <ele>5.51</ele>
        <time>2019-05-30T14:28:46.000Z</time>
      </trkpt>
      <trkpt lat="43.53607" lon="4.13808">
        <ele>4.73</ele>
        <time>2019-05-30T14:28:51.000Z</time>
      </trkpt>
      <trkpt lat="43.53598" lon="4.13809">
        <ele>4.72</ele>
        <time>2019-05-30T14:29:02.000Z</time>
      </trkpt>
      <trkpt lat="43.5358" lon="4.13815">
        <ele>4.73</ele>
        <time>2019-05-30T14:29:07.000Z</time>
      </trkpt>
      <trkpt lat="43.5356" lon="4.13828">
        <ele>3.78</ele>
        <time>2019-05-30T14:29:12.000Z</time>
      </trkpt>
      <trkpt lat="43.5354" lon="4.13838">
        <ele>4.78</ele>
        <time>2019-05-30T14:29:17.000Z</time>
      </trkpt>
      <trkpt lat="43.53522" lon="4.13825">
        <ele>5.53</ele>
        <time>2019-05-30T14:29:22.000Z</time>
      </trkpt>
      <trkpt lat="43.53503" lon="4.13806">
        <ele>6.53</ele>
        <time>2019-05-30T14:29:27.000Z</time>
      </trkpt>
      <trkpt lat="43.53481" lon="4.13797">
        <ele>6.78</ele>
        <time>2019-05-30T14:29:32.000Z</time>
      </trkpt>
      <trkpt lat="43.53459" lon="4.13799">
        <ele>6.79</ele>
        <time>2019-05-30T14:29:37.000Z</time>
      </trkpt>
      <trkpt lat="43.53435" lon="4.13804">
        <ele>6.78</ele>
        <time>2019-05-30T14:29:42.000Z</time>
      </trkpt>
      <trkpt lat="43.53413" lon="4.13809">
        <ele>6.48</ele>
        <time>2019-05-30T14:29:47.000Z</time>
      </trkpt>
      <trkpt lat="43.53398" lon="4.13815">
        <ele>7.72</ele>
        <time>2019-05-30T14:29:52.000Z</time>
      </trkpt>
      <trkpt lat="43.53392" lon="4.13804">
        <ele>9.76</ele>
        <time>2019-05-30T14:29:57.000Z</time>
      </trkpt>
      <trkpt lat="43.53391" lon="4.1379">
        <ele>10.78</ele>
        <time>2019-05-30T14:30:02.000Z</time>
      </trkpt>
      <trkpt lat="43.53384" lon="4.13776">
        <ele>10.78</ele>
        <time>2019-05-30T14:30:07.000Z</time>
      </trkpt>
      <trkpt lat="43.53375" lon="4.13763">
        <ele>10.98</ele>
        <time>2019-05-30T14:30:12.000Z</time>
      </trkpt>
      <trkpt lat="43.53368" lon="4.13753">
        <ele>7.8</ele>
        <time>2019-05-30T14:30:17.000Z</time>
      </trkpt>
      <trkpt lat="43.53358" lon="4.13753">
        <ele>9.83</ele>
        <time>2019-05-30T14:30:23.000Z</time>
      </trkpt>
      <trkpt lat="43.5335" lon="4.13757">
        <ele>7.85</ele>
        <time>2019-05-30T14:30:28.000Z</time>
      </trkpt>
      <trkpt lat="43.53359" lon="4.13756">
        <ele>2.78</ele>
        <time>2019-05-30T14:35:35.000Z</time>
      </trkpt>
      <trkpt lat="43.53369" lon="4.13753">
        <ele>3.79</ele>
        <time>2019-05-30T14:35:43.000Z</time>
      </trkpt>
      <trkpt lat="43.53379" lon="4.13762">
        <ele>2.8</ele>
        <time>2019-05-30T14:35:48.000Z</time>
      </trkpt>
      <trkpt lat="43.53383" lon="4.13777">
        <ele>2.03</ele>
        <time>2019-05-30T14:35:53.000Z</time>
      </trkpt>
      <trkpt lat="43.53387" lon="4.13788">
        <ele>3.7</ele>
        <time>2019-05-30T14:35:58.000Z</time>
      </trkpt>
      <trkpt lat="43.53392" lon="4.13799">
        <ele>4.76</ele>
        <time>2019-05-30T14:36:04.000Z</time>
      </trkpt>
      <trkpt lat="43.53394" lon="4.13812">
        <ele>4.03</ele>
        <time>2019-05-30T14:36:09.000Z</time>
      </trkpt>
      <trkpt lat="43.53384" lon="4.13824">
        <ele>5.53</ele>
        <time>2019-05-30T14:36:14.000Z</time>
      </trkpt>
      <trkpt lat="43.5337" lon="4.13835">
        <ele>6.78</ele>
        <time>2019-05-30T14:36:19.000Z</time>
      </trkpt>
      <trkpt lat="43.53356" lon="4.13843">
        <ele>7.53</ele>
        <time>2019-05-30T14:36:24.000Z</time>
      </trkpt>
      <trkpt lat="43.53339" lon="4.13845">
        <ele>7.04</ele>
        <time>2019-05-30T14:36:29.000Z</time>
      </trkpt>
      <trkpt lat="43.53323" lon="4.13859">
        <ele>3.86</ele>
        <time>2019-05-30T14:36:34.000Z</time>
      </trkpt>
      <trkpt lat="43.53306" lon="4.13872">
        <ele>4.72</ele>
        <time>2019-05-30T14:36:39.000Z</time>
      </trkpt>
      <trkpt lat="43.5329" lon="4.13889">
        <ele>3.8</ele>
        <time>2019-05-30T14:36:44.000Z</time>
      </trkpt>
      <trkpt lat="43.53274" lon="4.13904">
        <ele>2.8</ele>
        <time>2019-05-30T14:36:49.000Z</time>
      </trkpt>
      <trkpt lat="43.53259" lon="4.13919">
        <ele>2.78</ele>
        <time>2019-05-30T14:36:54.000Z</time>
      </trkpt>
      <trkpt lat="43.53245" lon="4.13932">
        <ele>2.78</ele>
        <time>2019-05-30T14:36:59.000Z</time>
      </trkpt>
      <trkpt lat="43.5323" lon="4.13947">
        <ele>3.72</ele>
        <time>2019-05-30T14:37:04.000Z</time>
      </trkpt>
      <trkpt lat="43.53215" lon="4.13961">
        <ele>2.79</ele>
        <time>2019-05-30T14:37:09.000Z</time>
      </trkpt>
      <trkpt lat="43.53199" lon="4.13975">
        <ele>3.78</ele>
        <time>2019-05-30T14:37:14.000Z</time>
      </trkpt>
      <trkpt lat="43.53186" lon="4.13986">
        <ele>3.97</ele>
        <time>2019-05-30T14:37:19.000Z</time>
      </trkpt>
      <trkpt lat="43.53172" lon="4.14001">
        <ele>3.59</ele>
        <time>2019-05-30T14:37:24.000Z</time>
      </trkpt>
      <trkpt lat="43.53158" lon="4.14014">
        <ele>3.78</ele>
        <time>2019-05-30T14:37:29.000Z</time>
      </trkpt>
      <trkpt lat="43.53148" lon="4.14017">
        <ele>2.84</ele>
        <time>2019-05-30T14:37:35.000Z</time>
      </trkpt>
      <trkpt lat="43.53138" lon="4.14018">
        <ele>2.8</ele>
        <time>2019-05-30T14:37:50.000Z</time>
      </trkpt>
      <trkpt lat="43.53124" lon="4.14033">
        <ele>1.8</ele>
        <time>2019-05-30T14:37:55.000Z</time>
      </trkpt>
      <trkpt lat="43.53106" lon="4.14048">
        <ele>0.99</ele>
        <time>2019-05-30T14:38:00.000Z</time>
      </trkpt>
      <trkpt lat="43.53085" lon="4.14064">
        <ele>1.77</ele>
        <time>2019-05-30T14:38:05.000Z</time>
      </trkpt>
      <trkpt lat="43.53066" lon="4.1408">
        <ele>1.78</ele>
        <time>2019-05-30T14:38:10.000Z</time>
      </trkpt>
      <trkpt lat="43.53046" lon="4.14095">
        <ele>2.02</ele>
        <time>2019-05-30T14:38:15.000Z</time>
      </trkpt>
      <trkpt lat="43.53025" lon="4.14106">
        <ele>0.04</ele>
        <time>2019-05-30T14:38:20.000Z</time>
      </trkpt>
      <trkpt lat="43.53003" lon="4.14117">
        <ele>1.53</ele>
        <time>2019-05-30T14:38:25.000Z</time>
      </trkpt>
      <trkpt lat="43.52984" lon="4.14125">
        <ele>2.77</ele>
        <time>2019-05-30T14:38:30.000Z</time>
      </trkpt>
      <trkpt lat="43.52963" lon="4.14137">
        <ele>1.78</ele>
        <time>2019-05-30T14:38:35.000Z</time>
      </trkpt>
      <trkpt lat="43.52942" lon="4.14132">
        <ele>4.47</ele>
        <time>2019-05-30T14:38:40.000Z</time>
      </trkpt>
      <trkpt lat="43.52919" lon="4.14131">
        <ele>4.79</ele>
        <time>2019-05-30T14:38:45.000Z</time>
      </trkpt>
      <trkpt lat="43.52898" lon="4.14122">
        <ele>4.83</ele>
        <time>2019-05-30T14:38:50.000Z</time>
      </trkpt>
      <trkpt lat="43.52882" lon="4.14101">
        <ele>4.78</ele>
        <time>2019-05-30T14:38:55.000Z</time>
      </trkpt>
      <trkpt lat="43.52867" lon="4.14082">
        <ele>4.6</ele>
        <time>2019-05-30T14:39:00.000Z</time>
      </trkpt>
      <trkpt lat="43.52845" lon="4.14074">
        <ele>3.04</ele>
        <time>2019-05-30T14:39:05.000Z</time>
      </trkpt>
      <trkpt lat="43.52829" lon="4.14058">
        <ele>0.04</ele>
        <time>2019-05-30T14:39:10.000Z</time>
      </trkpt>
      <trkpt lat="43.52817" lon="4.14034">
        <ele>2</ele>
        <time>2019-05-30T14:39:15.000Z</time>
      </trkpt>
      <trkpt lat="43.52808" lon="4.14016">
        <ele>0.78</ele>
        <time>2019-05-30T14:39:20.000Z</time>
      </trkpt>
      <trkpt lat="43.52789" lon="4.14014">
        <ele>1.53</ele>
        <time>2019-05-30T14:39:25.000Z</time>
      </trkpt>
      <trkpt lat="43.52771" lon="4.14011">
        <ele>1.78</ele>
        <time>2019-05-30T14:39:30.000Z</time>
      </trkpt>
      <trkpt lat="43.52757" lon="4.14009">
        <ele>1.77</ele>
        <time>2019-05-30T14:39:35.000Z</time>
      </trkpt>
      <trkpt lat="43.52746" lon="4.14001">
        <ele>2.78</ele>
        <time>2019-05-30T14:39:40.000Z</time>
      </trkpt>
      <trkpt lat="43.52736" lon="4.13987">
        <ele>2.78</ele>
        <time>2019-05-30T14:39:45.000Z</time>
      </trkpt>
      <trkpt lat="43.52722" lon="4.13982">
        <ele>2.6</ele>
        <time>2019-05-30T14:39:50.000Z</time>
      </trkpt>
      <trkpt lat="43.52712" lon="4.13976">
        <ele>1.85</ele>
        <time>2019-05-30T14:39:55.000Z</time>
      </trkpt>
      <trkpt lat="43.52704" lon="4.1397">
        <ele>2.78</ele>
        <time>2019-05-30T14:40:01.000Z</time>
      </trkpt>
      <trkpt lat="43.52692" lon="4.13959">
        <ele>2.84</ele>
        <time>2019-05-30T14:40:06.000Z</time>
      </trkpt>
      <trkpt lat="43.52677" lon="4.13953">
        <ele>3.72</ele>
        <time>2019-05-30T14:40:11.000Z</time>
      </trkpt>
      <trkpt lat="43.52667" lon="4.13957">
        <ele>2.99</ele>
        <time>2019-05-30T14:40:25.000Z</time>
      </trkpt>
      <trkpt lat="43.52658" lon="4.13974">
        <ele>1.79</ele>
        <time>2019-05-30T14:40:30.000Z</time>
      </trkpt>
      <trkpt lat="43.52655" lon="4.13997">
        <ele>1.8</ele>
        <time>2019-05-30T14:40:35.000Z</time>
      </trkpt>
      <trkpt lat="43.52656" lon="4.14019">
        <ele>3.72</ele>
        <time>2019-05-30T14:40:40.000Z</time>
      </trkpt>
      <trkpt lat="43.52663" lon="4.14041">
        <ele>4.53</ele>
        <time>2019-05-30T14:40:45.000Z</time>
      </trkpt>
      <trkpt lat="43.52664" lon="4.14054">
        <ele>5.58</ele>
        <time>2019-05-30T14:40:50.000Z</time>
      </trkpt>
      <trkpt lat="43.52654" lon="4.14053">
        <ele>5.08</ele>
        <time>2019-05-30T14:40:56.000Z</time>
      </trkpt>
      <trkpt lat="43.52643" lon="4.14064">
        <ele>4.79</ele>
        <time>2019-05-30T14:41:01.000Z</time>
      </trkpt>
      <trkpt lat="43.52633" lon="4.14074">
        <ele>4</ele>
        <time>2019-05-30T14:41:06.000Z</time>
      </trkpt>
      <trkpt lat="43.52623" lon="4.14095">
        <ele>5</ele>
        <time>2019-05-30T14:41:11.000Z</time>
      </trkpt>
      <trkpt lat="43.52613" lon="4.14118">
        <ele>5</ele>
        <time>2019-05-30T14:41:16.000Z</time>
      </trkpt>
      <trkpt lat="43.52606" lon="4.14139">
        <ele>4</ele>
        <time>2019-05-30T14:41:21.000Z</time>
      </trkpt>
      <trkpt lat="43.52598" lon="4.14164">
        <ele>4</ele>
        <time>2019-05-30T14:41:26.000Z</time>
      </trkpt>
      <trkpt lat="43.52587" lon="4.14177">
        <ele>4</ele>
        <time>2019-05-30T14:41:31.000Z</time>
      </trkpt>
      <trkpt lat="43.52591" lon="4.1419">
        <ele>0.89</ele>
        <time>2019-05-30T14:41:56.000Z</time>
      </trkpt>
      <trkpt lat="43.52575" lon="4.14198">
        <ele>5</ele>
        <time>2019-05-30T14:42:01.000Z</time>
      </trkpt>
      <trkpt lat="43.52554" lon="4.142">
        <ele>1.47</ele>
        <time>2019-05-30T14:42:06.000Z</time>
      </trkpt>
      <trkpt lat="43.52533" lon="4.1419">
        <ele>0.83</ele>
        <time>2019-05-30T14:42:11.000Z</time>
      </trkpt>
      <trkpt lat="43.52517" lon="4.14165">
        <ele>0.28</ele>
        <time>2019-05-30T14:42:16.000Z</time>
      </trkpt>
      <trkpt lat="43.52497" lon="4.14142">
        <ele>0.6</ele>
        <time>2019-05-30T14:42:21.000Z</time>
      </trkpt>
      <trkpt lat="43.52478" lon="4.14118">
        <ele>2.53</ele>
        <time>2019-05-30T14:42:26.000Z</time>
      </trkpt>
      <trkpt lat="43.52458" lon="4.14093">
        <ele>3.77</ele>
        <time>2019-05-30T14:42:31.000Z</time>
      </trkpt>
      <trkpt lat="43.52437" lon="4.14071">
        <ele>2.1</ele>
        <time>2019-05-30T14:42:36.000Z</time>
      </trkpt>
      <trkpt lat="43.52414" lon="4.14054">
        <ele>5</ele>
        <time>2019-05-30T14:42:41.000Z</time>
      </trkpt>
      <trkpt lat="43.52389" lon="4.14039">
        <ele>1.84</ele>
        <time>2019-05-30T14:42:46.000Z</time>
      </trkpt>
      <trkpt lat="43.52366" lon="4.14028">
        <ele>0.29</ele>
        <time>2019-05-30T14:42:51.000Z</time>
      </trkpt>
      <trkpt lat="43.52339" lon="4.14039">
        <ele>0.79</ele>
        <time>2019-05-30T14:42:56.000Z</time>
      </trkpt>
      <trkpt lat="43.52319" lon="4.14066">
        <ele>1.78</ele>
        <time>2019-05-30T14:43:01.000Z</time>
      </trkpt>
      <trkpt lat="43.52294" lon="4.1407">
        <ele>2.79</ele>
        <time>2019-05-30T14:43:06.000Z</time>
      </trkpt>
      <trkpt lat="43.52271" lon="4.14089">
        <ele>2.04</ele>
        <time>2019-05-30T14:43:11.000Z</time>
      </trkpt>
      <trkpt lat="43.52264" lon="4.14122">
        <ele>2.54</ele>
        <time>2019-05-30T14:43:16.000Z</time>
      </trkpt>
      <trkpt lat="43.52265" lon="4.14143">
        <ele>2.79</ele>
        <time>2019-05-30T14:43:21.000Z</time>
      </trkpt>
      <trkpt lat="43.52272" lon="4.14153">
        <ele>1.79</ele>
        <time>2019-05-30T14:43:50.000Z</time>
      </trkpt>
      <trkpt lat="43.52285" lon="4.14171">
        <ele>2.54</ele>
        <time>2019-05-30T14:43:55.000Z</time>
      </trkpt>
      <trkpt lat="43.52297" lon="4.14194">
        <ele>2.74</ele>
        <time>2019-05-30T14:44:00.000Z</time>
      </trkpt>
      <trkpt lat="43.52285" lon="4.14224">
        <ele>1.05</ele>
        <time>2019-05-30T14:44:05.000Z</time>
      </trkpt>
      <trkpt lat="43.52275" lon="4.14258">
        <ele>0.79</ele>
        <time>2019-05-30T14:44:10.000Z</time>
      </trkpt>
      <trkpt lat="43.52256" lon="4.14279">
        <ele>0.79</ele>
        <time>2019-05-30T14:44:15.000Z</time>
      </trkpt>
      <trkpt lat="43.5223" lon="4.14292">
        <ele>0.79</ele>
        <time>2019-05-30T14:44:20.000Z</time>
      </trkpt>
      <trkpt lat="43.52205" lon="4.14303">
        <ele>1.79</ele>
        <time>2019-05-30T14:44:25.000Z</time>
      </trkpt>
      <trkpt lat="43.5218" lon="4.14312">
        <ele>1.79</ele>
        <time>2019-05-30T14:44:30.000Z</time>
      </trkpt>
      <trkpt lat="43.52167" lon="4.14341">
        <ele>0.8</ele>
        <time>2019-05-30T14:44:35.000Z</time>
      </trkpt>
      <trkpt lat="43.52159" lon="4.14368">
        <ele>1.59</ele>
        <time>2019-05-30T14:44:40.000Z</time>
      </trkpt>
      <trkpt lat="43.52151" lon="4.14393">
        <ele>1.79</ele>
        <time>2019-05-30T14:44:45.000Z</time>
      </trkpt>
      <trkpt lat="43.52144" lon="4.14411">
        <ele>0.79</ele>
        <time>2019-05-30T14:44:50.000Z</time>
      </trkpt>
      <trkpt lat="43.52151" lon="4.14403">
        <ele>2.05</ele>
        <time>2019-05-30T14:45:08.000Z</time>
      </trkpt>
      <trkpt lat="43.52161" lon="4.1437">
        <ele>0.79</ele>
        <time>2019-05-30T14:45:13.000Z</time>
      </trkpt>
      <trkpt lat="43.52173" lon="4.14341">
        <ele>2</ele>
        <time>2019-05-30T14:45:18.000Z</time>
      </trkpt>
      <trkpt lat="43.52188" lon="4.14318">
        <ele>2</ele>
        <time>2019-05-30T14:45:23.000Z</time>
      </trkpt>
      <trkpt lat="43.52212" lon="4.14308">
        <ele>0.49</ele>
        <time>2019-05-30T14:45:28.000Z</time>
      </trkpt>
      <trkpt lat="43.52235" lon="4.14297">
        <ele>2.72</ele>
        <time>2019-05-30T14:45:33.000Z</time>
      </trkpt>
      <trkpt lat="43.52259" lon="4.14285">
        <ele>2.77</ele>
        <time>2019-05-30T14:45:38.000Z</time>
      </trkpt>
      <trkpt lat="43.52276" lon="4.14264">
        <ele>1.86</ele>
        <time>2019-05-30T14:45:43.000Z</time>
      </trkpt>
      <trkpt lat="43.52284" lon="4.14234">
        <ele>2.79</ele>
        <time>2019-05-30T14:45:48.000Z</time>
      </trkpt>
      <trkpt lat="43.52296" lon="4.14204">
        <ele>2.79</ele>
        <time>2019-05-30T14:45:53.000Z</time>
      </trkpt>
      <trkpt lat="43.52305" lon="4.14181">
        <ele>2.6</ele>
        <time>2019-05-30T14:45:58.000Z</time>
      </trkpt>
      <trkpt lat="43.52325" lon="4.14178">
        <ele>1.79</ele>
        <time>2019-05-30T14:46:03.000Z</time>
      </trkpt>
      <trkpt lat="43.52339" lon="4.14208">
        <ele>4</ele>
        <time>2019-05-30T14:46:08.000Z</time>
      </trkpt>
      <trkpt lat="43.52352" lon="4.14239">
        <ele>4</ele>
        <time>2019-05-30T14:46:13.000Z</time>
      </trkpt>
      <trkpt lat="43.52365" lon="4.1427">
        <ele>4</ele>
        <time>2019-05-30T14:46:18.000Z</time>
      </trkpt>
      <trkpt lat="43.52371" lon="4.14306">
        <ele>4</ele>
        <time>2019-05-30T14:46:23.000Z</time>
      </trkpt>
      <trkpt lat="43.52379" lon="4.14342">
        <ele>4</ele>
        <time>2019-05-30T14:46:28.000Z</time>
      </trkpt>
      <trkpt lat="43.52387" lon="4.14377">
        <ele>4</ele>
        <time>2019-05-30T14:46:33.000Z</time>
      </trkpt>
      <trkpt lat="43.52396" lon="4.14414">
        <ele>3</ele>
        <time>2019-05-30T14:46:38.000Z</time>
      </trkpt>
      <trkpt lat="43.52404" lon="4.14454">
        <ele>0.54</ele>
        <time>2019-05-30T14:46:43.000Z</time>
      </trkpt>
      <trkpt lat="43.52413" lon="4.14494">
        <ele>2</ele>
        <time>2019-05-30T14:46:48.000Z</time>
      </trkpt>
      <trkpt lat="43.52421" lon="4.14531">
        <ele>2</ele>
        <time>2019-05-30T14:46:53.000Z</time>
      </trkpt>
      <trkpt lat="43.5243" lon="4.14567">
        <ele>2</ele>
        <time>2019-05-30T14:46:58.000Z</time>
      </trkpt>
      <trkpt lat="43.52438" lon="4.14604">
        <ele>3</ele>
        <time>2019-05-30T14:47:03.000Z</time>
      </trkpt>
      <trkpt lat="43.52446" lon="4.14641">
        <ele>3</ele>
        <time>2019-05-30T14:47:08.000Z</time>
      </trkpt>
      <trkpt lat="43.52454" lon="4.14676">
        <ele>4</ele>
        <time>2019-05-30T14:47:13.000Z</time>
      </trkpt>
      <trkpt lat="43.52464" lon="4.14712">
        <ele>4</ele>
        <time>2019-05-30T14:47:18.000Z</time>
      </trkpt>
      <trkpt lat="43.52475" lon="4.14746">
        <ele>4</ele>
        <time>2019-05-30T14:47:23.000Z</time>
      </trkpt>
      <trkpt lat="43.52487" lon="4.14777">
        <ele>3</ele>
        <time>2019-05-30T14:47:28.000Z</time>
      </trkpt>
      <trkpt lat="43.525" lon="4.14809">
        <ele>2</ele>
        <time>2019-05-30T14:47:33.000Z</time>
      </trkpt>
      <trkpt lat="43.52513" lon="4.14837">
        <ele>3</ele>
        <time>2019-05-30T14:47:38.000Z</time>
      </trkpt>
      <trkpt lat="43.52527" lon="4.14864">
        <ele>3</ele>
        <time>2019-05-30T14:47:43.000Z</time>
      </trkpt>
      <trkpt lat="43.52541" lon="4.14891">
        <ele>3</ele>
        <time>2019-05-30T14:47:48.000Z</time>
      </trkpt>
      <trkpt lat="43.52558" lon="4.14917">
        <ele>3</ele>
        <time>2019-05-30T14:47:53.000Z</time>
      </trkpt>
      <trkpt lat="43.52577" lon="4.14939">
        <ele>3</ele>
        <time>2019-05-30T14:47:58.000Z</time>
      </trkpt>
      <trkpt lat="43.52586" lon="4.14966">
        <ele>4</ele>
        <time>2019-05-30T14:48:03.000Z</time>
      </trkpt>
      <trkpt lat="43.52589" lon="4.14995">
        <ele>4</ele>
        <time>2019-05-30T14:48:08.000Z</time>
      </trkpt>
      <trkpt lat="43.52577" lon="4.15021">
        <ele>3</ele>
        <time>2019-05-30T14:48:13.000Z</time>
      </trkpt>
      <trkpt lat="43.52553" lon="4.15032">
        <ele>0.54</ele>
        <time>2019-05-30T14:48:18.000Z</time>
      </trkpt>
      <trkpt lat="43.52528" lon="4.15029">
        <ele>0.74</ele>
        <time>2019-05-30T14:48:23.000Z</time>
      </trkpt>
      <trkpt lat="43.52508" lon="4.15003">
        <ele>0.79</ele>
        <time>2019-05-30T14:48:28.000Z</time>
      </trkpt>
      <trkpt lat="43.52487" lon="4.15004">
        <ele>1.04</ele>
        <time>2019-05-30T14:48:33.000Z</time>
      </trkpt>
      <trkpt lat="43.52463" lon="4.14992">
        <ele>0.98</ele>
        <time>2019-05-30T14:48:38.000Z</time>
      </trkpt>
      <trkpt lat="43.52438" lon="4.14978">
        <ele>2.72</ele>
        <time>2019-05-30T14:48:43.000Z</time>
      </trkpt>
      <trkpt lat="43.52412" lon="4.14963">
        <ele>3.77</ele>
        <time>2019-05-30T14:48:48.000Z</time>
      </trkpt>
      <trkpt lat="43.52385" lon="4.14947">
        <ele>4.53</ele>
        <time>2019-05-30T14:48:53.000Z</time>
      </trkpt>
      <trkpt lat="43.52358" lon="4.14932">
        <ele>3.04</ele>
        <time>2019-05-30T14:48:58.000Z</time>
      </trkpt>
      <trkpt lat="43.52333" lon="4.14917">
        <ele>1.85</ele>
        <time>2019-05-30T14:49:03.000Z</time>
      </trkpt>
      <trkpt lat="43.52307" lon="4.1491">
        <ele>0.8</ele>
        <time>2019-05-30T14:49:08.000Z</time>
      </trkpt>
      <trkpt lat="43.52285" lon="4.14916">
        <ele>1.73</ele>
        <time>2019-05-30T14:49:13.000Z</time>
      </trkpt>
      <trkpt lat="43.52271" lon="4.14929">
        <ele>0.8</ele>
        <time>2019-05-30T14:49:18.000Z</time>
      </trkpt>
      <trkpt lat="43.52255" lon="4.14941">
        <ele>0.79</ele>
        <time>2019-05-30T14:49:23.000Z</time>
      </trkpt>
      <trkpt lat="43.52232" lon="4.1495">
        <ele>1</ele>
        <time>2019-05-30T14:49:28.000Z</time>
      </trkpt>
      <trkpt lat="43.52211" lon="4.14953">
        <ele>1</ele>
        <time>2019-05-30T14:49:33.000Z</time>
      </trkpt>
      <trkpt lat="43.52202" lon="4.14941">
        <ele>2</ele>
        <time>2019-05-30T14:49:38.000Z</time>
      </trkpt>
      <trkpt lat="43.52203" lon="4.14955">
        <ele>2</ele>
        <time>2019-05-30T14:50:20.000Z</time>
      </trkpt>
      <trkpt lat="43.52189" lon="4.1496">
        <ele>2</ele>
        <time>2019-05-30T14:50:25.000Z</time>
      </trkpt>
      <trkpt lat="43.5217" lon="4.14964">
        <ele>2</ele>
        <time>2019-05-30T14:50:30.000Z</time>
      </trkpt>
      <trkpt lat="43.52151" lon="4.14967">
        <ele>2</ele>
        <time>2019-05-30T14:50:35.000Z</time>
      </trkpt>
      <trkpt lat="43.52133" lon="4.14969">
        <ele>2</ele>
        <time>2019-05-30T14:50:40.000Z</time>
      </trkpt>
      <trkpt lat="43.52106" lon="4.14971">
        <ele>0.77</ele>
        <time>2019-05-30T14:50:45.000Z</time>
      </trkpt>
      <trkpt lat="43.52078" lon="4.14972">
        <ele>1.55</ele>
        <time>2019-05-30T14:50:50.000Z</time>
      </trkpt>
      <trkpt lat="43.52049" lon="4.14973">
        <ele>0.81</ele>
        <time>2019-05-30T14:50:55.000Z</time>
      </trkpt>
      <trkpt lat="43.52018" lon="4.14975">
        <ele>3</ele>
        <time>2019-05-30T14:51:00.000Z</time>
      </trkpt>
      <trkpt lat="43.51988" lon="4.14976">
        <ele>1.77</ele>
        <time>2019-05-30T14:51:05.000Z</time>
      </trkpt>
      <trkpt lat="43.51956" lon="4.14979">
        <ele>3.73</ele>
        <time>2019-05-30T14:51:10.000Z</time>
      </trkpt>
      <trkpt lat="43.51925" lon="4.14984">
        <ele>2.85</ele>
        <time>2019-05-30T14:51:15.000Z</time>
      </trkpt>
      <trkpt lat="43.51894" lon="4.14994">
        <ele>1.04</ele>
        <time>2019-05-30T14:51:20.000Z</time>
      </trkpt>
      <trkpt lat="43.51863" lon="4.15006">
        <ele>1.78</ele>
        <time>2019-05-30T14:51:25.000Z</time>
      </trkpt>
      <trkpt lat="43.51832" lon="4.15018">
        <ele>1.79</ele>
        <time>2019-05-30T14:51:30.000Z</time>
      </trkpt>
      <trkpt lat="43.51801" lon="4.15025">
        <ele>1.99</ele>
        <time>2019-05-30T14:51:35.000Z</time>
      </trkpt>
      <trkpt lat="43.51772" lon="4.1503">
        <ele>2.59</ele>
        <time>2019-05-30T14:51:40.000Z</time>
      </trkpt>
      <trkpt lat="43.51743" lon="4.15031">
        <ele>2.6</ele>
        <time>2019-05-30T14:51:45.000Z</time>
      </trkpt>
      <trkpt lat="43.51724" lon="4.15026">
        <ele>1.8</ele>
        <time>2019-05-30T14:51:50.000Z</time>
      </trkpt>
      <trkpt lat="43.51716" lon="4.15015">
        <ele>1.79</ele>
        <time>2019-05-30T14:51:55.000Z</time>
      </trkpt>
      <trkpt lat="43.51701" lon="4.15005">
        <ele>1.79</ele>
        <time>2019-05-30T14:52:00.000Z</time>
      </trkpt>
      <trkpt lat="43.51682" lon="4.15012">
        <ele>2.79</ele>
        <time>2019-05-30T14:52:05.000Z</time>
      </trkpt>
      <trkpt lat="43.51663" lon="4.15035">
        <ele>0.86</ele>
        <time>2019-05-30T14:52:10.000Z</time>
      </trkpt>
      <trkpt lat="43.51638" lon="4.1503">
        <ele>1.78</ele>
        <time>2019-05-30T14:52:15.000Z</time>
      </trkpt>
      <trkpt lat="43.51609" lon="4.15025">
        <ele>1.75</ele>
        <time>2019-05-30T14:52:20.000Z</time>
      </trkpt>
      <trkpt lat="43.51581" lon="4.1502">
        <ele>2.79</ele>
        <time>2019-05-30T14:52:25.000Z</time>
      </trkpt>
      <trkpt lat="43.51551" lon="4.15013">
        <ele>2.61</ele>
        <time>2019-05-30T14:52:30.000Z</time>
      </trkpt>
      <trkpt lat="43.51524" lon="4.15">
        <ele>4.78</ele>
        <time>2019-05-30T14:52:35.000Z</time>
      </trkpt>
      <trkpt lat="43.51497" lon="4.14984">
        <ele>4.66</ele>
        <time>2019-05-30T14:52:40.000Z</time>
      </trkpt>
      <trkpt lat="43.51471" lon="4.14961">
        <ele>4.75</ele>
        <time>2019-05-30T14:52:45.000Z</time>
      </trkpt>
      <trkpt lat="43.51447" lon="4.14938">
        <ele>5.79</ele>
        <time>2019-05-30T14:52:50.000Z</time>
      </trkpt>
      <trkpt lat="43.51421" lon="4.14914">
        <ele>4.81</ele>
        <time>2019-05-30T14:52:55.000Z</time>
      </trkpt>
      <trkpt lat="43.51395" lon="4.1489">
        <ele>4.78</ele>
        <time>2019-05-30T14:53:00.000Z</time>
      </trkpt>
      <trkpt lat="43.51369" lon="4.14866">
        <ele>3</ele>
        <time>2019-05-30T14:53:05.000Z</time>
      </trkpt>
      <trkpt lat="43.51344" lon="4.14842">
        <ele>2.79</ele>
        <time>2019-05-30T14:53:10.000Z</time>
      </trkpt>
      <trkpt lat="43.51318" lon="4.14818">
        <ele>4.54</ele>
        <time>2019-05-30T14:53:15.000Z</time>
      </trkpt>
      <trkpt lat="43.51292" lon="4.14795">
        <ele>4.79</ele>
        <time>2019-05-30T14:53:20.000Z</time>
      </trkpt>
      <trkpt lat="43.51269" lon="4.14769">
        <ele>5.54</ele>
        <time>2019-05-30T14:53:25.000Z</time>
      </trkpt>
      <trkpt lat="43.51248" lon="4.14739">
        <ele>3.11</ele>
        <time>2019-05-30T14:53:30.000Z</time>
      </trkpt>
      <trkpt lat="43.51229" lon="4.14711">
        <ele>2.05</ele>
        <time>2019-05-30T14:53:35.000Z</time>
      </trkpt>
      <trkpt lat="43.51212" lon="4.14684">
        <ele>2.79</ele>
        <time>2019-05-30T14:53:40.000Z</time>
      </trkpt>
      <trkpt lat="43.51195" lon="4.14656">
        <ele>1.81</ele>
        <time>2019-05-30T14:53:45.000Z</time>
      </trkpt>
      <trkpt lat="43.51183" lon="4.14634">
        <ele>3.54</ele>
        <time>2019-05-30T14:53:50.000Z</time>
      </trkpt>
      <trkpt lat="43.51175" lon="4.14624">
        <ele>3.79</ele>
        <time>2019-05-30T14:53:55.000Z</time>
      </trkpt>
      <trkpt lat="43.51167" lon="4.14615">
        <ele>3.04</ele>
        <time>2019-05-30T14:54:00.000Z</time>
      </trkpt>
      <trkpt lat="43.51156" lon="4.14606">
        <ele>2.81</ele>
        <time>2019-05-30T14:54:05.000Z</time>
      </trkpt>
      <trkpt lat="43.51145" lon="4.146">
        <ele>1.86</ele>
        <time>2019-05-30T14:54:10.000Z</time>
      </trkpt>
      <trkpt lat="43.51126" lon="4.14595">
        <ele>1.85</ele>
        <time>2019-05-30T14:54:15.000Z</time>
      </trkpt>
      <trkpt lat="43.51102" lon="4.14593">
        <ele>0.03</ele>
        <time>2019-05-30T14:54:20.000Z</time>
      </trkpt>
      <trkpt lat="43.51079" lon="4.14591">
        <ele>0.79</ele>
        <time>2019-05-30T14:54:25.000Z</time>
      </trkpt>
      <trkpt lat="43.51055" lon="4.14588">
        <ele>0.84</ele>
        <time>2019-05-30T14:54:30.000Z</time>
      </trkpt>
      <trkpt lat="43.5103" lon="4.14586">
        <ele>0.06</ele>
        <time>2019-05-30T14:54:35.000Z</time>
      </trkpt>
      <trkpt lat="43.51005" lon="4.14583">
        <ele>1</ele>
        <time>2019-05-30T14:54:40.000Z</time>
      </trkpt>
      <trkpt lat="43.50983" lon="4.1458">
        <ele>0.73</ele>
        <time>2019-05-30T14:54:45.000Z</time>
      </trkpt>
      <trkpt lat="43.50958" lon="4.14574">
        <ele>1</ele>
        <time>2019-05-30T14:54:50.000Z</time>
      </trkpt>
      <trkpt lat="43.50934" lon="4.14567">
        <ele>0.79</ele>
        <time>2019-05-30T14:54:55.000Z</time>
      </trkpt>
      <trkpt lat="43.50909" lon="4.14561">
        <ele>1</ele>
        <time>2019-05-30T14:55:00.000Z</time>
      </trkpt>
      <trkpt lat="43.50884" lon="4.14553">
        <ele>2</ele>
        <time>2019-05-30T14:55:05.000Z</time>
      </trkpt>
      <trkpt lat="43.50877" lon="4.14537">
        <ele>0.72</ele>
        <time>2019-05-30T14:55:10.000Z</time>
      </trkpt>
      <trkpt lat="43.50878" lon="4.14521">
        <ele>0.8</ele>
        <time>2019-05-30T14:55:15.000Z</time>
      </trkpt>
      <trkpt lat="43.50868" lon="4.14525">
        <ele>3.48</ele>
        <time>2019-05-30T14:55:43.000Z</time>
      </trkpt>
      <trkpt lat="43.50861" lon="4.14512">
        <ele>1.8</ele>
        <time>2019-05-30T14:55:48.000Z</time>
      </trkpt>
      <trkpt lat="43.50857" lon="4.14498">
        <ele>1.8</ele>
        <time>2019-05-30T14:56:08.000Z</time>
      </trkpt>
      <trkpt lat="43.50855" lon="4.14476">
        <ele>2.55</ele>
        <time>2019-05-30T14:56:13.000Z</time>
      </trkpt>
      <trkpt lat="43.50852" lon="4.14449">
        <ele>1.05</ele>
        <time>2019-05-30T14:56:18.000Z</time>
      </trkpt>
      <trkpt lat="43.50855" lon="4.14431">
        <ele>0.98</ele>
        <time>2019-05-30T14:56:23.000Z</time>
      </trkpt>
      <trkpt lat="43.50857" lon="4.14406">
        <ele>2</ele>
        <time>2019-05-30T14:56:28.000Z</time>
      </trkpt>
      <trkpt lat="43.5086" lon="4.14373">
        <ele>2</ele>
        <time>2019-05-30T14:56:33.000Z</time>
      </trkpt>
      <trkpt lat="43.5086" lon="4.14339">
        <ele>2</ele>
        <time>2019-05-30T14:56:38.000Z</time>
      </trkpt>
      <trkpt lat="43.50858" lon="4.14303">
        <ele>2</ele>
        <time>2019-05-30T14:56:43.000Z</time>
      </trkpt>
      <trkpt lat="43.50856" lon="4.14267">
        <ele>2</ele>
        <time>2019-05-30T14:56:48.000Z</time>
      </trkpt>
      <trkpt lat="43.50854" lon="4.1423">
        <ele>2</ele>
        <time>2019-05-30T14:56:53.000Z</time>
      </trkpt>
      <trkpt lat="43.5085" lon="4.14192">
        <ele>3</ele>
        <time>2019-05-30T14:56:58.000Z</time>
      </trkpt>
      <trkpt lat="43.50849" lon="4.14157">
        <ele>2</ele>
        <time>2019-05-30T14:57:03.000Z</time>
      </trkpt>
      <trkpt lat="43.50848" lon="4.14122">
        <ele>2</ele>
        <time>2019-05-30T14:57:08.000Z</time>
      </trkpt>
      <trkpt lat="43.50845" lon="4.14087">
        <ele>1</ele>
        <time>2019-05-30T14:57:13.000Z</time>
      </trkpt>
      <trkpt lat="43.50843" lon="4.14049">
        <ele>2</ele>
        <time>2019-05-30T14:57:18.000Z</time>
      </trkpt>
      <trkpt lat="43.50841" lon="4.14015">
        <ele>2</ele>
        <time>2019-05-30T14:57:23.000Z</time>
      </trkpt>
      <trkpt lat="43.5084" lon="4.13984">
        <ele>2</ele>
        <time>2019-05-30T14:57:28.000Z</time>
      </trkpt>
      <trkpt lat="43.50843" lon="4.13963">
        <ele>2</ele>
        <time>2019-05-30T14:57:33.000Z</time>
      </trkpt>
      <trkpt lat="43.50841" lon="4.13947">
        <ele>2</ele>
        <time>2019-05-30T14:57:38.000Z</time>
      </trkpt>
      <trkpt lat="43.50841" lon="4.13961">
        <ele>2.78</ele>
        <time>2019-05-30T14:58:19.000Z</time>
      </trkpt>
      <trkpt lat="43.50844" lon="4.13982">
        <ele>0.86</ele>
        <time>2019-05-30T14:58:24.000Z</time>
      </trkpt>
      <trkpt lat="43.50839" lon="4.14006">
        <ele>0.05</ele>
        <time>2019-05-30T14:58:29.000Z</time>
      </trkpt>
      <trkpt lat="43.50841" lon="4.14036">
        <ele>2</ele>
        <time>2019-05-30T14:58:34.000Z</time>
      </trkpt>
      <trkpt lat="43.50843" lon="4.14069">
        <ele>0.55</ele>
        <time>2019-05-30T14:58:39.000Z</time>
      </trkpt>
      <trkpt lat="43.50845" lon="4.14101">
        <ele>2</ele>
        <time>2019-05-30T14:58:44.000Z</time>
      </trkpt>
      <trkpt lat="43.50847" lon="4.14136">
        <ele>2</ele>
        <time>2019-05-30T14:58:49.000Z</time>
      </trkpt>
      <trkpt lat="43.50848" lon="4.1417">
        <ele>0.55</ele>
        <time>2019-05-30T14:58:54.000Z</time>
      </trkpt>
      <trkpt lat="43.5085" lon="4.14205">
        <ele>0.79</ele>
        <time>2019-05-30T14:58:59.000Z</time>
      </trkpt>
      <trkpt lat="43.50852" lon="4.1424">
        <ele>2</ele>
        <time>2019-05-30T14:59:04.000Z</time>
      </trkpt>
      <trkpt lat="43.50854" lon="4.14275">
        <ele>2</ele>
        <time>2019-05-30T14:59:09.000Z</time>
      </trkpt>
      <trkpt lat="43.50856" lon="4.14307">
        <ele>2</ele>
        <time>2019-05-30T14:59:14.000Z</time>
      </trkpt>
      <trkpt lat="43.50857" lon="4.14339">
        <ele>2</ele>
        <time>2019-05-30T14:59:19.000Z</time>
      </trkpt>
      <trkpt lat="43.50857" lon="4.14372">
        <ele>0.48</ele>
        <time>2019-05-30T14:59:24.000Z</time>
      </trkpt>
      <trkpt lat="43.50856" lon="4.14406">
        <ele>2</ele>
        <time>2019-05-30T14:59:29.000Z</time>
      </trkpt>
      <trkpt lat="43.50852" lon="4.14438">
        <ele>3</ele>
        <time>2019-05-30T14:59:34.000Z</time>
      </trkpt>
      <trkpt lat="43.50851" lon="4.14469">
        <ele>3</ele>
        <time>2019-05-30T14:59:39.000Z</time>
      </trkpt>
      <trkpt lat="43.50855" lon="4.145">
        <ele>2</ele>
        <time>2019-05-30T14:59:44.000Z</time>
      </trkpt>
      <trkpt lat="43.50853" lon="4.14515">
        <ele>0.73</ele>
        <time>2019-05-30T14:59:49.000Z</time>
      </trkpt>
      <trkpt lat="43.5084" lon="4.1452">
        <ele>0.8</ele>
        <time>2019-05-30T14:59:54.000Z</time>
      </trkpt>
      <trkpt lat="43.50832" lon="4.14535">
        <ele>0.8</ele>
        <time>2019-05-30T14:59:59.000Z</time>
      </trkpt>
      <trkpt lat="43.50825" lon="4.14549">
        <ele>0.98</ele>
        <time>2019-05-30T15:00:04.000Z</time>
      </trkpt>
      <trkpt lat="43.50813" lon="4.1456">
        <ele>2.53</ele>
        <time>2019-05-30T15:00:09.000Z</time>
      </trkpt>
      <trkpt lat="43.50787" lon="4.14557">
        <ele>2.55</ele>
        <time>2019-05-30T15:00:14.000Z</time>
      </trkpt>
      <trkpt lat="43.50764" lon="4.14554">
        <ele>2.86</ele>
        <time>2019-05-30T15:00:19.000Z</time>
      </trkpt>
      <trkpt lat="43.50744" lon="4.14552">
        <ele>2.11</ele>
        <time>2019-05-30T15:00:24.000Z</time>
      </trkpt>
      <trkpt lat="43.50735" lon="4.14538">
        <ele>2.55</ele>
        <time>2019-05-30T15:00:29.000Z</time>
      </trkpt>
      <trkpt lat="43.50724" lon="4.14534">
        <ele>2.55</ele>
        <time>2019-05-30T15:00:34.000Z</time>
      </trkpt>
      <trkpt lat="43.50731" lon="4.14541">
        <ele>4.48</ele>
        <time>2019-05-30T15:01:05.000Z</time>
      </trkpt>
      <trkpt lat="43.5074" lon="4.14537">
        <ele>6.78</ele>
        <time>2019-05-30T15:01:12.000Z</time>
      </trkpt>
      <trkpt lat="43.50738" lon="4.1455">
        <ele>4.05</ele>
        <time>2019-05-30T15:01:23.000Z</time>
      </trkpt>
      <trkpt lat="43.50728" lon="4.14554">
        <ele>2.8</ele>
        <time>2019-05-30T15:01:28.000Z</time>
      </trkpt>
      <trkpt lat="43.50706" lon="4.14548">
        <ele>2.86</ele>
        <time>2019-05-30T15:01:33.000Z</time>
      </trkpt>
      <trkpt lat="43.5068" lon="4.14543">
        <ele>2.78</ele>
        <time>2019-05-30T15:01:38.000Z</time>
      </trkpt>
      <trkpt lat="43.50658" lon="4.14537">
        <ele>1.79</ele>
        <time>2019-05-30T15:01:43.000Z</time>
      </trkpt>
      <trkpt lat="43.50635" lon="4.14532">
        <ele>1.8</ele>
        <time>2019-05-30T15:01:48.000Z</time>
      </trkpt>
      <trkpt lat="43.50611" lon="4.14524">
        <ele>1.74</ele>
        <time>2019-05-30T15:01:53.000Z</time>
      </trkpt>
      <trkpt lat="43.50584" lon="4.14523">
        <ele>0.81</ele>
        <time>2019-05-30T15:01:58.000Z</time>
      </trkpt>
      <trkpt lat="43.50557" lon="4.1452">
        <ele>1</ele>
        <time>2019-05-30T15:02:03.000Z</time>
      </trkpt>
      <trkpt lat="43.50535" lon="4.14508">
        <ele>0.78</ele>
        <time>2019-05-30T15:02:08.000Z</time>
      </trkpt>
      <trkpt lat="43.50516" lon="4.1449">
        <ele>1.75</ele>
        <time>2019-05-30T15:02:13.000Z</time>
      </trkpt>
      <trkpt lat="43.50498" lon="4.14467">
        <ele>1.8</ele>
        <time>2019-05-30T15:02:18.000Z</time>
      </trkpt>
      <trkpt lat="43.50485" lon="4.14439">
        <ele>0.8</ele>
        <time>2019-05-30T15:02:23.000Z</time>
      </trkpt>
      <trkpt lat="43.50478" lon="4.14414">
        <ele>0.8</ele>
        <time>2019-05-30T15:02:28.000Z</time>
      </trkpt>
      <trkpt lat="43.50481" lon="4.14426">
        <ele>1</ele>
        <time>2019-05-30T15:02:36.000Z</time>
      </trkpt>
      <trkpt lat="43.50486" lon="4.14452">
        <ele>1</ele>
        <time>2019-05-30T15:02:41.000Z</time>
      </trkpt>
      <trkpt lat="43.50501" lon="4.14478">
        <ele>2</ele>
        <time>2019-05-30T15:02:46.000Z</time>
      </trkpt>
      <trkpt lat="43.50519" lon="4.14501">
        <ele>1</ele>
        <time>2019-05-30T15:02:51.000Z</time>
      </trkpt>
      <trkpt lat="43.50538" lon="4.14512">
        <ele>1</ele>
        <time>2019-05-30T15:02:56.000Z</time>
      </trkpt>
      <trkpt lat="43.50561" lon="4.14524">
        <ele>1</ele>
        <time>2019-05-30T15:03:01.000Z</time>
      </trkpt>
      <trkpt lat="43.50586" lon="4.1453">
        <ele>1</ele>
        <time>2019-05-30T15:03:06.000Z</time>
      </trkpt>
      <trkpt lat="43.50611" lon="4.14533">
        <ele>2</ele>
        <time>2019-05-30T15:03:11.000Z</time>
      </trkpt>
      <trkpt lat="43.50637" lon="4.14537">
        <ele>0.59</ele>
        <time>2019-05-30T15:03:16.000Z</time>
      </trkpt>
      <trkpt lat="43.50662" lon="4.14544">
        <ele>0.55</ele>
        <time>2019-05-30T15:03:21.000Z</time>
      </trkpt>
      <trkpt lat="43.5069" lon="4.1455">
        <ele>1</ele>
        <time>2019-05-30T15:03:26.000Z</time>
      </trkpt>
      <trkpt lat="43.50717" lon="4.14556">
        <ele>0.81</ele>
        <time>2019-05-30T15:03:31.000Z</time>
      </trkpt>
      <trkpt lat="43.50744" lon="4.14559">
        <ele>0.81</ele>
        <time>2019-05-30T15:03:36.000Z</time>
      </trkpt>
      <trkpt lat="43.50769" lon="4.14558">
        <ele>0.61</ele>
        <time>2019-05-30T15:03:41.000Z</time>
      </trkpt>
      <trkpt lat="43.50794" lon="4.1456">
        <ele>2</ele>
        <time>2019-05-30T15:03:46.000Z</time>
      </trkpt>
      <trkpt lat="43.50818" lon="4.14557">
        <ele>0.73</ele>
        <time>2019-05-30T15:03:51.000Z</time>
      </trkpt>
      <trkpt lat="43.50834" lon="4.1454">
        <ele>0.84</ele>
        <time>2019-05-30T15:03:56.000Z</time>
      </trkpt>
      <trkpt lat="43.50842" lon="4.14524">
        <ele>0.8</ele>
        <time>2019-05-30T15:04:01.000Z</time>
      </trkpt>
      <trkpt lat="43.50856" lon="4.14521">
        <ele>2.79</ele>
        <time>2019-05-30T15:04:06.000Z</time>
      </trkpt>
      <trkpt lat="43.50872" lon="4.14528">
        <ele>2.55</ele>
        <time>2019-05-30T15:04:11.000Z</time>
      </trkpt>
      <trkpt lat="43.50883" lon="4.14551">
        <ele>1.86</ele>
        <time>2019-05-30T15:04:16.000Z</time>
      </trkpt>
      <trkpt lat="43.50898" lon="4.14567">
        <ele>2.05</ele>
        <time>2019-05-30T15:04:21.000Z</time>
      </trkpt>
      <trkpt lat="43.50922" lon="4.14569">
        <ele>1</ele>
        <time>2019-05-30T15:04:26.000Z</time>
      </trkpt>
      <trkpt lat="43.50945" lon="4.14575">
        <ele>1</ele>
        <time>2019-05-30T15:04:31.000Z</time>
      </trkpt>
      <trkpt lat="43.50966" lon="4.14579">
        <ele>1</ele>
        <time>2019-05-30T15:04:36.000Z</time>
      </trkpt>
      <trkpt lat="43.50982" lon="4.14582">
        <ele>0.79</ele>
        <time>2019-05-30T15:04:41.000Z</time>
      </trkpt>
      <trkpt lat="43.50995" lon="4.14584">
        <ele>0.09</ele>
        <time>2019-05-30T15:04:46.000Z</time>
      </trkpt>
      <trkpt lat="43.51009" lon="4.14586">
        <ele>1.2</ele>
        <time>2019-05-30T15:04:51.000Z</time>
      </trkpt>
      <trkpt lat="43.5103" lon="4.14587">
        <ele>0.04</ele>
        <time>2019-05-30T15:04:56.000Z</time>
      </trkpt>
      <trkpt lat="43.51055" lon="4.14591">
        <ele>2</ele>
        <time>2019-05-30T15:05:01.000Z</time>
      </trkpt>
      <trkpt lat="43.5108" lon="4.14594">
        <ele>0.61</ele>
        <time>2019-05-30T15:05:06.000Z</time>
      </trkpt>
      <trkpt lat="43.51105" lon="4.14595">
        <ele>0.98</ele>
        <time>2019-05-30T15:05:11.000Z</time>
      </trkpt>
      <trkpt lat="43.51129" lon="4.14599">
        <ele>1.79</ele>
        <time>2019-05-30T15:05:16.000Z</time>
      </trkpt>
      <trkpt lat="43.51154" lon="4.14608">
        <ele>2.54</ele>
        <time>2019-05-30T15:05:21.000Z</time>
      </trkpt>
      <trkpt lat="43.51175" lon="4.14626">
        <ele>2.55</ele>
        <time>2019-05-30T15:05:26.000Z</time>
      </trkpt>
      <trkpt lat="43.51187" lon="4.14626">
        <ele>0.11</ele>
        <time>2019-05-30T15:05:31.000Z</time>
      </trkpt>
      <trkpt lat="43.51181" lon="4.14609">
        <ele>0.73</ele>
        <time>2019-05-30T15:05:36.000Z</time>
      </trkpt>
      <trkpt lat="43.51186" lon="4.14598">
        <ele>2</ele>
        <time>2019-05-30T15:06:21.000Z</time>
      </trkpt>
      <trkpt lat="43.51184" lon="4.1461">
        <ele>1.03</ele>
        <time>2019-05-30T15:07:40.000Z</time>
      </trkpt>
      <trkpt lat="43.51193" lon="4.14602">
        <ele>2</ele>
        <time>2019-05-30T15:08:14.000Z</time>
      </trkpt>
      <trkpt lat="43.51199" lon="4.14583">
        <ele>2</ele>
        <time>2019-05-30T15:08:19.000Z</time>
      </trkpt>
      <trkpt lat="43.51203" lon="4.14563">
        <ele>2</ele>
        <time>2019-05-30T15:08:24.000Z</time>
      </trkpt>
      <trkpt lat="43.51208" lon="4.14548">
        <ele>2</ele>
        <time>2019-05-30T15:08:29.000Z</time>
      </trkpt>
      <trkpt lat="43.51213" lon="4.14532">
        <ele>2</ele>
        <time>2019-05-30T15:08:34.000Z</time>
      </trkpt>
      <trkpt lat="43.51218" lon="4.14514">
        <ele>2</ele>
        <time>2019-05-30T15:08:39.000Z</time>
      </trkpt>
      <trkpt lat="43.51225" lon="4.14504">
        <ele>2</ele>
        <time>2019-05-30T15:08:44.000Z</time>
      </trkpt>
      <trkpt lat="43.51218" lon="4.14513">
        <ele>2</ele>
        <time>2019-05-30T15:09:12.000Z</time>
      </trkpt>
      <trkpt lat="43.51212" lon="4.14523">
        <ele>2</ele>
        <time>2019-05-30T15:09:17.000Z</time>
      </trkpt>
      <trkpt lat="43.51208" lon="4.14534">
        <ele>2</ele>
        <time>2019-05-30T15:09:24.000Z</time>
      </trkpt>
      <trkpt lat="43.51214" lon="4.14523">
        <ele>2</ele>
        <time>2019-05-30T15:10:18.000Z</time>
      </trkpt>
      <trkpt lat="43.5122" lon="4.14513">
        <ele>2</ele>
        <time>2019-05-30T15:10:24.000Z</time>
      </trkpt>
      <trkpt lat="43.51227" lon="4.14505">
        <ele>0.03</ele>
        <time>2019-05-30T15:10:32.000Z</time>
      </trkpt>
      <trkpt lat="43.5123" lon="4.14503">
        <ele>0.78</ele>
        <time>2019-05-30T15:12:19.000Z</time>
      </trkpt>
    </trkseg>
  </trk>
</gpx>